<?xml version="1.0" encoding="UTF-8" standalone="no" ?>
<gpx xmlns="http://www.topografix.com/GPX/1/1" xmlns:xsi="http://www.w3.org/2001/XMLSchema-instance" xsi:schemaLocation="http://www.topografix.com/GPX/1/1 http://www.topografix.com/GPX/1/1/gpx.xsd" version="1.1" creator="VisuGPX - https://www.visugpx.com">
  <metadata>
    <name>SO-SE-St Léger St Pazanne St Philbert La Chevrolière Pont ST Martin Les Couets</name>
    <desc><![CDATA[SO-SE-St Léger St Pazanne St Philbert La Chevrolière Pont ST Martin Les Couets]]></desc>
  </metadata>
  <trk>
    <name><![CDATA[2020-05-31 17:19]]></name>
    <desc><![CDATA[<p>Heure de départ: 05/31/2020 17:19<br/>Heure d'arrivée: 05/31/2020 19:52<br/>Distance: 64,1 km (02:32)<br/>Temps déplacement: 02:32<br/>Vitesse moyenne: 25,13 km/h<br/>Vitesse moyenne mouv.: 25,29 km/h<br/>Vitesse Max.: 40,16 km/h<br/>Altitude minimale: -5 m<br/>Altitude maximale: 34 m<br/>Vitesse de montée: 649,9 m/h<br/>Vitesse de descente: -706,8 m/h<br/>Gain d'altitude: 735 m<br/>Perte d'altitude: -734 m<br/>Temps de montée: 01:07<br/>Temps de descente: 01:02<br/></p><hr align="center" width="480" style="height: 2px; width: 517px"/>]]></desc>
    <trkseg>
      <trkpt lat="47.1678" lon="-1.62647">
        <ele>14.95</ele>
        <time>2020-05-31T15:19:32Z</time>
      </trkpt>
      <trkpt lat="47.16778" lon="-1.62663">
        <ele>11.33</ele>
        <time>2020-05-31T15:20:15Z</time>
      </trkpt>
      <trkpt lat="47.16767" lon="-1.62674">
        <ele>11.02</ele>
        <time>2020-05-31T15:20:18Z</time>
      </trkpt>
      <trkpt lat="47.16758" lon="-1.62669">
        <ele>11.1</ele>
        <time>2020-05-31T15:20:20Z</time>
      </trkpt>
      <trkpt lat="47.16748" lon="-1.6267">
        <ele>11.01</ele>
        <time>2020-05-31T15:20:22Z</time>
      </trkpt>
      <trkpt lat="47.16737" lon="-1.62677">
        <ele>11.73</ele>
        <time>2020-05-31T15:20:24Z</time>
      </trkpt>
      <trkpt lat="47.16726" lon="-1.62685">
        <ele>12.69</ele>
        <time>2020-05-31T15:20:26Z</time>
      </trkpt>
      <trkpt lat="47.16719" lon="-1.62696">
        <ele>13.29</ele>
        <time>2020-05-31T15:20:28Z</time>
      </trkpt>
      <trkpt lat="47.16724" lon="-1.62716">
        <ele>12.57</ele>
        <time>2020-05-31T15:20:31Z</time>
      </trkpt>
      <trkpt lat="47.16732" lon="-1.62731">
        <ele>11.99</ele>
        <time>2020-05-31T15:20:33Z</time>
      </trkpt>
      <trkpt lat="47.16741" lon="-1.62745">
        <ele>11.6</ele>
        <time>2020-05-31T15:20:35Z</time>
      </trkpt>
      <trkpt lat="47.16751" lon="-1.62759">
        <ele>11.69</ele>
        <time>2020-05-31T15:20:37Z</time>
      </trkpt>
      <trkpt lat="47.16761" lon="-1.6277">
        <ele>11.58</ele>
        <time>2020-05-31T15:20:39Z</time>
      </trkpt>
      <trkpt lat="47.16773" lon="-1.62782">
        <ele>11</ele>
        <time>2020-05-31T15:20:41Z</time>
      </trkpt>
      <trkpt lat="47.16785" lon="-1.62794">
        <ele>10.93</ele>
        <time>2020-05-31T15:20:43Z</time>
      </trkpt>
      <trkpt lat="47.16795" lon="-1.62803">
        <ele>11.27</ele>
        <time>2020-05-31T15:20:45Z</time>
      </trkpt>
      <trkpt lat="47.16807" lon="-1.62813">
        <ele>11.14</ele>
        <time>2020-05-31T15:20:47Z</time>
      </trkpt>
      <trkpt lat="47.16817" lon="-1.62822">
        <ele>11.01</ele>
        <time>2020-05-31T15:20:49Z</time>
      </trkpt>
      <trkpt lat="47.16828" lon="-1.62832">
        <ele>11.64</ele>
        <time>2020-05-31T15:20:51Z</time>
      </trkpt>
      <trkpt lat="47.16839" lon="-1.62842">
        <ele>12.07</ele>
        <time>2020-05-31T15:20:53Z</time>
      </trkpt>
      <trkpt lat="47.1685" lon="-1.62854">
        <ele>12.71</ele>
        <time>2020-05-31T15:20:55Z</time>
      </trkpt>
      <trkpt lat="47.16861" lon="-1.62865">
        <ele>13.78</ele>
        <time>2020-05-31T15:20:57Z</time>
      </trkpt>
      <trkpt lat="47.16871" lon="-1.62876">
        <ele>14.72</ele>
        <time>2020-05-31T15:20:59Z</time>
      </trkpt>
      <trkpt lat="47.16879" lon="-1.6289">
        <ele>15.97</ele>
        <time>2020-05-31T15:21:01Z</time>
      </trkpt>
      <trkpt lat="47.16885" lon="-1.62906">
        <ele>17.51</ele>
        <time>2020-05-31T15:21:03Z</time>
      </trkpt>
      <trkpt lat="47.16891" lon="-1.62924">
        <ele>18.17</ele>
        <time>2020-05-31T15:21:05Z</time>
      </trkpt>
      <trkpt lat="47.16892" lon="-1.62943">
        <ele>18.57</ele>
        <time>2020-05-31T15:21:07Z</time>
      </trkpt>
      <trkpt lat="47.16892" lon="-1.62961">
        <ele>18.17</ele>
        <time>2020-05-31T15:21:09Z</time>
      </trkpt>
      <trkpt lat="47.16891" lon="-1.62977">
        <ele>17.71</ele>
        <time>2020-05-31T15:21:11Z</time>
      </trkpt>
      <trkpt lat="47.16889" lon="-1.62995">
        <ele>17.25</ele>
        <time>2020-05-31T15:21:13Z</time>
      </trkpt>
      <trkpt lat="47.16887" lon="-1.63015">
        <ele>16.6</ele>
        <time>2020-05-31T15:21:15Z</time>
      </trkpt>
      <trkpt lat="47.16886" lon="-1.63033">
        <ele>16.3</ele>
        <time>2020-05-31T15:21:17Z</time>
      </trkpt>
      <trkpt lat="47.16886" lon="-1.63052">
        <ele>16.41</ele>
        <time>2020-05-31T15:21:19Z</time>
      </trkpt>
      <trkpt lat="47.16887" lon="-1.63072">
        <ele>16.93</ele>
        <time>2020-05-31T15:21:21Z</time>
      </trkpt>
      <trkpt lat="47.1689" lon="-1.63091">
        <ele>17.41</ele>
        <time>2020-05-31T15:21:23Z</time>
      </trkpt>
      <trkpt lat="47.16893" lon="-1.63108">
        <ele>17.97</ele>
        <time>2020-05-31T15:21:25Z</time>
      </trkpt>
      <trkpt lat="47.16897" lon="-1.63127">
        <ele>18.85</ele>
        <time>2020-05-31T15:21:27Z</time>
      </trkpt>
      <trkpt lat="47.16902" lon="-1.63143">
        <ele>19.57</ele>
        <time>2020-05-31T15:21:29Z</time>
      </trkpt>
      <trkpt lat="47.16908" lon="-1.6316">
        <ele>19.8</ele>
        <time>2020-05-31T15:21:31Z</time>
      </trkpt>
      <trkpt lat="47.16915" lon="-1.63176">
        <ele>19.91</ele>
        <time>2020-05-31T15:21:33Z</time>
      </trkpt>
      <trkpt lat="47.16923" lon="-1.63192">
        <ele>20.03</ele>
        <time>2020-05-31T15:21:35Z</time>
      </trkpt>
      <trkpt lat="47.16932" lon="-1.63206">
        <ele>20.01</ele>
        <time>2020-05-31T15:21:37Z</time>
      </trkpt>
      <trkpt lat="47.1694" lon="-1.63219">
        <ele>19.63</ele>
        <time>2020-05-31T15:21:39Z</time>
      </trkpt>
      <trkpt lat="47.1695" lon="-1.63232">
        <ele>20.34</ele>
        <time>2020-05-31T15:21:41Z</time>
      </trkpt>
      <trkpt lat="47.16959" lon="-1.63241">
        <ele>19.93</ele>
        <time>2020-05-31T15:21:43Z</time>
      </trkpt>
      <trkpt lat="47.16968" lon="-1.6325">
        <ele>20.17</ele>
        <time>2020-05-31T15:21:45Z</time>
      </trkpt>
      <trkpt lat="47.16967" lon="-1.63267">
        <ele>20.37</ele>
        <time>2020-05-31T15:21:49Z</time>
      </trkpt>
      <trkpt lat="47.16956" lon="-1.63284">
        <ele>20.39</ele>
        <time>2020-05-31T15:21:51Z</time>
      </trkpt>
      <trkpt lat="47.16945" lon="-1.63299">
        <ele>21.02</ele>
        <time>2020-05-31T15:21:53Z</time>
      </trkpt>
      <trkpt lat="47.16936" lon="-1.63314">
        <ele>21.43</ele>
        <time>2020-05-31T15:21:55Z</time>
      </trkpt>
      <trkpt lat="47.16926" lon="-1.63329">
        <ele>21.82</ele>
        <time>2020-05-31T15:21:57Z</time>
      </trkpt>
      <trkpt lat="47.16916" lon="-1.63344">
        <ele>22.15</ele>
        <time>2020-05-31T15:21:59Z</time>
      </trkpt>
      <trkpt lat="47.16906" lon="-1.63359">
        <ele>22.57</ele>
        <time>2020-05-31T15:22:01Z</time>
      </trkpt>
      <trkpt lat="47.16897" lon="-1.63372">
        <ele>22.86</ele>
        <time>2020-05-31T15:22:03Z</time>
      </trkpt>
      <trkpt lat="47.16886" lon="-1.63389">
        <ele>23.39</ele>
        <time>2020-05-31T15:22:05Z</time>
      </trkpt>
      <trkpt lat="47.16875" lon="-1.63405">
        <ele>23.57</ele>
        <time>2020-05-31T15:22:07Z</time>
      </trkpt>
      <trkpt lat="47.16865" lon="-1.63422">
        <ele>23.2</ele>
        <time>2020-05-31T15:22:09Z</time>
      </trkpt>
      <trkpt lat="47.16856" lon="-1.63438">
        <ele>23.46</ele>
        <time>2020-05-31T15:22:11Z</time>
      </trkpt>
      <trkpt lat="47.16847" lon="-1.63454">
        <ele>24.33</ele>
        <time>2020-05-31T15:22:13Z</time>
      </trkpt>
      <trkpt lat="47.16838" lon="-1.63469">
        <ele>24.28</ele>
        <time>2020-05-31T15:22:15Z</time>
      </trkpt>
      <trkpt lat="47.16828" lon="-1.63485">
        <ele>23.93</ele>
        <time>2020-05-31T15:22:17Z</time>
      </trkpt>
      <trkpt lat="47.16817" lon="-1.63503">
        <ele>23.67</ele>
        <time>2020-05-31T15:22:19Z</time>
      </trkpt>
      <trkpt lat="47.16809" lon="-1.63517">
        <ele>24.65</ele>
        <time>2020-05-31T15:22:21Z</time>
      </trkpt>
      <trkpt lat="47.168" lon="-1.63532">
        <ele>25.54</ele>
        <time>2020-05-31T15:22:23Z</time>
      </trkpt>
      <trkpt lat="47.16792" lon="-1.63547">
        <ele>24.92</ele>
        <time>2020-05-31T15:22:25Z</time>
      </trkpt>
      <trkpt lat="47.16783" lon="-1.63563">
        <ele>24.56</ele>
        <time>2020-05-31T15:22:27Z</time>
      </trkpt>
      <trkpt lat="47.16772" lon="-1.6358">
        <ele>24.59</ele>
        <time>2020-05-31T15:22:29Z</time>
      </trkpt>
      <trkpt lat="47.16763" lon="-1.63596">
        <ele>24.26</ele>
        <time>2020-05-31T15:22:31Z</time>
      </trkpt>
      <trkpt lat="47.16755" lon="-1.6361">
        <ele>23.58</ele>
        <time>2020-05-31T15:22:33Z</time>
      </trkpt>
      <trkpt lat="47.16748" lon="-1.63623">
        <ele>23.74</ele>
        <time>2020-05-31T15:22:35Z</time>
      </trkpt>
      <trkpt lat="47.16747" lon="-1.63643">
        <ele>24.05</ele>
        <time>2020-05-31T15:22:37Z</time>
      </trkpt>
      <trkpt lat="47.16757" lon="-1.6365">
        <ele>23.77</ele>
        <time>2020-05-31T15:22:40Z</time>
      </trkpt>
      <trkpt lat="47.16771" lon="-1.63655">
        <ele>23.47</ele>
        <time>2020-05-31T15:22:42Z</time>
      </trkpt>
      <trkpt lat="47.16785" lon="-1.63659">
        <ele>23.38</ele>
        <time>2020-05-31T15:22:44Z</time>
      </trkpt>
      <trkpt lat="47.16799" lon="-1.63664">
        <ele>22.75</ele>
        <time>2020-05-31T15:22:46Z</time>
      </trkpt>
      <trkpt lat="47.16812" lon="-1.63667">
        <ele>21.71</ele>
        <time>2020-05-31T15:22:48Z</time>
      </trkpt>
      <trkpt lat="47.16824" lon="-1.63671">
        <ele>21.38</ele>
        <time>2020-05-31T15:22:50Z</time>
      </trkpt>
      <trkpt lat="47.16836" lon="-1.63675">
        <ele>21.82</ele>
        <time>2020-05-31T15:22:52Z</time>
      </trkpt>
      <trkpt lat="47.1685" lon="-1.63679">
        <ele>21.97</ele>
        <time>2020-05-31T15:22:54Z</time>
      </trkpt>
      <trkpt lat="47.16864" lon="-1.63684">
        <ele>22.01</ele>
        <time>2020-05-31T15:22:56Z</time>
      </trkpt>
      <trkpt lat="47.16877" lon="-1.6369">
        <ele>22.01</ele>
        <time>2020-05-31T15:22:58Z</time>
      </trkpt>
      <trkpt lat="47.1689" lon="-1.63695">
        <ele>22.44</ele>
        <time>2020-05-31T15:23:00Z</time>
      </trkpt>
      <trkpt lat="47.16905" lon="-1.637">
        <ele>23.49</ele>
        <time>2020-05-31T15:23:02Z</time>
      </trkpt>
      <trkpt lat="47.16918" lon="-1.63705">
        <ele>23.63</ele>
        <time>2020-05-31T15:23:04Z</time>
      </trkpt>
      <trkpt lat="47.16932" lon="-1.63711">
        <ele>23.37</ele>
        <time>2020-05-31T15:23:06Z</time>
      </trkpt>
      <trkpt lat="47.16947" lon="-1.63716">
        <ele>22.58</ele>
        <time>2020-05-31T15:23:08Z</time>
      </trkpt>
      <trkpt lat="47.1696" lon="-1.63721">
        <ele>22.1</ele>
        <time>2020-05-31T15:23:10Z</time>
      </trkpt>
      <trkpt lat="47.16973" lon="-1.63726">
        <ele>21.5</ele>
        <time>2020-05-31T15:23:12Z</time>
      </trkpt>
      <trkpt lat="47.16987" lon="-1.63731">
        <ele>21.44</ele>
        <time>2020-05-31T15:23:14Z</time>
      </trkpt>
      <trkpt lat="47.17002" lon="-1.63736">
        <ele>21.13</ele>
        <time>2020-05-31T15:23:16Z</time>
      </trkpt>
      <trkpt lat="47.17015" lon="-1.6374">
        <ele>21.43</ele>
        <time>2020-05-31T15:23:18Z</time>
      </trkpt>
      <trkpt lat="47.1703" lon="-1.63746">
        <ele>21.83</ele>
        <time>2020-05-31T15:23:20Z</time>
      </trkpt>
      <trkpt lat="47.17042" lon="-1.63752">
        <ele>22.89</ele>
        <time>2020-05-31T15:23:22Z</time>
      </trkpt>
      <trkpt lat="47.17054" lon="-1.63761">
        <ele>24.15</ele>
        <time>2020-05-31T15:23:24Z</time>
      </trkpt>
      <trkpt lat="47.17064" lon="-1.63776">
        <ele>24.66</ele>
        <time>2020-05-31T15:23:26Z</time>
      </trkpt>
      <trkpt lat="47.17072" lon="-1.63793">
        <ele>24.53</ele>
        <time>2020-05-31T15:23:28Z</time>
      </trkpt>
      <trkpt lat="47.1708" lon="-1.63811">
        <ele>23.87</ele>
        <time>2020-05-31T15:23:30Z</time>
      </trkpt>
      <trkpt lat="47.17085" lon="-1.6383">
        <ele>23.98</ele>
        <time>2020-05-31T15:23:32Z</time>
      </trkpt>
      <trkpt lat="47.17091" lon="-1.6385">
        <ele>23.82</ele>
        <time>2020-05-31T15:23:34Z</time>
      </trkpt>
      <trkpt lat="47.17097" lon="-1.63868">
        <ele>23.32</ele>
        <time>2020-05-31T15:23:36Z</time>
      </trkpt>
      <trkpt lat="47.17103" lon="-1.63886">
        <ele>23.34</ele>
        <time>2020-05-31T15:23:38Z</time>
      </trkpt>
      <trkpt lat="47.17109" lon="-1.63902">
        <ele>23.9</ele>
        <time>2020-05-31T15:23:40Z</time>
      </trkpt>
      <trkpt lat="47.17115" lon="-1.63919">
        <ele>23.89</ele>
        <time>2020-05-31T15:23:42Z</time>
      </trkpt>
      <trkpt lat="47.17123" lon="-1.63935">
        <ele>23.47</ele>
        <time>2020-05-31T15:23:44Z</time>
      </trkpt>
      <trkpt lat="47.17131" lon="-1.63941">
        <ele>23.64</ele>
        <time>2020-05-31T15:23:46Z</time>
      </trkpt>
      <trkpt lat="47.17136" lon="-1.63959">
        <ele>24.08</ele>
        <time>2020-05-31T15:23:54Z</time>
      </trkpt>
      <trkpt lat="47.17137" lon="-1.63976">
        <ele>24.2</ele>
        <time>2020-05-31T15:23:56Z</time>
      </trkpt>
      <trkpt lat="47.17137" lon="-1.63996">
        <ele>24.24</ele>
        <time>2020-05-31T15:23:58Z</time>
      </trkpt>
      <trkpt lat="47.17135" lon="-1.64016">
        <ele>24.52</ele>
        <time>2020-05-31T15:24:00Z</time>
      </trkpt>
      <trkpt lat="47.17134" lon="-1.64036">
        <ele>24.99</ele>
        <time>2020-05-31T15:24:02Z</time>
      </trkpt>
      <trkpt lat="47.17132" lon="-1.64057">
        <ele>24.83</ele>
        <time>2020-05-31T15:24:04Z</time>
      </trkpt>
      <trkpt lat="47.1713" lon="-1.64077">
        <ele>25.26</ele>
        <time>2020-05-31T15:24:06Z</time>
      </trkpt>
      <trkpt lat="47.17128" lon="-1.64095">
        <ele>24.26</ele>
        <time>2020-05-31T15:24:08Z</time>
      </trkpt>
      <trkpt lat="47.17126" lon="-1.64115">
        <ele>21.94</ele>
        <time>2020-05-31T15:24:10Z</time>
      </trkpt>
      <trkpt lat="47.17123" lon="-1.64137">
        <ele>20.47</ele>
        <time>2020-05-31T15:24:12Z</time>
      </trkpt>
      <trkpt lat="47.17121" lon="-1.64157">
        <ele>20.18</ele>
        <time>2020-05-31T15:24:14Z</time>
      </trkpt>
      <trkpt lat="47.17118" lon="-1.64178">
        <ele>21.99</ele>
        <time>2020-05-31T15:24:16Z</time>
      </trkpt>
      <trkpt lat="47.17115" lon="-1.642">
        <ele>23.19</ele>
        <time>2020-05-31T15:24:18Z</time>
      </trkpt>
      <trkpt lat="47.17113" lon="-1.64219">
        <ele>23.99</ele>
        <time>2020-05-31T15:24:20Z</time>
      </trkpt>
      <trkpt lat="47.17111" lon="-1.6424">
        <ele>24.65</ele>
        <time>2020-05-31T15:24:22Z</time>
      </trkpt>
      <trkpt lat="47.17109" lon="-1.64261">
        <ele>24.42</ele>
        <time>2020-05-31T15:24:24Z</time>
      </trkpt>
      <trkpt lat="47.17107" lon="-1.64281">
        <ele>23.92</ele>
        <time>2020-05-31T15:24:26Z</time>
      </trkpt>
      <trkpt lat="47.17105" lon="-1.64302">
        <ele>24.04</ele>
        <time>2020-05-31T15:24:28Z</time>
      </trkpt>
      <trkpt lat="47.17104" lon="-1.64323">
        <ele>23.52</ele>
        <time>2020-05-31T15:24:30Z</time>
      </trkpt>
      <trkpt lat="47.17102" lon="-1.64343">
        <ele>22.64</ele>
        <time>2020-05-31T15:24:32Z</time>
      </trkpt>
      <trkpt lat="47.17101" lon="-1.64361">
        <ele>22.3</ele>
        <time>2020-05-31T15:24:34Z</time>
      </trkpt>
      <trkpt lat="47.17099" lon="-1.64382">
        <ele>21.46</ele>
        <time>2020-05-31T15:24:36Z</time>
      </trkpt>
      <trkpt lat="47.17098" lon="-1.64401">
        <ele>21.21</ele>
        <time>2020-05-31T15:24:38Z</time>
      </trkpt>
      <trkpt lat="47.17096" lon="-1.64426">
        <ele>21.48</ele>
        <time>2020-05-31T15:24:40Z</time>
      </trkpt>
      <trkpt lat="47.17095" lon="-1.64447">
        <ele>21.8</ele>
        <time>2020-05-31T15:24:42Z</time>
      </trkpt>
      <trkpt lat="47.17093" lon="-1.64466">
        <ele>22.95</ele>
        <time>2020-05-31T15:24:44Z</time>
      </trkpt>
      <trkpt lat="47.17092" lon="-1.64487">
        <ele>23.62</ele>
        <time>2020-05-31T15:24:46Z</time>
      </trkpt>
      <trkpt lat="47.17091" lon="-1.64509">
        <ele>23.68</ele>
        <time>2020-05-31T15:24:48Z</time>
      </trkpt>
      <trkpt lat="47.1709" lon="-1.64532">
        <ele>24.61</ele>
        <time>2020-05-31T15:24:50Z</time>
      </trkpt>
      <trkpt lat="47.17088" lon="-1.64554">
        <ele>24.43</ele>
        <time>2020-05-31T15:24:52Z</time>
      </trkpt>
      <trkpt lat="47.17087" lon="-1.64575">
        <ele>22.76</ele>
        <time>2020-05-31T15:24:54Z</time>
      </trkpt>
      <trkpt lat="47.17087" lon="-1.64594">
        <ele>22.14</ele>
        <time>2020-05-31T15:24:56Z</time>
      </trkpt>
      <trkpt lat="47.17087" lon="-1.64618">
        <ele>22.85</ele>
        <time>2020-05-31T15:24:58Z</time>
      </trkpt>
      <trkpt lat="47.17087" lon="-1.64637">
        <ele>22.97</ele>
        <time>2020-05-31T15:25:00Z</time>
      </trkpt>
      <trkpt lat="47.17088" lon="-1.64658">
        <ele>22.09</ele>
        <time>2020-05-31T15:25:02Z</time>
      </trkpt>
      <trkpt lat="47.17088" lon="-1.6468">
        <ele>22.47</ele>
        <time>2020-05-31T15:25:04Z</time>
      </trkpt>
      <trkpt lat="47.17089" lon="-1.647">
        <ele>22.41</ele>
        <time>2020-05-31T15:25:06Z</time>
      </trkpt>
      <trkpt lat="47.17089" lon="-1.64723">
        <ele>22.98</ele>
        <time>2020-05-31T15:25:08Z</time>
      </trkpt>
      <trkpt lat="47.17091" lon="-1.64743">
        <ele>23.48</ele>
        <time>2020-05-31T15:25:10Z</time>
      </trkpt>
      <trkpt lat="47.17092" lon="-1.64763">
        <ele>23.93</ele>
        <time>2020-05-31T15:25:12Z</time>
      </trkpt>
      <trkpt lat="47.17094" lon="-1.64784">
        <ele>23.56</ele>
        <time>2020-05-31T15:25:14Z</time>
      </trkpt>
      <trkpt lat="47.17095" lon="-1.64807">
        <ele>23.27</ele>
        <time>2020-05-31T15:25:16Z</time>
      </trkpt>
      <trkpt lat="47.17096" lon="-1.64828">
        <ele>23.08</ele>
        <time>2020-05-31T15:25:18Z</time>
      </trkpt>
      <trkpt lat="47.17098" lon="-1.64854">
        <ele>22.45</ele>
        <time>2020-05-31T15:25:20Z</time>
      </trkpt>
      <trkpt lat="47.171" lon="-1.64877">
        <ele>21.96</ele>
        <time>2020-05-31T15:25:22Z</time>
      </trkpt>
      <trkpt lat="47.17101" lon="-1.64898">
        <ele>22.2</ele>
        <time>2020-05-31T15:25:24Z</time>
      </trkpt>
      <trkpt lat="47.17102" lon="-1.64919">
        <ele>22.88</ele>
        <time>2020-05-31T15:25:26Z</time>
      </trkpt>
      <trkpt lat="47.17104" lon="-1.6494">
        <ele>23.58</ele>
        <time>2020-05-31T15:25:28Z</time>
      </trkpt>
      <trkpt lat="47.17106" lon="-1.64962">
        <ele>22.88</ele>
        <time>2020-05-31T15:25:30Z</time>
      </trkpt>
      <trkpt lat="47.17107" lon="-1.64983">
        <ele>22.45</ele>
        <time>2020-05-31T15:25:32Z</time>
      </trkpt>
      <trkpt lat="47.17108" lon="-1.65006">
        <ele>21.55</ele>
        <time>2020-05-31T15:25:34Z</time>
      </trkpt>
      <trkpt lat="47.1711" lon="-1.65026">
        <ele>21.08</ele>
        <time>2020-05-31T15:25:36Z</time>
      </trkpt>
      <trkpt lat="47.17111" lon="-1.65047">
        <ele>21.41</ele>
        <time>2020-05-31T15:25:38Z</time>
      </trkpt>
      <trkpt lat="47.17113" lon="-1.65068">
        <ele>21.79</ele>
        <time>2020-05-31T15:25:40Z</time>
      </trkpt>
      <trkpt lat="47.17114" lon="-1.65091">
        <ele>22.18</ele>
        <time>2020-05-31T15:25:42Z</time>
      </trkpt>
      <trkpt lat="47.17115" lon="-1.65111">
        <ele>22.43</ele>
        <time>2020-05-31T15:25:44Z</time>
      </trkpt>
      <trkpt lat="47.17116" lon="-1.6513">
        <ele>23.48</ele>
        <time>2020-05-31T15:25:46Z</time>
      </trkpt>
      <trkpt lat="47.17117" lon="-1.6515">
        <ele>24.02</ele>
        <time>2020-05-31T15:25:48Z</time>
      </trkpt>
      <trkpt lat="47.17118" lon="-1.65172">
        <ele>23.85</ele>
        <time>2020-05-31T15:25:50Z</time>
      </trkpt>
      <trkpt lat="47.17121" lon="-1.65192">
        <ele>24.2</ele>
        <time>2020-05-31T15:25:52Z</time>
      </trkpt>
      <trkpt lat="47.17122" lon="-1.65212">
        <ele>24.38</ele>
        <time>2020-05-31T15:25:54Z</time>
      </trkpt>
      <trkpt lat="47.17124" lon="-1.65233">
        <ele>24.76</ele>
        <time>2020-05-31T15:25:56Z</time>
      </trkpt>
      <trkpt lat="47.17125" lon="-1.65252">
        <ele>25.16</ele>
        <time>2020-05-31T15:25:58Z</time>
      </trkpt>
      <trkpt lat="47.17129" lon="-1.6527">
        <ele>25.73</ele>
        <time>2020-05-31T15:26:00Z</time>
      </trkpt>
      <trkpt lat="47.17138" lon="-1.65286">
        <ele>25.44</ele>
        <time>2020-05-31T15:26:02Z</time>
      </trkpt>
      <trkpt lat="47.17143" lon="-1.65305">
        <ele>25.24</ele>
        <time>2020-05-31T15:26:04Z</time>
      </trkpt>
      <trkpt lat="47.17139" lon="-1.65323">
        <ele>25.06</ele>
        <time>2020-05-31T15:26:06Z</time>
      </trkpt>
      <trkpt lat="47.17128" lon="-1.65339">
        <ele>25.76</ele>
        <time>2020-05-31T15:26:08Z</time>
      </trkpt>
      <trkpt lat="47.1712" lon="-1.65355">
        <ele>26.48</ele>
        <time>2020-05-31T15:26:10Z</time>
      </trkpt>
      <trkpt lat="47.17118" lon="-1.65378">
        <ele>27.26</ele>
        <time>2020-05-31T15:26:12Z</time>
      </trkpt>
      <trkpt lat="47.1712" lon="-1.65398">
        <ele>27.73</ele>
        <time>2020-05-31T15:26:14Z</time>
      </trkpt>
      <trkpt lat="47.1712" lon="-1.65419">
        <ele>27.77</ele>
        <time>2020-05-31T15:26:16Z</time>
      </trkpt>
      <trkpt lat="47.1712" lon="-1.65441">
        <ele>28.28</ele>
        <time>2020-05-31T15:26:18Z</time>
      </trkpt>
      <trkpt lat="47.1712" lon="-1.65463">
        <ele>28.39</ele>
        <time>2020-05-31T15:26:20Z</time>
      </trkpt>
      <trkpt lat="47.17118" lon="-1.65481">
        <ele>29.06</ele>
        <time>2020-05-31T15:26:22Z</time>
      </trkpt>
      <trkpt lat="47.17114" lon="-1.65497">
        <ele>29.95</ele>
        <time>2020-05-31T15:26:24Z</time>
      </trkpt>
      <trkpt lat="47.1711" lon="-1.65513">
        <ele>30.48</ele>
        <time>2020-05-31T15:26:26Z</time>
      </trkpt>
      <trkpt lat="47.17105" lon="-1.65528">
        <ele>30.87</ele>
        <time>2020-05-31T15:26:28Z</time>
      </trkpt>
      <trkpt lat="47.17098" lon="-1.65547">
        <ele>32.16</ele>
        <time>2020-05-31T15:26:30Z</time>
      </trkpt>
      <trkpt lat="47.17091" lon="-1.65561">
        <ele>32.67</ele>
        <time>2020-05-31T15:26:32Z</time>
      </trkpt>
      <trkpt lat="47.17082" lon="-1.65575">
        <ele>33.8</ele>
        <time>2020-05-31T15:26:34Z</time>
      </trkpt>
      <trkpt lat="47.17073" lon="-1.6559">
        <ele>34.42</ele>
        <time>2020-05-31T15:26:36Z</time>
      </trkpt>
      <trkpt lat="47.17064" lon="-1.65605">
        <ele>34.95</ele>
        <time>2020-05-31T15:26:38Z</time>
      </trkpt>
      <trkpt lat="47.17056" lon="-1.65618">
        <ele>34.25</ele>
        <time>2020-05-31T15:26:40Z</time>
      </trkpt>
      <trkpt lat="47.17047" lon="-1.65633">
        <ele>32.58</ele>
        <time>2020-05-31T15:26:42Z</time>
      </trkpt>
      <trkpt lat="47.17037" lon="-1.65651">
        <ele>31.04</ele>
        <time>2020-05-31T15:26:44Z</time>
      </trkpt>
      <trkpt lat="47.17026" lon="-1.6567">
        <ele>30.46</ele>
        <time>2020-05-31T15:26:46Z</time>
      </trkpt>
      <trkpt lat="47.17017" lon="-1.65689">
        <ele>30.52</ele>
        <time>2020-05-31T15:26:48Z</time>
      </trkpt>
      <trkpt lat="47.17009" lon="-1.65707">
        <ele>30.59</ele>
        <time>2020-05-31T15:26:50Z</time>
      </trkpt>
      <trkpt lat="47.17004" lon="-1.65731">
        <ele>30.71</ele>
        <time>2020-05-31T15:26:52Z</time>
      </trkpt>
      <trkpt lat="47.17" lon="-1.65752">
        <ele>31.4</ele>
        <time>2020-05-31T15:26:54Z</time>
      </trkpt>
      <trkpt lat="47.16991" lon="-1.65765">
        <ele>31.12</ele>
        <time>2020-05-31T15:26:56Z</time>
      </trkpt>
      <trkpt lat="47.16978" lon="-1.65776">
        <ele>30.47</ele>
        <time>2020-05-31T15:26:58Z</time>
      </trkpt>
      <trkpt lat="47.16966" lon="-1.65786">
        <ele>30.08</ele>
        <time>2020-05-31T15:27:00Z</time>
      </trkpt>
      <trkpt lat="47.16955" lon="-1.658">
        <ele>29.98</ele>
        <time>2020-05-31T15:27:02Z</time>
      </trkpt>
      <trkpt lat="47.16945" lon="-1.65822">
        <ele>28.79</ele>
        <time>2020-05-31T15:27:04Z</time>
      </trkpt>
      <trkpt lat="47.16936" lon="-1.65842">
        <ele>28.01</ele>
        <time>2020-05-31T15:27:06Z</time>
      </trkpt>
      <trkpt lat="47.16926" lon="-1.65859">
        <ele>27.63</ele>
        <time>2020-05-31T15:27:08Z</time>
      </trkpt>
      <trkpt lat="47.16921" lon="-1.6587">
        <ele>27.21</ele>
        <time>2020-05-31T15:27:09Z</time>
      </trkpt>
      <trkpt lat="47.16912" lon="-1.65888">
        <ele>26.45</ele>
        <time>2020-05-31T15:27:11Z</time>
      </trkpt>
      <trkpt lat="47.16904" lon="-1.65906">
        <ele>26.25</ele>
        <time>2020-05-31T15:27:13Z</time>
      </trkpt>
      <trkpt lat="47.16895" lon="-1.65924">
        <ele>26.65</ele>
        <time>2020-05-31T15:27:15Z</time>
      </trkpt>
      <trkpt lat="47.16886" lon="-1.65944">
        <ele>26.16</ele>
        <time>2020-05-31T15:27:17Z</time>
      </trkpt>
      <trkpt lat="47.16877" lon="-1.65963">
        <ele>25.64</ele>
        <time>2020-05-31T15:27:19Z</time>
      </trkpt>
      <trkpt lat="47.16872" lon="-1.65974">
        <ele>25.9</ele>
        <time>2020-05-31T15:27:20Z</time>
      </trkpt>
      <trkpt lat="47.16865" lon="-1.65994">
        <ele>26.08</ele>
        <time>2020-05-31T15:27:22Z</time>
      </trkpt>
      <trkpt lat="47.16861" lon="-1.66007">
        <ele>25.87</ele>
        <time>2020-05-31T15:27:23Z</time>
      </trkpt>
      <trkpt lat="47.16855" lon="-1.66028">
        <ele>25.14</ele>
        <time>2020-05-31T15:27:25Z</time>
      </trkpt>
      <trkpt lat="47.16851" lon="-1.66049">
        <ele>25.33</ele>
        <time>2020-05-31T15:27:27Z</time>
      </trkpt>
      <trkpt lat="47.16847" lon="-1.66072">
        <ele>25.82</ele>
        <time>2020-05-31T15:27:29Z</time>
      </trkpt>
      <trkpt lat="47.16844" lon="-1.66091">
        <ele>25.79</ele>
        <time>2020-05-31T15:27:31Z</time>
      </trkpt>
      <trkpt lat="47.16842" lon="-1.66115">
        <ele>25.51</ele>
        <time>2020-05-31T15:27:33Z</time>
      </trkpt>
      <trkpt lat="47.16841" lon="-1.66138">
        <ele>25.09</ele>
        <time>2020-05-31T15:27:35Z</time>
      </trkpt>
      <trkpt lat="47.16842" lon="-1.66163">
        <ele>25.08</ele>
        <time>2020-05-31T15:27:37Z</time>
      </trkpt>
      <trkpt lat="47.16843" lon="-1.66185">
        <ele>25.32</ele>
        <time>2020-05-31T15:27:39Z</time>
      </trkpt>
      <trkpt lat="47.16844" lon="-1.66208">
        <ele>25.89</ele>
        <time>2020-05-31T15:27:41Z</time>
      </trkpt>
      <trkpt lat="47.16847" lon="-1.66229">
        <ele>26.52</ele>
        <time>2020-05-31T15:27:43Z</time>
      </trkpt>
      <trkpt lat="47.16849" lon="-1.6625">
        <ele>26.88</ele>
        <time>2020-05-31T15:27:45Z</time>
      </trkpt>
      <trkpt lat="47.16852" lon="-1.66272">
        <ele>27.59</ele>
        <time>2020-05-31T15:27:47Z</time>
      </trkpt>
      <trkpt lat="47.16853" lon="-1.66286">
        <ele>27.86</ele>
        <time>2020-05-31T15:27:48Z</time>
      </trkpt>
      <trkpt lat="47.16855" lon="-1.66309">
        <ele>28.18</ele>
        <time>2020-05-31T15:27:50Z</time>
      </trkpt>
      <trkpt lat="47.16857" lon="-1.66329">
        <ele>28.11</ele>
        <time>2020-05-31T15:27:52Z</time>
      </trkpt>
      <trkpt lat="47.16859" lon="-1.66353">
        <ele>27.76</ele>
        <time>2020-05-31T15:27:54Z</time>
      </trkpt>
      <trkpt lat="47.16862" lon="-1.66376">
        <ele>27.65</ele>
        <time>2020-05-31T15:27:56Z</time>
      </trkpt>
      <trkpt lat="47.16865" lon="-1.66401">
        <ele>27.3</ele>
        <time>2020-05-31T15:27:58Z</time>
      </trkpt>
      <trkpt lat="47.16868" lon="-1.66423">
        <ele>27.05</ele>
        <time>2020-05-31T15:28:00Z</time>
      </trkpt>
      <trkpt lat="47.1687" lon="-1.66444">
        <ele>26.31</ele>
        <time>2020-05-31T15:28:02Z</time>
      </trkpt>
      <trkpt lat="47.16872" lon="-1.66467">
        <ele>25.99</ele>
        <time>2020-05-31T15:28:04Z</time>
      </trkpt>
      <trkpt lat="47.16875" lon="-1.66491">
        <ele>26.09</ele>
        <time>2020-05-31T15:28:06Z</time>
      </trkpt>
      <trkpt lat="47.16878" lon="-1.66515">
        <ele>26.64</ele>
        <time>2020-05-31T15:28:08Z</time>
      </trkpt>
      <trkpt lat="47.16879" lon="-1.66536">
        <ele>27.36</ele>
        <time>2020-05-31T15:28:10Z</time>
      </trkpt>
      <trkpt lat="47.16882" lon="-1.66561">
        <ele>27.63</ele>
        <time>2020-05-31T15:28:12Z</time>
      </trkpt>
      <trkpt lat="47.16884" lon="-1.66582">
        <ele>28.21</ele>
        <time>2020-05-31T15:28:14Z</time>
      </trkpt>
      <trkpt lat="47.16887" lon="-1.66602">
        <ele>27.95</ele>
        <time>2020-05-31T15:28:16Z</time>
      </trkpt>
      <trkpt lat="47.1689" lon="-1.66625">
        <ele>26.82</ele>
        <time>2020-05-31T15:28:18Z</time>
      </trkpt>
      <trkpt lat="47.16891" lon="-1.66645">
        <ele>26.01</ele>
        <time>2020-05-31T15:28:20Z</time>
      </trkpt>
      <trkpt lat="47.16892" lon="-1.66668">
        <ele>26.69</ele>
        <time>2020-05-31T15:28:22Z</time>
      </trkpt>
      <trkpt lat="47.16891" lon="-1.66688">
        <ele>27.42</ele>
        <time>2020-05-31T15:28:24Z</time>
      </trkpt>
      <trkpt lat="47.16888" lon="-1.6671">
        <ele>27.71</ele>
        <time>2020-05-31T15:28:26Z</time>
      </trkpt>
      <trkpt lat="47.16881" lon="-1.66732">
        <ele>27.63</ele>
        <time>2020-05-31T15:28:28Z</time>
      </trkpt>
      <trkpt lat="47.16873" lon="-1.66749">
        <ele>27.42</ele>
        <time>2020-05-31T15:28:30Z</time>
      </trkpt>
      <trkpt lat="47.16864" lon="-1.66767">
        <ele>27.11</ele>
        <time>2020-05-31T15:28:32Z</time>
      </trkpt>
      <trkpt lat="47.16855" lon="-1.66785">
        <ele>27.4</ele>
        <time>2020-05-31T15:28:34Z</time>
      </trkpt>
      <trkpt lat="47.16844" lon="-1.66803">
        <ele>27.41</ele>
        <time>2020-05-31T15:28:36Z</time>
      </trkpt>
      <trkpt lat="47.16834" lon="-1.66822">
        <ele>27.67</ele>
        <time>2020-05-31T15:28:38Z</time>
      </trkpt>
      <trkpt lat="47.16825" lon="-1.6684">
        <ele>27.58</ele>
        <time>2020-05-31T15:28:40Z</time>
      </trkpt>
      <trkpt lat="47.16816" lon="-1.66856">
        <ele>27.16</ele>
        <time>2020-05-31T15:28:42Z</time>
      </trkpt>
      <trkpt lat="47.16807" lon="-1.66874">
        <ele>26.45</ele>
        <time>2020-05-31T15:28:44Z</time>
      </trkpt>
      <trkpt lat="47.16796" lon="-1.6689">
        <ele>25.55</ele>
        <time>2020-05-31T15:28:46Z</time>
      </trkpt>
      <trkpt lat="47.16784" lon="-1.66903">
        <ele>24.3</ele>
        <time>2020-05-31T15:28:48Z</time>
      </trkpt>
      <trkpt lat="47.16768" lon="-1.6691">
        <ele>23.74</ele>
        <time>2020-05-31T15:28:50Z</time>
      </trkpt>
      <trkpt lat="47.16754" lon="-1.66916">
        <ele>24.18</ele>
        <time>2020-05-31T15:28:52Z</time>
      </trkpt>
      <trkpt lat="47.16739" lon="-1.66922">
        <ele>25.07</ele>
        <time>2020-05-31T15:28:54Z</time>
      </trkpt>
      <trkpt lat="47.16724" lon="-1.66927">
        <ele>26.29</ele>
        <time>2020-05-31T15:28:56Z</time>
      </trkpt>
      <trkpt lat="47.16708" lon="-1.66932">
        <ele>27.44</ele>
        <time>2020-05-31T15:28:58Z</time>
      </trkpt>
      <trkpt lat="47.16694" lon="-1.66937">
        <ele>27.93</ele>
        <time>2020-05-31T15:29:00Z</time>
      </trkpt>
      <trkpt lat="47.16682" lon="-1.66947">
        <ele>27.81</ele>
        <time>2020-05-31T15:29:02Z</time>
      </trkpt>
      <trkpt lat="47.1667" lon="-1.66963">
        <ele>28.25</ele>
        <time>2020-05-31T15:29:04Z</time>
      </trkpt>
      <trkpt lat="47.16662" lon="-1.66981">
        <ele>28.9</ele>
        <time>2020-05-31T15:29:06Z</time>
      </trkpt>
      <trkpt lat="47.16656" lon="-1.67003">
        <ele>28.36</ele>
        <time>2020-05-31T15:29:08Z</time>
      </trkpt>
      <trkpt lat="47.16651" lon="-1.67026">
        <ele>27.95</ele>
        <time>2020-05-31T15:29:10Z</time>
      </trkpt>
      <trkpt lat="47.16647" lon="-1.67048">
        <ele>27.56</ele>
        <time>2020-05-31T15:29:12Z</time>
      </trkpt>
      <trkpt lat="47.16644" lon="-1.67069">
        <ele>26.36</ele>
        <time>2020-05-31T15:29:14Z</time>
      </trkpt>
      <trkpt lat="47.1664" lon="-1.67092">
        <ele>25.48</ele>
        <time>2020-05-31T15:29:16Z</time>
      </trkpt>
      <trkpt lat="47.16637" lon="-1.67112">
        <ele>24.71</ele>
        <time>2020-05-31T15:29:18Z</time>
      </trkpt>
      <trkpt lat="47.16633" lon="-1.67135">
        <ele>24.84</ele>
        <time>2020-05-31T15:29:20Z</time>
      </trkpt>
      <trkpt lat="47.16628" lon="-1.67157">
        <ele>25.25</ele>
        <time>2020-05-31T15:29:22Z</time>
      </trkpt>
      <trkpt lat="47.16624" lon="-1.67176">
        <ele>25.4</ele>
        <time>2020-05-31T15:29:24Z</time>
      </trkpt>
      <trkpt lat="47.1662" lon="-1.67197">
        <ele>25.31</ele>
        <time>2020-05-31T15:29:26Z</time>
      </trkpt>
      <trkpt lat="47.16616" lon="-1.67218">
        <ele>25.05</ele>
        <time>2020-05-31T15:29:28Z</time>
      </trkpt>
      <trkpt lat="47.16613" lon="-1.67237">
        <ele>24.83</ele>
        <time>2020-05-31T15:29:30Z</time>
      </trkpt>
      <trkpt lat="47.1661" lon="-1.67252">
        <ele>24.77</ele>
        <time>2020-05-31T15:29:32Z</time>
      </trkpt>
      <trkpt lat="47.16606" lon="-1.67273">
        <ele>24.63</ele>
        <time>2020-05-31T15:29:35Z</time>
      </trkpt>
      <trkpt lat="47.166" lon="-1.67291">
        <ele>24.54</ele>
        <time>2020-05-31T15:29:37Z</time>
      </trkpt>
      <trkpt lat="47.16592" lon="-1.67311">
        <ele>25.1</ele>
        <time>2020-05-31T15:29:39Z</time>
      </trkpt>
      <trkpt lat="47.16582" lon="-1.6733">
        <ele>24.98</ele>
        <time>2020-05-31T15:29:41Z</time>
      </trkpt>
      <trkpt lat="47.16573" lon="-1.67348">
        <ele>24.6</ele>
        <time>2020-05-31T15:29:43Z</time>
      </trkpt>
      <trkpt lat="47.16565" lon="-1.67366">
        <ele>24.96</ele>
        <time>2020-05-31T15:29:45Z</time>
      </trkpt>
      <trkpt lat="47.16559" lon="-1.67377">
        <ele>25.16</ele>
        <time>2020-05-31T15:29:46Z</time>
      </trkpt>
      <trkpt lat="47.16548" lon="-1.67393">
        <ele>25.04</ele>
        <time>2020-05-31T15:29:48Z</time>
      </trkpt>
      <trkpt lat="47.16536" lon="-1.67409">
        <ele>25.16</ele>
        <time>2020-05-31T15:29:50Z</time>
      </trkpt>
      <trkpt lat="47.16525" lon="-1.67423">
        <ele>25.36</ele>
        <time>2020-05-31T15:29:52Z</time>
      </trkpt>
      <trkpt lat="47.16514" lon="-1.67439">
        <ele>26.17</ele>
        <time>2020-05-31T15:29:54Z</time>
      </trkpt>
      <trkpt lat="47.16504" lon="-1.67456">
        <ele>26.45</ele>
        <time>2020-05-31T15:29:56Z</time>
      </trkpt>
      <trkpt lat="47.16493" lon="-1.67474">
        <ele>26.37</ele>
        <time>2020-05-31T15:29:58Z</time>
      </trkpt>
      <trkpt lat="47.16483" lon="-1.67492">
        <ele>25.94</ele>
        <time>2020-05-31T15:30:00Z</time>
      </trkpt>
      <trkpt lat="47.16474" lon="-1.67508">
        <ele>24.89</ele>
        <time>2020-05-31T15:30:02Z</time>
      </trkpt>
      <trkpt lat="47.16464" lon="-1.67526">
        <ele>24.51</ele>
        <time>2020-05-31T15:30:04Z</time>
      </trkpt>
      <trkpt lat="47.16454" lon="-1.67545">
        <ele>24.39</ele>
        <time>2020-05-31T15:30:06Z</time>
      </trkpt>
      <trkpt lat="47.16444" lon="-1.67563">
        <ele>24.27</ele>
        <time>2020-05-31T15:30:08Z</time>
      </trkpt>
      <trkpt lat="47.16434" lon="-1.67581">
        <ele>23.91</ele>
        <time>2020-05-31T15:30:10Z</time>
      </trkpt>
      <trkpt lat="47.16429" lon="-1.67592">
        <ele>23.8</ele>
        <time>2020-05-31T15:30:11Z</time>
      </trkpt>
      <trkpt lat="47.1642" lon="-1.6761">
        <ele>24.47</ele>
        <time>2020-05-31T15:30:13Z</time>
      </trkpt>
      <trkpt lat="47.1641" lon="-1.6763">
        <ele>24.5</ele>
        <time>2020-05-31T15:30:15Z</time>
      </trkpt>
      <trkpt lat="47.16401" lon="-1.67647">
        <ele>24.06</ele>
        <time>2020-05-31T15:30:17Z</time>
      </trkpt>
      <trkpt lat="47.16391" lon="-1.67666">
        <ele>24.02</ele>
        <time>2020-05-31T15:30:19Z</time>
      </trkpt>
      <trkpt lat="47.16383" lon="-1.67683">
        <ele>23.79</ele>
        <time>2020-05-31T15:30:21Z</time>
      </trkpt>
      <trkpt lat="47.16373" lon="-1.67703">
        <ele>24.17</ele>
        <time>2020-05-31T15:30:23Z</time>
      </trkpt>
      <trkpt lat="47.16365" lon="-1.6772">
        <ele>24.25</ele>
        <time>2020-05-31T15:30:25Z</time>
      </trkpt>
      <trkpt lat="47.16357" lon="-1.67735">
        <ele>23.71</ele>
        <time>2020-05-31T15:30:27Z</time>
      </trkpt>
      <trkpt lat="47.16347" lon="-1.67753">
        <ele>23.15</ele>
        <time>2020-05-31T15:30:29Z</time>
      </trkpt>
      <trkpt lat="47.16337" lon="-1.67771">
        <ele>21.85</ele>
        <time>2020-05-31T15:30:31Z</time>
      </trkpt>
      <trkpt lat="47.16328" lon="-1.67788">
        <ele>22.05</ele>
        <time>2020-05-31T15:30:33Z</time>
      </trkpt>
      <trkpt lat="47.16317" lon="-1.67806">
        <ele>21.64</ele>
        <time>2020-05-31T15:30:35Z</time>
      </trkpt>
      <trkpt lat="47.16307" lon="-1.67823">
        <ele>21.24</ele>
        <time>2020-05-31T15:30:37Z</time>
      </trkpt>
      <trkpt lat="47.16299" lon="-1.6784">
        <ele>20.94</ele>
        <time>2020-05-31T15:30:39Z</time>
      </trkpt>
      <trkpt lat="47.1629" lon="-1.67858">
        <ele>21.67</ele>
        <time>2020-05-31T15:30:41Z</time>
      </trkpt>
      <trkpt lat="47.1628" lon="-1.67874">
        <ele>22.5</ele>
        <time>2020-05-31T15:30:43Z</time>
      </trkpt>
      <trkpt lat="47.16269" lon="-1.67893">
        <ele>22.55</ele>
        <time>2020-05-31T15:30:45Z</time>
      </trkpt>
      <trkpt lat="47.1626" lon="-1.67908">
        <ele>22.86</ele>
        <time>2020-05-31T15:30:47Z</time>
      </trkpt>
      <trkpt lat="47.16251" lon="-1.67923">
        <ele>23.22</ele>
        <time>2020-05-31T15:30:49Z</time>
      </trkpt>
      <trkpt lat="47.1624" lon="-1.67941">
        <ele>23.12</ele>
        <time>2020-05-31T15:30:51Z</time>
      </trkpt>
      <trkpt lat="47.16231" lon="-1.67957">
        <ele>23.43</ele>
        <time>2020-05-31T15:30:53Z</time>
      </trkpt>
      <trkpt lat="47.16224" lon="-1.67976">
        <ele>23.2</ele>
        <time>2020-05-31T15:30:55Z</time>
      </trkpt>
      <trkpt lat="47.16214" lon="-1.67993">
        <ele>24.3</ele>
        <time>2020-05-31T15:30:57Z</time>
      </trkpt>
      <trkpt lat="47.16202" lon="-1.68002">
        <ele>24.91</ele>
        <time>2020-05-31T15:30:59Z</time>
      </trkpt>
      <trkpt lat="47.1619" lon="-1.68015">
        <ele>24.43</ele>
        <time>2020-05-31T15:31:01Z</time>
      </trkpt>
      <trkpt lat="47.1618" lon="-1.68032">
        <ele>24.25</ele>
        <time>2020-05-31T15:31:03Z</time>
      </trkpt>
      <trkpt lat="47.16169" lon="-1.68047">
        <ele>25.07</ele>
        <time>2020-05-31T15:31:05Z</time>
      </trkpt>
      <trkpt lat="47.16159" lon="-1.68062">
        <ele>26.18</ele>
        <time>2020-05-31T15:31:07Z</time>
      </trkpt>
      <trkpt lat="47.16149" lon="-1.68079">
        <ele>26.76</ele>
        <time>2020-05-31T15:31:09Z</time>
      </trkpt>
      <trkpt lat="47.16141" lon="-1.681">
        <ele>25.06</ele>
        <time>2020-05-31T15:31:11Z</time>
      </trkpt>
      <trkpt lat="47.16135" lon="-1.6812">
        <ele>24.51</ele>
        <time>2020-05-31T15:31:13Z</time>
      </trkpt>
      <trkpt lat="47.1613" lon="-1.68141">
        <ele>25.46</ele>
        <time>2020-05-31T15:31:15Z</time>
      </trkpt>
      <trkpt lat="47.16126" lon="-1.6816">
        <ele>25.7</ele>
        <time>2020-05-31T15:31:17Z</time>
      </trkpt>
      <trkpt lat="47.16122" lon="-1.68179">
        <ele>25.97</ele>
        <time>2020-05-31T15:31:19Z</time>
      </trkpt>
      <trkpt lat="47.16117" lon="-1.68199">
        <ele>26.34</ele>
        <time>2020-05-31T15:31:21Z</time>
      </trkpt>
      <trkpt lat="47.16113" lon="-1.6822">
        <ele>25.92</ele>
        <time>2020-05-31T15:31:23Z</time>
      </trkpt>
      <trkpt lat="47.16109" lon="-1.68242">
        <ele>24.33</ele>
        <time>2020-05-31T15:31:25Z</time>
      </trkpt>
      <trkpt lat="47.16105" lon="-1.68266">
        <ele>23.97</ele>
        <time>2020-05-31T15:31:27Z</time>
      </trkpt>
      <trkpt lat="47.16103" lon="-1.68279">
        <ele>24.2</ele>
        <time>2020-05-31T15:31:28Z</time>
      </trkpt>
      <trkpt lat="47.161" lon="-1.68293">
        <ele>24.16</ele>
        <time>2020-05-31T15:31:29Z</time>
      </trkpt>
      <trkpt lat="47.16095" lon="-1.68317">
        <ele>23.95</ele>
        <time>2020-05-31T15:31:31Z</time>
      </trkpt>
      <trkpt lat="47.16091" lon="-1.68338">
        <ele>23.84</ele>
        <time>2020-05-31T15:31:33Z</time>
      </trkpt>
      <trkpt lat="47.16086" lon="-1.68362">
        <ele>24</ele>
        <time>2020-05-31T15:31:35Z</time>
      </trkpt>
      <trkpt lat="47.16082" lon="-1.68384">
        <ele>23.7</ele>
        <time>2020-05-31T15:31:37Z</time>
      </trkpt>
      <trkpt lat="47.16078" lon="-1.68406">
        <ele>22.95</ele>
        <time>2020-05-31T15:31:39Z</time>
      </trkpt>
      <trkpt lat="47.16074" lon="-1.68427">
        <ele>22.09</ele>
        <time>2020-05-31T15:31:41Z</time>
      </trkpt>
      <trkpt lat="47.1607" lon="-1.68448">
        <ele>21.44</ele>
        <time>2020-05-31T15:31:43Z</time>
      </trkpt>
      <trkpt lat="47.16065" lon="-1.6847">
        <ele>21.05</ele>
        <time>2020-05-31T15:31:45Z</time>
      </trkpt>
      <trkpt lat="47.16061" lon="-1.68492">
        <ele>20.92</ele>
        <time>2020-05-31T15:31:47Z</time>
      </trkpt>
      <trkpt lat="47.16058" lon="-1.68515">
        <ele>21</ele>
        <time>2020-05-31T15:31:49Z</time>
      </trkpt>
      <trkpt lat="47.16055" lon="-1.68538">
        <ele>20.57</ele>
        <time>2020-05-31T15:31:51Z</time>
      </trkpt>
      <trkpt lat="47.16052" lon="-1.68561">
        <ele>20.59</ele>
        <time>2020-05-31T15:31:53Z</time>
      </trkpt>
      <trkpt lat="47.16049" lon="-1.68584">
        <ele>21.59</ele>
        <time>2020-05-31T15:31:55Z</time>
      </trkpt>
      <trkpt lat="47.16046" lon="-1.68606">
        <ele>22.17</ele>
        <time>2020-05-31T15:31:57Z</time>
      </trkpt>
      <trkpt lat="47.16043" lon="-1.68628">
        <ele>23.01</ele>
        <time>2020-05-31T15:31:59Z</time>
      </trkpt>
      <trkpt lat="47.16042" lon="-1.68651">
        <ele>22.77</ele>
        <time>2020-05-31T15:32:01Z</time>
      </trkpt>
      <trkpt lat="47.16042" lon="-1.68674">
        <ele>22.06</ele>
        <time>2020-05-31T15:32:03Z</time>
      </trkpt>
      <trkpt lat="47.16043" lon="-1.68697">
        <ele>21.78</ele>
        <time>2020-05-31T15:32:05Z</time>
      </trkpt>
      <trkpt lat="47.16045" lon="-1.6872">
        <ele>21.86</ele>
        <time>2020-05-31T15:32:07Z</time>
      </trkpt>
      <trkpt lat="47.16048" lon="-1.68742">
        <ele>21.85</ele>
        <time>2020-05-31T15:32:09Z</time>
      </trkpt>
      <trkpt lat="47.16052" lon="-1.68764">
        <ele>22.25</ele>
        <time>2020-05-31T15:32:11Z</time>
      </trkpt>
      <trkpt lat="47.16056" lon="-1.68785">
        <ele>23.26</ele>
        <time>2020-05-31T15:32:13Z</time>
      </trkpt>
      <trkpt lat="47.16061" lon="-1.68802">
        <ele>24.28</ele>
        <time>2020-05-31T15:32:15Z</time>
      </trkpt>
      <trkpt lat="47.16067" lon="-1.6882">
        <ele>24.82</ele>
        <time>2020-05-31T15:32:17Z</time>
      </trkpt>
      <trkpt lat="47.16073" lon="-1.68837">
        <ele>25.25</ele>
        <time>2020-05-31T15:32:19Z</time>
      </trkpt>
      <trkpt lat="47.16079" lon="-1.68856">
        <ele>25.73</ele>
        <time>2020-05-31T15:32:21Z</time>
      </trkpt>
      <trkpt lat="47.16085" lon="-1.68873">
        <ele>25.26</ele>
        <time>2020-05-31T15:32:23Z</time>
      </trkpt>
      <trkpt lat="47.16092" lon="-1.68893">
        <ele>24.34</ele>
        <time>2020-05-31T15:32:25Z</time>
      </trkpt>
      <trkpt lat="47.16097" lon="-1.68911">
        <ele>24.36</ele>
        <time>2020-05-31T15:32:27Z</time>
      </trkpt>
      <trkpt lat="47.16103" lon="-1.68931">
        <ele>23.11</ele>
        <time>2020-05-31T15:32:29Z</time>
      </trkpt>
      <trkpt lat="47.16109" lon="-1.6895">
        <ele>22.44</ele>
        <time>2020-05-31T15:32:31Z</time>
      </trkpt>
      <trkpt lat="47.16115" lon="-1.6897">
        <ele>22.27</ele>
        <time>2020-05-31T15:32:33Z</time>
      </trkpt>
      <trkpt lat="47.16122" lon="-1.68991">
        <ele>21.31</ele>
        <time>2020-05-31T15:32:35Z</time>
      </trkpt>
      <trkpt lat="47.16128" lon="-1.69011">
        <ele>20.65</ele>
        <time>2020-05-31T15:32:37Z</time>
      </trkpt>
      <trkpt lat="47.16134" lon="-1.69035">
        <ele>20.24</ele>
        <time>2020-05-31T15:32:38Z</time>
      </trkpt>
      <trkpt lat="47.16139" lon="-1.69058">
        <ele>20.23</ele>
        <time>2020-05-31T15:32:40Z</time>
      </trkpt>
      <trkpt lat="47.16143" lon="-1.69081">
        <ele>20.6</ele>
        <time>2020-05-31T15:32:42Z</time>
      </trkpt>
      <trkpt lat="47.16145" lon="-1.69102">
        <ele>20.23</ele>
        <time>2020-05-31T15:32:44Z</time>
      </trkpt>
      <trkpt lat="47.16146" lon="-1.69124">
        <ele>19.7</ele>
        <time>2020-05-31T15:32:46Z</time>
      </trkpt>
      <trkpt lat="47.16147" lon="-1.69148">
        <ele>19.19</ele>
        <time>2020-05-31T15:32:48Z</time>
      </trkpt>
      <trkpt lat="47.16147" lon="-1.69172">
        <ele>18.86</ele>
        <time>2020-05-31T15:32:50Z</time>
      </trkpt>
      <trkpt lat="47.16146" lon="-1.69197">
        <ele>19.07</ele>
        <time>2020-05-31T15:32:52Z</time>
      </trkpt>
      <trkpt lat="47.16145" lon="-1.6922">
        <ele>19.14</ele>
        <time>2020-05-31T15:32:54Z</time>
      </trkpt>
      <trkpt lat="47.16142" lon="-1.69243">
        <ele>19.15</ele>
        <time>2020-05-31T15:32:56Z</time>
      </trkpt>
      <trkpt lat="47.1614" lon="-1.69266">
        <ele>18.11</ele>
        <time>2020-05-31T15:32:58Z</time>
      </trkpt>
      <trkpt lat="47.16137" lon="-1.69287">
        <ele>15.9</ele>
        <time>2020-05-31T15:33:00Z</time>
      </trkpt>
      <trkpt lat="47.16134" lon="-1.69306">
        <ele>15.5</ele>
        <time>2020-05-31T15:33:02Z</time>
      </trkpt>
      <trkpt lat="47.1613" lon="-1.69328">
        <ele>16.36</ele>
        <time>2020-05-31T15:33:04Z</time>
      </trkpt>
      <trkpt lat="47.16126" lon="-1.69353">
        <ele>16.79</ele>
        <time>2020-05-31T15:33:06Z</time>
      </trkpt>
      <trkpt lat="47.16123" lon="-1.69374">
        <ele>16.91</ele>
        <time>2020-05-31T15:33:08Z</time>
      </trkpt>
      <trkpt lat="47.1612" lon="-1.69393">
        <ele>17.49</ele>
        <time>2020-05-31T15:33:10Z</time>
      </trkpt>
      <trkpt lat="47.16118" lon="-1.69416">
        <ele>17.4</ele>
        <time>2020-05-31T15:33:12Z</time>
      </trkpt>
      <trkpt lat="47.16116" lon="-1.69438">
        <ele>18.2</ele>
        <time>2020-05-31T15:33:14Z</time>
      </trkpt>
      <trkpt lat="47.16115" lon="-1.6946">
        <ele>18.65</ele>
        <time>2020-05-31T15:33:16Z</time>
      </trkpt>
      <trkpt lat="47.16113" lon="-1.69482">
        <ele>18.75</ele>
        <time>2020-05-31T15:33:18Z</time>
      </trkpt>
      <trkpt lat="47.16112" lon="-1.695">
        <ele>18.68</ele>
        <time>2020-05-31T15:33:20Z</time>
      </trkpt>
      <trkpt lat="47.16111" lon="-1.69522">
        <ele>18.39</ele>
        <time>2020-05-31T15:33:22Z</time>
      </trkpt>
      <trkpt lat="47.16109" lon="-1.69545">
        <ele>18.4</ele>
        <time>2020-05-31T15:33:24Z</time>
      </trkpt>
      <trkpt lat="47.16108" lon="-1.69566">
        <ele>17.41</ele>
        <time>2020-05-31T15:33:26Z</time>
      </trkpt>
      <trkpt lat="47.16106" lon="-1.69588">
        <ele>17.58</ele>
        <time>2020-05-31T15:33:28Z</time>
      </trkpt>
      <trkpt lat="47.16106" lon="-1.69608">
        <ele>17.77</ele>
        <time>2020-05-31T15:33:30Z</time>
      </trkpt>
      <trkpt lat="47.16105" lon="-1.6963">
        <ele>18.26</ele>
        <time>2020-05-31T15:33:32Z</time>
      </trkpt>
      <trkpt lat="47.16103" lon="-1.69652">
        <ele>18.51</ele>
        <time>2020-05-31T15:33:34Z</time>
      </trkpt>
      <trkpt lat="47.16101" lon="-1.69675">
        <ele>19.1</ele>
        <time>2020-05-31T15:33:36Z</time>
      </trkpt>
      <trkpt lat="47.16099" lon="-1.69696">
        <ele>19.69</ele>
        <time>2020-05-31T15:33:38Z</time>
      </trkpt>
      <trkpt lat="47.16097" lon="-1.69717">
        <ele>19.64</ele>
        <time>2020-05-31T15:33:40Z</time>
      </trkpt>
      <trkpt lat="47.16096" lon="-1.69739">
        <ele>19.34</ele>
        <time>2020-05-31T15:33:42Z</time>
      </trkpt>
      <trkpt lat="47.16094" lon="-1.69758">
        <ele>19.87</ele>
        <time>2020-05-31T15:33:44Z</time>
      </trkpt>
      <trkpt lat="47.16093" lon="-1.69779">
        <ele>19.29</ele>
        <time>2020-05-31T15:33:46Z</time>
      </trkpt>
      <trkpt lat="47.16092" lon="-1.698">
        <ele>17.96</ele>
        <time>2020-05-31T15:33:48Z</time>
      </trkpt>
      <trkpt lat="47.16091" lon="-1.6982">
        <ele>17.51</ele>
        <time>2020-05-31T15:33:50Z</time>
      </trkpt>
      <trkpt lat="47.1609" lon="-1.69844">
        <ele>18.01</ele>
        <time>2020-05-31T15:33:52Z</time>
      </trkpt>
      <trkpt lat="47.16089" lon="-1.69864">
        <ele>18.71</ele>
        <time>2020-05-31T15:33:54Z</time>
      </trkpt>
      <trkpt lat="47.16088" lon="-1.69884">
        <ele>18.51</ele>
        <time>2020-05-31T15:33:56Z</time>
      </trkpt>
      <trkpt lat="47.16087" lon="-1.69904">
        <ele>18.33</ele>
        <time>2020-05-31T15:33:58Z</time>
      </trkpt>
      <trkpt lat="47.16085" lon="-1.69924">
        <ele>18.91</ele>
        <time>2020-05-31T15:34:00Z</time>
      </trkpt>
      <trkpt lat="47.16083" lon="-1.69945">
        <ele>19.74</ele>
        <time>2020-05-31T15:34:02Z</time>
      </trkpt>
      <trkpt lat="47.16082" lon="-1.69966">
        <ele>19.33</ele>
        <time>2020-05-31T15:34:04Z</time>
      </trkpt>
      <trkpt lat="47.1608" lon="-1.69988">
        <ele>18.56</ele>
        <time>2020-05-31T15:34:06Z</time>
      </trkpt>
      <trkpt lat="47.16079" lon="-1.70011">
        <ele>17.41</ele>
        <time>2020-05-31T15:34:08Z</time>
      </trkpt>
      <trkpt lat="47.16078" lon="-1.70029">
        <ele>17.02</ele>
        <time>2020-05-31T15:34:10Z</time>
      </trkpt>
      <trkpt lat="47.16076" lon="-1.70052">
        <ele>17.22</ele>
        <time>2020-05-31T15:34:12Z</time>
      </trkpt>
      <trkpt lat="47.16074" lon="-1.70074">
        <ele>17.94</ele>
        <time>2020-05-31T15:34:14Z</time>
      </trkpt>
      <trkpt lat="47.16072" lon="-1.70097">
        <ele>18.55</ele>
        <time>2020-05-31T15:34:16Z</time>
      </trkpt>
      <trkpt lat="47.1607" lon="-1.70118">
        <ele>18.7</ele>
        <time>2020-05-31T15:34:18Z</time>
      </trkpt>
      <trkpt lat="47.16066" lon="-1.70138">
        <ele>17.91</ele>
        <time>2020-05-31T15:34:20Z</time>
      </trkpt>
      <trkpt lat="47.1606" lon="-1.70161">
        <ele>18.34</ele>
        <time>2020-05-31T15:34:22Z</time>
      </trkpt>
      <trkpt lat="47.16051" lon="-1.70179">
        <ele>19.48</ele>
        <time>2020-05-31T15:34:24Z</time>
      </trkpt>
      <trkpt lat="47.16043" lon="-1.70195">
        <ele>19.71</ele>
        <time>2020-05-31T15:34:26Z</time>
      </trkpt>
      <trkpt lat="47.16034" lon="-1.70212">
        <ele>20.22</ele>
        <time>2020-05-31T15:34:28Z</time>
      </trkpt>
      <trkpt lat="47.16024" lon="-1.7023">
        <ele>21.42</ele>
        <time>2020-05-31T15:34:30Z</time>
      </trkpt>
      <trkpt lat="47.16016" lon="-1.70249">
        <ele>22.28</ele>
        <time>2020-05-31T15:34:32Z</time>
      </trkpt>
      <trkpt lat="47.16006" lon="-1.70269">
        <ele>22.34</ele>
        <time>2020-05-31T15:34:34Z</time>
      </trkpt>
      <trkpt lat="47.15998" lon="-1.70287">
        <ele>21.61</ele>
        <time>2020-05-31T15:34:36Z</time>
      </trkpt>
      <trkpt lat="47.1599" lon="-1.70306">
        <ele>21.3</ele>
        <time>2020-05-31T15:34:38Z</time>
      </trkpt>
      <trkpt lat="47.15982" lon="-1.70324">
        <ele>21.13</ele>
        <time>2020-05-31T15:34:40Z</time>
      </trkpt>
      <trkpt lat="47.15974" lon="-1.70343">
        <ele>21.13</ele>
        <time>2020-05-31T15:34:42Z</time>
      </trkpt>
      <trkpt lat="47.15964" lon="-1.70364">
        <ele>21.37</ele>
        <time>2020-05-31T15:34:44Z</time>
      </trkpt>
      <trkpt lat="47.15956" lon="-1.70382">
        <ele>21.51</ele>
        <time>2020-05-31T15:34:46Z</time>
      </trkpt>
      <trkpt lat="47.15948" lon="-1.70401">
        <ele>21.83</ele>
        <time>2020-05-31T15:34:48Z</time>
      </trkpt>
      <trkpt lat="47.15939" lon="-1.70421">
        <ele>21.84</ele>
        <time>2020-05-31T15:34:50Z</time>
      </trkpt>
      <trkpt lat="47.15931" lon="-1.7044">
        <ele>20.98</ele>
        <time>2020-05-31T15:34:52Z</time>
      </trkpt>
      <trkpt lat="47.1592" lon="-1.70463">
        <ele>20.64</ele>
        <time>2020-05-31T15:34:54Z</time>
      </trkpt>
      <trkpt lat="47.15911" lon="-1.70482">
        <ele>20.8</ele>
        <time>2020-05-31T15:34:56Z</time>
      </trkpt>
      <trkpt lat="47.15902" lon="-1.70501">
        <ele>21.16</ele>
        <time>2020-05-31T15:34:58Z</time>
      </trkpt>
      <trkpt lat="47.15894" lon="-1.7052">
        <ele>20.22</ele>
        <time>2020-05-31T15:35:00Z</time>
      </trkpt>
      <trkpt lat="47.15886" lon="-1.70542">
        <ele>19.2</ele>
        <time>2020-05-31T15:35:02Z</time>
      </trkpt>
      <trkpt lat="47.1588" lon="-1.70564">
        <ele>18.81</ele>
        <time>2020-05-31T15:35:04Z</time>
      </trkpt>
      <trkpt lat="47.15874" lon="-1.70585">
        <ele>18.56</ele>
        <time>2020-05-31T15:35:06Z</time>
      </trkpt>
      <trkpt lat="47.15868" lon="-1.70607">
        <ele>18.75</ele>
        <time>2020-05-31T15:35:08Z</time>
      </trkpt>
      <trkpt lat="47.15864" lon="-1.70621">
        <ele>18.6</ele>
        <time>2020-05-31T15:35:09Z</time>
      </trkpt>
      <trkpt lat="47.15859" lon="-1.7064">
        <ele>19.08</ele>
        <time>2020-05-31T15:35:11Z</time>
      </trkpt>
      <trkpt lat="47.15853" lon="-1.70659">
        <ele>20.02</ele>
        <time>2020-05-31T15:35:13Z</time>
      </trkpt>
      <trkpt lat="47.15845" lon="-1.7068">
        <ele>20.67</ele>
        <time>2020-05-31T15:35:15Z</time>
      </trkpt>
      <trkpt lat="47.15836" lon="-1.707">
        <ele>20</ele>
        <time>2020-05-31T15:35:17Z</time>
      </trkpt>
      <trkpt lat="47.15828" lon="-1.70718">
        <ele>18.79</ele>
        <time>2020-05-31T15:35:19Z</time>
      </trkpt>
      <trkpt lat="47.15819" lon="-1.70738">
        <ele>17.85</ele>
        <time>2020-05-31T15:35:21Z</time>
      </trkpt>
      <trkpt lat="47.1581" lon="-1.70757">
        <ele>17.06</ele>
        <time>2020-05-31T15:35:23Z</time>
      </trkpt>
      <trkpt lat="47.15801" lon="-1.70775">
        <ele>17.02</ele>
        <time>2020-05-31T15:35:25Z</time>
      </trkpt>
      <trkpt lat="47.15792" lon="-1.70794">
        <ele>17.56</ele>
        <time>2020-05-31T15:35:27Z</time>
      </trkpt>
      <trkpt lat="47.15784" lon="-1.70813">
        <ele>19.17</ele>
        <time>2020-05-31T15:35:29Z</time>
      </trkpt>
      <trkpt lat="47.15776" lon="-1.7083">
        <ele>20.56</ele>
        <time>2020-05-31T15:35:31Z</time>
      </trkpt>
      <trkpt lat="47.15766" lon="-1.70848">
        <ele>20.76</ele>
        <time>2020-05-31T15:35:33Z</time>
      </trkpt>
      <trkpt lat="47.15757" lon="-1.70865">
        <ele>20.7</ele>
        <time>2020-05-31T15:35:35Z</time>
      </trkpt>
      <trkpt lat="47.15748" lon="-1.70881">
        <ele>20.59</ele>
        <time>2020-05-31T15:35:37Z</time>
      </trkpt>
      <trkpt lat="47.15739" lon="-1.70899">
        <ele>20.49</ele>
        <time>2020-05-31T15:35:39Z</time>
      </trkpt>
      <trkpt lat="47.15729" lon="-1.70917">
        <ele>20.87</ele>
        <time>2020-05-31T15:35:41Z</time>
      </trkpt>
      <trkpt lat="47.15719" lon="-1.70934">
        <ele>20.54</ele>
        <time>2020-05-31T15:35:43Z</time>
      </trkpt>
      <trkpt lat="47.15708" lon="-1.70953">
        <ele>20.35</ele>
        <time>2020-05-31T15:35:45Z</time>
      </trkpt>
      <trkpt lat="47.15699" lon="-1.7097">
        <ele>20.5</ele>
        <time>2020-05-31T15:35:47Z</time>
      </trkpt>
      <trkpt lat="47.15691" lon="-1.70986">
        <ele>20.52</ele>
        <time>2020-05-31T15:35:49Z</time>
      </trkpt>
      <trkpt lat="47.15683" lon="-1.71004">
        <ele>20.23</ele>
        <time>2020-05-31T15:35:51Z</time>
      </trkpt>
      <trkpt lat="47.15677" lon="-1.71016">
        <ele>20.2</ele>
        <time>2020-05-31T15:35:52Z</time>
      </trkpt>
      <trkpt lat="47.1567" lon="-1.71031">
        <ele>20.43</ele>
        <time>2020-05-31T15:35:54Z</time>
      </trkpt>
      <trkpt lat="47.15663" lon="-1.71048">
        <ele>20.88</ele>
        <time>2020-05-31T15:35:56Z</time>
      </trkpt>
      <trkpt lat="47.15655" lon="-1.71065">
        <ele>20.68</ele>
        <time>2020-05-31T15:35:58Z</time>
      </trkpt>
      <trkpt lat="47.15644" lon="-1.7107">
        <ele>20.43</ele>
        <time>2020-05-31T15:36:06Z</time>
      </trkpt>
      <trkpt lat="47.15634" lon="-1.71077">
        <ele>20.46</ele>
        <time>2020-05-31T15:36:08Z</time>
      </trkpt>
      <trkpt lat="47.15626" lon="-1.71091">
        <ele>20.27</ele>
        <time>2020-05-31T15:36:10Z</time>
      </trkpt>
      <trkpt lat="47.15615" lon="-1.71109">
        <ele>19.47</ele>
        <time>2020-05-31T15:36:12Z</time>
      </trkpt>
      <trkpt lat="47.15606" lon="-1.71126">
        <ele>18.73</ele>
        <time>2020-05-31T15:36:14Z</time>
      </trkpt>
      <trkpt lat="47.15597" lon="-1.71142">
        <ele>18.62</ele>
        <time>2020-05-31T15:36:16Z</time>
      </trkpt>
      <trkpt lat="47.15586" lon="-1.71158">
        <ele>19.47</ele>
        <time>2020-05-31T15:36:18Z</time>
      </trkpt>
      <trkpt lat="47.15577" lon="-1.71175">
        <ele>19.91</ele>
        <time>2020-05-31T15:36:20Z</time>
      </trkpt>
      <trkpt lat="47.15567" lon="-1.71191">
        <ele>20.12</ele>
        <time>2020-05-31T15:36:22Z</time>
      </trkpt>
      <trkpt lat="47.15558" lon="-1.71208">
        <ele>19.99</ele>
        <time>2020-05-31T15:36:24Z</time>
      </trkpt>
      <trkpt lat="47.1555" lon="-1.71225">
        <ele>19.61</ele>
        <time>2020-05-31T15:36:26Z</time>
      </trkpt>
      <trkpt lat="47.15541" lon="-1.71245">
        <ele>19.47</ele>
        <time>2020-05-31T15:36:28Z</time>
      </trkpt>
      <trkpt lat="47.15534" lon="-1.71263">
        <ele>19.4</ele>
        <time>2020-05-31T15:36:30Z</time>
      </trkpt>
      <trkpt lat="47.15526" lon="-1.71283">
        <ele>19.72</ele>
        <time>2020-05-31T15:36:32Z</time>
      </trkpt>
      <trkpt lat="47.15518" lon="-1.71302">
        <ele>20.12</ele>
        <time>2020-05-31T15:36:34Z</time>
      </trkpt>
      <trkpt lat="47.15511" lon="-1.71321">
        <ele>19.92</ele>
        <time>2020-05-31T15:36:36Z</time>
      </trkpt>
      <trkpt lat="47.15502" lon="-1.71337">
        <ele>19.83</ele>
        <time>2020-05-31T15:36:38Z</time>
      </trkpt>
      <trkpt lat="47.15493" lon="-1.71353">
        <ele>19.61</ele>
        <time>2020-05-31T15:36:40Z</time>
      </trkpt>
      <trkpt lat="47.15483" lon="-1.71369">
        <ele>19</ele>
        <time>2020-05-31T15:36:42Z</time>
      </trkpt>
      <trkpt lat="47.15476" lon="-1.71378">
        <ele>19.28</ele>
        <time>2020-05-31T15:36:43Z</time>
      </trkpt>
      <trkpt lat="47.15466" lon="-1.71393">
        <ele>19.63</ele>
        <time>2020-05-31T15:36:45Z</time>
      </trkpt>
      <trkpt lat="47.15454" lon="-1.71406">
        <ele>20.3</ele>
        <time>2020-05-31T15:36:47Z</time>
      </trkpt>
      <trkpt lat="47.15442" lon="-1.71418">
        <ele>20.54</ele>
        <time>2020-05-31T15:36:49Z</time>
      </trkpt>
      <trkpt lat="47.15429" lon="-1.7143">
        <ele>19.65</ele>
        <time>2020-05-31T15:36:51Z</time>
      </trkpt>
      <trkpt lat="47.15418" lon="-1.7144">
        <ele>19.48</ele>
        <time>2020-05-31T15:36:53Z</time>
      </trkpt>
      <trkpt lat="47.15404" lon="-1.71452">
        <ele>19.98</ele>
        <time>2020-05-31T15:36:55Z</time>
      </trkpt>
      <trkpt lat="47.15396" lon="-1.71459">
        <ele>20.14</ele>
        <time>2020-05-31T15:36:56Z</time>
      </trkpt>
      <trkpt lat="47.15381" lon="-1.71471">
        <ele>20.31</ele>
        <time>2020-05-31T15:36:58Z</time>
      </trkpt>
      <trkpt lat="47.15369" lon="-1.7148">
        <ele>20.05</ele>
        <time>2020-05-31T15:37:00Z</time>
      </trkpt>
      <trkpt lat="47.15355" lon="-1.71492">
        <ele>19.62</ele>
        <time>2020-05-31T15:37:02Z</time>
      </trkpt>
      <trkpt lat="47.15341" lon="-1.71505">
        <ele>19.63</ele>
        <time>2020-05-31T15:37:04Z</time>
      </trkpt>
      <trkpt lat="47.15328" lon="-1.71518">
        <ele>18.86</ele>
        <time>2020-05-31T15:37:06Z</time>
      </trkpt>
      <trkpt lat="47.15316" lon="-1.71531">
        <ele>17.75</ele>
        <time>2020-05-31T15:37:08Z</time>
      </trkpt>
      <trkpt lat="47.15304" lon="-1.71545">
        <ele>17.72</ele>
        <time>2020-05-31T15:37:10Z</time>
      </trkpt>
      <trkpt lat="47.15291" lon="-1.71559">
        <ele>17.18</ele>
        <time>2020-05-31T15:37:12Z</time>
      </trkpt>
      <trkpt lat="47.15279" lon="-1.71573">
        <ele>17.38</ele>
        <time>2020-05-31T15:37:14Z</time>
      </trkpt>
      <trkpt lat="47.15269" lon="-1.71586">
        <ele>17.4</ele>
        <time>2020-05-31T15:37:16Z</time>
      </trkpt>
      <trkpt lat="47.15256" lon="-1.71601">
        <ele>17.15</ele>
        <time>2020-05-31T15:37:18Z</time>
      </trkpt>
      <trkpt lat="47.15244" lon="-1.71616">
        <ele>16.54</ele>
        <time>2020-05-31T15:37:20Z</time>
      </trkpt>
      <trkpt lat="47.15229" lon="-1.71626">
        <ele>16.09</ele>
        <time>2020-05-31T15:37:22Z</time>
      </trkpt>
      <trkpt lat="47.15216" lon="-1.7162">
        <ele>16.44</ele>
        <time>2020-05-31T15:37:24Z</time>
      </trkpt>
      <trkpt lat="47.15202" lon="-1.71609">
        <ele>16.59</ele>
        <time>2020-05-31T15:37:26Z</time>
      </trkpt>
      <trkpt lat="47.15189" lon="-1.71598">
        <ele>15.8</ele>
        <time>2020-05-31T15:37:28Z</time>
      </trkpt>
      <trkpt lat="47.15176" lon="-1.71588">
        <ele>15</ele>
        <time>2020-05-31T15:37:30Z</time>
      </trkpt>
      <trkpt lat="47.15164" lon="-1.71577">
        <ele>15.37</ele>
        <time>2020-05-31T15:37:32Z</time>
      </trkpt>
      <trkpt lat="47.15151" lon="-1.71567">
        <ele>15.39</ele>
        <time>2020-05-31T15:37:34Z</time>
      </trkpt>
      <trkpt lat="47.15137" lon="-1.71556">
        <ele>15.55</ele>
        <time>2020-05-31T15:37:36Z</time>
      </trkpt>
      <trkpt lat="47.15124" lon="-1.71546">
        <ele>15.17</ele>
        <time>2020-05-31T15:37:38Z</time>
      </trkpt>
      <trkpt lat="47.15112" lon="-1.71536">
        <ele>15.61</ele>
        <time>2020-05-31T15:37:40Z</time>
      </trkpt>
      <trkpt lat="47.15102" lon="-1.71525">
        <ele>15.92</ele>
        <time>2020-05-31T15:37:42Z</time>
      </trkpt>
      <trkpt lat="47.15091" lon="-1.71515">
        <ele>16.15</ele>
        <time>2020-05-31T15:37:44Z</time>
      </trkpt>
      <trkpt lat="47.15078" lon="-1.71502">
        <ele>16.22</ele>
        <time>2020-05-31T15:37:46Z</time>
      </trkpt>
      <trkpt lat="47.15067" lon="-1.7149">
        <ele>16.56</ele>
        <time>2020-05-31T15:37:48Z</time>
      </trkpt>
      <trkpt lat="47.15056" lon="-1.71478">
        <ele>17.11</ele>
        <time>2020-05-31T15:37:50Z</time>
      </trkpt>
      <trkpt lat="47.15045" lon="-1.71467">
        <ele>17.65</ele>
        <time>2020-05-31T15:37:52Z</time>
      </trkpt>
      <trkpt lat="47.15034" lon="-1.71456">
        <ele>17.68</ele>
        <time>2020-05-31T15:37:54Z</time>
      </trkpt>
      <trkpt lat="47.15021" lon="-1.71444">
        <ele>17.73</ele>
        <time>2020-05-31T15:37:56Z</time>
      </trkpt>
      <trkpt lat="47.15011" lon="-1.71434">
        <ele>17.8</ele>
        <time>2020-05-31T15:37:58Z</time>
      </trkpt>
      <trkpt lat="47.14999" lon="-1.71422">
        <ele>17.51</ele>
        <time>2020-05-31T15:38:00Z</time>
      </trkpt>
      <trkpt lat="47.14988" lon="-1.71411">
        <ele>17.49</ele>
        <time>2020-05-31T15:38:02Z</time>
      </trkpt>
      <trkpt lat="47.14978" lon="-1.71401">
        <ele>18.37</ele>
        <time>2020-05-31T15:38:04Z</time>
      </trkpt>
      <trkpt lat="47.14968" lon="-1.7139">
        <ele>19.38</ele>
        <time>2020-05-31T15:38:06Z</time>
      </trkpt>
      <trkpt lat="47.14957" lon="-1.71378">
        <ele>19.49</ele>
        <time>2020-05-31T15:38:08Z</time>
      </trkpt>
      <trkpt lat="47.14947" lon="-1.71368">
        <ele>18.67</ele>
        <time>2020-05-31T15:38:10Z</time>
      </trkpt>
      <trkpt lat="47.14935" lon="-1.71354">
        <ele>18.72</ele>
        <time>2020-05-31T15:38:12Z</time>
      </trkpt>
      <trkpt lat="47.14925" lon="-1.71341">
        <ele>18.26</ele>
        <time>2020-05-31T15:38:14Z</time>
      </trkpt>
      <trkpt lat="47.14916" lon="-1.71331">
        <ele>18.52</ele>
        <time>2020-05-31T15:38:16Z</time>
      </trkpt>
      <trkpt lat="47.14908" lon="-1.7132">
        <ele>19.22</ele>
        <time>2020-05-31T15:38:18Z</time>
      </trkpt>
      <trkpt lat="47.14897" lon="-1.71308">
        <ele>19.4</ele>
        <time>2020-05-31T15:38:20Z</time>
      </trkpt>
      <trkpt lat="47.14889" lon="-1.71297">
        <ele>19.33</ele>
        <time>2020-05-31T15:38:22Z</time>
      </trkpt>
      <trkpt lat="47.14878" lon="-1.71287">
        <ele>19.22</ele>
        <time>2020-05-31T15:38:24Z</time>
      </trkpt>
      <trkpt lat="47.14868" lon="-1.71277">
        <ele>19.73</ele>
        <time>2020-05-31T15:38:26Z</time>
      </trkpt>
      <trkpt lat="47.14858" lon="-1.71268">
        <ele>20.96</ele>
        <time>2020-05-31T15:38:28Z</time>
      </trkpt>
      <trkpt lat="47.1485" lon="-1.71254">
        <ele>21.73</ele>
        <time>2020-05-31T15:38:30Z</time>
      </trkpt>
      <trkpt lat="47.14842" lon="-1.71237">
        <ele>22.05</ele>
        <time>2020-05-31T15:38:32Z</time>
      </trkpt>
      <trkpt lat="47.14836" lon="-1.71223">
        <ele>21.77</ele>
        <time>2020-05-31T15:38:34Z</time>
      </trkpt>
      <trkpt lat="47.14832" lon="-1.71209">
        <ele>21.38</ele>
        <time>2020-05-31T15:38:36Z</time>
      </trkpt>
      <trkpt lat="47.14826" lon="-1.71195">
        <ele>20.55</ele>
        <time>2020-05-31T15:38:38Z</time>
      </trkpt>
      <trkpt lat="47.1482" lon="-1.7118">
        <ele>20.7</ele>
        <time>2020-05-31T15:38:40Z</time>
      </trkpt>
      <trkpt lat="47.14815" lon="-1.71165">
        <ele>20.58</ele>
        <time>2020-05-31T15:38:42Z</time>
      </trkpt>
      <trkpt lat="47.1481" lon="-1.7115">
        <ele>20.52</ele>
        <time>2020-05-31T15:38:44Z</time>
      </trkpt>
      <trkpt lat="47.14804" lon="-1.71134">
        <ele>20.03</ele>
        <time>2020-05-31T15:38:46Z</time>
      </trkpt>
      <trkpt lat="47.14798" lon="-1.7112">
        <ele>20.27</ele>
        <time>2020-05-31T15:38:48Z</time>
      </trkpt>
      <trkpt lat="47.14791" lon="-1.71105">
        <ele>19.5</ele>
        <time>2020-05-31T15:38:50Z</time>
      </trkpt>
      <trkpt lat="47.14783" lon="-1.7109">
        <ele>19.86</ele>
        <time>2020-05-31T15:38:52Z</time>
      </trkpt>
      <trkpt lat="47.14776" lon="-1.71074">
        <ele>20.06</ele>
        <time>2020-05-31T15:38:54Z</time>
      </trkpt>
      <trkpt lat="47.1477" lon="-1.71059">
        <ele>20.32</ele>
        <time>2020-05-31T15:38:56Z</time>
      </trkpt>
      <trkpt lat="47.14765" lon="-1.71042">
        <ele>20.94</ele>
        <time>2020-05-31T15:38:58Z</time>
      </trkpt>
      <trkpt lat="47.14761" lon="-1.71027">
        <ele>21.35</ele>
        <time>2020-05-31T15:39:00Z</time>
      </trkpt>
      <trkpt lat="47.14756" lon="-1.71009">
        <ele>21.25</ele>
        <time>2020-05-31T15:39:02Z</time>
      </trkpt>
      <trkpt lat="47.14752" lon="-1.70994">
        <ele>20.72</ele>
        <time>2020-05-31T15:39:04Z</time>
      </trkpt>
      <trkpt lat="47.14746" lon="-1.7098">
        <ele>20.54</ele>
        <time>2020-05-31T15:39:06Z</time>
      </trkpt>
      <trkpt lat="47.14734" lon="-1.70983">
        <ele>21.1</ele>
        <time>2020-05-31T15:39:08Z</time>
      </trkpt>
      <trkpt lat="47.14723" lon="-1.70997">
        <ele>20.98</ele>
        <time>2020-05-31T15:39:10Z</time>
      </trkpt>
      <trkpt lat="47.14715" lon="-1.71013">
        <ele>20.77</ele>
        <time>2020-05-31T15:39:12Z</time>
      </trkpt>
      <trkpt lat="47.14711" lon="-1.71032">
        <ele>20.24</ele>
        <time>2020-05-31T15:39:14Z</time>
      </trkpt>
      <trkpt lat="47.14709" lon="-1.71055">
        <ele>19.47</ele>
        <time>2020-05-31T15:39:16Z</time>
      </trkpt>
      <trkpt lat="47.14713" lon="-1.71077">
        <ele>18.25</ele>
        <time>2020-05-31T15:39:18Z</time>
      </trkpt>
      <trkpt lat="47.14716" lon="-1.71095">
        <ele>17.95</ele>
        <time>2020-05-31T15:39:20Z</time>
      </trkpt>
      <trkpt lat="47.14719" lon="-1.71113">
        <ele>17.81</ele>
        <time>2020-05-31T15:39:22Z</time>
      </trkpt>
      <trkpt lat="47.14723" lon="-1.71132">
        <ele>18.01</ele>
        <time>2020-05-31T15:39:24Z</time>
      </trkpt>
      <trkpt lat="47.14726" lon="-1.71154">
        <ele>18.28</ele>
        <time>2020-05-31T15:39:26Z</time>
      </trkpt>
      <trkpt lat="47.14729" lon="-1.71174">
        <ele>19.31</ele>
        <time>2020-05-31T15:39:28Z</time>
      </trkpt>
      <trkpt lat="47.14733" lon="-1.71194">
        <ele>20.65</ele>
        <time>2020-05-31T15:39:30Z</time>
      </trkpt>
      <trkpt lat="47.14741" lon="-1.71213">
        <ele>21.22</ele>
        <time>2020-05-31T15:39:32Z</time>
      </trkpt>
      <trkpt lat="47.14746" lon="-1.71232">
        <ele>20.92</ele>
        <time>2020-05-31T15:39:34Z</time>
      </trkpt>
      <trkpt lat="47.14751" lon="-1.7125">
        <ele>19.55</ele>
        <time>2020-05-31T15:39:36Z</time>
      </trkpt>
      <trkpt lat="47.14755" lon="-1.7127">
        <ele>19</ele>
        <time>2020-05-31T15:39:38Z</time>
      </trkpt>
      <trkpt lat="47.14759" lon="-1.7129">
        <ele>19.1</ele>
        <time>2020-05-31T15:39:40Z</time>
      </trkpt>
      <trkpt lat="47.14763" lon="-1.71308">
        <ele>19.64</ele>
        <time>2020-05-31T15:39:42Z</time>
      </trkpt>
      <trkpt lat="47.14766" lon="-1.71329">
        <ele>20.62</ele>
        <time>2020-05-31T15:39:44Z</time>
      </trkpt>
      <trkpt lat="47.14769" lon="-1.7135">
        <ele>21.55</ele>
        <time>2020-05-31T15:39:46Z</time>
      </trkpt>
      <trkpt lat="47.14772" lon="-1.71371">
        <ele>21.57</ele>
        <time>2020-05-31T15:39:48Z</time>
      </trkpt>
      <trkpt lat="47.14775" lon="-1.71391">
        <ele>21.27</ele>
        <time>2020-05-31T15:39:50Z</time>
      </trkpt>
      <trkpt lat="47.14778" lon="-1.7141">
        <ele>20.98</ele>
        <time>2020-05-31T15:39:52Z</time>
      </trkpt>
      <trkpt lat="47.14781" lon="-1.71431">
        <ele>20.08</ele>
        <time>2020-05-31T15:39:54Z</time>
      </trkpt>
      <trkpt lat="47.14784" lon="-1.7145">
        <ele>19.98</ele>
        <time>2020-05-31T15:39:56Z</time>
      </trkpt>
      <trkpt lat="47.14787" lon="-1.7147">
        <ele>19.4</ele>
        <time>2020-05-31T15:39:58Z</time>
      </trkpt>
      <trkpt lat="47.1479" lon="-1.71492">
        <ele>19.01</ele>
        <time>2020-05-31T15:40:00Z</time>
      </trkpt>
      <trkpt lat="47.14793" lon="-1.71515">
        <ele>18.48</ele>
        <time>2020-05-31T15:40:02Z</time>
      </trkpt>
      <trkpt lat="47.14795" lon="-1.71536">
        <ele>17.51</ele>
        <time>2020-05-31T15:40:04Z</time>
      </trkpt>
      <trkpt lat="47.14796" lon="-1.71555">
        <ele>17.92</ele>
        <time>2020-05-31T15:40:06Z</time>
      </trkpt>
      <trkpt lat="47.14795" lon="-1.71575">
        <ele>18.9</ele>
        <time>2020-05-31T15:40:08Z</time>
      </trkpt>
      <trkpt lat="47.14793" lon="-1.71596">
        <ele>19.94</ele>
        <time>2020-05-31T15:40:10Z</time>
      </trkpt>
      <trkpt lat="47.14791" lon="-1.71615">
        <ele>20.73</ele>
        <time>2020-05-31T15:40:12Z</time>
      </trkpt>
      <trkpt lat="47.14788" lon="-1.71633">
        <ele>20.89</ele>
        <time>2020-05-31T15:40:14Z</time>
      </trkpt>
      <trkpt lat="47.14784" lon="-1.71653">
        <ele>20.46</ele>
        <time>2020-05-31T15:40:16Z</time>
      </trkpt>
      <trkpt lat="47.1478" lon="-1.71672">
        <ele>19.96</ele>
        <time>2020-05-31T15:40:18Z</time>
      </trkpt>
      <trkpt lat="47.14777" lon="-1.71692">
        <ele>20.12</ele>
        <time>2020-05-31T15:40:20Z</time>
      </trkpt>
      <trkpt lat="47.14773" lon="-1.71713">
        <ele>20.23</ele>
        <time>2020-05-31T15:40:22Z</time>
      </trkpt>
      <trkpt lat="47.14769" lon="-1.71732">
        <ele>20.39</ele>
        <time>2020-05-31T15:40:24Z</time>
      </trkpt>
      <trkpt lat="47.14766" lon="-1.7175">
        <ele>20.53</ele>
        <time>2020-05-31T15:40:26Z</time>
      </trkpt>
      <trkpt lat="47.14762" lon="-1.7177">
        <ele>21.99</ele>
        <time>2020-05-31T15:40:28Z</time>
      </trkpt>
      <trkpt lat="47.14756" lon="-1.71786">
        <ele>23.37</ele>
        <time>2020-05-31T15:40:30Z</time>
      </trkpt>
      <trkpt lat="47.14746" lon="-1.71802">
        <ele>23.65</ele>
        <time>2020-05-31T15:40:32Z</time>
      </trkpt>
      <trkpt lat="47.14735" lon="-1.71814">
        <ele>23.62</ele>
        <time>2020-05-31T15:40:34Z</time>
      </trkpt>
      <trkpt lat="47.14722" lon="-1.71824">
        <ele>23.66</ele>
        <time>2020-05-31T15:40:36Z</time>
      </trkpt>
      <trkpt lat="47.14708" lon="-1.71831">
        <ele>23.07</ele>
        <time>2020-05-31T15:40:38Z</time>
      </trkpt>
      <trkpt lat="47.14694" lon="-1.71838">
        <ele>22.87</ele>
        <time>2020-05-31T15:40:40Z</time>
      </trkpt>
      <trkpt lat="47.14679" lon="-1.71845">
        <ele>22.02</ele>
        <time>2020-05-31T15:40:42Z</time>
      </trkpt>
      <trkpt lat="47.14666" lon="-1.71851">
        <ele>21.68</ele>
        <time>2020-05-31T15:40:44Z</time>
      </trkpt>
      <trkpt lat="47.1465" lon="-1.71855">
        <ele>20.88</ele>
        <time>2020-05-31T15:40:46Z</time>
      </trkpt>
      <trkpt lat="47.14632" lon="-1.71859">
        <ele>19.78</ele>
        <time>2020-05-31T15:40:48Z</time>
      </trkpt>
      <trkpt lat="47.14619" lon="-1.71858">
        <ele>19.15</ele>
        <time>2020-05-31T15:40:50Z</time>
      </trkpt>
      <trkpt lat="47.14605" lon="-1.71856">
        <ele>18.58</ele>
        <time>2020-05-31T15:40:52Z</time>
      </trkpt>
      <trkpt lat="47.14592" lon="-1.71851">
        <ele>19.32</ele>
        <time>2020-05-31T15:40:54Z</time>
      </trkpt>
      <trkpt lat="47.14577" lon="-1.71844">
        <ele>20.13</ele>
        <time>2020-05-31T15:40:56Z</time>
      </trkpt>
      <trkpt lat="47.14564" lon="-1.71837">
        <ele>20.03</ele>
        <time>2020-05-31T15:40:58Z</time>
      </trkpt>
      <trkpt lat="47.14551" lon="-1.7183">
        <ele>19.45</ele>
        <time>2020-05-31T15:41:00Z</time>
      </trkpt>
      <trkpt lat="47.14537" lon="-1.71823">
        <ele>19.58</ele>
        <time>2020-05-31T15:41:02Z</time>
      </trkpt>
      <trkpt lat="47.14523" lon="-1.71815">
        <ele>19.82</ele>
        <time>2020-05-31T15:41:04Z</time>
      </trkpt>
      <trkpt lat="47.1451" lon="-1.71808">
        <ele>20.4</ele>
        <time>2020-05-31T15:41:06Z</time>
      </trkpt>
      <trkpt lat="47.14497" lon="-1.71802">
        <ele>19.95</ele>
        <time>2020-05-31T15:41:08Z</time>
      </trkpt>
      <trkpt lat="47.14483" lon="-1.71795">
        <ele>19.33</ele>
        <time>2020-05-31T15:41:10Z</time>
      </trkpt>
      <trkpt lat="47.14469" lon="-1.7179">
        <ele>19.16</ele>
        <time>2020-05-31T15:41:12Z</time>
      </trkpt>
      <trkpt lat="47.14456" lon="-1.71784">
        <ele>18.5</ele>
        <time>2020-05-31T15:41:14Z</time>
      </trkpt>
      <trkpt lat="47.14445" lon="-1.71781">
        <ele>18.86</ele>
        <time>2020-05-31T15:41:16Z</time>
      </trkpt>
      <trkpt lat="47.14431" lon="-1.71778">
        <ele>19.33</ele>
        <time>2020-05-31T15:41:18Z</time>
      </trkpt>
      <trkpt lat="47.14415" lon="-1.71777">
        <ele>19.1</ele>
        <time>2020-05-31T15:41:20Z</time>
      </trkpt>
      <trkpt lat="47.14401" lon="-1.71778">
        <ele>18.82</ele>
        <time>2020-05-31T15:41:22Z</time>
      </trkpt>
      <trkpt lat="47.14386" lon="-1.71781">
        <ele>18.17</ele>
        <time>2020-05-31T15:41:24Z</time>
      </trkpt>
      <trkpt lat="47.14371" lon="-1.71786">
        <ele>18.35</ele>
        <time>2020-05-31T15:41:26Z</time>
      </trkpt>
      <trkpt lat="47.14359" lon="-1.71791">
        <ele>17.53</ele>
        <time>2020-05-31T15:41:28Z</time>
      </trkpt>
      <trkpt lat="47.14344" lon="-1.71797">
        <ele>17.15</ele>
        <time>2020-05-31T15:41:30Z</time>
      </trkpt>
      <trkpt lat="47.1433" lon="-1.71803">
        <ele>17.08</ele>
        <time>2020-05-31T15:41:32Z</time>
      </trkpt>
      <trkpt lat="47.14315" lon="-1.71808">
        <ele>16.9</ele>
        <time>2020-05-31T15:41:34Z</time>
      </trkpt>
      <trkpt lat="47.14301" lon="-1.71813">
        <ele>17.14</ele>
        <time>2020-05-31T15:41:36Z</time>
      </trkpt>
      <trkpt lat="47.14288" lon="-1.71817">
        <ele>16.49</ele>
        <time>2020-05-31T15:41:38Z</time>
      </trkpt>
      <trkpt lat="47.14273" lon="-1.71822">
        <ele>15.64</ele>
        <time>2020-05-31T15:41:40Z</time>
      </trkpt>
      <trkpt lat="47.1426" lon="-1.71827">
        <ele>15.87</ele>
        <time>2020-05-31T15:41:42Z</time>
      </trkpt>
      <trkpt lat="47.14246" lon="-1.71832">
        <ele>16.28</ele>
        <time>2020-05-31T15:41:44Z</time>
      </trkpt>
      <trkpt lat="47.14231" lon="-1.71836">
        <ele>15.79</ele>
        <time>2020-05-31T15:41:46Z</time>
      </trkpt>
      <trkpt lat="47.14217" lon="-1.7184">
        <ele>14.79</ele>
        <time>2020-05-31T15:41:48Z</time>
      </trkpt>
      <trkpt lat="47.14204" lon="-1.71845">
        <ele>13.69</ele>
        <time>2020-05-31T15:41:50Z</time>
      </trkpt>
      <trkpt lat="47.14191" lon="-1.71848">
        <ele>12.94</ele>
        <time>2020-05-31T15:41:52Z</time>
      </trkpt>
      <trkpt lat="47.14176" lon="-1.71853">
        <ele>12.44</ele>
        <time>2020-05-31T15:41:54Z</time>
      </trkpt>
      <trkpt lat="47.1416" lon="-1.71858">
        <ele>10.85</ele>
        <time>2020-05-31T15:41:56Z</time>
      </trkpt>
      <trkpt lat="47.14145" lon="-1.71863">
        <ele>10.2</ele>
        <time>2020-05-31T15:41:58Z</time>
      </trkpt>
      <trkpt lat="47.1413" lon="-1.71869">
        <ele>10.32</ele>
        <time>2020-05-31T15:42:00Z</time>
      </trkpt>
      <trkpt lat="47.14114" lon="-1.71874">
        <ele>10.18</ele>
        <time>2020-05-31T15:42:02Z</time>
      </trkpt>
      <trkpt lat="47.14098" lon="-1.7188">
        <ele>8.79</ele>
        <time>2020-05-31T15:42:04Z</time>
      </trkpt>
      <trkpt lat="47.14082" lon="-1.71885">
        <ele>8.1</ele>
        <time>2020-05-31T15:42:06Z</time>
      </trkpt>
      <trkpt lat="47.14064" lon="-1.71891">
        <ele>7.23</ele>
        <time>2020-05-31T15:42:08Z</time>
      </trkpt>
      <trkpt lat="47.14048" lon="-1.71896">
        <ele>6.61</ele>
        <time>2020-05-31T15:42:10Z</time>
      </trkpt>
      <trkpt lat="47.14032" lon="-1.71901">
        <ele>6.51</ele>
        <time>2020-05-31T15:42:12Z</time>
      </trkpt>
      <trkpt lat="47.14023" lon="-1.71904">
        <ele>6.54</ele>
        <time>2020-05-31T15:42:13Z</time>
      </trkpt>
      <trkpt lat="47.14014" lon="-1.71904">
        <ele>6.24</ele>
        <time>2020-05-31T15:42:14Z</time>
      </trkpt>
      <trkpt lat="47.13995" lon="-1.71901">
        <ele>5.75</ele>
        <time>2020-05-31T15:42:16Z</time>
      </trkpt>
      <trkpt lat="47.13979" lon="-1.71898">
        <ele>5.17</ele>
        <time>2020-05-31T15:42:18Z</time>
      </trkpt>
      <trkpt lat="47.13968" lon="-1.71911">
        <ele>4.26</ele>
        <time>2020-05-31T15:42:20Z</time>
      </trkpt>
      <trkpt lat="47.13968" lon="-1.71935">
        <ele>3.83</ele>
        <time>2020-05-31T15:42:22Z</time>
      </trkpt>
      <trkpt lat="47.13965" lon="-1.71956">
        <ele>3.89</ele>
        <time>2020-05-31T15:42:24Z</time>
      </trkpt>
      <trkpt lat="47.13954" lon="-1.71972">
        <ele>4.49</ele>
        <time>2020-05-31T15:42:26Z</time>
      </trkpt>
      <trkpt lat="47.13941" lon="-1.71981">
        <ele>4.34</ele>
        <time>2020-05-31T15:42:28Z</time>
      </trkpt>
      <trkpt lat="47.13928" lon="-1.71989">
        <ele>4.48</ele>
        <time>2020-05-31T15:42:31Z</time>
      </trkpt>
      <trkpt lat="47.13917" lon="-1.71994">
        <ele>4.96</ele>
        <time>2020-05-31T15:42:33Z</time>
      </trkpt>
      <trkpt lat="47.13904" lon="-1.71999">
        <ele>5.37</ele>
        <time>2020-05-31T15:42:35Z</time>
      </trkpt>
      <trkpt lat="47.13891" lon="-1.72006">
        <ele>5.66</ele>
        <time>2020-05-31T15:42:37Z</time>
      </trkpt>
      <trkpt lat="47.13879" lon="-1.72014">
        <ele>5.21</ele>
        <time>2020-05-31T15:42:39Z</time>
      </trkpt>
      <trkpt lat="47.13867" lon="-1.72025">
        <ele>5.46</ele>
        <time>2020-05-31T15:42:41Z</time>
      </trkpt>
      <trkpt lat="47.13858" lon="-1.72037">
        <ele>5.76</ele>
        <time>2020-05-31T15:42:43Z</time>
      </trkpt>
      <trkpt lat="47.13848" lon="-1.72052">
        <ele>6</ele>
        <time>2020-05-31T15:42:45Z</time>
      </trkpt>
      <trkpt lat="47.13841" lon="-1.72066">
        <ele>6.51</ele>
        <time>2020-05-31T15:42:47Z</time>
      </trkpt>
      <trkpt lat="47.13833" lon="-1.7208">
        <ele>6.67</ele>
        <time>2020-05-31T15:42:49Z</time>
      </trkpt>
      <trkpt lat="47.13825" lon="-1.72095">
        <ele>6.83</ele>
        <time>2020-05-31T15:42:51Z</time>
      </trkpt>
      <trkpt lat="47.13816" lon="-1.72111">
        <ele>7.07</ele>
        <time>2020-05-31T15:42:53Z</time>
      </trkpt>
      <trkpt lat="47.13809" lon="-1.72125">
        <ele>7.03</ele>
        <time>2020-05-31T15:42:55Z</time>
      </trkpt>
      <trkpt lat="47.13802" lon="-1.72137">
        <ele>7.85</ele>
        <time>2020-05-31T15:42:57Z</time>
      </trkpt>
      <trkpt lat="47.13792" lon="-1.72152">
        <ele>8.12</ele>
        <time>2020-05-31T15:42:59Z</time>
      </trkpt>
      <trkpt lat="47.13784" lon="-1.72166">
        <ele>8.74</ele>
        <time>2020-05-31T15:43:01Z</time>
      </trkpt>
      <trkpt lat="47.13776" lon="-1.72181">
        <ele>9.7</ele>
        <time>2020-05-31T15:43:03Z</time>
      </trkpt>
      <trkpt lat="47.13768" lon="-1.72193">
        <ele>10.25</ele>
        <time>2020-05-31T15:43:05Z</time>
      </trkpt>
      <trkpt lat="47.13761" lon="-1.72206">
        <ele>11.21</ele>
        <time>2020-05-31T15:43:07Z</time>
      </trkpt>
      <trkpt lat="47.13754" lon="-1.72218">
        <ele>11.29</ele>
        <time>2020-05-31T15:43:09Z</time>
      </trkpt>
      <trkpt lat="47.13746" lon="-1.72233">
        <ele>10.92</ele>
        <time>2020-05-31T15:43:11Z</time>
      </trkpt>
      <trkpt lat="47.13739" lon="-1.72251">
        <ele>10.32</ele>
        <time>2020-05-31T15:43:13Z</time>
      </trkpt>
      <trkpt lat="47.13734" lon="-1.72267">
        <ele>10.98</ele>
        <time>2020-05-31T15:43:15Z</time>
      </trkpt>
      <trkpt lat="47.13732" lon="-1.72285">
        <ele>11.57</ele>
        <time>2020-05-31T15:43:17Z</time>
      </trkpt>
      <trkpt lat="47.13731" lon="-1.72302">
        <ele>11.74</ele>
        <time>2020-05-31T15:43:19Z</time>
      </trkpt>
      <trkpt lat="47.13731" lon="-1.7232">
        <ele>13.29</ele>
        <time>2020-05-31T15:43:21Z</time>
      </trkpt>
      <trkpt lat="47.1373" lon="-1.72337">
        <ele>14.52</ele>
        <time>2020-05-31T15:43:23Z</time>
      </trkpt>
      <trkpt lat="47.13726" lon="-1.72356">
        <ele>14.89</ele>
        <time>2020-05-31T15:43:25Z</time>
      </trkpt>
      <trkpt lat="47.13723" lon="-1.72373">
        <ele>15.04</ele>
        <time>2020-05-31T15:43:27Z</time>
      </trkpt>
      <trkpt lat="47.13719" lon="-1.72391">
        <ele>16.23</ele>
        <time>2020-05-31T15:43:29Z</time>
      </trkpt>
      <trkpt lat="47.13714" lon="-1.7241">
        <ele>16.74</ele>
        <time>2020-05-31T15:43:31Z</time>
      </trkpt>
      <trkpt lat="47.13709" lon="-1.72425">
        <ele>16.9</ele>
        <time>2020-05-31T15:43:33Z</time>
      </trkpt>
      <trkpt lat="47.13704" lon="-1.72444">
        <ele>17.03</ele>
        <time>2020-05-31T15:43:35Z</time>
      </trkpt>
      <trkpt lat="47.13699" lon="-1.72462">
        <ele>16.62</ele>
        <time>2020-05-31T15:43:37Z</time>
      </trkpt>
      <trkpt lat="47.13694" lon="-1.7248">
        <ele>16.61</ele>
        <time>2020-05-31T15:43:39Z</time>
      </trkpt>
      <trkpt lat="47.13689" lon="-1.72498">
        <ele>16.3</ele>
        <time>2020-05-31T15:43:41Z</time>
      </trkpt>
      <trkpt lat="47.13683" lon="-1.7252">
        <ele>16.24</ele>
        <time>2020-05-31T15:43:43Z</time>
      </trkpt>
      <trkpt lat="47.1368" lon="-1.72539">
        <ele>16.31</ele>
        <time>2020-05-31T15:43:45Z</time>
      </trkpt>
      <trkpt lat="47.13678" lon="-1.72558">
        <ele>16.5</ele>
        <time>2020-05-31T15:43:47Z</time>
      </trkpt>
      <trkpt lat="47.13677" lon="-1.72577">
        <ele>16.93</ele>
        <time>2020-05-31T15:43:49Z</time>
      </trkpt>
      <trkpt lat="47.13676" lon="-1.72597">
        <ele>17.43</ele>
        <time>2020-05-31T15:43:51Z</time>
      </trkpt>
      <trkpt lat="47.13676" lon="-1.72617">
        <ele>17.31</ele>
        <time>2020-05-31T15:43:53Z</time>
      </trkpt>
      <trkpt lat="47.13675" lon="-1.72636">
        <ele>17.08</ele>
        <time>2020-05-31T15:43:55Z</time>
      </trkpt>
      <trkpt lat="47.13672" lon="-1.72656">
        <ele>17.05</ele>
        <time>2020-05-31T15:43:57Z</time>
      </trkpt>
      <trkpt lat="47.1367" lon="-1.72671">
        <ele>17.13</ele>
        <time>2020-05-31T15:43:59Z</time>
      </trkpt>
      <trkpt lat="47.13667" lon="-1.7269">
        <ele>17.18</ele>
        <time>2020-05-31T15:44:01Z</time>
      </trkpt>
      <trkpt lat="47.13664" lon="-1.7271">
        <ele>16.9</ele>
        <time>2020-05-31T15:44:03Z</time>
      </trkpt>
      <trkpt lat="47.13662" lon="-1.72728">
        <ele>17.7</ele>
        <time>2020-05-31T15:44:05Z</time>
      </trkpt>
      <trkpt lat="47.13661" lon="-1.72751">
        <ele>16.63</ele>
        <time>2020-05-31T15:44:07Z</time>
      </trkpt>
      <trkpt lat="47.13661" lon="-1.72768">
        <ele>15.07</ele>
        <time>2020-05-31T15:44:09Z</time>
      </trkpt>
      <trkpt lat="47.1366" lon="-1.72787">
        <ele>14.63</ele>
        <time>2020-05-31T15:44:11Z</time>
      </trkpt>
      <trkpt lat="47.13659" lon="-1.72806">
        <ele>14.08</ele>
        <time>2020-05-31T15:44:13Z</time>
      </trkpt>
      <trkpt lat="47.13658" lon="-1.72829">
        <ele>13.62</ele>
        <time>2020-05-31T15:44:15Z</time>
      </trkpt>
      <trkpt lat="47.13655" lon="-1.72851">
        <ele>12.99</ele>
        <time>2020-05-31T15:44:17Z</time>
      </trkpt>
      <trkpt lat="47.13654" lon="-1.72871">
        <ele>12.09</ele>
        <time>2020-05-31T15:44:19Z</time>
      </trkpt>
      <trkpt lat="47.13652" lon="-1.72895">
        <ele>11.55</ele>
        <time>2020-05-31T15:44:21Z</time>
      </trkpt>
      <trkpt lat="47.13651" lon="-1.72908">
        <ele>11.21</ele>
        <time>2020-05-31T15:44:22Z</time>
      </trkpt>
      <trkpt lat="47.13648" lon="-1.72934">
        <ele>11.39</ele>
        <time>2020-05-31T15:44:24Z</time>
      </trkpt>
      <trkpt lat="47.13645" lon="-1.72961">
        <ele>10.64</ele>
        <time>2020-05-31T15:44:26Z</time>
      </trkpt>
      <trkpt lat="47.13644" lon="-1.72975">
        <ele>10.49</ele>
        <time>2020-05-31T15:44:27Z</time>
      </trkpt>
      <trkpt lat="47.13643" lon="-1.7299">
        <ele>10.54</ele>
        <time>2020-05-31T15:44:28Z</time>
      </trkpt>
      <trkpt lat="47.13641" lon="-1.73006">
        <ele>10.24</ele>
        <time>2020-05-31T15:44:29Z</time>
      </trkpt>
      <trkpt lat="47.13639" lon="-1.73023">
        <ele>10.19</ele>
        <time>2020-05-31T15:44:30Z</time>
      </trkpt>
      <trkpt lat="47.13633" lon="-1.73038">
        <ele>10.19</ele>
        <time>2020-05-31T15:44:31Z</time>
      </trkpt>
      <trkpt lat="47.13627" lon="-1.73049">
        <ele>10.24</ele>
        <time>2020-05-31T15:44:32Z</time>
      </trkpt>
      <trkpt lat="47.13612" lon="-1.73064">
        <ele>9.27</ele>
        <time>2020-05-31T15:44:34Z</time>
      </trkpt>
      <trkpt lat="47.13604" lon="-1.73072">
        <ele>8.74</ele>
        <time>2020-05-31T15:44:35Z</time>
      </trkpt>
      <trkpt lat="47.13594" lon="-1.7308">
        <ele>8.31</ele>
        <time>2020-05-31T15:44:36Z</time>
      </trkpt>
      <trkpt lat="47.13585" lon="-1.73086">
        <ele>7.7</ele>
        <time>2020-05-31T15:44:37Z</time>
      </trkpt>
      <trkpt lat="47.13577" lon="-1.73092">
        <ele>7.66</ele>
        <time>2020-05-31T15:44:38Z</time>
      </trkpt>
      <trkpt lat="47.13562" lon="-1.73105">
        <ele>7.42</ele>
        <time>2020-05-31T15:44:40Z</time>
      </trkpt>
      <trkpt lat="47.13554" lon="-1.73112">
        <ele>7.36</ele>
        <time>2020-05-31T15:44:41Z</time>
      </trkpt>
      <trkpt lat="47.13546" lon="-1.73119">
        <ele>7.27</ele>
        <time>2020-05-31T15:44:42Z</time>
      </trkpt>
      <trkpt lat="47.13532" lon="-1.73135">
        <ele>6.9</ele>
        <time>2020-05-31T15:44:44Z</time>
      </trkpt>
      <trkpt lat="47.1352" lon="-1.73153">
        <ele>6.63</ele>
        <time>2020-05-31T15:44:46Z</time>
      </trkpt>
      <trkpt lat="47.13515" lon="-1.73165">
        <ele>6.36</ele>
        <time>2020-05-31T15:44:47Z</time>
      </trkpt>
      <trkpt lat="47.13511" lon="-1.73191">
        <ele>5.46</ele>
        <time>2020-05-31T15:44:49Z</time>
      </trkpt>
      <trkpt lat="47.13509" lon="-1.73205">
        <ele>4.88</ele>
        <time>2020-05-31T15:44:50Z</time>
      </trkpt>
      <trkpt lat="47.13506" lon="-1.73232">
        <ele>3.9</ele>
        <time>2020-05-31T15:44:52Z</time>
      </trkpt>
      <trkpt lat="47.13505" lon="-1.73245">
        <ele>3.46</ele>
        <time>2020-05-31T15:44:53Z</time>
      </trkpt>
      <trkpt lat="47.13504" lon="-1.7327">
        <ele>2.5</ele>
        <time>2020-05-31T15:44:55Z</time>
      </trkpt>
      <trkpt lat="47.13503" lon="-1.73285">
        <ele>1.98</ele>
        <time>2020-05-31T15:44:56Z</time>
      </trkpt>
      <trkpt lat="47.13505" lon="-1.73298">
        <ele>1.43</ele>
        <time>2020-05-31T15:44:57Z</time>
      </trkpt>
      <trkpt lat="47.13508" lon="-1.73312">
        <ele>1.02</ele>
        <time>2020-05-31T15:44:58Z</time>
      </trkpt>
      <trkpt lat="47.1351" lon="-1.73325">
        <ele>0.76</ele>
        <time>2020-05-31T15:44:59Z</time>
      </trkpt>
      <trkpt lat="47.13517" lon="-1.73349">
        <ele>1.34</ele>
        <time>2020-05-31T15:45:01Z</time>
      </trkpt>
      <trkpt lat="47.13524" lon="-1.73371">
        <ele>2.1</ele>
        <time>2020-05-31T15:45:03Z</time>
      </trkpt>
      <trkpt lat="47.13532" lon="-1.73393">
        <ele>2.56</ele>
        <time>2020-05-31T15:45:05Z</time>
      </trkpt>
      <trkpt lat="47.13538" lon="-1.73414">
        <ele>3.24</ele>
        <time>2020-05-31T15:45:07Z</time>
      </trkpt>
      <trkpt lat="47.13545" lon="-1.73434">
        <ele>3.7</ele>
        <time>2020-05-31T15:45:09Z</time>
      </trkpt>
      <trkpt lat="47.13552" lon="-1.73454">
        <ele>3.67</ele>
        <time>2020-05-31T15:45:11Z</time>
      </trkpt>
      <trkpt lat="47.13559" lon="-1.73476">
        <ele>4.23</ele>
        <time>2020-05-31T15:45:13Z</time>
      </trkpt>
      <trkpt lat="47.13564" lon="-1.73497">
        <ele>5.02</ele>
        <time>2020-05-31T15:45:15Z</time>
      </trkpt>
      <trkpt lat="47.1357" lon="-1.73518">
        <ele>6.12</ele>
        <time>2020-05-31T15:45:17Z</time>
      </trkpt>
      <trkpt lat="47.13576" lon="-1.73541">
        <ele>6.77</ele>
        <time>2020-05-31T15:45:19Z</time>
      </trkpt>
      <trkpt lat="47.13582" lon="-1.73563">
        <ele>7.36</ele>
        <time>2020-05-31T15:45:21Z</time>
      </trkpt>
      <trkpt lat="47.13589" lon="-1.73584">
        <ele>7.65</ele>
        <time>2020-05-31T15:45:23Z</time>
      </trkpt>
      <trkpt lat="47.13597" lon="-1.73606">
        <ele>7.13</ele>
        <time>2020-05-31T15:45:25Z</time>
      </trkpt>
      <trkpt lat="47.13604" lon="-1.73626">
        <ele>6.48</ele>
        <time>2020-05-31T15:45:27Z</time>
      </trkpt>
      <trkpt lat="47.13613" lon="-1.73649">
        <ele>6.35</ele>
        <time>2020-05-31T15:45:29Z</time>
      </trkpt>
      <trkpt lat="47.13621" lon="-1.73671">
        <ele>6.45</ele>
        <time>2020-05-31T15:45:31Z</time>
      </trkpt>
      <trkpt lat="47.13628" lon="-1.73693">
        <ele>6.25</ele>
        <time>2020-05-31T15:45:33Z</time>
      </trkpt>
      <trkpt lat="47.13634" lon="-1.73714">
        <ele>5.84</ele>
        <time>2020-05-31T15:45:35Z</time>
      </trkpt>
      <trkpt lat="47.13639" lon="-1.73738">
        <ele>5.35</ele>
        <time>2020-05-31T15:45:37Z</time>
      </trkpt>
      <trkpt lat="47.13642" lon="-1.73764">
        <ele>4.88</ele>
        <time>2020-05-31T15:45:39Z</time>
      </trkpt>
      <trkpt lat="47.13643" lon="-1.73778">
        <ele>4.82</ele>
        <time>2020-05-31T15:45:40Z</time>
      </trkpt>
      <trkpt lat="47.13644" lon="-1.73792">
        <ele>4.78</ele>
        <time>2020-05-31T15:45:41Z</time>
      </trkpt>
      <trkpt lat="47.13645" lon="-1.73816">
        <ele>2.6</ele>
        <time>2020-05-31T15:45:43Z</time>
      </trkpt>
      <trkpt lat="47.13647" lon="-1.73841">
        <ele>1.01</ele>
        <time>2020-05-31T15:45:45Z</time>
      </trkpt>
      <trkpt lat="47.13648" lon="-1.73866">
        <ele>-0.38</ele>
        <time>2020-05-31T15:45:47Z</time>
      </trkpt>
      <trkpt lat="47.13649" lon="-1.7389">
        <ele>-0.41</ele>
        <time>2020-05-31T15:45:49Z</time>
      </trkpt>
      <trkpt lat="47.1365" lon="-1.73913">
        <ele>0.25</ele>
        <time>2020-05-31T15:45:51Z</time>
      </trkpt>
      <trkpt lat="47.13651" lon="-1.73938">
        <ele>1.68</ele>
        <time>2020-05-31T15:45:53Z</time>
      </trkpt>
      <trkpt lat="47.13652" lon="-1.7396">
        <ele>2.6</ele>
        <time>2020-05-31T15:45:55Z</time>
      </trkpt>
      <trkpt lat="47.13653" lon="-1.7398">
        <ele>3.98</ele>
        <time>2020-05-31T15:45:57Z</time>
      </trkpt>
      <trkpt lat="47.13651" lon="-1.73999">
        <ele>5.05</ele>
        <time>2020-05-31T15:45:59Z</time>
      </trkpt>
      <trkpt lat="47.13649" lon="-1.74019">
        <ele>5.98</ele>
        <time>2020-05-31T15:46:01Z</time>
      </trkpt>
      <trkpt lat="47.13647" lon="-1.74038">
        <ele>6.91</ele>
        <time>2020-05-31T15:46:03Z</time>
      </trkpt>
      <trkpt lat="47.13644" lon="-1.74056">
        <ele>8.27</ele>
        <time>2020-05-31T15:46:05Z</time>
      </trkpt>
      <trkpt lat="47.13643" lon="-1.74075">
        <ele>8.73</ele>
        <time>2020-05-31T15:46:07Z</time>
      </trkpt>
      <trkpt lat="47.13642" lon="-1.74094">
        <ele>8.75</ele>
        <time>2020-05-31T15:46:09Z</time>
      </trkpt>
      <trkpt lat="47.13642" lon="-1.74113">
        <ele>8.89</ele>
        <time>2020-05-31T15:46:11Z</time>
      </trkpt>
      <trkpt lat="47.13643" lon="-1.74132">
        <ele>10.58</ele>
        <time>2020-05-31T15:46:13Z</time>
      </trkpt>
      <trkpt lat="47.13646" lon="-1.74152">
        <ele>10.85</ele>
        <time>2020-05-31T15:46:15Z</time>
      </trkpt>
      <trkpt lat="47.1365" lon="-1.74171">
        <ele>10.63</ele>
        <time>2020-05-31T15:46:17Z</time>
      </trkpt>
      <trkpt lat="47.13654" lon="-1.74189">
        <ele>10.36</ele>
        <time>2020-05-31T15:46:19Z</time>
      </trkpt>
      <trkpt lat="47.13659" lon="-1.74208">
        <ele>9.98</ele>
        <time>2020-05-31T15:46:21Z</time>
      </trkpt>
      <trkpt lat="47.13664" lon="-1.74227">
        <ele>9.85</ele>
        <time>2020-05-31T15:46:23Z</time>
      </trkpt>
      <trkpt lat="47.13671" lon="-1.74246">
        <ele>9.12</ele>
        <time>2020-05-31T15:46:25Z</time>
      </trkpt>
      <trkpt lat="47.13676" lon="-1.74266">
        <ele>8.36</ele>
        <time>2020-05-31T15:46:27Z</time>
      </trkpt>
      <trkpt lat="47.13682" lon="-1.74287">
        <ele>8.22</ele>
        <time>2020-05-31T15:46:29Z</time>
      </trkpt>
      <trkpt lat="47.13689" lon="-1.74307">
        <ele>7.81</ele>
        <time>2020-05-31T15:46:31Z</time>
      </trkpt>
      <trkpt lat="47.13696" lon="-1.7433">
        <ele>7.07</ele>
        <time>2020-05-31T15:46:33Z</time>
      </trkpt>
      <trkpt lat="47.13696" lon="-1.74344">
        <ele>7.11</ele>
        <time>2020-05-31T15:46:34Z</time>
      </trkpt>
      <trkpt lat="47.13697" lon="-1.7437">
        <ele>6.78</ele>
        <time>2020-05-31T15:46:36Z</time>
      </trkpt>
      <trkpt lat="47.13697" lon="-1.74385">
        <ele>6.42</ele>
        <time>2020-05-31T15:46:37Z</time>
      </trkpt>
      <trkpt lat="47.13696" lon="-1.74399">
        <ele>6.35</ele>
        <time>2020-05-31T15:46:38Z</time>
      </trkpt>
      <trkpt lat="47.13696" lon="-1.74416">
        <ele>6.72</ele>
        <time>2020-05-31T15:46:39Z</time>
      </trkpt>
      <trkpt lat="47.13696" lon="-1.74431">
        <ele>7.52</ele>
        <time>2020-05-31T15:46:40Z</time>
      </trkpt>
      <trkpt lat="47.13692" lon="-1.74455">
        <ele>7.88</ele>
        <time>2020-05-31T15:46:42Z</time>
      </trkpt>
      <trkpt lat="47.13683" lon="-1.74465">
        <ele>7.62</ele>
        <time>2020-05-31T15:46:43Z</time>
      </trkpt>
      <trkpt lat="47.13676" lon="-1.74474">
        <ele>7.23</ele>
        <time>2020-05-31T15:46:44Z</time>
      </trkpt>
      <trkpt lat="47.13668" lon="-1.74482">
        <ele>6.44</ele>
        <time>2020-05-31T15:46:45Z</time>
      </trkpt>
      <trkpt lat="47.13654" lon="-1.74498">
        <ele>5.61</ele>
        <time>2020-05-31T15:46:47Z</time>
      </trkpt>
      <trkpt lat="47.1364" lon="-1.74512">
        <ele>5.15</ele>
        <time>2020-05-31T15:46:49Z</time>
      </trkpt>
      <trkpt lat="47.13627" lon="-1.74526">
        <ele>4.38</ele>
        <time>2020-05-31T15:46:51Z</time>
      </trkpt>
      <trkpt lat="47.13615" lon="-1.74539">
        <ele>3.66</ele>
        <time>2020-05-31T15:46:53Z</time>
      </trkpt>
      <trkpt lat="47.13602" lon="-1.74552">
        <ele>2.61</ele>
        <time>2020-05-31T15:46:55Z</time>
      </trkpt>
      <trkpt lat="47.13589" lon="-1.74567">
        <ele>0.86</ele>
        <time>2020-05-31T15:46:57Z</time>
      </trkpt>
      <trkpt lat="47.13581" lon="-1.74574">
        <ele>0.49</ele>
        <time>2020-05-31T15:46:58Z</time>
      </trkpt>
      <trkpt lat="47.13573" lon="-1.74582">
        <ele>0.36</ele>
        <time>2020-05-31T15:46:59Z</time>
      </trkpt>
      <trkpt lat="47.13565" lon="-1.74591">
        <ele>0.53</ele>
        <time>2020-05-31T15:47:00Z</time>
      </trkpt>
      <trkpt lat="47.13557" lon="-1.74599">
        <ele>0.42</ele>
        <time>2020-05-31T15:47:01Z</time>
      </trkpt>
      <trkpt lat="47.13542" lon="-1.74613">
        <ele>-0.26</ele>
        <time>2020-05-31T15:47:03Z</time>
      </trkpt>
      <trkpt lat="47.13529" lon="-1.74626">
        <ele>-0.67</ele>
        <time>2020-05-31T15:47:05Z</time>
      </trkpt>
      <trkpt lat="47.13518" lon="-1.74638">
        <ele>-0.63</ele>
        <time>2020-05-31T15:47:07Z</time>
      </trkpt>
      <trkpt lat="47.13508" lon="-1.74647">
        <ele>-1.38</ele>
        <time>2020-05-31T15:47:09Z</time>
      </trkpt>
      <trkpt lat="47.13498" lon="-1.74663">
        <ele>-2.16</ele>
        <time>2020-05-31T15:47:11Z</time>
      </trkpt>
      <trkpt lat="47.13491" lon="-1.74679">
        <ele>-2.12</ele>
        <time>2020-05-31T15:47:13Z</time>
      </trkpt>
      <trkpt lat="47.13486" lon="-1.74693">
        <ele>-1.5</ele>
        <time>2020-05-31T15:47:15Z</time>
      </trkpt>
      <trkpt lat="47.13481" lon="-1.74707">
        <ele>-0.47</ele>
        <time>2020-05-31T15:47:17Z</time>
      </trkpt>
      <trkpt lat="47.13473" lon="-1.74726">
        <ele>1.08</ele>
        <time>2020-05-31T15:47:20Z</time>
      </trkpt>
      <trkpt lat="47.13464" lon="-1.74739">
        <ele>1.32</ele>
        <time>2020-05-31T15:47:22Z</time>
      </trkpt>
      <trkpt lat="47.13455" lon="-1.74749">
        <ele>2.09</ele>
        <time>2020-05-31T15:47:24Z</time>
      </trkpt>
      <trkpt lat="47.13443" lon="-1.74757">
        <ele>3.31</ele>
        <time>2020-05-31T15:47:26Z</time>
      </trkpt>
      <trkpt lat="47.13434" lon="-1.74763">
        <ele>5.05</ele>
        <time>2020-05-31T15:47:28Z</time>
      </trkpt>
      <trkpt lat="47.13425" lon="-1.7477">
        <ele>6.3</ele>
        <time>2020-05-31T15:47:30Z</time>
      </trkpt>
      <trkpt lat="47.13414" lon="-1.74779">
        <ele>6.83</ele>
        <time>2020-05-31T15:47:32Z</time>
      </trkpt>
      <trkpt lat="47.13403" lon="-1.74789">
        <ele>7.4</ele>
        <time>2020-05-31T15:47:34Z</time>
      </trkpt>
      <trkpt lat="47.13395" lon="-1.74799">
        <ele>7.86</ele>
        <time>2020-05-31T15:47:36Z</time>
      </trkpt>
      <trkpt lat="47.13386" lon="-1.74813">
        <ele>8.31</ele>
        <time>2020-05-31T15:47:38Z</time>
      </trkpt>
      <trkpt lat="47.13379" lon="-1.7483">
        <ele>8.95</ele>
        <time>2020-05-31T15:47:40Z</time>
      </trkpt>
      <trkpt lat="47.13374" lon="-1.74846">
        <ele>9.31</ele>
        <time>2020-05-31T15:47:42Z</time>
      </trkpt>
      <trkpt lat="47.13369" lon="-1.74864">
        <ele>10.34</ele>
        <time>2020-05-31T15:47:44Z</time>
      </trkpt>
      <trkpt lat="47.13365" lon="-1.7488">
        <ele>10.48</ele>
        <time>2020-05-31T15:47:46Z</time>
      </trkpt>
      <trkpt lat="47.13362" lon="-1.74894">
        <ele>11.61</ele>
        <time>2020-05-31T15:47:48Z</time>
      </trkpt>
      <trkpt lat="47.13357" lon="-1.74912">
        <ele>11.99</ele>
        <time>2020-05-31T15:47:50Z</time>
      </trkpt>
      <trkpt lat="47.13352" lon="-1.74928">
        <ele>12.28</ele>
        <time>2020-05-31T15:47:52Z</time>
      </trkpt>
      <trkpt lat="47.13346" lon="-1.74942">
        <ele>12.38</ele>
        <time>2020-05-31T15:47:54Z</time>
      </trkpt>
      <trkpt lat="47.1334" lon="-1.74957">
        <ele>11.79</ele>
        <time>2020-05-31T15:47:56Z</time>
      </trkpt>
      <trkpt lat="47.13333" lon="-1.74971">
        <ele>12.75</ele>
        <time>2020-05-31T15:47:58Z</time>
      </trkpt>
      <trkpt lat="47.13326" lon="-1.74984">
        <ele>12.66</ele>
        <time>2020-05-31T15:48:00Z</time>
      </trkpt>
      <trkpt lat="47.1332" lon="-1.74995">
        <ele>11.93</ele>
        <time>2020-05-31T15:48:02Z</time>
      </trkpt>
      <trkpt lat="47.13309" lon="-1.75006">
        <ele>11.32</ele>
        <time>2020-05-31T15:48:04Z</time>
      </trkpt>
      <trkpt lat="47.13299" lon="-1.75014">
        <ele>11.74</ele>
        <time>2020-05-31T15:48:06Z</time>
      </trkpt>
      <trkpt lat="47.13289" lon="-1.75023">
        <ele>11.84</ele>
        <time>2020-05-31T15:48:08Z</time>
      </trkpt>
      <trkpt lat="47.1328" lon="-1.75031">
        <ele>12.12</ele>
        <time>2020-05-31T15:48:10Z</time>
      </trkpt>
      <trkpt lat="47.1327" lon="-1.75038">
        <ele>11.46</ele>
        <time>2020-05-31T15:48:12Z</time>
      </trkpt>
      <trkpt lat="47.13259" lon="-1.75046">
        <ele>10.51</ele>
        <time>2020-05-31T15:48:14Z</time>
      </trkpt>
      <trkpt lat="47.13248" lon="-1.75054">
        <ele>9.33</ele>
        <time>2020-05-31T15:48:16Z</time>
      </trkpt>
      <trkpt lat="47.13238" lon="-1.75062">
        <ele>9.1</ele>
        <time>2020-05-31T15:48:18Z</time>
      </trkpt>
      <trkpt lat="47.13229" lon="-1.75071">
        <ele>10.2</ele>
        <time>2020-05-31T15:48:20Z</time>
      </trkpt>
      <trkpt lat="47.13221" lon="-1.75078">
        <ele>10.67</ele>
        <time>2020-05-31T15:48:22Z</time>
      </trkpt>
      <trkpt lat="47.1321" lon="-1.75092">
        <ele>12.43</ele>
        <time>2020-05-31T15:48:24Z</time>
      </trkpt>
      <trkpt lat="47.13202" lon="-1.75105">
        <ele>13.23</ele>
        <time>2020-05-31T15:48:26Z</time>
      </trkpt>
      <trkpt lat="47.13196" lon="-1.75118">
        <ele>13.18</ele>
        <time>2020-05-31T15:48:28Z</time>
      </trkpt>
      <trkpt lat="47.13189" lon="-1.75132">
        <ele>13.34</ele>
        <time>2020-05-31T15:48:30Z</time>
      </trkpt>
      <trkpt lat="47.13181" lon="-1.75147">
        <ele>12.8</ele>
        <time>2020-05-31T15:48:32Z</time>
      </trkpt>
      <trkpt lat="47.13174" lon="-1.75163">
        <ele>12.99</ele>
        <time>2020-05-31T15:48:34Z</time>
      </trkpt>
      <trkpt lat="47.13167" lon="-1.75179">
        <ele>14.22</ele>
        <time>2020-05-31T15:48:36Z</time>
      </trkpt>
      <trkpt lat="47.13161" lon="-1.75194">
        <ele>15.31</ele>
        <time>2020-05-31T15:48:38Z</time>
      </trkpt>
      <trkpt lat="47.13155" lon="-1.75209">
        <ele>16.29</ele>
        <time>2020-05-31T15:48:40Z</time>
      </trkpt>
      <trkpt lat="47.1315" lon="-1.75227">
        <ele>16.2</ele>
        <time>2020-05-31T15:48:42Z</time>
      </trkpt>
      <trkpt lat="47.13147" lon="-1.75246">
        <ele>15.48</ele>
        <time>2020-05-31T15:48:44Z</time>
      </trkpt>
      <trkpt lat="47.13145" lon="-1.75266">
        <ele>15.01</ele>
        <time>2020-05-31T15:48:46Z</time>
      </trkpt>
      <trkpt lat="47.13144" lon="-1.75287">
        <ele>15.07</ele>
        <time>2020-05-31T15:48:48Z</time>
      </trkpt>
      <trkpt lat="47.13142" lon="-1.75306">
        <ele>14.86</ele>
        <time>2020-05-31T15:48:50Z</time>
      </trkpt>
      <trkpt lat="47.13139" lon="-1.75322">
        <ele>14.62</ele>
        <time>2020-05-31T15:48:52Z</time>
      </trkpt>
      <trkpt lat="47.13135" lon="-1.75341">
        <ele>14.49</ele>
        <time>2020-05-31T15:48:54Z</time>
      </trkpt>
      <trkpt lat="47.13131" lon="-1.75359">
        <ele>14.54</ele>
        <time>2020-05-31T15:48:56Z</time>
      </trkpt>
      <trkpt lat="47.13127" lon="-1.75376">
        <ele>15.74</ele>
        <time>2020-05-31T15:48:58Z</time>
      </trkpt>
      <trkpt lat="47.13124" lon="-1.75393">
        <ele>16.22</ele>
        <time>2020-05-31T15:49:00Z</time>
      </trkpt>
      <trkpt lat="47.1312" lon="-1.75408">
        <ele>16.23</ele>
        <time>2020-05-31T15:49:02Z</time>
      </trkpt>
      <trkpt lat="47.13116" lon="-1.75423">
        <ele>17.89</ele>
        <time>2020-05-31T15:49:04Z</time>
      </trkpt>
      <trkpt lat="47.13115" lon="-1.75437">
        <ele>19.07</ele>
        <time>2020-05-31T15:49:06Z</time>
      </trkpt>
      <trkpt lat="47.13112" lon="-1.75453">
        <ele>19.15</ele>
        <time>2020-05-31T15:49:08Z</time>
      </trkpt>
      <trkpt lat="47.13109" lon="-1.75473">
        <ele>19.5</ele>
        <time>2020-05-31T15:49:10Z</time>
      </trkpt>
      <trkpt lat="47.13108" lon="-1.75492">
        <ele>19.82</ele>
        <time>2020-05-31T15:49:12Z</time>
      </trkpt>
      <trkpt lat="47.13106" lon="-1.7551">
        <ele>20.03</ele>
        <time>2020-05-31T15:49:14Z</time>
      </trkpt>
      <trkpt lat="47.13104" lon="-1.75528">
        <ele>21.24</ele>
        <time>2020-05-31T15:49:16Z</time>
      </trkpt>
      <trkpt lat="47.13101" lon="-1.75544">
        <ele>21.49</ele>
        <time>2020-05-31T15:49:18Z</time>
      </trkpt>
      <trkpt lat="47.13098" lon="-1.7556">
        <ele>21.71</ele>
        <time>2020-05-31T15:49:20Z</time>
      </trkpt>
      <trkpt lat="47.13095" lon="-1.75576">
        <ele>22.45</ele>
        <time>2020-05-31T15:49:22Z</time>
      </trkpt>
      <trkpt lat="47.13092" lon="-1.75593">
        <ele>23.54</ele>
        <time>2020-05-31T15:49:24Z</time>
      </trkpt>
      <trkpt lat="47.13088" lon="-1.75611">
        <ele>24.08</ele>
        <time>2020-05-31T15:49:26Z</time>
      </trkpt>
      <trkpt lat="47.13084" lon="-1.7563">
        <ele>23.69</ele>
        <time>2020-05-31T15:49:28Z</time>
      </trkpt>
      <trkpt lat="47.1308" lon="-1.7565">
        <ele>23.43</ele>
        <time>2020-05-31T15:49:30Z</time>
      </trkpt>
      <trkpt lat="47.13077" lon="-1.75669">
        <ele>23.72</ele>
        <time>2020-05-31T15:49:32Z</time>
      </trkpt>
      <trkpt lat="47.13073" lon="-1.7569">
        <ele>23.62</ele>
        <time>2020-05-31T15:49:34Z</time>
      </trkpt>
      <trkpt lat="47.1307" lon="-1.75709">
        <ele>22.79</ele>
        <time>2020-05-31T15:49:36Z</time>
      </trkpt>
      <trkpt lat="47.13065" lon="-1.75728">
        <ele>22.61</ele>
        <time>2020-05-31T15:49:38Z</time>
      </trkpt>
      <trkpt lat="47.13057" lon="-1.75743">
        <ele>22.8</ele>
        <time>2020-05-31T15:49:40Z</time>
      </trkpt>
      <trkpt lat="47.13048" lon="-1.75759">
        <ele>22.17</ele>
        <time>2020-05-31T15:49:42Z</time>
      </trkpt>
      <trkpt lat="47.13039" lon="-1.75773">
        <ele>21.85</ele>
        <time>2020-05-31T15:49:44Z</time>
      </trkpt>
      <trkpt lat="47.13029" lon="-1.75789">
        <ele>21.48</ele>
        <time>2020-05-31T15:49:46Z</time>
      </trkpt>
      <trkpt lat="47.13019" lon="-1.75803">
        <ele>21.79</ele>
        <time>2020-05-31T15:49:48Z</time>
      </trkpt>
      <trkpt lat="47.13011" lon="-1.7582">
        <ele>22.43</ele>
        <time>2020-05-31T15:49:50Z</time>
      </trkpt>
      <trkpt lat="47.13007" lon="-1.75834">
        <ele>23.19</ele>
        <time>2020-05-31T15:49:52Z</time>
      </trkpt>
      <trkpt lat="47.13009" lon="-1.75854">
        <ele>23.2</ele>
        <time>2020-05-31T15:49:54Z</time>
      </trkpt>
      <trkpt lat="47.1301" lon="-1.75874">
        <ele>22.98</ele>
        <time>2020-05-31T15:49:56Z</time>
      </trkpt>
      <trkpt lat="47.13009" lon="-1.75893">
        <ele>23.61</ele>
        <time>2020-05-31T15:49:58Z</time>
      </trkpt>
      <trkpt lat="47.13004" lon="-1.75915">
        <ele>24.3</ele>
        <time>2020-05-31T15:50:00Z</time>
      </trkpt>
      <trkpt lat="47.13001" lon="-1.75932">
        <ele>24.37</ele>
        <time>2020-05-31T15:50:02Z</time>
      </trkpt>
      <trkpt lat="47.12996" lon="-1.75951">
        <ele>24.41</ele>
        <time>2020-05-31T15:50:04Z</time>
      </trkpt>
      <trkpt lat="47.12992" lon="-1.7597">
        <ele>24.89</ele>
        <time>2020-05-31T15:50:06Z</time>
      </trkpt>
      <trkpt lat="47.12989" lon="-1.75989">
        <ele>25.09</ele>
        <time>2020-05-31T15:50:08Z</time>
      </trkpt>
      <trkpt lat="47.12987" lon="-1.76007">
        <ele>25.23</ele>
        <time>2020-05-31T15:50:10Z</time>
      </trkpt>
      <trkpt lat="47.12984" lon="-1.76029">
        <ele>25.42</ele>
        <time>2020-05-31T15:50:12Z</time>
      </trkpt>
      <trkpt lat="47.12984" lon="-1.76047">
        <ele>25.74</ele>
        <time>2020-05-31T15:50:14Z</time>
      </trkpt>
      <trkpt lat="47.12984" lon="-1.76066">
        <ele>25.75</ele>
        <time>2020-05-31T15:50:16Z</time>
      </trkpt>
      <trkpt lat="47.12984" lon="-1.76087">
        <ele>25.69</ele>
        <time>2020-05-31T15:50:18Z</time>
      </trkpt>
      <trkpt lat="47.12986" lon="-1.76106">
        <ele>25.98</ele>
        <time>2020-05-31T15:50:20Z</time>
      </trkpt>
      <trkpt lat="47.12989" lon="-1.76127">
        <ele>26.85</ele>
        <time>2020-05-31T15:50:22Z</time>
      </trkpt>
      <trkpt lat="47.12994" lon="-1.76148">
        <ele>28.4</ele>
        <time>2020-05-31T15:50:24Z</time>
      </trkpt>
      <trkpt lat="47.12999" lon="-1.76166">
        <ele>29.32</ele>
        <time>2020-05-31T15:50:26Z</time>
      </trkpt>
      <trkpt lat="47.13005" lon="-1.76186">
        <ele>29.62</ele>
        <time>2020-05-31T15:50:28Z</time>
      </trkpt>
      <trkpt lat="47.1301" lon="-1.76207">
        <ele>30.03</ele>
        <time>2020-05-31T15:50:30Z</time>
      </trkpt>
      <trkpt lat="47.13015" lon="-1.76229">
        <ele>29.47</ele>
        <time>2020-05-31T15:50:32Z</time>
      </trkpt>
      <trkpt lat="47.13021" lon="-1.76249">
        <ele>28.78</ele>
        <time>2020-05-31T15:50:34Z</time>
      </trkpt>
      <trkpt lat="47.13026" lon="-1.76271">
        <ele>28.43</ele>
        <time>2020-05-31T15:50:36Z</time>
      </trkpt>
      <trkpt lat="47.13032" lon="-1.76293">
        <ele>27.44</ele>
        <time>2020-05-31T15:50:38Z</time>
      </trkpt>
      <trkpt lat="47.13036" lon="-1.76312">
        <ele>27.43</ele>
        <time>2020-05-31T15:50:40Z</time>
      </trkpt>
      <trkpt lat="47.1304" lon="-1.76332">
        <ele>28.14</ele>
        <time>2020-05-31T15:50:42Z</time>
      </trkpt>
      <trkpt lat="47.13045" lon="-1.76356">
        <ele>28.54</ele>
        <time>2020-05-31T15:50:44Z</time>
      </trkpt>
      <trkpt lat="47.13049" lon="-1.76379">
        <ele>28.79</ele>
        <time>2020-05-31T15:50:46Z</time>
      </trkpt>
      <trkpt lat="47.13052" lon="-1.76402">
        <ele>28.38</ele>
        <time>2020-05-31T15:50:48Z</time>
      </trkpt>
      <trkpt lat="47.13055" lon="-1.76426">
        <ele>27.63</ele>
        <time>2020-05-31T15:50:50Z</time>
      </trkpt>
      <trkpt lat="47.13056" lon="-1.76449">
        <ele>28</ele>
        <time>2020-05-31T15:50:52Z</time>
      </trkpt>
      <trkpt lat="47.13058" lon="-1.76472">
        <ele>28.5</ele>
        <time>2020-05-31T15:50:54Z</time>
      </trkpt>
      <trkpt lat="47.13058" lon="-1.76494">
        <ele>28.61</ele>
        <time>2020-05-31T15:50:56Z</time>
      </trkpt>
      <trkpt lat="47.13059" lon="-1.76519">
        <ele>27.47</ele>
        <time>2020-05-31T15:50:58Z</time>
      </trkpt>
      <trkpt lat="47.13061" lon="-1.76543">
        <ele>26.65</ele>
        <time>2020-05-31T15:51:00Z</time>
      </trkpt>
      <trkpt lat="47.13062" lon="-1.76568">
        <ele>25.05</ele>
        <time>2020-05-31T15:51:02Z</time>
      </trkpt>
      <trkpt lat="47.13063" lon="-1.76582">
        <ele>24.22</ele>
        <time>2020-05-31T15:51:03Z</time>
      </trkpt>
      <trkpt lat="47.13065" lon="-1.76602">
        <ele>23.5</ele>
        <time>2020-05-31T15:51:05Z</time>
      </trkpt>
      <trkpt lat="47.13067" lon="-1.76626">
        <ele>23.06</ele>
        <time>2020-05-31T15:51:07Z</time>
      </trkpt>
      <trkpt lat="47.13068" lon="-1.7665">
        <ele>24.08</ele>
        <time>2020-05-31T15:51:09Z</time>
      </trkpt>
      <trkpt lat="47.1307" lon="-1.76673">
        <ele>24.62</ele>
        <time>2020-05-31T15:51:11Z</time>
      </trkpt>
      <trkpt lat="47.13072" lon="-1.76697">
        <ele>24.24</ele>
        <time>2020-05-31T15:51:13Z</time>
      </trkpt>
      <trkpt lat="47.1307" lon="-1.76721">
        <ele>22.88</ele>
        <time>2020-05-31T15:51:15Z</time>
      </trkpt>
      <trkpt lat="47.13068" lon="-1.76745">
        <ele>22.57</ele>
        <time>2020-05-31T15:51:17Z</time>
      </trkpt>
      <trkpt lat="47.13066" lon="-1.76767">
        <ele>23.12</ele>
        <time>2020-05-31T15:51:19Z</time>
      </trkpt>
      <trkpt lat="47.13063" lon="-1.76791">
        <ele>23.28</ele>
        <time>2020-05-31T15:51:21Z</time>
      </trkpt>
      <trkpt lat="47.13059" lon="-1.76812">
        <ele>24.22</ele>
        <time>2020-05-31T15:51:23Z</time>
      </trkpt>
      <trkpt lat="47.13055" lon="-1.76836">
        <ele>25.51</ele>
        <time>2020-05-31T15:51:25Z</time>
      </trkpt>
      <trkpt lat="47.13052" lon="-1.76861">
        <ele>25.42</ele>
        <time>2020-05-31T15:51:27Z</time>
      </trkpt>
      <trkpt lat="47.13049" lon="-1.76882">
        <ele>25.54</ele>
        <time>2020-05-31T15:51:29Z</time>
      </trkpt>
      <trkpt lat="47.13046" lon="-1.76906">
        <ele>25.43</ele>
        <time>2020-05-31T15:51:31Z</time>
      </trkpt>
      <trkpt lat="47.13044" lon="-1.7693">
        <ele>25.55</ele>
        <time>2020-05-31T15:51:33Z</time>
      </trkpt>
      <trkpt lat="47.13042" lon="-1.76952">
        <ele>25.61</ele>
        <time>2020-05-31T15:51:35Z</time>
      </trkpt>
      <trkpt lat="47.13041" lon="-1.76974">
        <ele>25.5</ele>
        <time>2020-05-31T15:51:37Z</time>
      </trkpt>
      <trkpt lat="47.13039" lon="-1.76998">
        <ele>25.41</ele>
        <time>2020-05-31T15:51:39Z</time>
      </trkpt>
      <trkpt lat="47.13038" lon="-1.77018">
        <ele>26.02</ele>
        <time>2020-05-31T15:51:41Z</time>
      </trkpt>
      <trkpt lat="47.13037" lon="-1.77041">
        <ele>26.95</ele>
        <time>2020-05-31T15:51:43Z</time>
      </trkpt>
      <trkpt lat="47.13035" lon="-1.77065">
        <ele>27.78</ele>
        <time>2020-05-31T15:51:45Z</time>
      </trkpt>
      <trkpt lat="47.13033" lon="-1.77084">
        <ele>27.64</ele>
        <time>2020-05-31T15:51:47Z</time>
      </trkpt>
      <trkpt lat="47.13031" lon="-1.77106">
        <ele>27.92</ele>
        <time>2020-05-31T15:51:49Z</time>
      </trkpt>
      <trkpt lat="47.13029" lon="-1.77128">
        <ele>27.88</ele>
        <time>2020-05-31T15:51:51Z</time>
      </trkpt>
      <trkpt lat="47.13026" lon="-1.7715">
        <ele>27.71</ele>
        <time>2020-05-31T15:51:53Z</time>
      </trkpt>
      <trkpt lat="47.13022" lon="-1.77172">
        <ele>27.32</ele>
        <time>2020-05-31T15:51:55Z</time>
      </trkpt>
      <trkpt lat="47.13017" lon="-1.77194">
        <ele>27.77</ele>
        <time>2020-05-31T15:51:57Z</time>
      </trkpt>
      <trkpt lat="47.13013" lon="-1.77214">
        <ele>28.21</ele>
        <time>2020-05-31T15:51:59Z</time>
      </trkpt>
      <trkpt lat="47.13007" lon="-1.77234">
        <ele>28.74</ele>
        <time>2020-05-31T15:52:01Z</time>
      </trkpt>
      <trkpt lat="47.13001" lon="-1.77256">
        <ele>28.63</ele>
        <time>2020-05-31T15:52:03Z</time>
      </trkpt>
      <trkpt lat="47.12994" lon="-1.77278">
        <ele>27.99</ele>
        <time>2020-05-31T15:52:05Z</time>
      </trkpt>
      <trkpt lat="47.12987" lon="-1.77299">
        <ele>28.11</ele>
        <time>2020-05-31T15:52:07Z</time>
      </trkpt>
      <trkpt lat="47.12979" lon="-1.77319">
        <ele>27.75</ele>
        <time>2020-05-31T15:52:09Z</time>
      </trkpt>
      <trkpt lat="47.12972" lon="-1.77339">
        <ele>28.02</ele>
        <time>2020-05-31T15:52:11Z</time>
      </trkpt>
      <trkpt lat="47.12964" lon="-1.77359">
        <ele>27.68</ele>
        <time>2020-05-31T15:52:13Z</time>
      </trkpt>
      <trkpt lat="47.12955" lon="-1.77381">
        <ele>27.54</ele>
        <time>2020-05-31T15:52:15Z</time>
      </trkpt>
      <trkpt lat="47.12948" lon="-1.77397">
        <ele>27.37</ele>
        <time>2020-05-31T15:52:17Z</time>
      </trkpt>
      <trkpt lat="47.1294" lon="-1.77415">
        <ele>27.9</ele>
        <time>2020-05-31T15:52:19Z</time>
      </trkpt>
      <trkpt lat="47.12932" lon="-1.77434">
        <ele>28.59</ele>
        <time>2020-05-31T15:52:21Z</time>
      </trkpt>
      <trkpt lat="47.12924" lon="-1.77454">
        <ele>29.19</ele>
        <time>2020-05-31T15:52:23Z</time>
      </trkpt>
      <trkpt lat="47.12917" lon="-1.77475">
        <ele>29.07</ele>
        <time>2020-05-31T15:52:24Z</time>
      </trkpt>
      <trkpt lat="47.12912" lon="-1.77494">
        <ele>29.64</ele>
        <time>2020-05-31T15:52:26Z</time>
      </trkpt>
      <trkpt lat="47.12906" lon="-1.77514">
        <ele>29.94</ele>
        <time>2020-05-31T15:52:28Z</time>
      </trkpt>
      <trkpt lat="47.12902" lon="-1.77534">
        <ele>29.69</ele>
        <time>2020-05-31T15:52:30Z</time>
      </trkpt>
      <trkpt lat="47.12897" lon="-1.77557">
        <ele>28.83</ele>
        <time>2020-05-31T15:52:32Z</time>
      </trkpt>
      <trkpt lat="47.12892" lon="-1.77575">
        <ele>28.28</ele>
        <time>2020-05-31T15:52:34Z</time>
      </trkpt>
      <trkpt lat="47.12887" lon="-1.77596">
        <ele>28.22</ele>
        <time>2020-05-31T15:52:36Z</time>
      </trkpt>
      <trkpt lat="47.12882" lon="-1.77616">
        <ele>29.8</ele>
        <time>2020-05-31T15:52:38Z</time>
      </trkpt>
      <trkpt lat="47.12877" lon="-1.77635">
        <ele>30.16</ele>
        <time>2020-05-31T15:52:40Z</time>
      </trkpt>
      <trkpt lat="47.12872" lon="-1.77655">
        <ele>30.2</ele>
        <time>2020-05-31T15:52:42Z</time>
      </trkpt>
      <trkpt lat="47.12868" lon="-1.77674">
        <ele>30.83</ele>
        <time>2020-05-31T15:52:44Z</time>
      </trkpt>
      <trkpt lat="47.12863" lon="-1.77696">
        <ele>31.4</ele>
        <time>2020-05-31T15:52:46Z</time>
      </trkpt>
      <trkpt lat="47.1286" lon="-1.77709">
        <ele>31.38</ele>
        <time>2020-05-31T15:52:47Z</time>
      </trkpt>
      <trkpt lat="47.12857" lon="-1.77721">
        <ele>31.45</ele>
        <time>2020-05-31T15:52:48Z</time>
      </trkpt>
      <trkpt lat="47.12851" lon="-1.77742">
        <ele>31.85</ele>
        <time>2020-05-31T15:52:50Z</time>
      </trkpt>
      <trkpt lat="47.12846" lon="-1.77761">
        <ele>31.93</ele>
        <time>2020-05-31T15:52:52Z</time>
      </trkpt>
      <trkpt lat="47.12841" lon="-1.77777">
        <ele>31.56</ele>
        <time>2020-05-31T15:52:54Z</time>
      </trkpt>
      <trkpt lat="47.12834" lon="-1.77798">
        <ele>31.41</ele>
        <time>2020-05-31T15:52:56Z</time>
      </trkpt>
      <trkpt lat="47.12826" lon="-1.77815">
        <ele>30.52</ele>
        <time>2020-05-31T15:52:58Z</time>
      </trkpt>
      <trkpt lat="47.12819" lon="-1.77832">
        <ele>30.74</ele>
        <time>2020-05-31T15:53:00Z</time>
      </trkpt>
      <trkpt lat="47.12812" lon="-1.77849">
        <ele>30.36</ele>
        <time>2020-05-31T15:53:02Z</time>
      </trkpt>
      <trkpt lat="47.12806" lon="-1.77867">
        <ele>29.77</ele>
        <time>2020-05-31T15:53:04Z</time>
      </trkpt>
      <trkpt lat="47.12799" lon="-1.77886">
        <ele>29.65</ele>
        <time>2020-05-31T15:53:06Z</time>
      </trkpt>
      <trkpt lat="47.12793" lon="-1.77905">
        <ele>28.8</ele>
        <time>2020-05-31T15:53:08Z</time>
      </trkpt>
      <trkpt lat="47.12787" lon="-1.77924">
        <ele>27.87</ele>
        <time>2020-05-31T15:53:10Z</time>
      </trkpt>
      <trkpt lat="47.12783" lon="-1.77943">
        <ele>27.98</ele>
        <time>2020-05-31T15:53:12Z</time>
      </trkpt>
      <trkpt lat="47.12777" lon="-1.77964">
        <ele>27.82</ele>
        <time>2020-05-31T15:53:14Z</time>
      </trkpt>
      <trkpt lat="47.12772" lon="-1.77984">
        <ele>27.56</ele>
        <time>2020-05-31T15:53:16Z</time>
      </trkpt>
      <trkpt lat="47.12766" lon="-1.78004">
        <ele>28.24</ele>
        <time>2020-05-31T15:53:18Z</time>
      </trkpt>
      <trkpt lat="47.1276" lon="-1.78026">
        <ele>27.41</ele>
        <time>2020-05-31T15:53:20Z</time>
      </trkpt>
      <trkpt lat="47.12753" lon="-1.78044">
        <ele>27.33</ele>
        <time>2020-05-31T15:53:22Z</time>
      </trkpt>
      <trkpt lat="47.12742" lon="-1.78063">
        <ele>27.46</ele>
        <time>2020-05-31T15:53:24Z</time>
      </trkpt>
      <trkpt lat="47.12732" lon="-1.7808">
        <ele>27.54</ele>
        <time>2020-05-31T15:53:26Z</time>
      </trkpt>
      <trkpt lat="47.12721" lon="-1.78095">
        <ele>28.3</ele>
        <time>2020-05-31T15:53:28Z</time>
      </trkpt>
      <trkpt lat="47.12708" lon="-1.78112">
        <ele>28.74</ele>
        <time>2020-05-31T15:53:30Z</time>
      </trkpt>
      <trkpt lat="47.12699" lon="-1.78124">
        <ele>29.17</ele>
        <time>2020-05-31T15:53:32Z</time>
      </trkpt>
      <trkpt lat="47.12688" lon="-1.78138">
        <ele>29.41</ele>
        <time>2020-05-31T15:53:34Z</time>
      </trkpt>
      <trkpt lat="47.12679" lon="-1.78152">
        <ele>29.16</ele>
        <time>2020-05-31T15:53:36Z</time>
      </trkpt>
      <trkpt lat="47.12666" lon="-1.78169">
        <ele>29.11</ele>
        <time>2020-05-31T15:53:38Z</time>
      </trkpt>
      <trkpt lat="47.12654" lon="-1.78184">
        <ele>29.13</ele>
        <time>2020-05-31T15:53:40Z</time>
      </trkpt>
      <trkpt lat="47.12644" lon="-1.78199">
        <ele>29.74</ele>
        <time>2020-05-31T15:53:42Z</time>
      </trkpt>
      <trkpt lat="47.12633" lon="-1.78215">
        <ele>28.7</ele>
        <time>2020-05-31T15:53:44Z</time>
      </trkpt>
      <trkpt lat="47.12624" lon="-1.78233">
        <ele>27.94</ele>
        <time>2020-05-31T15:53:46Z</time>
      </trkpt>
      <trkpt lat="47.12618" lon="-1.78254">
        <ele>27.76</ele>
        <time>2020-05-31T15:53:48Z</time>
      </trkpt>
      <trkpt lat="47.12613" lon="-1.78275">
        <ele>28.05</ele>
        <time>2020-05-31T15:53:50Z</time>
      </trkpt>
      <trkpt lat="47.12608" lon="-1.78298">
        <ele>28.44</ele>
        <time>2020-05-31T15:53:52Z</time>
      </trkpt>
      <trkpt lat="47.12605" lon="-1.78319">
        <ele>28.12</ele>
        <time>2020-05-31T15:53:54Z</time>
      </trkpt>
      <trkpt lat="47.12601" lon="-1.78341">
        <ele>28.14</ele>
        <time>2020-05-31T15:53:56Z</time>
      </trkpt>
      <trkpt lat="47.12596" lon="-1.78363">
        <ele>27.42</ele>
        <time>2020-05-31T15:53:58Z</time>
      </trkpt>
      <trkpt lat="47.12592" lon="-1.78383">
        <ele>26.74</ele>
        <time>2020-05-31T15:54:00Z</time>
      </trkpt>
      <trkpt lat="47.12587" lon="-1.78407">
        <ele>26.32</ele>
        <time>2020-05-31T15:54:02Z</time>
      </trkpt>
      <trkpt lat="47.12581" lon="-1.78429">
        <ele>26.16</ele>
        <time>2020-05-31T15:54:04Z</time>
      </trkpt>
      <trkpt lat="47.12575" lon="-1.78454">
        <ele>26.44</ele>
        <time>2020-05-31T15:54:06Z</time>
      </trkpt>
      <trkpt lat="47.1257" lon="-1.78475">
        <ele>26.53</ele>
        <time>2020-05-31T15:54:08Z</time>
      </trkpt>
      <trkpt lat="47.12564" lon="-1.78498">
        <ele>26.42</ele>
        <time>2020-05-31T15:54:10Z</time>
      </trkpt>
      <trkpt lat="47.12559" lon="-1.78519">
        <ele>26.46</ele>
        <time>2020-05-31T15:54:12Z</time>
      </trkpt>
      <trkpt lat="47.12554" lon="-1.78542">
        <ele>26.32</ele>
        <time>2020-05-31T15:54:14Z</time>
      </trkpt>
      <trkpt lat="47.12548" lon="-1.78566">
        <ele>25.47</ele>
        <time>2020-05-31T15:54:16Z</time>
      </trkpt>
      <trkpt lat="47.12543" lon="-1.78588">
        <ele>23.61</ele>
        <time>2020-05-31T15:54:18Z</time>
      </trkpt>
      <trkpt lat="47.1254" lon="-1.78602">
        <ele>23.35</ele>
        <time>2020-05-31T15:54:19Z</time>
      </trkpt>
      <trkpt lat="47.12535" lon="-1.78622">
        <ele>22.99</ele>
        <time>2020-05-31T15:54:21Z</time>
      </trkpt>
      <trkpt lat="47.12527" lon="-1.78646">
        <ele>23.41</ele>
        <time>2020-05-31T15:54:23Z</time>
      </trkpt>
      <trkpt lat="47.12519" lon="-1.78667">
        <ele>24.12</ele>
        <time>2020-05-31T15:54:25Z</time>
      </trkpt>
      <trkpt lat="47.12511" lon="-1.78687">
        <ele>24.24</ele>
        <time>2020-05-31T15:54:27Z</time>
      </trkpt>
      <trkpt lat="47.12503" lon="-1.78709">
        <ele>24.19</ele>
        <time>2020-05-31T15:54:29Z</time>
      </trkpt>
      <trkpt lat="47.12497" lon="-1.78731">
        <ele>23.81</ele>
        <time>2020-05-31T15:54:31Z</time>
      </trkpt>
      <trkpt lat="47.12491" lon="-1.78753">
        <ele>23.87</ele>
        <time>2020-05-31T15:54:33Z</time>
      </trkpt>
      <trkpt lat="47.12486" lon="-1.78775">
        <ele>24</ele>
        <time>2020-05-31T15:54:35Z</time>
      </trkpt>
      <trkpt lat="47.1248" lon="-1.78799">
        <ele>24.08</ele>
        <time>2020-05-31T15:54:37Z</time>
      </trkpt>
      <trkpt lat="47.12476" lon="-1.78822">
        <ele>23.61</ele>
        <time>2020-05-31T15:54:39Z</time>
      </trkpt>
      <trkpt lat="47.12473" lon="-1.78836">
        <ele>23.08</ele>
        <time>2020-05-31T15:54:40Z</time>
      </trkpt>
      <trkpt lat="47.12469" lon="-1.78861">
        <ele>22.16</ele>
        <time>2020-05-31T15:54:42Z</time>
      </trkpt>
      <trkpt lat="47.12467" lon="-1.78885">
        <ele>21.63</ele>
        <time>2020-05-31T15:54:44Z</time>
      </trkpt>
      <trkpt lat="47.12464" lon="-1.78909">
        <ele>22.49</ele>
        <time>2020-05-31T15:54:46Z</time>
      </trkpt>
      <trkpt lat="47.12462" lon="-1.78934">
        <ele>21.84</ele>
        <time>2020-05-31T15:54:48Z</time>
      </trkpt>
      <trkpt lat="47.12458" lon="-1.78956">
        <ele>20.78</ele>
        <time>2020-05-31T15:54:50Z</time>
      </trkpt>
      <trkpt lat="47.12456" lon="-1.78969">
        <ele>20.61</ele>
        <time>2020-05-31T15:54:51Z</time>
      </trkpt>
      <trkpt lat="47.12451" lon="-1.78992">
        <ele>20.45</ele>
        <time>2020-05-31T15:54:53Z</time>
      </trkpt>
      <trkpt lat="47.12445" lon="-1.79016">
        <ele>20.11</ele>
        <time>2020-05-31T15:54:55Z</time>
      </trkpt>
      <trkpt lat="47.12439" lon="-1.79039">
        <ele>21.21</ele>
        <time>2020-05-31T15:54:57Z</time>
      </trkpt>
      <trkpt lat="47.12434" lon="-1.79061">
        <ele>22.71</ele>
        <time>2020-05-31T15:54:59Z</time>
      </trkpt>
      <trkpt lat="47.12428" lon="-1.79085">
        <ele>23.99</ele>
        <time>2020-05-31T15:55:01Z</time>
      </trkpt>
      <trkpt lat="47.12424" lon="-1.79105">
        <ele>24.28</ele>
        <time>2020-05-31T15:55:03Z</time>
      </trkpt>
      <trkpt lat="47.1242" lon="-1.79127">
        <ele>23.87</ele>
        <time>2020-05-31T15:55:05Z</time>
      </trkpt>
      <trkpt lat="47.1242" lon="-1.79151">
        <ele>23.56</ele>
        <time>2020-05-31T15:55:07Z</time>
      </trkpt>
      <trkpt lat="47.1242" lon="-1.79173">
        <ele>23.25</ele>
        <time>2020-05-31T15:55:09Z</time>
      </trkpt>
      <trkpt lat="47.12422" lon="-1.79196">
        <ele>23.29</ele>
        <time>2020-05-31T15:55:11Z</time>
      </trkpt>
      <trkpt lat="47.12423" lon="-1.79216">
        <ele>24.37</ele>
        <time>2020-05-31T15:55:13Z</time>
      </trkpt>
      <trkpt lat="47.12425" lon="-1.79241">
        <ele>25.09</ele>
        <time>2020-05-31T15:55:15Z</time>
      </trkpt>
      <trkpt lat="47.12424" lon="-1.79265">
        <ele>25.58</ele>
        <time>2020-05-31T15:55:17Z</time>
      </trkpt>
      <trkpt lat="47.12419" lon="-1.79287">
        <ele>25.14</ele>
        <time>2020-05-31T15:55:19Z</time>
      </trkpt>
      <trkpt lat="47.12411" lon="-1.79305">
        <ele>24.44</ele>
        <time>2020-05-31T15:55:21Z</time>
      </trkpt>
      <trkpt lat="47.12402" lon="-1.79324">
        <ele>24.48</ele>
        <time>2020-05-31T15:55:23Z</time>
      </trkpt>
      <trkpt lat="47.12393" lon="-1.79342">
        <ele>23.83</ele>
        <time>2020-05-31T15:55:25Z</time>
      </trkpt>
      <trkpt lat="47.12383" lon="-1.79361">
        <ele>23.54</ele>
        <time>2020-05-31T15:55:27Z</time>
      </trkpt>
      <trkpt lat="47.12378" lon="-1.79371">
        <ele>23.3</ele>
        <time>2020-05-31T15:55:28Z</time>
      </trkpt>
      <trkpt lat="47.1237" lon="-1.79389">
        <ele>23.49</ele>
        <time>2020-05-31T15:55:30Z</time>
      </trkpt>
      <trkpt lat="47.12363" lon="-1.79407">
        <ele>24.13</ele>
        <time>2020-05-31T15:55:32Z</time>
      </trkpt>
      <trkpt lat="47.12358" lon="-1.79422">
        <ele>24.04</ele>
        <time>2020-05-31T15:55:34Z</time>
      </trkpt>
      <trkpt lat="47.12352" lon="-1.79444">
        <ele>23.6</ele>
        <time>2020-05-31T15:55:36Z</time>
      </trkpt>
      <trkpt lat="47.12348" lon="-1.79465">
        <ele>23.03</ele>
        <time>2020-05-31T15:55:38Z</time>
      </trkpt>
      <trkpt lat="47.12345" lon="-1.79486">
        <ele>22.13</ele>
        <time>2020-05-31T15:55:40Z</time>
      </trkpt>
      <trkpt lat="47.12342" lon="-1.79507">
        <ele>21.91</ele>
        <time>2020-05-31T15:55:42Z</time>
      </trkpt>
      <trkpt lat="47.12339" lon="-1.79527">
        <ele>22.21</ele>
        <time>2020-05-31T15:55:44Z</time>
      </trkpt>
      <trkpt lat="47.12336" lon="-1.79549">
        <ele>21.85</ele>
        <time>2020-05-31T15:55:46Z</time>
      </trkpt>
      <trkpt lat="47.12334" lon="-1.79567">
        <ele>22.07</ele>
        <time>2020-05-31T15:55:48Z</time>
      </trkpt>
      <trkpt lat="47.12328" lon="-1.79585">
        <ele>22.01</ele>
        <time>2020-05-31T15:55:50Z</time>
      </trkpt>
      <trkpt lat="47.12315" lon="-1.79597">
        <ele>22.14</ele>
        <time>2020-05-31T15:55:52Z</time>
      </trkpt>
      <trkpt lat="47.12301" lon="-1.796">
        <ele>23.05</ele>
        <time>2020-05-31T15:55:54Z</time>
      </trkpt>
      <trkpt lat="47.12287" lon="-1.79599">
        <ele>23.59</ele>
        <time>2020-05-31T15:55:56Z</time>
      </trkpt>
      <trkpt lat="47.12273" lon="-1.79597">
        <ele>24.22</ele>
        <time>2020-05-31T15:55:58Z</time>
      </trkpt>
      <trkpt lat="47.12261" lon="-1.79596">
        <ele>24.12</ele>
        <time>2020-05-31T15:56:00Z</time>
      </trkpt>
      <trkpt lat="47.12247" lon="-1.79596">
        <ele>23.64</ele>
        <time>2020-05-31T15:56:02Z</time>
      </trkpt>
      <trkpt lat="47.12233" lon="-1.79595">
        <ele>23.19</ele>
        <time>2020-05-31T15:56:04Z</time>
      </trkpt>
      <trkpt lat="47.12219" lon="-1.79595">
        <ele>22.96</ele>
        <time>2020-05-31T15:56:06Z</time>
      </trkpt>
      <trkpt lat="47.12205" lon="-1.79595">
        <ele>22.92</ele>
        <time>2020-05-31T15:56:08Z</time>
      </trkpt>
      <trkpt lat="47.12192" lon="-1.79595">
        <ele>23.41</ele>
        <time>2020-05-31T15:56:10Z</time>
      </trkpt>
      <trkpt lat="47.12179" lon="-1.79595">
        <ele>23.62</ele>
        <time>2020-05-31T15:56:12Z</time>
      </trkpt>
      <trkpt lat="47.12166" lon="-1.79594">
        <ele>23.69</ele>
        <time>2020-05-31T15:56:14Z</time>
      </trkpt>
      <trkpt lat="47.12153" lon="-1.79594">
        <ele>23.5</ele>
        <time>2020-05-31T15:56:16Z</time>
      </trkpt>
      <trkpt lat="47.1214" lon="-1.79595">
        <ele>23.69</ele>
        <time>2020-05-31T15:56:18Z</time>
      </trkpt>
      <trkpt lat="47.12127" lon="-1.79595">
        <ele>23.96</ele>
        <time>2020-05-31T15:56:20Z</time>
      </trkpt>
      <trkpt lat="47.12112" lon="-1.79597">
        <ele>23.71</ele>
        <time>2020-05-31T15:56:22Z</time>
      </trkpt>
      <trkpt lat="47.12097" lon="-1.796">
        <ele>23.73</ele>
        <time>2020-05-31T15:56:24Z</time>
      </trkpt>
      <trkpt lat="47.12083" lon="-1.79611">
        <ele>23.98</ele>
        <time>2020-05-31T15:56:26Z</time>
      </trkpt>
      <trkpt lat="47.12069" lon="-1.79623">
        <ele>24.28</ele>
        <time>2020-05-31T15:56:28Z</time>
      </trkpt>
      <trkpt lat="47.12057" lon="-1.79635">
        <ele>24.6</ele>
        <time>2020-05-31T15:56:30Z</time>
      </trkpt>
      <trkpt lat="47.12045" lon="-1.79648">
        <ele>25.06</ele>
        <time>2020-05-31T15:56:32Z</time>
      </trkpt>
      <trkpt lat="47.12034" lon="-1.79661">
        <ele>23.88</ele>
        <time>2020-05-31T15:56:34Z</time>
      </trkpt>
      <trkpt lat="47.12022" lon="-1.79674">
        <ele>21.79</ele>
        <time>2020-05-31T15:56:36Z</time>
      </trkpt>
      <trkpt lat="47.12009" lon="-1.79687">
        <ele>20.9</ele>
        <time>2020-05-31T15:56:38Z</time>
      </trkpt>
      <trkpt lat="47.11997" lon="-1.79699">
        <ele>21.03</ele>
        <time>2020-05-31T15:56:40Z</time>
      </trkpt>
      <trkpt lat="47.11984" lon="-1.79711">
        <ele>21.12</ele>
        <time>2020-05-31T15:56:42Z</time>
      </trkpt>
      <trkpt lat="47.11973" lon="-1.79723">
        <ele>21.47</ele>
        <time>2020-05-31T15:56:44Z</time>
      </trkpt>
      <trkpt lat="47.11961" lon="-1.79737">
        <ele>21.49</ele>
        <time>2020-05-31T15:56:46Z</time>
      </trkpt>
      <trkpt lat="47.11951" lon="-1.7975">
        <ele>20.63</ele>
        <time>2020-05-31T15:56:48Z</time>
      </trkpt>
      <trkpt lat="47.1194" lon="-1.79764">
        <ele>19.95</ele>
        <time>2020-05-31T15:56:50Z</time>
      </trkpt>
      <trkpt lat="47.11929" lon="-1.79779">
        <ele>19.97</ele>
        <time>2020-05-31T15:56:52Z</time>
      </trkpt>
      <trkpt lat="47.11918" lon="-1.79792">
        <ele>20.07</ele>
        <time>2020-05-31T15:56:54Z</time>
      </trkpt>
      <trkpt lat="47.11907" lon="-1.79805">
        <ele>20.35</ele>
        <time>2020-05-31T15:56:56Z</time>
      </trkpt>
      <trkpt lat="47.11895" lon="-1.7982">
        <ele>20.33</ele>
        <time>2020-05-31T15:56:58Z</time>
      </trkpt>
      <trkpt lat="47.11885" lon="-1.79833">
        <ele>19.62</ele>
        <time>2020-05-31T15:57:00Z</time>
      </trkpt>
      <trkpt lat="47.11872" lon="-1.79847">
        <ele>19.22</ele>
        <time>2020-05-31T15:57:02Z</time>
      </trkpt>
      <trkpt lat="47.1186" lon="-1.7986">
        <ele>18.79</ele>
        <time>2020-05-31T15:57:04Z</time>
      </trkpt>
      <trkpt lat="47.11849" lon="-1.79873">
        <ele>18.29</ele>
        <time>2020-05-31T15:57:06Z</time>
      </trkpt>
      <trkpt lat="47.11838" lon="-1.79884">
        <ele>18.79</ele>
        <time>2020-05-31T15:57:08Z</time>
      </trkpt>
      <trkpt lat="47.11827" lon="-1.79897">
        <ele>19.51</ele>
        <time>2020-05-31T15:57:10Z</time>
      </trkpt>
      <trkpt lat="47.11816" lon="-1.7991">
        <ele>19.58</ele>
        <time>2020-05-31T15:57:12Z</time>
      </trkpt>
      <trkpt lat="47.11805" lon="-1.79922">
        <ele>19.74</ele>
        <time>2020-05-31T15:57:14Z</time>
      </trkpt>
      <trkpt lat="47.11794" lon="-1.79934">
        <ele>19.9</ele>
        <time>2020-05-31T15:57:16Z</time>
      </trkpt>
      <trkpt lat="47.11785" lon="-1.79944">
        <ele>19.69</ele>
        <time>2020-05-31T15:57:18Z</time>
      </trkpt>
      <trkpt lat="47.11775" lon="-1.79956">
        <ele>19.43</ele>
        <time>2020-05-31T15:57:20Z</time>
      </trkpt>
      <trkpt lat="47.11765" lon="-1.79967">
        <ele>20.07</ele>
        <time>2020-05-31T15:57:22Z</time>
      </trkpt>
      <trkpt lat="47.11758" lon="-1.79976">
        <ele>19.78</ele>
        <time>2020-05-31T15:57:24Z</time>
      </trkpt>
      <trkpt lat="47.11746" lon="-1.7998">
        <ele>19.64</ele>
        <time>2020-05-31T15:57:26Z</time>
      </trkpt>
      <trkpt lat="47.11735" lon="-1.79977">
        <ele>19.82</ele>
        <time>2020-05-31T15:57:28Z</time>
      </trkpt>
      <trkpt lat="47.11721" lon="-1.79974">
        <ele>19.73</ele>
        <time>2020-05-31T15:57:30Z</time>
      </trkpt>
      <trkpt lat="47.11709" lon="-1.79972">
        <ele>20.16</ele>
        <time>2020-05-31T15:57:32Z</time>
      </trkpt>
      <trkpt lat="47.11695" lon="-1.79968">
        <ele>20.63</ele>
        <time>2020-05-31T15:57:34Z</time>
      </trkpt>
      <trkpt lat="47.1168" lon="-1.79966">
        <ele>20.85</ele>
        <time>2020-05-31T15:57:36Z</time>
      </trkpt>
      <trkpt lat="47.11667" lon="-1.79964">
        <ele>20.61</ele>
        <time>2020-05-31T15:57:38Z</time>
      </trkpt>
      <trkpt lat="47.11654" lon="-1.79963">
        <ele>20.19</ele>
        <time>2020-05-31T15:57:40Z</time>
      </trkpt>
      <trkpt lat="47.1164" lon="-1.79962">
        <ele>19.53</ele>
        <time>2020-05-31T15:57:42Z</time>
      </trkpt>
      <trkpt lat="47.11626" lon="-1.79959">
        <ele>18.57</ele>
        <time>2020-05-31T15:57:44Z</time>
      </trkpt>
      <trkpt lat="47.11612" lon="-1.79956">
        <ele>18.32</ele>
        <time>2020-05-31T15:57:46Z</time>
      </trkpt>
      <trkpt lat="47.11599" lon="-1.79954">
        <ele>18.6</ele>
        <time>2020-05-31T15:57:48Z</time>
      </trkpt>
      <trkpt lat="47.11586" lon="-1.79952">
        <ele>18.62</ele>
        <time>2020-05-31T15:57:50Z</time>
      </trkpt>
      <trkpt lat="47.11572" lon="-1.79952">
        <ele>19.29</ele>
        <time>2020-05-31T15:57:52Z</time>
      </trkpt>
      <trkpt lat="47.11557" lon="-1.79955">
        <ele>19.72</ele>
        <time>2020-05-31T15:57:54Z</time>
      </trkpt>
      <trkpt lat="47.11544" lon="-1.79962">
        <ele>19.32</ele>
        <time>2020-05-31T15:57:56Z</time>
      </trkpt>
      <trkpt lat="47.1153" lon="-1.79971">
        <ele>18.73</ele>
        <time>2020-05-31T15:57:58Z</time>
      </trkpt>
      <trkpt lat="47.11517" lon="-1.79984">
        <ele>18.91</ele>
        <time>2020-05-31T15:58:00Z</time>
      </trkpt>
      <trkpt lat="47.1151" lon="-1.79992">
        <ele>19.16</ele>
        <time>2020-05-31T15:58:01Z</time>
      </trkpt>
      <trkpt lat="47.11498" lon="-1.80008">
        <ele>19.23</ele>
        <time>2020-05-31T15:58:03Z</time>
      </trkpt>
      <trkpt lat="47.1149" lon="-1.80022">
        <ele>19.1</ele>
        <time>2020-05-31T15:58:05Z</time>
      </trkpt>
      <trkpt lat="47.1148" lon="-1.80037">
        <ele>19.09</ele>
        <time>2020-05-31T15:58:07Z</time>
      </trkpt>
      <trkpt lat="47.11468" lon="-1.80053">
        <ele>19.31</ele>
        <time>2020-05-31T15:58:09Z</time>
      </trkpt>
      <trkpt lat="47.11457" lon="-1.80067">
        <ele>20.12</ele>
        <time>2020-05-31T15:58:11Z</time>
      </trkpt>
      <trkpt lat="47.11445" lon="-1.80082">
        <ele>20.26</ele>
        <time>2020-05-31T15:58:13Z</time>
      </trkpt>
      <trkpt lat="47.11434" lon="-1.80096">
        <ele>19.03</ele>
        <time>2020-05-31T15:58:15Z</time>
      </trkpt>
      <trkpt lat="47.11424" lon="-1.80111">
        <ele>18.23</ele>
        <time>2020-05-31T15:58:17Z</time>
      </trkpt>
      <trkpt lat="47.11413" lon="-1.80127">
        <ele>18.21</ele>
        <time>2020-05-31T15:58:19Z</time>
      </trkpt>
      <trkpt lat="47.11402" lon="-1.80141">
        <ele>18.51</ele>
        <time>2020-05-31T15:58:21Z</time>
      </trkpt>
      <trkpt lat="47.11392" lon="-1.80156">
        <ele>18.38</ele>
        <time>2020-05-31T15:58:23Z</time>
      </trkpt>
      <trkpt lat="47.1138" lon="-1.80171">
        <ele>17.62</ele>
        <time>2020-05-31T15:58:25Z</time>
      </trkpt>
      <trkpt lat="47.11368" lon="-1.80187">
        <ele>16.61</ele>
        <time>2020-05-31T15:58:27Z</time>
      </trkpt>
      <trkpt lat="47.11358" lon="-1.802">
        <ele>16.04</ele>
        <time>2020-05-31T15:58:29Z</time>
      </trkpt>
      <trkpt lat="47.11347" lon="-1.80215">
        <ele>15.95</ele>
        <time>2020-05-31T15:58:31Z</time>
      </trkpt>
      <trkpt lat="47.11336" lon="-1.80231">
        <ele>15.61</ele>
        <time>2020-05-31T15:58:33Z</time>
      </trkpt>
      <trkpt lat="47.11325" lon="-1.80246">
        <ele>15.2</ele>
        <time>2020-05-31T15:58:35Z</time>
      </trkpt>
      <trkpt lat="47.11314" lon="-1.80263">
        <ele>15.21</ele>
        <time>2020-05-31T15:58:37Z</time>
      </trkpt>
      <trkpt lat="47.11304" lon="-1.80279">
        <ele>15.38</ele>
        <time>2020-05-31T15:58:39Z</time>
      </trkpt>
      <trkpt lat="47.11293" lon="-1.80295">
        <ele>14.71</ele>
        <time>2020-05-31T15:58:41Z</time>
      </trkpt>
      <trkpt lat="47.11281" lon="-1.80311">
        <ele>14.32</ele>
        <time>2020-05-31T15:58:43Z</time>
      </trkpt>
      <trkpt lat="47.11269" lon="-1.80328">
        <ele>14.21</ele>
        <time>2020-05-31T15:58:45Z</time>
      </trkpt>
      <trkpt lat="47.11258" lon="-1.80342">
        <ele>14.58</ele>
        <time>2020-05-31T15:58:47Z</time>
      </trkpt>
      <trkpt lat="47.11245" lon="-1.80359">
        <ele>14.72</ele>
        <time>2020-05-31T15:58:49Z</time>
      </trkpt>
      <trkpt lat="47.11235" lon="-1.80373">
        <ele>14.25</ele>
        <time>2020-05-31T15:58:51Z</time>
      </trkpt>
      <trkpt lat="47.11224" lon="-1.80386">
        <ele>13.51</ele>
        <time>2020-05-31T15:58:53Z</time>
      </trkpt>
      <trkpt lat="47.11211" lon="-1.80401">
        <ele>13.34</ele>
        <time>2020-05-31T15:58:55Z</time>
      </trkpt>
      <trkpt lat="47.11201" lon="-1.80412">
        <ele>13.37</ele>
        <time>2020-05-31T15:58:57Z</time>
      </trkpt>
      <trkpt lat="47.11187" lon="-1.80426">
        <ele>13.21</ele>
        <time>2020-05-31T15:58:59Z</time>
      </trkpt>
      <trkpt lat="47.11174" lon="-1.80437">
        <ele>13.07</ele>
        <time>2020-05-31T15:59:01Z</time>
      </trkpt>
      <trkpt lat="47.11161" lon="-1.80446">
        <ele>12.74</ele>
        <time>2020-05-31T15:59:03Z</time>
      </trkpt>
      <trkpt lat="47.11149" lon="-1.80454">
        <ele>12.86</ele>
        <time>2020-05-31T15:59:05Z</time>
      </trkpt>
      <trkpt lat="47.11137" lon="-1.80463">
        <ele>12.93</ele>
        <time>2020-05-31T15:59:07Z</time>
      </trkpt>
      <trkpt lat="47.11124" lon="-1.80471">
        <ele>12.88</ele>
        <time>2020-05-31T15:59:09Z</time>
      </trkpt>
      <trkpt lat="47.11111" lon="-1.8048">
        <ele>13.49</ele>
        <time>2020-05-31T15:59:11Z</time>
      </trkpt>
      <trkpt lat="47.11098" lon="-1.80489">
        <ele>13.81</ele>
        <time>2020-05-31T15:59:13Z</time>
      </trkpt>
      <trkpt lat="47.11085" lon="-1.80497">
        <ele>13.78</ele>
        <time>2020-05-31T15:59:15Z</time>
      </trkpt>
      <trkpt lat="47.11071" lon="-1.80505">
        <ele>13.29</ele>
        <time>2020-05-31T15:59:17Z</time>
      </trkpt>
      <trkpt lat="47.11058" lon="-1.80513">
        <ele>12.9</ele>
        <time>2020-05-31T15:59:19Z</time>
      </trkpt>
      <trkpt lat="47.11047" lon="-1.8052">
        <ele>13.71</ele>
        <time>2020-05-31T15:59:21Z</time>
      </trkpt>
      <trkpt lat="47.11034" lon="-1.8053">
        <ele>13.6</ele>
        <time>2020-05-31T15:59:23Z</time>
      </trkpt>
      <trkpt lat="47.11019" lon="-1.80539">
        <ele>12.44</ele>
        <time>2020-05-31T15:59:25Z</time>
      </trkpt>
      <trkpt lat="47.11006" lon="-1.80547">
        <ele>12.01</ele>
        <time>2020-05-31T15:59:27Z</time>
      </trkpt>
      <trkpt lat="47.1099" lon="-1.80558">
        <ele>11.97</ele>
        <time>2020-05-31T15:59:29Z</time>
      </trkpt>
      <trkpt lat="47.10979" lon="-1.80565">
        <ele>12.42</ele>
        <time>2020-05-31T15:59:31Z</time>
      </trkpt>
      <trkpt lat="47.10964" lon="-1.80574">
        <ele>13.31</ele>
        <time>2020-05-31T15:59:33Z</time>
      </trkpt>
      <trkpt lat="47.10949" lon="-1.80583">
        <ele>14.31</ele>
        <time>2020-05-31T15:59:35Z</time>
      </trkpt>
      <trkpt lat="47.10937" lon="-1.80592">
        <ele>14.12</ele>
        <time>2020-05-31T15:59:37Z</time>
      </trkpt>
      <trkpt lat="47.10924" lon="-1.806">
        <ele>13.83</ele>
        <time>2020-05-31T15:59:39Z</time>
      </trkpt>
      <trkpt lat="47.10911" lon="-1.80609">
        <ele>12.81</ele>
        <time>2020-05-31T15:59:41Z</time>
      </trkpt>
      <trkpt lat="47.10896" lon="-1.80619">
        <ele>13.18</ele>
        <time>2020-05-31T15:59:43Z</time>
      </trkpt>
      <trkpt lat="47.10883" lon="-1.80628">
        <ele>12.97</ele>
        <time>2020-05-31T15:59:45Z</time>
      </trkpt>
      <trkpt lat="47.10871" lon="-1.80636">
        <ele>12.45</ele>
        <time>2020-05-31T15:59:47Z</time>
      </trkpt>
      <trkpt lat="47.10856" lon="-1.80643">
        <ele>13.02</ele>
        <time>2020-05-31T15:59:49Z</time>
      </trkpt>
      <trkpt lat="47.10843" lon="-1.80647">
        <ele>14.16</ele>
        <time>2020-05-31T15:59:51Z</time>
      </trkpt>
      <trkpt lat="47.10829" lon="-1.80652">
        <ele>14.56</ele>
        <time>2020-05-31T15:59:53Z</time>
      </trkpt>
      <trkpt lat="47.10814" lon="-1.80657">
        <ele>13.79</ele>
        <time>2020-05-31T15:59:55Z</time>
      </trkpt>
      <trkpt lat="47.10799" lon="-1.80663">
        <ele>12.61</ele>
        <time>2020-05-31T15:59:57Z</time>
      </trkpt>
      <trkpt lat="47.10783" lon="-1.80669">
        <ele>12.14</ele>
        <time>2020-05-31T15:59:59Z</time>
      </trkpt>
      <trkpt lat="47.10769" lon="-1.80674">
        <ele>11.07</ele>
        <time>2020-05-31T16:00:01Z</time>
      </trkpt>
      <trkpt lat="47.10754" lon="-1.80678">
        <ele>10.84</ele>
        <time>2020-05-31T16:00:03Z</time>
      </trkpt>
      <trkpt lat="47.10739" lon="-1.80682">
        <ele>10.12</ele>
        <time>2020-05-31T16:00:05Z</time>
      </trkpt>
      <trkpt lat="47.10724" lon="-1.80686">
        <ele>9.53</ele>
        <time>2020-05-31T16:00:07Z</time>
      </trkpt>
      <trkpt lat="47.10708" lon="-1.80688">
        <ele>8.61</ele>
        <time>2020-05-31T16:00:09Z</time>
      </trkpt>
      <trkpt lat="47.10692" lon="-1.8069">
        <ele>7.94</ele>
        <time>2020-05-31T16:00:11Z</time>
      </trkpt>
      <trkpt lat="47.10677" lon="-1.80691">
        <ele>7.62</ele>
        <time>2020-05-31T16:00:13Z</time>
      </trkpt>
      <trkpt lat="47.10663" lon="-1.80692">
        <ele>7.64</ele>
        <time>2020-05-31T16:00:15Z</time>
      </trkpt>
      <trkpt lat="47.10647" lon="-1.80693">
        <ele>8.9</ele>
        <time>2020-05-31T16:00:17Z</time>
      </trkpt>
      <trkpt lat="47.10632" lon="-1.80695">
        <ele>9.78</ele>
        <time>2020-05-31T16:00:19Z</time>
      </trkpt>
      <trkpt lat="47.10617" lon="-1.80699">
        <ele>8.73</ele>
        <time>2020-05-31T16:00:21Z</time>
      </trkpt>
      <trkpt lat="47.10604" lon="-1.80704">
        <ele>8.5</ele>
        <time>2020-05-31T16:00:23Z</time>
      </trkpt>
      <trkpt lat="47.10591" lon="-1.80711">
        <ele>9.26</ele>
        <time>2020-05-31T16:00:25Z</time>
      </trkpt>
      <trkpt lat="47.10576" lon="-1.8072">
        <ele>10.23</ele>
        <time>2020-05-31T16:00:27Z</time>
      </trkpt>
      <trkpt lat="47.10564" lon="-1.80731">
        <ele>10.4</ele>
        <time>2020-05-31T16:00:29Z</time>
      </trkpt>
      <trkpt lat="47.10552" lon="-1.80745">
        <ele>10.38</ele>
        <time>2020-05-31T16:00:31Z</time>
      </trkpt>
      <trkpt lat="47.10541" lon="-1.80759">
        <ele>10.12</ele>
        <time>2020-05-31T16:00:33Z</time>
      </trkpt>
      <trkpt lat="47.1053" lon="-1.80774">
        <ele>10.37</ele>
        <time>2020-05-31T16:00:35Z</time>
      </trkpt>
      <trkpt lat="47.1052" lon="-1.8079">
        <ele>10.33</ele>
        <time>2020-05-31T16:00:37Z</time>
      </trkpt>
      <trkpt lat="47.10509" lon="-1.80805">
        <ele>9.08</ele>
        <time>2020-05-31T16:00:39Z</time>
      </trkpt>
      <trkpt lat="47.10495" lon="-1.80814">
        <ele>8.19</ele>
        <time>2020-05-31T16:00:41Z</time>
      </trkpt>
      <trkpt lat="47.10483" lon="-1.80827">
        <ele>7.71</ele>
        <time>2020-05-31T16:00:43Z</time>
      </trkpt>
      <trkpt lat="47.1047" lon="-1.80844">
        <ele>6.85</ele>
        <time>2020-05-31T16:00:45Z</time>
      </trkpt>
      <trkpt lat="47.10461" lon="-1.80859">
        <ele>7.11</ele>
        <time>2020-05-31T16:00:47Z</time>
      </trkpt>
      <trkpt lat="47.1045" lon="-1.80877">
        <ele>7.38</ele>
        <time>2020-05-31T16:00:49Z</time>
      </trkpt>
      <trkpt lat="47.10441" lon="-1.80894">
        <ele>6.65</ele>
        <time>2020-05-31T16:00:51Z</time>
      </trkpt>
      <trkpt lat="47.10433" lon="-1.8091">
        <ele>6.52</ele>
        <time>2020-05-31T16:00:53Z</time>
      </trkpt>
      <trkpt lat="47.10423" lon="-1.80926">
        <ele>6.98</ele>
        <time>2020-05-31T16:00:55Z</time>
      </trkpt>
      <trkpt lat="47.10413" lon="-1.80939">
        <ele>8.22</ele>
        <time>2020-05-31T16:00:57Z</time>
      </trkpt>
      <trkpt lat="47.10405" lon="-1.80954">
        <ele>9.45</ele>
        <time>2020-05-31T16:00:59Z</time>
      </trkpt>
      <trkpt lat="47.10396" lon="-1.80967">
        <ele>10.14</ele>
        <time>2020-05-31T16:01:01Z</time>
      </trkpt>
      <trkpt lat="47.10387" lon="-1.8098">
        <ele>10.4</ele>
        <time>2020-05-31T16:01:03Z</time>
      </trkpt>
      <trkpt lat="47.10378" lon="-1.80994">
        <ele>10.43</ele>
        <time>2020-05-31T16:01:05Z</time>
      </trkpt>
      <trkpt lat="47.10373" lon="-1.81008">
        <ele>11.5</ele>
        <time>2020-05-31T16:01:07Z</time>
      </trkpt>
      <trkpt lat="47.10368" lon="-1.81025">
        <ele>12.37</ele>
        <time>2020-05-31T16:01:09Z</time>
      </trkpt>
      <trkpt lat="47.10362" lon="-1.81041">
        <ele>12.96</ele>
        <time>2020-05-31T16:01:11Z</time>
      </trkpt>
      <trkpt lat="47.10352" lon="-1.81048">
        <ele>15.08</ele>
        <time>2020-05-31T16:01:13Z</time>
      </trkpt>
      <trkpt lat="47.10343" lon="-1.81034">
        <ele>13.86</ele>
        <time>2020-05-31T16:01:15Z</time>
      </trkpt>
      <trkpt lat="47.10335" lon="-1.81018">
        <ele>12.72</ele>
        <time>2020-05-31T16:01:17Z</time>
      </trkpt>
      <trkpt lat="47.10325" lon="-1.8101">
        <ele>12.41</ele>
        <time>2020-05-31T16:01:19Z</time>
      </trkpt>
      <trkpt lat="47.10312" lon="-1.81009">
        <ele>11.11</ele>
        <time>2020-05-31T16:01:21Z</time>
      </trkpt>
      <trkpt lat="47.10298" lon="-1.81008">
        <ele>9.73</ele>
        <time>2020-05-31T16:01:23Z</time>
      </trkpt>
      <trkpt lat="47.10281" lon="-1.81006">
        <ele>8.46</ele>
        <time>2020-05-31T16:01:25Z</time>
      </trkpt>
      <trkpt lat="47.10266" lon="-1.81005">
        <ele>8.76</ele>
        <time>2020-05-31T16:01:27Z</time>
      </trkpt>
      <trkpt lat="47.10256" lon="-1.81006">
        <ele>9.1</ele>
        <time>2020-05-31T16:01:28Z</time>
      </trkpt>
      <trkpt lat="47.10242" lon="-1.81007">
        <ele>9.62</ele>
        <time>2020-05-31T16:01:30Z</time>
      </trkpt>
      <trkpt lat="47.10227" lon="-1.81006">
        <ele>10.31</ele>
        <time>2020-05-31T16:01:32Z</time>
      </trkpt>
      <trkpt lat="47.10213" lon="-1.81003">
        <ele>10.07</ele>
        <time>2020-05-31T16:01:34Z</time>
      </trkpt>
      <trkpt lat="47.10197" lon="-1.80997">
        <ele>10.04</ele>
        <time>2020-05-31T16:01:36Z</time>
      </trkpt>
      <trkpt lat="47.10184" lon="-1.80992">
        <ele>10.13</ele>
        <time>2020-05-31T16:01:38Z</time>
      </trkpt>
      <trkpt lat="47.1017" lon="-1.80986">
        <ele>9.14</ele>
        <time>2020-05-31T16:01:40Z</time>
      </trkpt>
      <trkpt lat="47.10158" lon="-1.8098">
        <ele>7.49</ele>
        <time>2020-05-31T16:01:42Z</time>
      </trkpt>
      <trkpt lat="47.10146" lon="-1.80974">
        <ele>6.79</ele>
        <time>2020-05-31T16:01:44Z</time>
      </trkpt>
      <trkpt lat="47.10134" lon="-1.80969">
        <ele>6.15</ele>
        <time>2020-05-31T16:01:46Z</time>
      </trkpt>
      <trkpt lat="47.1012" lon="-1.80966">
        <ele>5.64</ele>
        <time>2020-05-31T16:01:48Z</time>
      </trkpt>
      <trkpt lat="47.10107" lon="-1.80967">
        <ele>4.8</ele>
        <time>2020-05-31T16:01:51Z</time>
      </trkpt>
      <trkpt lat="47.10092" lon="-1.80968">
        <ele>4.01</ele>
        <time>2020-05-31T16:01:52Z</time>
      </trkpt>
      <trkpt lat="47.10079" lon="-1.80969">
        <ele>3.95</ele>
        <time>2020-05-31T16:01:54Z</time>
      </trkpt>
      <trkpt lat="47.10067" lon="-1.80969">
        <ele>4.99</ele>
        <time>2020-05-31T16:01:56Z</time>
      </trkpt>
      <trkpt lat="47.10056" lon="-1.80969">
        <ele>5.56</ele>
        <time>2020-05-31T16:01:59Z</time>
      </trkpt>
      <trkpt lat="47.10042" lon="-1.80969">
        <ele>5.34</ele>
        <time>2020-05-31T16:02:01Z</time>
      </trkpt>
      <trkpt lat="47.10027" lon="-1.8097">
        <ele>5.89</ele>
        <time>2020-05-31T16:02:03Z</time>
      </trkpt>
      <trkpt lat="47.10015" lon="-1.80972">
        <ele>6.92</ele>
        <time>2020-05-31T16:02:05Z</time>
      </trkpt>
      <trkpt lat="47.10003" lon="-1.80974">
        <ele>8.33</ele>
        <time>2020-05-31T16:02:07Z</time>
      </trkpt>
      <trkpt lat="47.09989" lon="-1.80976">
        <ele>9.37</ele>
        <time>2020-05-31T16:02:09Z</time>
      </trkpt>
      <trkpt lat="47.09975" lon="-1.80977">
        <ele>9.39</ele>
        <time>2020-05-31T16:02:11Z</time>
      </trkpt>
      <trkpt lat="47.0996" lon="-1.80979">
        <ele>9.4</ele>
        <time>2020-05-31T16:02:13Z</time>
      </trkpt>
      <trkpt lat="47.09945" lon="-1.80979">
        <ele>9.77</ele>
        <time>2020-05-31T16:02:15Z</time>
      </trkpt>
      <trkpt lat="47.0993" lon="-1.80981">
        <ele>10.81</ele>
        <time>2020-05-31T16:02:17Z</time>
      </trkpt>
      <trkpt lat="47.09915" lon="-1.80982">
        <ele>10.83</ele>
        <time>2020-05-31T16:02:19Z</time>
      </trkpt>
      <trkpt lat="47.09902" lon="-1.80983">
        <ele>10.39</ele>
        <time>2020-05-31T16:02:21Z</time>
      </trkpt>
      <trkpt lat="47.09889" lon="-1.80984">
        <ele>9.77</ele>
        <time>2020-05-31T16:02:23Z</time>
      </trkpt>
      <trkpt lat="47.09877" lon="-1.80985">
        <ele>9.83</ele>
        <time>2020-05-31T16:02:25Z</time>
      </trkpt>
      <trkpt lat="47.09864" lon="-1.80985">
        <ele>10.32</ele>
        <time>2020-05-31T16:02:27Z</time>
      </trkpt>
      <trkpt lat="47.0985" lon="-1.80986">
        <ele>10.79</ele>
        <time>2020-05-31T16:02:29Z</time>
      </trkpt>
      <trkpt lat="47.09837" lon="-1.80987">
        <ele>10.79</ele>
        <time>2020-05-31T16:02:31Z</time>
      </trkpt>
      <trkpt lat="47.09825" lon="-1.80988">
        <ele>10.55</ele>
        <time>2020-05-31T16:02:33Z</time>
      </trkpt>
      <trkpt lat="47.09813" lon="-1.80989">
        <ele>10.32</ele>
        <time>2020-05-31T16:02:35Z</time>
      </trkpt>
      <trkpt lat="47.09803" lon="-1.8099">
        <ele>10.06</ele>
        <time>2020-05-31T16:02:37Z</time>
      </trkpt>
      <trkpt lat="47.09789" lon="-1.80989">
        <ele>10.57</ele>
        <time>2020-05-31T16:02:39Z</time>
      </trkpt>
      <trkpt lat="47.09776" lon="-1.80989">
        <ele>10.56</ele>
        <time>2020-05-31T16:02:41Z</time>
      </trkpt>
      <trkpt lat="47.09763" lon="-1.80986">
        <ele>10.64</ele>
        <time>2020-05-31T16:02:43Z</time>
      </trkpt>
      <trkpt lat="47.09749" lon="-1.80983">
        <ele>11.12</ele>
        <time>2020-05-31T16:02:45Z</time>
      </trkpt>
      <trkpt lat="47.09734" lon="-1.80978">
        <ele>11.93</ele>
        <time>2020-05-31T16:02:47Z</time>
      </trkpt>
      <trkpt lat="47.09722" lon="-1.80976">
        <ele>11.87</ele>
        <time>2020-05-31T16:02:49Z</time>
      </trkpt>
      <trkpt lat="47.0971" lon="-1.80972">
        <ele>11.39</ele>
        <time>2020-05-31T16:02:51Z</time>
      </trkpt>
      <trkpt lat="47.09697" lon="-1.80969">
        <ele>10.9</ele>
        <time>2020-05-31T16:02:53Z</time>
      </trkpt>
      <trkpt lat="47.09683" lon="-1.80966">
        <ele>10.1</ele>
        <time>2020-05-31T16:02:55Z</time>
      </trkpt>
      <trkpt lat="47.0967" lon="-1.80963">
        <ele>10.01</ele>
        <time>2020-05-31T16:02:57Z</time>
      </trkpt>
      <trkpt lat="47.09656" lon="-1.8096">
        <ele>9.96</ele>
        <time>2020-05-31T16:02:59Z</time>
      </trkpt>
      <trkpt lat="47.09643" lon="-1.80956">
        <ele>10.3</ele>
        <time>2020-05-31T16:03:01Z</time>
      </trkpt>
      <trkpt lat="47.0963" lon="-1.80954">
        <ele>10.17</ele>
        <time>2020-05-31T16:03:03Z</time>
      </trkpt>
      <trkpt lat="47.09616" lon="-1.8095">
        <ele>9.59</ele>
        <time>2020-05-31T16:03:05Z</time>
      </trkpt>
      <trkpt lat="47.09603" lon="-1.80948">
        <ele>9.07</ele>
        <time>2020-05-31T16:03:07Z</time>
      </trkpt>
      <trkpt lat="47.09591" lon="-1.80945">
        <ele>8.12</ele>
        <time>2020-05-31T16:03:09Z</time>
      </trkpt>
      <trkpt lat="47.09579" lon="-1.80941">
        <ele>8.07</ele>
        <time>2020-05-31T16:03:11Z</time>
      </trkpt>
      <trkpt lat="47.09565" lon="-1.80937">
        <ele>7.84</ele>
        <time>2020-05-31T16:03:13Z</time>
      </trkpt>
      <trkpt lat="47.09549" lon="-1.80934">
        <ele>8.22</ele>
        <time>2020-05-31T16:03:15Z</time>
      </trkpt>
      <trkpt lat="47.09535" lon="-1.80931">
        <ele>9.02</ele>
        <time>2020-05-31T16:03:17Z</time>
      </trkpt>
      <trkpt lat="47.09522" lon="-1.80928">
        <ele>9.09</ele>
        <time>2020-05-31T16:03:19Z</time>
      </trkpt>
      <trkpt lat="47.09509" lon="-1.80926">
        <ele>8.56</ele>
        <time>2020-05-31T16:03:21Z</time>
      </trkpt>
      <trkpt lat="47.09496" lon="-1.80924">
        <ele>8.76</ele>
        <time>2020-05-31T16:03:23Z</time>
      </trkpt>
      <trkpt lat="47.09485" lon="-1.80924">
        <ele>8.79</ele>
        <time>2020-05-31T16:03:25Z</time>
      </trkpt>
      <trkpt lat="47.09472" lon="-1.80931">
        <ele>8.35</ele>
        <time>2020-05-31T16:03:27Z</time>
      </trkpt>
      <trkpt lat="47.09457" lon="-1.80939">
        <ele>8.24</ele>
        <time>2020-05-31T16:03:29Z</time>
      </trkpt>
      <trkpt lat="47.09444" lon="-1.80946">
        <ele>8.19</ele>
        <time>2020-05-31T16:03:31Z</time>
      </trkpt>
      <trkpt lat="47.09432" lon="-1.80953">
        <ele>8.3</ele>
        <time>2020-05-31T16:03:33Z</time>
      </trkpt>
      <trkpt lat="47.0942" lon="-1.80961">
        <ele>8.36</ele>
        <time>2020-05-31T16:03:35Z</time>
      </trkpt>
      <trkpt lat="47.09406" lon="-1.80969">
        <ele>7.95</ele>
        <time>2020-05-31T16:03:37Z</time>
      </trkpt>
      <trkpt lat="47.09393" lon="-1.80978">
        <ele>6.98</ele>
        <time>2020-05-31T16:03:39Z</time>
      </trkpt>
      <trkpt lat="47.0938" lon="-1.80987">
        <ele>5.29</ele>
        <time>2020-05-31T16:03:41Z</time>
      </trkpt>
      <trkpt lat="47.09367" lon="-1.80995">
        <ele>4.61</ele>
        <time>2020-05-31T16:03:43Z</time>
      </trkpt>
      <trkpt lat="47.09352" lon="-1.81004">
        <ele>5.16</ele>
        <time>2020-05-31T16:03:45Z</time>
      </trkpt>
      <trkpt lat="47.0934" lon="-1.81011">
        <ele>4.84</ele>
        <time>2020-05-31T16:03:47Z</time>
      </trkpt>
      <trkpt lat="47.09325" lon="-1.81019">
        <ele>4.7</ele>
        <time>2020-05-31T16:03:49Z</time>
      </trkpt>
      <trkpt lat="47.09312" lon="-1.81027">
        <ele>4.06</ele>
        <time>2020-05-31T16:03:51Z</time>
      </trkpt>
      <trkpt lat="47.09296" lon="-1.81036">
        <ele>3.47</ele>
        <time>2020-05-31T16:03:53Z</time>
      </trkpt>
      <trkpt lat="47.09282" lon="-1.81046">
        <ele>3.24</ele>
        <time>2020-05-31T16:03:55Z</time>
      </trkpt>
      <trkpt lat="47.09268" lon="-1.81055">
        <ele>3.05</ele>
        <time>2020-05-31T16:03:57Z</time>
      </trkpt>
      <trkpt lat="47.09255" lon="-1.81062">
        <ele>2.59</ele>
        <time>2020-05-31T16:03:59Z</time>
      </trkpt>
      <trkpt lat="47.09242" lon="-1.8107">
        <ele>3.21</ele>
        <time>2020-05-31T16:04:01Z</time>
      </trkpt>
      <trkpt lat="47.09231" lon="-1.81083">
        <ele>3.83</ele>
        <time>2020-05-31T16:04:03Z</time>
      </trkpt>
      <trkpt lat="47.0922" lon="-1.81088">
        <ele>4.02</ele>
        <time>2020-05-31T16:04:06Z</time>
      </trkpt>
      <trkpt lat="47.09211" lon="-1.81082">
        <ele>4.3</ele>
        <time>2020-05-31T16:04:08Z</time>
      </trkpt>
      <trkpt lat="47.09198" lon="-1.81073">
        <ele>4.16</ele>
        <time>2020-05-31T16:04:10Z</time>
      </trkpt>
      <trkpt lat="47.09186" lon="-1.81065">
        <ele>4.04</ele>
        <time>2020-05-31T16:04:12Z</time>
      </trkpt>
      <trkpt lat="47.09176" lon="-1.81056">
        <ele>3.03</ele>
        <time>2020-05-31T16:04:14Z</time>
      </trkpt>
      <trkpt lat="47.09164" lon="-1.81046">
        <ele>1.87</ele>
        <time>2020-05-31T16:04:16Z</time>
      </trkpt>
      <trkpt lat="47.09152" lon="-1.81037">
        <ele>1.65</ele>
        <time>2020-05-31T16:04:18Z</time>
      </trkpt>
      <trkpt lat="47.09142" lon="-1.81029">
        <ele>2.29</ele>
        <time>2020-05-31T16:04:20Z</time>
      </trkpt>
      <trkpt lat="47.09131" lon="-1.8102">
        <ele>3.16</ele>
        <time>2020-05-31T16:04:22Z</time>
      </trkpt>
      <trkpt lat="47.0912" lon="-1.81011">
        <ele>3.6</ele>
        <time>2020-05-31T16:04:24Z</time>
      </trkpt>
      <trkpt lat="47.09109" lon="-1.81003">
        <ele>3.6</ele>
        <time>2020-05-31T16:04:26Z</time>
      </trkpt>
      <trkpt lat="47.09098" lon="-1.80995">
        <ele>4</ele>
        <time>2020-05-31T16:04:28Z</time>
      </trkpt>
      <trkpt lat="47.09087" lon="-1.80988">
        <ele>4.83</ele>
        <time>2020-05-31T16:04:30Z</time>
      </trkpt>
      <trkpt lat="47.09075" lon="-1.80979">
        <ele>5.26</ele>
        <time>2020-05-31T16:04:32Z</time>
      </trkpt>
      <trkpt lat="47.09063" lon="-1.8097">
        <ele>5.22</ele>
        <time>2020-05-31T16:04:34Z</time>
      </trkpt>
      <trkpt lat="47.09052" lon="-1.80962">
        <ele>5.2</ele>
        <time>2020-05-31T16:04:36Z</time>
      </trkpt>
      <trkpt lat="47.0904" lon="-1.80953">
        <ele>5.08</ele>
        <time>2020-05-31T16:04:38Z</time>
      </trkpt>
      <trkpt lat="47.09028" lon="-1.80944">
        <ele>4.52</ele>
        <time>2020-05-31T16:04:40Z</time>
      </trkpt>
      <trkpt lat="47.09017" lon="-1.80937">
        <ele>4.52</ele>
        <time>2020-05-31T16:04:42Z</time>
      </trkpt>
      <trkpt lat="47.09005" lon="-1.80929">
        <ele>4.61</ele>
        <time>2020-05-31T16:04:44Z</time>
      </trkpt>
      <trkpt lat="47.08995" lon="-1.80921">
        <ele>5.14</ele>
        <time>2020-05-31T16:04:46Z</time>
      </trkpt>
      <trkpt lat="47.08983" lon="-1.80913">
        <ele>5.44</ele>
        <time>2020-05-31T16:04:48Z</time>
      </trkpt>
      <trkpt lat="47.08973" lon="-1.80905">
        <ele>5.19</ele>
        <time>2020-05-31T16:04:50Z</time>
      </trkpt>
      <trkpt lat="47.08964" lon="-1.80897">
        <ele>5.87</ele>
        <time>2020-05-31T16:04:52Z</time>
      </trkpt>
      <trkpt lat="47.08952" lon="-1.80887">
        <ele>6.4</ele>
        <time>2020-05-31T16:04:54Z</time>
      </trkpt>
      <trkpt lat="47.08941" lon="-1.80878">
        <ele>7.03</ele>
        <time>2020-05-31T16:04:56Z</time>
      </trkpt>
      <trkpt lat="47.0893" lon="-1.80868">
        <ele>7.49</ele>
        <time>2020-05-31T16:04:58Z</time>
      </trkpt>
      <trkpt lat="47.0892" lon="-1.80859">
        <ele>7.71</ele>
        <time>2020-05-31T16:05:00Z</time>
      </trkpt>
      <trkpt lat="47.08911" lon="-1.80847">
        <ele>7.87</ele>
        <time>2020-05-31T16:05:02Z</time>
      </trkpt>
      <trkpt lat="47.08903" lon="-1.80835">
        <ele>7.74</ele>
        <time>2020-05-31T16:05:04Z</time>
      </trkpt>
      <trkpt lat="47.08894" lon="-1.80821">
        <ele>7.54</ele>
        <time>2020-05-31T16:05:06Z</time>
      </trkpt>
      <trkpt lat="47.08886" lon="-1.80806">
        <ele>6.6</ele>
        <time>2020-05-31T16:05:08Z</time>
      </trkpt>
      <trkpt lat="47.08878" lon="-1.80793">
        <ele>6.03</ele>
        <time>2020-05-31T16:05:10Z</time>
      </trkpt>
      <trkpt lat="47.08872" lon="-1.8078">
        <ele>5.93</ele>
        <time>2020-05-31T16:05:12Z</time>
      </trkpt>
      <trkpt lat="47.08864" lon="-1.80767">
        <ele>6.93</ele>
        <time>2020-05-31T16:05:14Z</time>
      </trkpt>
      <trkpt lat="47.08857" lon="-1.80755">
        <ele>7.52</ele>
        <time>2020-05-31T16:05:16Z</time>
      </trkpt>
      <trkpt lat="47.08849" lon="-1.80742">
        <ele>7.44</ele>
        <time>2020-05-31T16:05:18Z</time>
      </trkpt>
      <trkpt lat="47.08842" lon="-1.80729">
        <ele>6.78</ele>
        <time>2020-05-31T16:05:20Z</time>
      </trkpt>
      <trkpt lat="47.08834" lon="-1.80714">
        <ele>7.36</ele>
        <time>2020-05-31T16:05:22Z</time>
      </trkpt>
      <trkpt lat="47.08826" lon="-1.80698">
        <ele>6.57</ele>
        <time>2020-05-31T16:05:24Z</time>
      </trkpt>
      <trkpt lat="47.08819" lon="-1.80684">
        <ele>6.48</ele>
        <time>2020-05-31T16:05:26Z</time>
      </trkpt>
      <trkpt lat="47.08812" lon="-1.80671">
        <ele>6.96</ele>
        <time>2020-05-31T16:05:28Z</time>
      </trkpt>
      <trkpt lat="47.08805" lon="-1.80658">
        <ele>7.66</ele>
        <time>2020-05-31T16:05:30Z</time>
      </trkpt>
      <trkpt lat="47.08798" lon="-1.80646">
        <ele>7.85</ele>
        <time>2020-05-31T16:05:32Z</time>
      </trkpt>
      <trkpt lat="47.0879" lon="-1.80633">
        <ele>8.05</ele>
        <time>2020-05-31T16:05:34Z</time>
      </trkpt>
      <trkpt lat="47.08782" lon="-1.80618">
        <ele>8.05</ele>
        <time>2020-05-31T16:05:36Z</time>
      </trkpt>
      <trkpt lat="47.08773" lon="-1.80606">
        <ele>9.22</ele>
        <time>2020-05-31T16:05:38Z</time>
      </trkpt>
      <trkpt lat="47.08765" lon="-1.80597">
        <ele>10.67</ele>
        <time>2020-05-31T16:05:40Z</time>
      </trkpt>
      <trkpt lat="47.08755" lon="-1.80587">
        <ele>10.75</ele>
        <time>2020-05-31T16:05:42Z</time>
      </trkpt>
      <trkpt lat="47.08746" lon="-1.80579">
        <ele>9.87</ele>
        <time>2020-05-31T16:05:44Z</time>
      </trkpt>
      <trkpt lat="47.08736" lon="-1.80571">
        <ele>10.68</ele>
        <time>2020-05-31T16:05:46Z</time>
      </trkpt>
      <trkpt lat="47.08724" lon="-1.80561">
        <ele>11.32</ele>
        <time>2020-05-31T16:05:48Z</time>
      </trkpt>
      <trkpt lat="47.08715" lon="-1.80555">
        <ele>12.64</ele>
        <time>2020-05-31T16:05:50Z</time>
      </trkpt>
      <trkpt lat="47.08705" lon="-1.80547">
        <ele>12.65</ele>
        <time>2020-05-31T16:05:52Z</time>
      </trkpt>
      <trkpt lat="47.08694" lon="-1.80538">
        <ele>12.74</ele>
        <time>2020-05-31T16:05:54Z</time>
      </trkpt>
      <trkpt lat="47.08682" lon="-1.8053">
        <ele>12.39</ele>
        <time>2020-05-31T16:05:56Z</time>
      </trkpt>
      <trkpt lat="47.08672" lon="-1.80524">
        <ele>12.29</ele>
        <time>2020-05-31T16:05:58Z</time>
      </trkpt>
      <trkpt lat="47.08661" lon="-1.80517">
        <ele>13.12</ele>
        <time>2020-05-31T16:06:00Z</time>
      </trkpt>
      <trkpt lat="47.08649" lon="-1.80511">
        <ele>13.77</ele>
        <time>2020-05-31T16:06:02Z</time>
      </trkpt>
      <trkpt lat="47.08638" lon="-1.80508">
        <ele>14.35</ele>
        <time>2020-05-31T16:06:04Z</time>
      </trkpt>
      <trkpt lat="47.08626" lon="-1.80505">
        <ele>13.94</ele>
        <time>2020-05-31T16:06:06Z</time>
      </trkpt>
      <trkpt lat="47.08615" lon="-1.80502">
        <ele>14.21</ele>
        <time>2020-05-31T16:06:08Z</time>
      </trkpt>
      <trkpt lat="47.08601" lon="-1.80499">
        <ele>14.9</ele>
        <time>2020-05-31T16:06:10Z</time>
      </trkpt>
      <trkpt lat="47.0859" lon="-1.80497">
        <ele>14.93</ele>
        <time>2020-05-31T16:06:12Z</time>
      </trkpt>
      <trkpt lat="47.0858" lon="-1.80495">
        <ele>14.66</ele>
        <time>2020-05-31T16:06:14Z</time>
      </trkpt>
      <trkpt lat="47.08568" lon="-1.80493">
        <ele>14.2</ele>
        <time>2020-05-31T16:06:16Z</time>
      </trkpt>
      <trkpt lat="47.08556" lon="-1.80492">
        <ele>13.43</ele>
        <time>2020-05-31T16:06:18Z</time>
      </trkpt>
      <trkpt lat="47.08545" lon="-1.80489">
        <ele>13.31</ele>
        <time>2020-05-31T16:06:20Z</time>
      </trkpt>
      <trkpt lat="47.08533" lon="-1.80486">
        <ele>13.78</ele>
        <time>2020-05-31T16:06:22Z</time>
      </trkpt>
      <trkpt lat="47.08523" lon="-1.80483">
        <ele>13.71</ele>
        <time>2020-05-31T16:06:24Z</time>
      </trkpt>
      <trkpt lat="47.0851" lon="-1.8048">
        <ele>13.81</ele>
        <time>2020-05-31T16:06:26Z</time>
      </trkpt>
      <trkpt lat="47.08497" lon="-1.80476">
        <ele>14.39</ele>
        <time>2020-05-31T16:06:28Z</time>
      </trkpt>
      <trkpt lat="47.08485" lon="-1.80474">
        <ele>14.97</ele>
        <time>2020-05-31T16:06:30Z</time>
      </trkpt>
      <trkpt lat="47.08473" lon="-1.80472">
        <ele>14.78</ele>
        <time>2020-05-31T16:06:32Z</time>
      </trkpt>
      <trkpt lat="47.08462" lon="-1.8047">
        <ele>14.95</ele>
        <time>2020-05-31T16:06:34Z</time>
      </trkpt>
      <trkpt lat="47.0845" lon="-1.8047">
        <ele>15.29</ele>
        <time>2020-05-31T16:06:36Z</time>
      </trkpt>
      <trkpt lat="47.08437" lon="-1.80469">
        <ele>15.54</ele>
        <time>2020-05-31T16:06:38Z</time>
      </trkpt>
      <trkpt lat="47.08423" lon="-1.80469">
        <ele>16.17</ele>
        <time>2020-05-31T16:06:40Z</time>
      </trkpt>
      <trkpt lat="47.0841" lon="-1.80469">
        <ele>16.99</ele>
        <time>2020-05-31T16:06:42Z</time>
      </trkpt>
      <trkpt lat="47.08399" lon="-1.80469">
        <ele>17.06</ele>
        <time>2020-05-31T16:06:44Z</time>
      </trkpt>
      <trkpt lat="47.08386" lon="-1.8047">
        <ele>17.35</ele>
        <time>2020-05-31T16:06:46Z</time>
      </trkpt>
      <trkpt lat="47.08374" lon="-1.8047">
        <ele>16.86</ele>
        <time>2020-05-31T16:06:48Z</time>
      </trkpt>
      <trkpt lat="47.08361" lon="-1.8047">
        <ele>17.2</ele>
        <time>2020-05-31T16:06:50Z</time>
      </trkpt>
      <trkpt lat="47.08347" lon="-1.80471">
        <ele>18.04</ele>
        <time>2020-05-31T16:06:52Z</time>
      </trkpt>
      <trkpt lat="47.08335" lon="-1.80473">
        <ele>18.59</ele>
        <time>2020-05-31T16:06:54Z</time>
      </trkpt>
      <trkpt lat="47.08324" lon="-1.80474">
        <ele>17.98</ele>
        <time>2020-05-31T16:06:56Z</time>
      </trkpt>
      <trkpt lat="47.0831" lon="-1.80478">
        <ele>17.89</ele>
        <time>2020-05-31T16:06:58Z</time>
      </trkpt>
      <trkpt lat="47.08298" lon="-1.8048">
        <ele>17.87</ele>
        <time>2020-05-31T16:07:00Z</time>
      </trkpt>
      <trkpt lat="47.08285" lon="-1.80484">
        <ele>17.34</ele>
        <time>2020-05-31T16:07:02Z</time>
      </trkpt>
      <trkpt lat="47.08274" lon="-1.80489">
        <ele>17.23</ele>
        <time>2020-05-31T16:07:04Z</time>
      </trkpt>
      <trkpt lat="47.08259" lon="-1.80494">
        <ele>17.24</ele>
        <time>2020-05-31T16:07:06Z</time>
      </trkpt>
      <trkpt lat="47.08246" lon="-1.80499">
        <ele>17.25</ele>
        <time>2020-05-31T16:07:08Z</time>
      </trkpt>
      <trkpt lat="47.08231" lon="-1.80504">
        <ele>17.2</ele>
        <time>2020-05-31T16:07:10Z</time>
      </trkpt>
      <trkpt lat="47.08218" lon="-1.80509">
        <ele>17.25</ele>
        <time>2020-05-31T16:07:12Z</time>
      </trkpt>
      <trkpt lat="47.08203" lon="-1.80517">
        <ele>16.96</ele>
        <time>2020-05-31T16:07:14Z</time>
      </trkpt>
      <trkpt lat="47.08189" lon="-1.80523">
        <ele>15.89</ele>
        <time>2020-05-31T16:07:16Z</time>
      </trkpt>
      <trkpt lat="47.08174" lon="-1.8053">
        <ele>15.08</ele>
        <time>2020-05-31T16:07:18Z</time>
      </trkpt>
      <trkpt lat="47.08159" lon="-1.80537">
        <ele>15.1</ele>
        <time>2020-05-31T16:07:20Z</time>
      </trkpt>
      <trkpt lat="47.08143" lon="-1.80543">
        <ele>14.64</ele>
        <time>2020-05-31T16:07:22Z</time>
      </trkpt>
      <trkpt lat="47.08128" lon="-1.80549">
        <ele>14.03</ele>
        <time>2020-05-31T16:07:24Z</time>
      </trkpt>
      <trkpt lat="47.08113" lon="-1.80554">
        <ele>13.99</ele>
        <time>2020-05-31T16:07:26Z</time>
      </trkpt>
      <trkpt lat="47.08097" lon="-1.80559">
        <ele>13.68</ele>
        <time>2020-05-31T16:07:28Z</time>
      </trkpt>
      <trkpt lat="47.08082" lon="-1.80564">
        <ele>12.87</ele>
        <time>2020-05-31T16:07:30Z</time>
      </trkpt>
      <trkpt lat="47.08065" lon="-1.80569">
        <ele>11.51</ele>
        <time>2020-05-31T16:07:32Z</time>
      </trkpt>
      <trkpt lat="47.08051" lon="-1.80572">
        <ele>10.16</ele>
        <time>2020-05-31T16:07:34Z</time>
      </trkpt>
      <trkpt lat="47.08042" lon="-1.80573">
        <ele>10.13</ele>
        <time>2020-05-31T16:07:35Z</time>
      </trkpt>
      <trkpt lat="47.08024" lon="-1.80577">
        <ele>11.07</ele>
        <time>2020-05-31T16:07:37Z</time>
      </trkpt>
      <trkpt lat="47.08011" lon="-1.8058">
        <ele>11.03</ele>
        <time>2020-05-31T16:07:39Z</time>
      </trkpt>
      <trkpt lat="47.07996" lon="-1.80583">
        <ele>10.99</ele>
        <time>2020-05-31T16:07:41Z</time>
      </trkpt>
      <trkpt lat="47.07981" lon="-1.80583">
        <ele>11.04</ele>
        <time>2020-05-31T16:07:43Z</time>
      </trkpt>
      <trkpt lat="47.07965" lon="-1.8058">
        <ele>10.93</ele>
        <time>2020-05-31T16:07:45Z</time>
      </trkpt>
      <trkpt lat="47.0795" lon="-1.80575">
        <ele>10.84</ele>
        <time>2020-05-31T16:07:47Z</time>
      </trkpt>
      <trkpt lat="47.07937" lon="-1.80562">
        <ele>10.94</ele>
        <time>2020-05-31T16:07:49Z</time>
      </trkpt>
      <trkpt lat="47.07927" lon="-1.80545">
        <ele>10.89</ele>
        <time>2020-05-31T16:07:51Z</time>
      </trkpt>
      <trkpt lat="47.07917" lon="-1.80524">
        <ele>10.53</ele>
        <time>2020-05-31T16:07:53Z</time>
      </trkpt>
      <trkpt lat="47.07909" lon="-1.80507">
        <ele>10.58</ele>
        <time>2020-05-31T16:07:55Z</time>
      </trkpt>
      <trkpt lat="47.07904" lon="-1.80485">
        <ele>10.5</ele>
        <time>2020-05-31T16:07:57Z</time>
      </trkpt>
      <trkpt lat="47.079" lon="-1.80466">
        <ele>10.5</ele>
        <time>2020-05-31T16:07:59Z</time>
      </trkpt>
      <trkpt lat="47.079" lon="-1.80444">
        <ele>10.63</ele>
        <time>2020-05-31T16:08:01Z</time>
      </trkpt>
      <trkpt lat="47.07901" lon="-1.80421">
        <ele>11.56</ele>
        <time>2020-05-31T16:08:03Z</time>
      </trkpt>
      <trkpt lat="47.07901" lon="-1.804">
        <ele>11.86</ele>
        <time>2020-05-31T16:08:05Z</time>
      </trkpt>
      <trkpt lat="47.07901" lon="-1.80381">
        <ele>12.43</ele>
        <time>2020-05-31T16:08:07Z</time>
      </trkpt>
      <trkpt lat="47.07901" lon="-1.80363">
        <ele>12.33</ele>
        <time>2020-05-31T16:08:09Z</time>
      </trkpt>
      <trkpt lat="47.07901" lon="-1.80342">
        <ele>12.97</ele>
        <time>2020-05-31T16:08:11Z</time>
      </trkpt>
      <trkpt lat="47.07901" lon="-1.80322">
        <ele>13.29</ele>
        <time>2020-05-31T16:08:13Z</time>
      </trkpt>
      <trkpt lat="47.07902" lon="-1.80302">
        <ele>13.43</ele>
        <time>2020-05-31T16:08:15Z</time>
      </trkpt>
      <trkpt lat="47.07902" lon="-1.80285">
        <ele>13.27</ele>
        <time>2020-05-31T16:08:17Z</time>
      </trkpt>
      <trkpt lat="47.07902" lon="-1.80269">
        <ele>13.25</ele>
        <time>2020-05-31T16:08:19Z</time>
      </trkpt>
      <trkpt lat="47.07902" lon="-1.80249">
        <ele>12.43</ele>
        <time>2020-05-31T16:08:21Z</time>
      </trkpt>
      <trkpt lat="47.07901" lon="-1.80232">
        <ele>11.26</ele>
        <time>2020-05-31T16:08:23Z</time>
      </trkpt>
      <trkpt lat="47.07901" lon="-1.80213">
        <ele>11.32</ele>
        <time>2020-05-31T16:08:25Z</time>
      </trkpt>
      <trkpt lat="47.07901" lon="-1.80196">
        <ele>11.98</ele>
        <time>2020-05-31T16:08:27Z</time>
      </trkpt>
      <trkpt lat="47.07901" lon="-1.80179">
        <ele>12.39</ele>
        <time>2020-05-31T16:08:29Z</time>
      </trkpt>
      <trkpt lat="47.07901" lon="-1.8016">
        <ele>11.82</ele>
        <time>2020-05-31T16:08:31Z</time>
      </trkpt>
      <trkpt lat="47.07901" lon="-1.80145">
        <ele>11.12</ele>
        <time>2020-05-31T16:08:33Z</time>
      </trkpt>
      <trkpt lat="47.07901" lon="-1.8013">
        <ele>11.82</ele>
        <time>2020-05-31T16:08:35Z</time>
      </trkpt>
      <trkpt lat="47.07901" lon="-1.80114">
        <ele>12.48</ele>
        <time>2020-05-31T16:08:38Z</time>
      </trkpt>
      <trkpt lat="47.07899" lon="-1.80099">
        <ele>11.33</ele>
        <time>2020-05-31T16:08:42Z</time>
      </trkpt>
      <trkpt lat="47.07898" lon="-1.80084">
        <ele>11.23</ele>
        <time>2020-05-31T16:08:45Z</time>
      </trkpt>
      <trkpt lat="47.07899" lon="-1.80066">
        <ele>11.84</ele>
        <time>2020-05-31T16:08:48Z</time>
      </trkpt>
      <trkpt lat="47.07898" lon="-1.80052">
        <ele>11.82</ele>
        <time>2020-05-31T16:08:50Z</time>
      </trkpt>
      <trkpt lat="47.07898" lon="-1.80035">
        <ele>12.09</ele>
        <time>2020-05-31T16:08:52Z</time>
      </trkpt>
      <trkpt lat="47.07896" lon="-1.80022">
        <ele>11.66</ele>
        <time>2020-05-31T16:08:54Z</time>
      </trkpt>
      <trkpt lat="47.0789" lon="-1.80004">
        <ele>11.79</ele>
        <time>2020-05-31T16:08:57Z</time>
      </trkpt>
      <trkpt lat="47.07887" lon="-1.79989">
        <ele>10.79</ele>
        <time>2020-05-31T16:08:59Z</time>
      </trkpt>
      <trkpt lat="47.07892" lon="-1.79977">
        <ele>10.2</ele>
        <time>2020-05-31T16:09:01Z</time>
      </trkpt>
      <trkpt lat="47.07898" lon="-1.79965">
        <ele>10.67</ele>
        <time>2020-05-31T16:09:03Z</time>
      </trkpt>
      <trkpt lat="47.07904" lon="-1.79947">
        <ele>9.84</ele>
        <time>2020-05-31T16:09:05Z</time>
      </trkpt>
      <trkpt lat="47.07909" lon="-1.79931">
        <ele>9.14</ele>
        <time>2020-05-31T16:09:07Z</time>
      </trkpt>
      <trkpt lat="47.07914" lon="-1.79913">
        <ele>9.01</ele>
        <time>2020-05-31T16:09:09Z</time>
      </trkpt>
      <trkpt lat="47.07919" lon="-1.79894">
        <ele>9.64</ele>
        <time>2020-05-31T16:09:11Z</time>
      </trkpt>
      <trkpt lat="47.07923" lon="-1.7988">
        <ele>10.57</ele>
        <time>2020-05-31T16:09:13Z</time>
      </trkpt>
      <trkpt lat="47.07928" lon="-1.79865">
        <ele>11.42</ele>
        <time>2020-05-31T16:09:15Z</time>
      </trkpt>
      <trkpt lat="47.07935" lon="-1.79848">
        <ele>11.29</ele>
        <time>2020-05-31T16:09:17Z</time>
      </trkpt>
      <trkpt lat="47.07941" lon="-1.79834">
        <ele>11.13</ele>
        <time>2020-05-31T16:09:19Z</time>
      </trkpt>
      <trkpt lat="47.07948" lon="-1.79818">
        <ele>10.52</ele>
        <time>2020-05-31T16:09:21Z</time>
      </trkpt>
      <trkpt lat="47.07953" lon="-1.79801">
        <ele>10.25</ele>
        <time>2020-05-31T16:09:23Z</time>
      </trkpt>
      <trkpt lat="47.07957" lon="-1.79786">
        <ele>10.85</ele>
        <time>2020-05-31T16:09:25Z</time>
      </trkpt>
      <trkpt lat="47.0796" lon="-1.79771">
        <ele>11.73</ele>
        <time>2020-05-31T16:09:27Z</time>
      </trkpt>
      <trkpt lat="47.07963" lon="-1.79753">
        <ele>12.29</ele>
        <time>2020-05-31T16:09:29Z</time>
      </trkpt>
      <trkpt lat="47.07964" lon="-1.79735">
        <ele>12.14</ele>
        <time>2020-05-31T16:09:31Z</time>
      </trkpt>
      <trkpt lat="47.07965" lon="-1.79714">
        <ele>11.95</ele>
        <time>2020-05-31T16:09:33Z</time>
      </trkpt>
      <trkpt lat="47.07966" lon="-1.79698">
        <ele>12.13</ele>
        <time>2020-05-31T16:09:35Z</time>
      </trkpt>
      <trkpt lat="47.07967" lon="-1.7968">
        <ele>12.35</ele>
        <time>2020-05-31T16:09:37Z</time>
      </trkpt>
      <trkpt lat="47.07967" lon="-1.79664">
        <ele>12.82</ele>
        <time>2020-05-31T16:09:39Z</time>
      </trkpt>
      <trkpt lat="47.07968" lon="-1.79645">
        <ele>13.08</ele>
        <time>2020-05-31T16:09:41Z</time>
      </trkpt>
      <trkpt lat="47.07968" lon="-1.79627">
        <ele>12.86</ele>
        <time>2020-05-31T16:09:43Z</time>
      </trkpt>
      <trkpt lat="47.07967" lon="-1.7961">
        <ele>12.82</ele>
        <time>2020-05-31T16:09:45Z</time>
      </trkpt>
      <trkpt lat="47.07966" lon="-1.79591">
        <ele>12.03</ele>
        <time>2020-05-31T16:09:47Z</time>
      </trkpt>
      <trkpt lat="47.07964" lon="-1.79572">
        <ele>11.68</ele>
        <time>2020-05-31T16:09:49Z</time>
      </trkpt>
      <trkpt lat="47.07962" lon="-1.79555">
        <ele>12.17</ele>
        <time>2020-05-31T16:09:51Z</time>
      </trkpt>
      <trkpt lat="47.07959" lon="-1.79537">
        <ele>12.72</ele>
        <time>2020-05-31T16:09:53Z</time>
      </trkpt>
      <trkpt lat="47.07956" lon="-1.79519">
        <ele>13.36</ele>
        <time>2020-05-31T16:09:55Z</time>
      </trkpt>
      <trkpt lat="47.07953" lon="-1.79504">
        <ele>13.61</ele>
        <time>2020-05-31T16:09:57Z</time>
      </trkpt>
      <trkpt lat="47.07949" lon="-1.79485">
        <ele>13.4</ele>
        <time>2020-05-31T16:09:59Z</time>
      </trkpt>
      <trkpt lat="47.07944" lon="-1.79467">
        <ele>13.08</ele>
        <time>2020-05-31T16:10:01Z</time>
      </trkpt>
      <trkpt lat="47.0794" lon="-1.79452">
        <ele>12.6</ele>
        <time>2020-05-31T16:10:03Z</time>
      </trkpt>
      <trkpt lat="47.07935" lon="-1.79435">
        <ele>11.47</ele>
        <time>2020-05-31T16:10:05Z</time>
      </trkpt>
      <trkpt lat="47.0793" lon="-1.79418">
        <ele>10.75</ele>
        <time>2020-05-31T16:10:07Z</time>
      </trkpt>
      <trkpt lat="47.07925" lon="-1.794">
        <ele>10.32</ele>
        <time>2020-05-31T16:10:09Z</time>
      </trkpt>
      <trkpt lat="47.0792" lon="-1.79383">
        <ele>10.82</ele>
        <time>2020-05-31T16:10:11Z</time>
      </trkpt>
      <trkpt lat="47.07915" lon="-1.79365">
        <ele>11.16</ele>
        <time>2020-05-31T16:10:13Z</time>
      </trkpt>
      <trkpt lat="47.07911" lon="-1.79346">
        <ele>10.92</ele>
        <time>2020-05-31T16:10:15Z</time>
      </trkpt>
      <trkpt lat="47.07905" lon="-1.79328">
        <ele>10.34</ele>
        <time>2020-05-31T16:10:17Z</time>
      </trkpt>
      <trkpt lat="47.079" lon="-1.79308">
        <ele>9.51</ele>
        <time>2020-05-31T16:10:19Z</time>
      </trkpt>
      <trkpt lat="47.07895" lon="-1.7929">
        <ele>9.1</ele>
        <time>2020-05-31T16:10:21Z</time>
      </trkpt>
      <trkpt lat="47.0789" lon="-1.79271">
        <ele>8.73</ele>
        <time>2020-05-31T16:10:23Z</time>
      </trkpt>
      <trkpt lat="47.07886" lon="-1.79254">
        <ele>7.85</ele>
        <time>2020-05-31T16:10:25Z</time>
      </trkpt>
      <trkpt lat="47.07881" lon="-1.79236">
        <ele>6.63</ele>
        <time>2020-05-31T16:10:27Z</time>
      </trkpt>
      <trkpt lat="47.07876" lon="-1.79217">
        <ele>5.64</ele>
        <time>2020-05-31T16:10:29Z</time>
      </trkpt>
      <trkpt lat="47.07871" lon="-1.79199">
        <ele>5.08</ele>
        <time>2020-05-31T16:10:31Z</time>
      </trkpt>
      <trkpt lat="47.07866" lon="-1.7918">
        <ele>4.57</ele>
        <time>2020-05-31T16:10:33Z</time>
      </trkpt>
      <trkpt lat="47.0786" lon="-1.79159">
        <ele>4.05</ele>
        <time>2020-05-31T16:10:35Z</time>
      </trkpt>
      <trkpt lat="47.07855" lon="-1.79139">
        <ele>3.81</ele>
        <time>2020-05-31T16:10:37Z</time>
      </trkpt>
      <trkpt lat="47.07851" lon="-1.79119">
        <ele>3.66</ele>
        <time>2020-05-31T16:10:39Z</time>
      </trkpt>
      <trkpt lat="47.07845" lon="-1.79098">
        <ele>2.76</ele>
        <time>2020-05-31T16:10:41Z</time>
      </trkpt>
      <trkpt lat="47.0784" lon="-1.7908">
        <ele>1.78</ele>
        <time>2020-05-31T16:10:43Z</time>
      </trkpt>
      <trkpt lat="47.07835" lon="-1.79061">
        <ele>1.71</ele>
        <time>2020-05-31T16:10:45Z</time>
      </trkpt>
      <trkpt lat="47.0783" lon="-1.79043">
        <ele>2.05</ele>
        <time>2020-05-31T16:10:47Z</time>
      </trkpt>
      <trkpt lat="47.07825" lon="-1.79025">
        <ele>2.1</ele>
        <time>2020-05-31T16:10:49Z</time>
      </trkpt>
      <trkpt lat="47.07819" lon="-1.79006">
        <ele>1.67</ele>
        <time>2020-05-31T16:10:51Z</time>
      </trkpt>
      <trkpt lat="47.07815" lon="-1.78988">
        <ele>1.35</ele>
        <time>2020-05-31T16:10:53Z</time>
      </trkpt>
      <trkpt lat="47.07811" lon="-1.7897">
        <ele>1.75</ele>
        <time>2020-05-31T16:10:55Z</time>
      </trkpt>
      <trkpt lat="47.07807" lon="-1.78954">
        <ele>1.56</ele>
        <time>2020-05-31T16:10:57Z</time>
      </trkpt>
      <trkpt lat="47.07802" lon="-1.78937">
        <ele>2.15</ele>
        <time>2020-05-31T16:10:59Z</time>
      </trkpt>
      <trkpt lat="47.07798" lon="-1.78922">
        <ele>1.92</ele>
        <time>2020-05-31T16:11:01Z</time>
      </trkpt>
      <trkpt lat="47.07793" lon="-1.78905">
        <ele>1.83</ele>
        <time>2020-05-31T16:11:04Z</time>
      </trkpt>
      <trkpt lat="47.0779" lon="-1.78889">
        <ele>2.48</ele>
        <time>2020-05-31T16:11:06Z</time>
      </trkpt>
      <trkpt lat="47.07786" lon="-1.78872">
        <ele>3.41</ele>
        <time>2020-05-31T16:11:09Z</time>
      </trkpt>
      <trkpt lat="47.07782" lon="-1.78857">
        <ele>3.81</ele>
        <time>2020-05-31T16:11:11Z</time>
      </trkpt>
      <trkpt lat="47.07779" lon="-1.78844">
        <ele>4.13</ele>
        <time>2020-05-31T16:11:13Z</time>
      </trkpt>
      <trkpt lat="47.07775" lon="-1.7883">
        <ele>4.85</ele>
        <time>2020-05-31T16:11:15Z</time>
      </trkpt>
      <trkpt lat="47.07772" lon="-1.78817">
        <ele>4.89</ele>
        <time>2020-05-31T16:11:17Z</time>
      </trkpt>
      <trkpt lat="47.07767" lon="-1.78803">
        <ele>5.06</ele>
        <time>2020-05-31T16:11:19Z</time>
      </trkpt>
      <trkpt lat="47.07763" lon="-1.78788">
        <ele>5.78</ele>
        <time>2020-05-31T16:11:21Z</time>
      </trkpt>
      <trkpt lat="47.07759" lon="-1.78775">
        <ele>6.69</ele>
        <time>2020-05-31T16:11:23Z</time>
      </trkpt>
      <trkpt lat="47.07755" lon="-1.78763">
        <ele>7.8</ele>
        <time>2020-05-31T16:11:25Z</time>
      </trkpt>
      <trkpt lat="47.07748" lon="-1.78746">
        <ele>7.71</ele>
        <time>2020-05-31T16:11:27Z</time>
      </trkpt>
      <trkpt lat="47.07743" lon="-1.78733">
        <ele>7.46</ele>
        <time>2020-05-31T16:11:29Z</time>
      </trkpt>
      <trkpt lat="47.07735" lon="-1.78716">
        <ele>9.22</ele>
        <time>2020-05-31T16:11:32Z</time>
      </trkpt>
      <trkpt lat="47.07727" lon="-1.78702">
        <ele>10.89</ele>
        <time>2020-05-31T16:11:35Z</time>
      </trkpt>
      <trkpt lat="47.07722" lon="-1.78691">
        <ele>12.05</ele>
        <time>2020-05-31T16:11:37Z</time>
      </trkpt>
      <trkpt lat="47.07714" lon="-1.78677">
        <ele>12.06</ele>
        <time>2020-05-31T16:11:40Z</time>
      </trkpt>
      <trkpt lat="47.07709" lon="-1.78665">
        <ele>12.89</ele>
        <time>2020-05-31T16:11:42Z</time>
      </trkpt>
      <trkpt lat="47.07703" lon="-1.78653">
        <ele>13.08</ele>
        <time>2020-05-31T16:11:44Z</time>
      </trkpt>
      <trkpt lat="47.07695" lon="-1.78637">
        <ele>13.23</ele>
        <time>2020-05-31T16:11:47Z</time>
      </trkpt>
      <trkpt lat="47.07687" lon="-1.78622">
        <ele>12.96</ele>
        <time>2020-05-31T16:11:49Z</time>
      </trkpt>
      <trkpt lat="47.07681" lon="-1.78608">
        <ele>12.17</ele>
        <time>2020-05-31T16:11:52Z</time>
      </trkpt>
      <trkpt lat="47.07675" lon="-1.78596">
        <ele>11.62</ele>
        <time>2020-05-31T16:11:54Z</time>
      </trkpt>
      <trkpt lat="47.07669" lon="-1.78583">
        <ele>11.61</ele>
        <time>2020-05-31T16:11:56Z</time>
      </trkpt>
      <trkpt lat="47.07663" lon="-1.78567">
        <ele>12.76</ele>
        <time>2020-05-31T16:11:59Z</time>
      </trkpt>
      <trkpt lat="47.07658" lon="-1.78553">
        <ele>13.61</ele>
        <time>2020-05-31T16:12:01Z</time>
      </trkpt>
      <trkpt lat="47.07653" lon="-1.78533">
        <ele>14.23</ele>
        <time>2020-05-31T16:12:04Z</time>
      </trkpt>
      <trkpt lat="47.07649" lon="-1.78518">
        <ele>14.86</ele>
        <time>2020-05-31T16:12:06Z</time>
      </trkpt>
      <trkpt lat="47.07645" lon="-1.78503">
        <ele>14.56</ele>
        <time>2020-05-31T16:12:08Z</time>
      </trkpt>
      <trkpt lat="47.07641" lon="-1.78487">
        <ele>14.58</ele>
        <time>2020-05-31T16:12:10Z</time>
      </trkpt>
      <trkpt lat="47.07636" lon="-1.78472">
        <ele>14.59</ele>
        <time>2020-05-31T16:12:12Z</time>
      </trkpt>
      <trkpt lat="47.0763" lon="-1.78456">
        <ele>14.42</ele>
        <time>2020-05-31T16:12:14Z</time>
      </trkpt>
      <trkpt lat="47.07625" lon="-1.78441">
        <ele>14.36</ele>
        <time>2020-05-31T16:12:16Z</time>
      </trkpt>
      <trkpt lat="47.07618" lon="-1.78424">
        <ele>13.79</ele>
        <time>2020-05-31T16:12:18Z</time>
      </trkpt>
      <trkpt lat="47.07611" lon="-1.78409">
        <ele>13.4</ele>
        <time>2020-05-31T16:12:20Z</time>
      </trkpt>
      <trkpt lat="47.07603" lon="-1.78394">
        <ele>12.95</ele>
        <time>2020-05-31T16:12:22Z</time>
      </trkpt>
      <trkpt lat="47.07595" lon="-1.78379">
        <ele>12.67</ele>
        <time>2020-05-31T16:12:24Z</time>
      </trkpt>
      <trkpt lat="47.07588" lon="-1.78364">
        <ele>12.76</ele>
        <time>2020-05-31T16:12:26Z</time>
      </trkpt>
      <trkpt lat="47.0758" lon="-1.78351">
        <ele>12.85</ele>
        <time>2020-05-31T16:12:28Z</time>
      </trkpt>
      <trkpt lat="47.07573" lon="-1.78338">
        <ele>12.72</ele>
        <time>2020-05-31T16:12:30Z</time>
      </trkpt>
      <trkpt lat="47.07565" lon="-1.78324">
        <ele>12.79</ele>
        <time>2020-05-31T16:12:32Z</time>
      </trkpt>
      <trkpt lat="47.07558" lon="-1.78309">
        <ele>12.86</ele>
        <time>2020-05-31T16:12:34Z</time>
      </trkpt>
      <trkpt lat="47.0755" lon="-1.78295">
        <ele>12.74</ele>
        <time>2020-05-31T16:12:36Z</time>
      </trkpt>
      <trkpt lat="47.07542" lon="-1.7828">
        <ele>12.44</ele>
        <time>2020-05-31T16:12:38Z</time>
      </trkpt>
      <trkpt lat="47.07534" lon="-1.78265">
        <ele>12.26</ele>
        <time>2020-05-31T16:12:40Z</time>
      </trkpt>
      <trkpt lat="47.07526" lon="-1.7825">
        <ele>12.27</ele>
        <time>2020-05-31T16:12:42Z</time>
      </trkpt>
      <trkpt lat="47.07518" lon="-1.78236">
        <ele>11.88</ele>
        <time>2020-05-31T16:12:44Z</time>
      </trkpt>
      <trkpt lat="47.07511" lon="-1.78224">
        <ele>11.78</ele>
        <time>2020-05-31T16:12:46Z</time>
      </trkpt>
      <trkpt lat="47.07502" lon="-1.7821">
        <ele>12.01</ele>
        <time>2020-05-31T16:12:48Z</time>
      </trkpt>
      <trkpt lat="47.07494" lon="-1.78196">
        <ele>11.87</ele>
        <time>2020-05-31T16:12:50Z</time>
      </trkpt>
      <trkpt lat="47.07485" lon="-1.78182">
        <ele>12.4</ele>
        <time>2020-05-31T16:12:52Z</time>
      </trkpt>
      <trkpt lat="47.07475" lon="-1.78169">
        <ele>12.43</ele>
        <time>2020-05-31T16:12:54Z</time>
      </trkpt>
      <trkpt lat="47.07465" lon="-1.78158">
        <ele>13.04</ele>
        <time>2020-05-31T16:12:56Z</time>
      </trkpt>
      <trkpt lat="47.07455" lon="-1.78148">
        <ele>13.91</ele>
        <time>2020-05-31T16:12:58Z</time>
      </trkpt>
      <trkpt lat="47.07445" lon="-1.78138">
        <ele>14.56</ele>
        <time>2020-05-31T16:13:00Z</time>
      </trkpt>
      <trkpt lat="47.07436" lon="-1.7813">
        <ele>14.75</ele>
        <time>2020-05-31T16:13:02Z</time>
      </trkpt>
      <trkpt lat="47.07424" lon="-1.7812">
        <ele>14.85</ele>
        <time>2020-05-31T16:13:04Z</time>
      </trkpt>
      <trkpt lat="47.07414" lon="-1.78112">
        <ele>15.33</ele>
        <time>2020-05-31T16:13:06Z</time>
      </trkpt>
      <trkpt lat="47.07404" lon="-1.78104">
        <ele>15.03</ele>
        <time>2020-05-31T16:13:08Z</time>
      </trkpt>
      <trkpt lat="47.07393" lon="-1.78093">
        <ele>13.88</ele>
        <time>2020-05-31T16:13:10Z</time>
      </trkpt>
      <trkpt lat="47.07382" lon="-1.78082">
        <ele>13.23</ele>
        <time>2020-05-31T16:13:12Z</time>
      </trkpt>
      <trkpt lat="47.07372" lon="-1.78071">
        <ele>13.52</ele>
        <time>2020-05-31T16:13:14Z</time>
      </trkpt>
      <trkpt lat="47.07362" lon="-1.78058">
        <ele>13.93</ele>
        <time>2020-05-31T16:13:16Z</time>
      </trkpt>
      <trkpt lat="47.07352" lon="-1.78046">
        <ele>13.92</ele>
        <time>2020-05-31T16:13:18Z</time>
      </trkpt>
      <trkpt lat="47.07343" lon="-1.78033">
        <ele>14.46</ele>
        <time>2020-05-31T16:13:20Z</time>
      </trkpt>
      <trkpt lat="47.07334" lon="-1.78021">
        <ele>15.73</ele>
        <time>2020-05-31T16:13:22Z</time>
      </trkpt>
      <trkpt lat="47.07324" lon="-1.78009">
        <ele>16.34</ele>
        <time>2020-05-31T16:13:24Z</time>
      </trkpt>
      <trkpt lat="47.07314" lon="-1.77996">
        <ele>17.16</ele>
        <time>2020-05-31T16:13:26Z</time>
      </trkpt>
      <trkpt lat="47.07304" lon="-1.77983">
        <ele>17.9</ele>
        <time>2020-05-31T16:13:28Z</time>
      </trkpt>
      <trkpt lat="47.07294" lon="-1.7797">
        <ele>17.69</ele>
        <time>2020-05-31T16:13:30Z</time>
      </trkpt>
      <trkpt lat="47.07284" lon="-1.77958">
        <ele>16.9</ele>
        <time>2020-05-31T16:13:32Z</time>
      </trkpt>
      <trkpt lat="47.07274" lon="-1.77947">
        <ele>16.15</ele>
        <time>2020-05-31T16:13:34Z</time>
      </trkpt>
      <trkpt lat="47.07264" lon="-1.77935">
        <ele>15.71</ele>
        <time>2020-05-31T16:13:36Z</time>
      </trkpt>
      <trkpt lat="47.07252" lon="-1.77921">
        <ele>15.29</ele>
        <time>2020-05-31T16:13:38Z</time>
      </trkpt>
      <trkpt lat="47.07243" lon="-1.77909">
        <ele>14.95</ele>
        <time>2020-05-31T16:13:40Z</time>
      </trkpt>
      <trkpt lat="47.07233" lon="-1.77897">
        <ele>14.69</ele>
        <time>2020-05-31T16:13:42Z</time>
      </trkpt>
      <trkpt lat="47.07222" lon="-1.77884">
        <ele>14.03</ele>
        <time>2020-05-31T16:13:44Z</time>
      </trkpt>
      <trkpt lat="47.07213" lon="-1.77874">
        <ele>14.14</ele>
        <time>2020-05-31T16:13:46Z</time>
      </trkpt>
      <trkpt lat="47.07203" lon="-1.77862">
        <ele>15.25</ele>
        <time>2020-05-31T16:13:48Z</time>
      </trkpt>
      <trkpt lat="47.07192" lon="-1.77849">
        <ele>15.91</ele>
        <time>2020-05-31T16:13:50Z</time>
      </trkpt>
      <trkpt lat="47.07182" lon="-1.77836">
        <ele>16.6</ele>
        <time>2020-05-31T16:13:52Z</time>
      </trkpt>
      <trkpt lat="47.07171" lon="-1.77822">
        <ele>17.07</ele>
        <time>2020-05-31T16:13:54Z</time>
      </trkpt>
      <trkpt lat="47.07161" lon="-1.7781">
        <ele>17.88</ele>
        <time>2020-05-31T16:13:56Z</time>
      </trkpt>
      <trkpt lat="47.07151" lon="-1.77797">
        <ele>19.15</ele>
        <time>2020-05-31T16:13:58Z</time>
      </trkpt>
      <trkpt lat="47.07141" lon="-1.77783">
        <ele>19.22</ele>
        <time>2020-05-31T16:14:00Z</time>
      </trkpt>
      <trkpt lat="47.07132" lon="-1.7777">
        <ele>18.81</ele>
        <time>2020-05-31T16:14:02Z</time>
      </trkpt>
      <trkpt lat="47.07123" lon="-1.77754">
        <ele>18.72</ele>
        <time>2020-05-31T16:14:04Z</time>
      </trkpt>
      <trkpt lat="47.07117" lon="-1.77739">
        <ele>18.77</ele>
        <time>2020-05-31T16:14:06Z</time>
      </trkpt>
      <trkpt lat="47.07111" lon="-1.77724">
        <ele>18.33</ele>
        <time>2020-05-31T16:14:08Z</time>
      </trkpt>
      <trkpt lat="47.07105" lon="-1.77705">
        <ele>18.01</ele>
        <time>2020-05-31T16:14:10Z</time>
      </trkpt>
      <trkpt lat="47.071" lon="-1.77691">
        <ele>18.04</ele>
        <time>2020-05-31T16:14:12Z</time>
      </trkpt>
      <trkpt lat="47.07094" lon="-1.77676">
        <ele>16.91</ele>
        <time>2020-05-31T16:14:14Z</time>
      </trkpt>
      <trkpt lat="47.07087" lon="-1.7766">
        <ele>16.03</ele>
        <time>2020-05-31T16:14:16Z</time>
      </trkpt>
      <trkpt lat="47.0708" lon="-1.77643">
        <ele>15.1</ele>
        <time>2020-05-31T16:14:18Z</time>
      </trkpt>
      <trkpt lat="47.07074" lon="-1.77627">
        <ele>15.23</ele>
        <time>2020-05-31T16:14:20Z</time>
      </trkpt>
      <trkpt lat="47.07068" lon="-1.77611">
        <ele>16.05</ele>
        <time>2020-05-31T16:14:22Z</time>
      </trkpt>
      <trkpt lat="47.07062" lon="-1.77595">
        <ele>16.51</ele>
        <time>2020-05-31T16:14:24Z</time>
      </trkpt>
      <trkpt lat="47.07056" lon="-1.77578">
        <ele>17.09</ele>
        <time>2020-05-31T16:14:26Z</time>
      </trkpt>
      <trkpt lat="47.0705" lon="-1.77562">
        <ele>18.43</ele>
        <time>2020-05-31T16:14:28Z</time>
      </trkpt>
      <trkpt lat="47.07044" lon="-1.77548">
        <ele>19.07</ele>
        <time>2020-05-31T16:14:30Z</time>
      </trkpt>
      <trkpt lat="47.07037" lon="-1.77531">
        <ele>19.56</ele>
        <time>2020-05-31T16:14:32Z</time>
      </trkpt>
      <trkpt lat="47.0703" lon="-1.77514">
        <ele>20.53</ele>
        <time>2020-05-31T16:14:34Z</time>
      </trkpt>
      <trkpt lat="47.07023" lon="-1.775">
        <ele>20.41</ele>
        <time>2020-05-31T16:14:36Z</time>
      </trkpt>
      <trkpt lat="47.07016" lon="-1.77484">
        <ele>19.19</ele>
        <time>2020-05-31T16:14:38Z</time>
      </trkpt>
      <trkpt lat="47.07009" lon="-1.77468">
        <ele>18.16</ele>
        <time>2020-05-31T16:14:40Z</time>
      </trkpt>
      <trkpt lat="47.07002" lon="-1.77451">
        <ele>17.82</ele>
        <time>2020-05-31T16:14:42Z</time>
      </trkpt>
      <trkpt lat="47.06995" lon="-1.77436">
        <ele>18.24</ele>
        <time>2020-05-31T16:14:44Z</time>
      </trkpt>
      <trkpt lat="47.06987" lon="-1.77422">
        <ele>18.83</ele>
        <time>2020-05-31T16:14:46Z</time>
      </trkpt>
      <trkpt lat="47.06979" lon="-1.77409">
        <ele>19.07</ele>
        <time>2020-05-31T16:14:48Z</time>
      </trkpt>
      <trkpt lat="47.06969" lon="-1.77396">
        <ele>19.01</ele>
        <time>2020-05-31T16:14:50Z</time>
      </trkpt>
      <trkpt lat="47.0696" lon="-1.77384">
        <ele>18.64</ele>
        <time>2020-05-31T16:14:52Z</time>
      </trkpt>
      <trkpt lat="47.06952" lon="-1.77372">
        <ele>19.2</ele>
        <time>2020-05-31T16:14:54Z</time>
      </trkpt>
      <trkpt lat="47.06944" lon="-1.7736">
        <ele>20.14</ele>
        <time>2020-05-31T16:14:56Z</time>
      </trkpt>
      <trkpt lat="47.06935" lon="-1.77348">
        <ele>20.92</ele>
        <time>2020-05-31T16:14:58Z</time>
      </trkpt>
      <trkpt lat="47.06924" lon="-1.77334">
        <ele>20.97</ele>
        <time>2020-05-31T16:15:00Z</time>
      </trkpt>
      <trkpt lat="47.06916" lon="-1.77322">
        <ele>19.57</ele>
        <time>2020-05-31T16:15:02Z</time>
      </trkpt>
      <trkpt lat="47.06907" lon="-1.7731">
        <ele>19.37</ele>
        <time>2020-05-31T16:15:04Z</time>
      </trkpt>
      <trkpt lat="47.06898" lon="-1.77298">
        <ele>19.81</ele>
        <time>2020-05-31T16:15:06Z</time>
      </trkpt>
      <trkpt lat="47.0689" lon="-1.77287">
        <ele>20.59</ele>
        <time>2020-05-31T16:15:08Z</time>
      </trkpt>
      <trkpt lat="47.06879" lon="-1.77273">
        <ele>20.59</ele>
        <time>2020-05-31T16:15:10Z</time>
      </trkpt>
      <trkpt lat="47.0687" lon="-1.7726">
        <ele>19.88</ele>
        <time>2020-05-31T16:15:12Z</time>
      </trkpt>
      <trkpt lat="47.06862" lon="-1.77249">
        <ele>18.98</ele>
        <time>2020-05-31T16:15:14Z</time>
      </trkpt>
      <trkpt lat="47.06852" lon="-1.77235">
        <ele>18.49</ele>
        <time>2020-05-31T16:15:16Z</time>
      </trkpt>
      <trkpt lat="47.06843" lon="-1.77223">
        <ele>18.08</ele>
        <time>2020-05-31T16:15:18Z</time>
      </trkpt>
      <trkpt lat="47.06834" lon="-1.7721">
        <ele>17.9</ele>
        <time>2020-05-31T16:15:20Z</time>
      </trkpt>
      <trkpt lat="47.06827" lon="-1.77199">
        <ele>18.24</ele>
        <time>2020-05-31T16:15:22Z</time>
      </trkpt>
      <trkpt lat="47.06818" lon="-1.77185">
        <ele>18.63</ele>
        <time>2020-05-31T16:15:24Z</time>
      </trkpt>
      <trkpt lat="47.0681" lon="-1.77172">
        <ele>18.92</ele>
        <time>2020-05-31T16:15:26Z</time>
      </trkpt>
      <trkpt lat="47.06801" lon="-1.77158">
        <ele>19.54</ele>
        <time>2020-05-31T16:15:28Z</time>
      </trkpt>
      <trkpt lat="47.06794" lon="-1.77147">
        <ele>20.12</ele>
        <time>2020-05-31T16:15:30Z</time>
      </trkpt>
      <trkpt lat="47.06786" lon="-1.77133">
        <ele>20.75</ele>
        <time>2020-05-31T16:15:32Z</time>
      </trkpt>
      <trkpt lat="47.06779" lon="-1.7712">
        <ele>21.05</ele>
        <time>2020-05-31T16:15:34Z</time>
      </trkpt>
      <trkpt lat="47.06771" lon="-1.77106">
        <ele>20.71</ele>
        <time>2020-05-31T16:15:36Z</time>
      </trkpt>
      <trkpt lat="47.06762" lon="-1.77091">
        <ele>20.52</ele>
        <time>2020-05-31T16:15:38Z</time>
      </trkpt>
      <trkpt lat="47.06754" lon="-1.77078">
        <ele>20.74</ele>
        <time>2020-05-31T16:15:40Z</time>
      </trkpt>
      <trkpt lat="47.06746" lon="-1.77064">
        <ele>21.27</ele>
        <time>2020-05-31T16:15:42Z</time>
      </trkpt>
      <trkpt lat="47.06739" lon="-1.77051">
        <ele>20.69</ele>
        <time>2020-05-31T16:15:44Z</time>
      </trkpt>
      <trkpt lat="47.06732" lon="-1.7704">
        <ele>20.96</ele>
        <time>2020-05-31T16:15:46Z</time>
      </trkpt>
      <trkpt lat="47.06722" lon="-1.77026">
        <ele>20.59</ele>
        <time>2020-05-31T16:15:48Z</time>
      </trkpt>
      <trkpt lat="47.06714" lon="-1.77013">
        <ele>20.04</ele>
        <time>2020-05-31T16:15:50Z</time>
      </trkpt>
      <trkpt lat="47.06707" lon="-1.77002">
        <ele>20.03</ele>
        <time>2020-05-31T16:15:52Z</time>
      </trkpt>
      <trkpt lat="47.06698" lon="-1.76987">
        <ele>20.32</ele>
        <time>2020-05-31T16:15:54Z</time>
      </trkpt>
      <trkpt lat="47.06691" lon="-1.76974">
        <ele>20.69</ele>
        <time>2020-05-31T16:15:56Z</time>
      </trkpt>
      <trkpt lat="47.06683" lon="-1.76963">
        <ele>21.64</ele>
        <time>2020-05-31T16:15:58Z</time>
      </trkpt>
      <trkpt lat="47.06674" lon="-1.76949">
        <ele>21.61</ele>
        <time>2020-05-31T16:16:00Z</time>
      </trkpt>
      <trkpt lat="47.06667" lon="-1.76936">
        <ele>22.66</ele>
        <time>2020-05-31T16:16:02Z</time>
      </trkpt>
      <trkpt lat="47.06658" lon="-1.76922">
        <ele>22.49</ele>
        <time>2020-05-31T16:16:04Z</time>
      </trkpt>
      <trkpt lat="47.06651" lon="-1.7691">
        <ele>22.86</ele>
        <time>2020-05-31T16:16:06Z</time>
      </trkpt>
      <trkpt lat="47.06643" lon="-1.76895">
        <ele>22.99</ele>
        <time>2020-05-31T16:16:08Z</time>
      </trkpt>
      <trkpt lat="47.06636" lon="-1.76882">
        <ele>22.5</ele>
        <time>2020-05-31T16:16:10Z</time>
      </trkpt>
      <trkpt lat="47.0663" lon="-1.76869">
        <ele>22.76</ele>
        <time>2020-05-31T16:16:12Z</time>
      </trkpt>
      <trkpt lat="47.06622" lon="-1.76856">
        <ele>23.2</ele>
        <time>2020-05-31T16:16:14Z</time>
      </trkpt>
      <trkpt lat="47.06614" lon="-1.76843">
        <ele>22.81</ele>
        <time>2020-05-31T16:16:16Z</time>
      </trkpt>
      <trkpt lat="47.06607" lon="-1.76832">
        <ele>23.4</ele>
        <time>2020-05-31T16:16:18Z</time>
      </trkpt>
      <trkpt lat="47.066" lon="-1.76819">
        <ele>23.74</ele>
        <time>2020-05-31T16:16:20Z</time>
      </trkpt>
      <trkpt lat="47.06592" lon="-1.76805">
        <ele>24.98</ele>
        <time>2020-05-31T16:16:22Z</time>
      </trkpt>
      <trkpt lat="47.06584" lon="-1.76792">
        <ele>25.17</ele>
        <time>2020-05-31T16:16:24Z</time>
      </trkpt>
      <trkpt lat="47.06578" lon="-1.76783">
        <ele>25.98</ele>
        <time>2020-05-31T16:16:26Z</time>
      </trkpt>
      <trkpt lat="47.06571" lon="-1.76772">
        <ele>25.94</ele>
        <time>2020-05-31T16:16:28Z</time>
      </trkpt>
      <trkpt lat="47.06562" lon="-1.76757">
        <ele>25</ele>
        <time>2020-05-31T16:16:31Z</time>
      </trkpt>
      <trkpt lat="47.06555" lon="-1.76745">
        <ele>25.13</ele>
        <time>2020-05-31T16:16:33Z</time>
      </trkpt>
      <trkpt lat="47.06549" lon="-1.76734">
        <ele>25.02</ele>
        <time>2020-05-31T16:16:35Z</time>
      </trkpt>
      <trkpt lat="47.06541" lon="-1.76722">
        <ele>24.67</ele>
        <time>2020-05-31T16:16:37Z</time>
      </trkpt>
      <trkpt lat="47.06535" lon="-1.7671">
        <ele>25.32</ele>
        <time>2020-05-31T16:16:39Z</time>
      </trkpt>
      <trkpt lat="47.06528" lon="-1.76698">
        <ele>24.93</ele>
        <time>2020-05-31T16:16:41Z</time>
      </trkpt>
      <trkpt lat="47.06521" lon="-1.76685">
        <ele>25</ele>
        <time>2020-05-31T16:16:43Z</time>
      </trkpt>
      <trkpt lat="47.06513" lon="-1.76672">
        <ele>25.34</ele>
        <time>2020-05-31T16:16:45Z</time>
      </trkpt>
      <trkpt lat="47.06506" lon="-1.7666">
        <ele>25.6</ele>
        <time>2020-05-31T16:16:47Z</time>
      </trkpt>
      <trkpt lat="47.06498" lon="-1.76646">
        <ele>25.48</ele>
        <time>2020-05-31T16:16:49Z</time>
      </trkpt>
      <trkpt lat="47.0649" lon="-1.76632">
        <ele>25.31</ele>
        <time>2020-05-31T16:16:51Z</time>
      </trkpt>
      <trkpt lat="47.06482" lon="-1.76619">
        <ele>25.29</ele>
        <time>2020-05-31T16:16:53Z</time>
      </trkpt>
      <trkpt lat="47.06476" lon="-1.76607">
        <ele>25.67</ele>
        <time>2020-05-31T16:16:55Z</time>
      </trkpt>
      <trkpt lat="47.06469" lon="-1.76594">
        <ele>26.16</ele>
        <time>2020-05-31T16:16:57Z</time>
      </trkpt>
      <trkpt lat="47.06462" lon="-1.76578">
        <ele>25.86</ele>
        <time>2020-05-31T16:16:59Z</time>
      </trkpt>
      <trkpt lat="47.06455" lon="-1.76564">
        <ele>25.65</ele>
        <time>2020-05-31T16:17:01Z</time>
      </trkpt>
      <trkpt lat="47.06448" lon="-1.76547">
        <ele>25.04</ele>
        <time>2020-05-31T16:17:03Z</time>
      </trkpt>
      <trkpt lat="47.06443" lon="-1.76534">
        <ele>25.37</ele>
        <time>2020-05-31T16:17:05Z</time>
      </trkpt>
      <trkpt lat="47.06436" lon="-1.76519">
        <ele>26.1</ele>
        <time>2020-05-31T16:17:07Z</time>
      </trkpt>
      <trkpt lat="47.06431" lon="-1.76504">
        <ele>28.2</ele>
        <time>2020-05-31T16:17:09Z</time>
      </trkpt>
      <trkpt lat="47.06425" lon="-1.76488">
        <ele>29.58</ele>
        <time>2020-05-31T16:17:11Z</time>
      </trkpt>
      <trkpt lat="47.06419" lon="-1.76473">
        <ele>28.73</ele>
        <time>2020-05-31T16:17:13Z</time>
      </trkpt>
      <trkpt lat="47.06412" lon="-1.76456">
        <ele>27.05</ele>
        <time>2020-05-31T16:17:15Z</time>
      </trkpt>
      <trkpt lat="47.06405" lon="-1.76443">
        <ele>26.03</ele>
        <time>2020-05-31T16:17:17Z</time>
      </trkpt>
      <trkpt lat="47.06398" lon="-1.76432">
        <ele>25.1</ele>
        <time>2020-05-31T16:17:19Z</time>
      </trkpt>
      <trkpt lat="47.06389" lon="-1.76421">
        <ele>25.64</ele>
        <time>2020-05-31T16:17:21Z</time>
      </trkpt>
      <trkpt lat="47.06379" lon="-1.76411">
        <ele>26.53</ele>
        <time>2020-05-31T16:17:23Z</time>
      </trkpt>
      <trkpt lat="47.06367" lon="-1.76402">
        <ele>27.47</ele>
        <time>2020-05-31T16:17:25Z</time>
      </trkpt>
      <trkpt lat="47.06355" lon="-1.76395">
        <ele>27.06</ele>
        <time>2020-05-31T16:17:27Z</time>
      </trkpt>
      <trkpt lat="47.06345" lon="-1.76391">
        <ele>26.98</ele>
        <time>2020-05-31T16:17:29Z</time>
      </trkpt>
      <trkpt lat="47.06332" lon="-1.76385">
        <ele>26.51</ele>
        <time>2020-05-31T16:17:31Z</time>
      </trkpt>
      <trkpt lat="47.0632" lon="-1.76379">
        <ele>26.02</ele>
        <time>2020-05-31T16:17:33Z</time>
      </trkpt>
      <trkpt lat="47.06311" lon="-1.76373">
        <ele>24.84</ele>
        <time>2020-05-31T16:17:35Z</time>
      </trkpt>
      <trkpt lat="47.06305" lon="-1.76364">
        <ele>24.51</ele>
        <time>2020-05-31T16:17:37Z</time>
      </trkpt>
      <trkpt lat="47.06299" lon="-1.76347">
        <ele>25.66</ele>
        <time>2020-05-31T16:17:40Z</time>
      </trkpt>
      <trkpt lat="47.06295" lon="-1.76334">
        <ele>25.85</ele>
        <time>2020-05-31T16:17:43Z</time>
      </trkpt>
      <trkpt lat="47.06292" lon="-1.76316">
        <ele>26.41</ele>
        <time>2020-05-31T16:17:46Z</time>
      </trkpt>
      <trkpt lat="47.06293" lon="-1.76302">
        <ele>26.98</ele>
        <time>2020-05-31T16:17:48Z</time>
      </trkpt>
      <trkpt lat="47.06296" lon="-1.76288">
        <ele>27.25</ele>
        <time>2020-05-31T16:17:50Z</time>
      </trkpt>
      <trkpt lat="47.06298" lon="-1.76272">
        <ele>26.44</ele>
        <time>2020-05-31T16:17:52Z</time>
      </trkpt>
      <trkpt lat="47.063" lon="-1.76257">
        <ele>26.24</ele>
        <time>2020-05-31T16:17:54Z</time>
      </trkpt>
      <trkpt lat="47.06299" lon="-1.7624">
        <ele>26.62</ele>
        <time>2020-05-31T16:17:56Z</time>
      </trkpt>
      <trkpt lat="47.06298" lon="-1.76226">
        <ele>26.99</ele>
        <time>2020-05-31T16:17:58Z</time>
      </trkpt>
      <trkpt lat="47.06295" lon="-1.76209">
        <ele>26.91</ele>
        <time>2020-05-31T16:18:00Z</time>
      </trkpt>
      <trkpt lat="47.06292" lon="-1.76193">
        <ele>27.44</ele>
        <time>2020-05-31T16:18:02Z</time>
      </trkpt>
      <trkpt lat="47.06287" lon="-1.76177">
        <ele>27.42</ele>
        <time>2020-05-31T16:18:04Z</time>
      </trkpt>
      <trkpt lat="47.06281" lon="-1.76162">
        <ele>27.41</ele>
        <time>2020-05-31T16:18:06Z</time>
      </trkpt>
      <trkpt lat="47.06274" lon="-1.76149">
        <ele>28.57</ele>
        <time>2020-05-31T16:18:08Z</time>
      </trkpt>
      <trkpt lat="47.06267" lon="-1.76138">
        <ele>30.08</ele>
        <time>2020-05-31T16:18:10Z</time>
      </trkpt>
      <trkpt lat="47.06257" lon="-1.76128">
        <ele>29.36</ele>
        <time>2020-05-31T16:18:12Z</time>
      </trkpt>
      <trkpt lat="47.06248" lon="-1.76118">
        <ele>29.11</ele>
        <time>2020-05-31T16:18:14Z</time>
      </trkpt>
      <trkpt lat="47.06237" lon="-1.76105">
        <ele>28.93</ele>
        <time>2020-05-31T16:18:16Z</time>
      </trkpt>
      <trkpt lat="47.06228" lon="-1.76093">
        <ele>27.99</ele>
        <time>2020-05-31T16:18:18Z</time>
      </trkpt>
      <trkpt lat="47.06218" lon="-1.76082">
        <ele>27.07</ele>
        <time>2020-05-31T16:18:20Z</time>
      </trkpt>
      <trkpt lat="47.06207" lon="-1.7607">
        <ele>25.74</ele>
        <time>2020-05-31T16:18:22Z</time>
      </trkpt>
      <trkpt lat="47.06196" lon="-1.76058">
        <ele>25.71</ele>
        <time>2020-05-31T16:18:24Z</time>
      </trkpt>
      <trkpt lat="47.06185" lon="-1.76046">
        <ele>25.41</ele>
        <time>2020-05-31T16:18:26Z</time>
      </trkpt>
      <trkpt lat="47.06173" lon="-1.76032">
        <ele>24.67</ele>
        <time>2020-05-31T16:18:28Z</time>
      </trkpt>
      <trkpt lat="47.06162" lon="-1.76017">
        <ele>24.06</ele>
        <time>2020-05-31T16:18:30Z</time>
      </trkpt>
      <trkpt lat="47.06151" lon="-1.76005">
        <ele>24.39</ele>
        <time>2020-05-31T16:18:32Z</time>
      </trkpt>
      <trkpt lat="47.0614" lon="-1.75992">
        <ele>23.51</ele>
        <time>2020-05-31T16:18:34Z</time>
      </trkpt>
      <trkpt lat="47.06129" lon="-1.75979">
        <ele>22.19</ele>
        <time>2020-05-31T16:18:36Z</time>
      </trkpt>
      <trkpt lat="47.06118" lon="-1.75966">
        <ele>21.67</ele>
        <time>2020-05-31T16:18:38Z</time>
      </trkpt>
      <trkpt lat="47.06107" lon="-1.75952">
        <ele>21.21</ele>
        <time>2020-05-31T16:18:40Z</time>
      </trkpt>
      <trkpt lat="47.06096" lon="-1.7594">
        <ele>20.68</ele>
        <time>2020-05-31T16:18:42Z</time>
      </trkpt>
      <trkpt lat="47.06085" lon="-1.75927">
        <ele>20.01</ele>
        <time>2020-05-31T16:18:44Z</time>
      </trkpt>
      <trkpt lat="47.06073" lon="-1.75914">
        <ele>19.22</ele>
        <time>2020-05-31T16:18:46Z</time>
      </trkpt>
      <trkpt lat="47.06062" lon="-1.759">
        <ele>18.58</ele>
        <time>2020-05-31T16:18:48Z</time>
      </trkpt>
      <trkpt lat="47.0605" lon="-1.75887">
        <ele>18.19</ele>
        <time>2020-05-31T16:18:50Z</time>
      </trkpt>
      <trkpt lat="47.0604" lon="-1.75875">
        <ele>18.51</ele>
        <time>2020-05-31T16:18:52Z</time>
      </trkpt>
      <trkpt lat="47.06029" lon="-1.75862">
        <ele>18.93</ele>
        <time>2020-05-31T16:18:54Z</time>
      </trkpt>
      <trkpt lat="47.06018" lon="-1.75848">
        <ele>19.42</ele>
        <time>2020-05-31T16:18:56Z</time>
      </trkpt>
      <trkpt lat="47.06007" lon="-1.75835">
        <ele>19.94</ele>
        <time>2020-05-31T16:18:58Z</time>
      </trkpt>
      <trkpt lat="47.05996" lon="-1.75823">
        <ele>20.17</ele>
        <time>2020-05-31T16:19:00Z</time>
      </trkpt>
      <trkpt lat="47.05985" lon="-1.7581">
        <ele>20.42</ele>
        <time>2020-05-31T16:19:02Z</time>
      </trkpt>
      <trkpt lat="47.05975" lon="-1.75796">
        <ele>20.95</ele>
        <time>2020-05-31T16:19:04Z</time>
      </trkpt>
      <trkpt lat="47.05964" lon="-1.75781">
        <ele>20.76</ele>
        <time>2020-05-31T16:19:06Z</time>
      </trkpt>
      <trkpt lat="47.05954" lon="-1.75766">
        <ele>20.52</ele>
        <time>2020-05-31T16:19:08Z</time>
      </trkpt>
      <trkpt lat="47.05945" lon="-1.75749">
        <ele>19.88</ele>
        <time>2020-05-31T16:19:10Z</time>
      </trkpt>
      <trkpt lat="47.05937" lon="-1.75732">
        <ele>19.83</ele>
        <time>2020-05-31T16:19:12Z</time>
      </trkpt>
      <trkpt lat="47.0593" lon="-1.75715">
        <ele>19.58</ele>
        <time>2020-05-31T16:19:14Z</time>
      </trkpt>
      <trkpt lat="47.05923" lon="-1.75697">
        <ele>20.13</ele>
        <time>2020-05-31T16:19:16Z</time>
      </trkpt>
      <trkpt lat="47.05915" lon="-1.75679">
        <ele>20.04</ele>
        <time>2020-05-31T16:19:18Z</time>
      </trkpt>
      <trkpt lat="47.05909" lon="-1.75661">
        <ele>19.94</ele>
        <time>2020-05-31T16:19:20Z</time>
      </trkpt>
      <trkpt lat="47.05903" lon="-1.75641">
        <ele>19.31</ele>
        <time>2020-05-31T16:19:22Z</time>
      </trkpt>
      <trkpt lat="47.05898" lon="-1.75623">
        <ele>19.21</ele>
        <time>2020-05-31T16:19:24Z</time>
      </trkpt>
      <trkpt lat="47.05892" lon="-1.75605">
        <ele>19.18</ele>
        <time>2020-05-31T16:19:26Z</time>
      </trkpt>
      <trkpt lat="47.05887" lon="-1.75589">
        <ele>18.11</ele>
        <time>2020-05-31T16:19:28Z</time>
      </trkpt>
      <trkpt lat="47.05881" lon="-1.75571">
        <ele>17.09</ele>
        <time>2020-05-31T16:19:30Z</time>
      </trkpt>
      <trkpt lat="47.05875" lon="-1.75553">
        <ele>16.69</ele>
        <time>2020-05-31T16:19:32Z</time>
      </trkpt>
      <trkpt lat="47.0587" lon="-1.75536">
        <ele>17.3</ele>
        <time>2020-05-31T16:19:34Z</time>
      </trkpt>
      <trkpt lat="47.05865" lon="-1.75521">
        <ele>17.53</ele>
        <time>2020-05-31T16:19:36Z</time>
      </trkpt>
      <trkpt lat="47.05859" lon="-1.75505">
        <ele>18.17</ele>
        <time>2020-05-31T16:19:38Z</time>
      </trkpt>
      <trkpt lat="47.05854" lon="-1.7549">
        <ele>18.04</ele>
        <time>2020-05-31T16:19:40Z</time>
      </trkpt>
      <trkpt lat="47.05848" lon="-1.75474">
        <ele>17.41</ele>
        <time>2020-05-31T16:19:42Z</time>
      </trkpt>
      <trkpt lat="47.05843" lon="-1.75458">
        <ele>16.59</ele>
        <time>2020-05-31T16:19:44Z</time>
      </trkpt>
      <trkpt lat="47.05837" lon="-1.75442">
        <ele>15.79</ele>
        <time>2020-05-31T16:19:46Z</time>
      </trkpt>
      <trkpt lat="47.05831" lon="-1.75426">
        <ele>15.68</ele>
        <time>2020-05-31T16:19:48Z</time>
      </trkpt>
      <trkpt lat="47.05826" lon="-1.75412">
        <ele>16.17</ele>
        <time>2020-05-31T16:19:50Z</time>
      </trkpt>
      <trkpt lat="47.0582" lon="-1.75397">
        <ele>17.53</ele>
        <time>2020-05-31T16:19:52Z</time>
      </trkpt>
      <trkpt lat="47.05813" lon="-1.75382">
        <ele>16.84</ele>
        <time>2020-05-31T16:19:54Z</time>
      </trkpt>
      <trkpt lat="47.05806" lon="-1.75364">
        <ele>16.11</ele>
        <time>2020-05-31T16:19:56Z</time>
      </trkpt>
      <trkpt lat="47.058" lon="-1.7535">
        <ele>15.76</ele>
        <time>2020-05-31T16:19:58Z</time>
      </trkpt>
      <trkpt lat="47.05793" lon="-1.75333">
        <ele>15.86</ele>
        <time>2020-05-31T16:20:00Z</time>
      </trkpt>
      <trkpt lat="47.05786" lon="-1.75318">
        <ele>15.98</ele>
        <time>2020-05-31T16:20:02Z</time>
      </trkpt>
      <trkpt lat="47.0578" lon="-1.75304">
        <ele>15.66</ele>
        <time>2020-05-31T16:20:04Z</time>
      </trkpt>
      <trkpt lat="47.05773" lon="-1.75288">
        <ele>15.24</ele>
        <time>2020-05-31T16:20:06Z</time>
      </trkpt>
      <trkpt lat="47.05766" lon="-1.75273">
        <ele>15.32</ele>
        <time>2020-05-31T16:20:08Z</time>
      </trkpt>
      <trkpt lat="47.0576" lon="-1.7526">
        <ele>15.51</ele>
        <time>2020-05-31T16:20:10Z</time>
      </trkpt>
      <trkpt lat="47.05754" lon="-1.75245">
        <ele>15.13</ele>
        <time>2020-05-31T16:20:12Z</time>
      </trkpt>
      <trkpt lat="47.05746" lon="-1.7523">
        <ele>14.71</ele>
        <time>2020-05-31T16:20:14Z</time>
      </trkpt>
      <trkpt lat="47.05739" lon="-1.75215">
        <ele>14.35</ele>
        <time>2020-05-31T16:20:16Z</time>
      </trkpt>
      <trkpt lat="47.05733" lon="-1.752">
        <ele>14.1</ele>
        <time>2020-05-31T16:20:18Z</time>
      </trkpt>
      <trkpt lat="47.05725" lon="-1.75184">
        <ele>14.05</ele>
        <time>2020-05-31T16:20:20Z</time>
      </trkpt>
      <trkpt lat="47.05718" lon="-1.75168">
        <ele>14.18</ele>
        <time>2020-05-31T16:20:22Z</time>
      </trkpt>
      <trkpt lat="47.05712" lon="-1.75152">
        <ele>14.25</ele>
        <time>2020-05-31T16:20:24Z</time>
      </trkpt>
      <trkpt lat="47.05705" lon="-1.75136">
        <ele>14.15</ele>
        <time>2020-05-31T16:20:26Z</time>
      </trkpt>
      <trkpt lat="47.05698" lon="-1.7512">
        <ele>14.29</ele>
        <time>2020-05-31T16:20:28Z</time>
      </trkpt>
      <trkpt lat="47.05691" lon="-1.75105">
        <ele>13.99</ele>
        <time>2020-05-31T16:20:30Z</time>
      </trkpt>
      <trkpt lat="47.05681" lon="-1.75087">
        <ele>13.37</ele>
        <time>2020-05-31T16:20:32Z</time>
      </trkpt>
      <trkpt lat="47.05671" lon="-1.75071">
        <ele>12.58</ele>
        <time>2020-05-31T16:20:34Z</time>
      </trkpt>
      <trkpt lat="47.0566" lon="-1.75056">
        <ele>12.3</ele>
        <time>2020-05-31T16:20:36Z</time>
      </trkpt>
      <trkpt lat="47.05647" lon="-1.75042">
        <ele>11.88</ele>
        <time>2020-05-31T16:20:38Z</time>
      </trkpt>
      <trkpt lat="47.05634" lon="-1.7503">
        <ele>11.68</ele>
        <time>2020-05-31T16:20:40Z</time>
      </trkpt>
      <trkpt lat="47.05622" lon="-1.75018">
        <ele>11.37</ele>
        <time>2020-05-31T16:20:42Z</time>
      </trkpt>
      <trkpt lat="47.05609" lon="-1.75005">
        <ele>10.99</ele>
        <time>2020-05-31T16:20:44Z</time>
      </trkpt>
      <trkpt lat="47.05594" lon="-1.7499">
        <ele>10.87</ele>
        <time>2020-05-31T16:20:46Z</time>
      </trkpt>
      <trkpt lat="47.0558" lon="-1.74976">
        <ele>10.55</ele>
        <time>2020-05-31T16:20:48Z</time>
      </trkpt>
      <trkpt lat="47.05567" lon="-1.74963">
        <ele>10.08</ele>
        <time>2020-05-31T16:20:50Z</time>
      </trkpt>
      <trkpt lat="47.05553" lon="-1.74949">
        <ele>8.87</ele>
        <time>2020-05-31T16:20:52Z</time>
      </trkpt>
      <trkpt lat="47.05538" lon="-1.74935">
        <ele>7.65</ele>
        <time>2020-05-31T16:20:54Z</time>
      </trkpt>
      <trkpt lat="47.0553" lon="-1.74927">
        <ele>7.29</ele>
        <time>2020-05-31T16:20:55Z</time>
      </trkpt>
      <trkpt lat="47.05516" lon="-1.74914">
        <ele>6.1</ele>
        <time>2020-05-31T16:20:58Z</time>
      </trkpt>
      <trkpt lat="47.05503" lon="-1.74901">
        <ele>5.87</ele>
        <time>2020-05-31T16:21:00Z</time>
      </trkpt>
      <trkpt lat="47.05488" lon="-1.74888">
        <ele>5.46</ele>
        <time>2020-05-31T16:21:02Z</time>
      </trkpt>
      <trkpt lat="47.05476" lon="-1.74877">
        <ele>4.98</ele>
        <time>2020-05-31T16:21:04Z</time>
      </trkpt>
      <trkpt lat="47.05463" lon="-1.74866">
        <ele>4.51</ele>
        <time>2020-05-31T16:21:06Z</time>
      </trkpt>
      <trkpt lat="47.0545" lon="-1.74856">
        <ele>3.98</ele>
        <time>2020-05-31T16:21:08Z</time>
      </trkpt>
      <trkpt lat="47.05437" lon="-1.74844">
        <ele>2.97</ele>
        <time>2020-05-31T16:21:10Z</time>
      </trkpt>
      <trkpt lat="47.05424" lon="-1.74834">
        <ele>2.54</ele>
        <time>2020-05-31T16:21:12Z</time>
      </trkpt>
      <trkpt lat="47.05412" lon="-1.74825">
        <ele>1.11</ele>
        <time>2020-05-31T16:21:14Z</time>
      </trkpt>
      <trkpt lat="47.054" lon="-1.74815">
        <ele>0.92</ele>
        <time>2020-05-31T16:21:16Z</time>
      </trkpt>
      <trkpt lat="47.05389" lon="-1.74806">
        <ele>1.16</ele>
        <time>2020-05-31T16:21:18Z</time>
      </trkpt>
      <trkpt lat="47.05377" lon="-1.74796">
        <ele>1.6</ele>
        <time>2020-05-31T16:21:20Z</time>
      </trkpt>
      <trkpt lat="47.05366" lon="-1.74786">
        <ele>2.7</ele>
        <time>2020-05-31T16:21:22Z</time>
      </trkpt>
      <trkpt lat="47.05355" lon="-1.74773">
        <ele>2.96</ele>
        <time>2020-05-31T16:21:24Z</time>
      </trkpt>
      <trkpt lat="47.05345" lon="-1.7476">
        <ele>2.68</ele>
        <time>2020-05-31T16:21:26Z</time>
      </trkpt>
      <trkpt lat="47.05336" lon="-1.74746">
        <ele>2.02</ele>
        <time>2020-05-31T16:21:28Z</time>
      </trkpt>
      <trkpt lat="47.05328" lon="-1.74733">
        <ele>1.23</ele>
        <time>2020-05-31T16:21:30Z</time>
      </trkpt>
      <trkpt lat="47.05319" lon="-1.74718">
        <ele>0.46</ele>
        <time>2020-05-31T16:21:32Z</time>
      </trkpt>
      <trkpt lat="47.05312" lon="-1.74703">
        <ele>-0.7</ele>
        <time>2020-05-31T16:21:34Z</time>
      </trkpt>
      <trkpt lat="47.05305" lon="-1.74689">
        <ele>-0.58</ele>
        <time>2020-05-31T16:21:36Z</time>
      </trkpt>
      <trkpt lat="47.05298" lon="-1.74674">
        <ele>-0.14</ele>
        <time>2020-05-31T16:21:38Z</time>
      </trkpt>
      <trkpt lat="47.05291" lon="-1.74659">
        <ele>0.54</ele>
        <time>2020-05-31T16:21:40Z</time>
      </trkpt>
      <trkpt lat="47.05285" lon="-1.74643">
        <ele>0.94</ele>
        <time>2020-05-31T16:21:42Z</time>
      </trkpt>
      <trkpt lat="47.0528" lon="-1.74627">
        <ele>2.04</ele>
        <time>2020-05-31T16:21:44Z</time>
      </trkpt>
      <trkpt lat="47.05274" lon="-1.74613">
        <ele>3.43</ele>
        <time>2020-05-31T16:21:46Z</time>
      </trkpt>
      <trkpt lat="47.05267" lon="-1.74598">
        <ele>4.48</ele>
        <time>2020-05-31T16:21:48Z</time>
      </trkpt>
      <trkpt lat="47.05259" lon="-1.74581">
        <ele>5.26</ele>
        <time>2020-05-31T16:21:50Z</time>
      </trkpt>
      <trkpt lat="47.05254" lon="-1.74567">
        <ele>4.93</ele>
        <time>2020-05-31T16:21:52Z</time>
      </trkpt>
      <trkpt lat="47.05247" lon="-1.74553">
        <ele>4.38</ele>
        <time>2020-05-31T16:21:54Z</time>
      </trkpt>
      <trkpt lat="47.0524" lon="-1.74538">
        <ele>4.39</ele>
        <time>2020-05-31T16:21:56Z</time>
      </trkpt>
      <trkpt lat="47.05235" lon="-1.74521">
        <ele>5.67</ele>
        <time>2020-05-31T16:21:58Z</time>
      </trkpt>
      <trkpt lat="47.0523" lon="-1.74507">
        <ele>7.37</ele>
        <time>2020-05-31T16:22:00Z</time>
      </trkpt>
      <trkpt lat="47.05227" lon="-1.74491">
        <ele>7.58</ele>
        <time>2020-05-31T16:22:02Z</time>
      </trkpt>
      <trkpt lat="47.05225" lon="-1.74477">
        <ele>7.41</ele>
        <time>2020-05-31T16:22:04Z</time>
      </trkpt>
      <trkpt lat="47.05223" lon="-1.74462">
        <ele>7.97</ele>
        <time>2020-05-31T16:22:06Z</time>
      </trkpt>
      <trkpt lat="47.05221" lon="-1.74446">
        <ele>8.18</ele>
        <time>2020-05-31T16:22:08Z</time>
      </trkpt>
      <trkpt lat="47.0522" lon="-1.74431">
        <ele>8.84</ele>
        <time>2020-05-31T16:22:10Z</time>
      </trkpt>
      <trkpt lat="47.0522" lon="-1.74414">
        <ele>10.35</ele>
        <time>2020-05-31T16:22:12Z</time>
      </trkpt>
      <trkpt lat="47.0522" lon="-1.74398">
        <ele>11.41</ele>
        <time>2020-05-31T16:22:14Z</time>
      </trkpt>
      <trkpt lat="47.0522" lon="-1.74382">
        <ele>11.22</ele>
        <time>2020-05-31T16:22:16Z</time>
      </trkpt>
      <trkpt lat="47.05221" lon="-1.74364">
        <ele>10.82</ele>
        <time>2020-05-31T16:22:19Z</time>
      </trkpt>
      <trkpt lat="47.05221" lon="-1.74348">
        <ele>9.61</ele>
        <time>2020-05-31T16:22:21Z</time>
      </trkpt>
      <trkpt lat="47.05222" lon="-1.74331">
        <ele>9.95</ele>
        <time>2020-05-31T16:22:23Z</time>
      </trkpt>
      <trkpt lat="47.05223" lon="-1.7431">
        <ele>10.67</ele>
        <time>2020-05-31T16:22:26Z</time>
      </trkpt>
      <trkpt lat="47.05224" lon="-1.74296">
        <ele>12.03</ele>
        <time>2020-05-31T16:22:28Z</time>
      </trkpt>
      <trkpt lat="47.05224" lon="-1.7428">
        <ele>11.81</ele>
        <time>2020-05-31T16:22:30Z</time>
      </trkpt>
      <trkpt lat="47.05224" lon="-1.74263">
        <ele>12.33</ele>
        <time>2020-05-31T16:22:33Z</time>
      </trkpt>
      <trkpt lat="47.05224" lon="-1.74249">
        <ele>12.6</ele>
        <time>2020-05-31T16:22:35Z</time>
      </trkpt>
      <trkpt lat="47.05225" lon="-1.7423">
        <ele>11.95</ele>
        <time>2020-05-31T16:22:38Z</time>
      </trkpt>
      <trkpt lat="47.05225" lon="-1.74214">
        <ele>12.55</ele>
        <time>2020-05-31T16:22:40Z</time>
      </trkpt>
      <trkpt lat="47.05225" lon="-1.74196">
        <ele>12.09</ele>
        <time>2020-05-31T16:22:43Z</time>
      </trkpt>
      <trkpt lat="47.05225" lon="-1.74176">
        <ele>11.88</ele>
        <time>2020-05-31T16:22:46Z</time>
      </trkpt>
      <trkpt lat="47.05225" lon="-1.74161">
        <ele>11.8</ele>
        <time>2020-05-31T16:22:48Z</time>
      </trkpt>
      <trkpt lat="47.05226" lon="-1.74147">
        <ele>12.83</ele>
        <time>2020-05-31T16:22:50Z</time>
      </trkpt>
      <trkpt lat="47.05226" lon="-1.74133">
        <ele>14.08</ele>
        <time>2020-05-31T16:22:52Z</time>
      </trkpt>
      <trkpt lat="47.05226" lon="-1.7412">
        <ele>15.19</ele>
        <time>2020-05-31T16:22:54Z</time>
      </trkpt>
      <trkpt lat="47.05226" lon="-1.74106">
        <ele>14.98</ele>
        <time>2020-05-31T16:22:56Z</time>
      </trkpt>
      <trkpt lat="47.05227" lon="-1.74091">
        <ele>14</ele>
        <time>2020-05-31T16:22:58Z</time>
      </trkpt>
      <trkpt lat="47.05228" lon="-1.74075">
        <ele>14.21</ele>
        <time>2020-05-31T16:23:00Z</time>
      </trkpt>
      <trkpt lat="47.05228" lon="-1.74061">
        <ele>14.75</ele>
        <time>2020-05-31T16:23:02Z</time>
      </trkpt>
      <trkpt lat="47.05228" lon="-1.74047">
        <ele>15.81</ele>
        <time>2020-05-31T16:23:04Z</time>
      </trkpt>
      <trkpt lat="47.05228" lon="-1.74031">
        <ele>16.59</ele>
        <time>2020-05-31T16:23:06Z</time>
      </trkpt>
      <trkpt lat="47.05229" lon="-1.74014">
        <ele>18</ele>
        <time>2020-05-31T16:23:08Z</time>
      </trkpt>
      <trkpt lat="47.05229" lon="-1.74001">
        <ele>17.73</ele>
        <time>2020-05-31T16:23:10Z</time>
      </trkpt>
      <trkpt lat="47.05229" lon="-1.73985">
        <ele>18.18</ele>
        <time>2020-05-31T16:23:12Z</time>
      </trkpt>
      <trkpt lat="47.05229" lon="-1.73969">
        <ele>18.26</ele>
        <time>2020-05-31T16:23:14Z</time>
      </trkpt>
      <trkpt lat="47.05229" lon="-1.73952">
        <ele>18.77</ele>
        <time>2020-05-31T16:23:16Z</time>
      </trkpt>
      <trkpt lat="47.0523" lon="-1.73936">
        <ele>18.92</ele>
        <time>2020-05-31T16:23:18Z</time>
      </trkpt>
      <trkpt lat="47.0523" lon="-1.73923">
        <ele>20</ele>
        <time>2020-05-31T16:23:20Z</time>
      </trkpt>
      <trkpt lat="47.0523" lon="-1.73907">
        <ele>19.54</ele>
        <time>2020-05-31T16:23:22Z</time>
      </trkpt>
      <trkpt lat="47.0523" lon="-1.73892">
        <ele>19.15</ele>
        <time>2020-05-31T16:23:24Z</time>
      </trkpt>
      <trkpt lat="47.0523" lon="-1.73878">
        <ele>18.84</ele>
        <time>2020-05-31T16:23:26Z</time>
      </trkpt>
      <trkpt lat="47.0523" lon="-1.73863">
        <ele>19.03</ele>
        <time>2020-05-31T16:23:28Z</time>
      </trkpt>
      <trkpt lat="47.0523" lon="-1.73841">
        <ele>19.04</ele>
        <time>2020-05-31T16:23:31Z</time>
      </trkpt>
      <trkpt lat="47.05231" lon="-1.73826">
        <ele>19.27</ele>
        <time>2020-05-31T16:23:33Z</time>
      </trkpt>
      <trkpt lat="47.05231" lon="-1.7381">
        <ele>19.33</ele>
        <time>2020-05-31T16:23:35Z</time>
      </trkpt>
      <trkpt lat="47.05231" lon="-1.73795">
        <ele>19.95</ele>
        <time>2020-05-31T16:23:37Z</time>
      </trkpt>
      <trkpt lat="47.05231" lon="-1.73781">
        <ele>20.18</ele>
        <time>2020-05-31T16:23:39Z</time>
      </trkpt>
      <trkpt lat="47.05232" lon="-1.73764">
        <ele>20.22</ele>
        <time>2020-05-31T16:23:41Z</time>
      </trkpt>
      <trkpt lat="47.05232" lon="-1.73744">
        <ele>19.94</ele>
        <time>2020-05-31T16:23:44Z</time>
      </trkpt>
      <trkpt lat="47.05232" lon="-1.73728">
        <ele>20.44</ele>
        <time>2020-05-31T16:23:46Z</time>
      </trkpt>
      <trkpt lat="47.05231" lon="-1.73712">
        <ele>20.55</ele>
        <time>2020-05-31T16:23:48Z</time>
      </trkpt>
      <trkpt lat="47.05224" lon="-1.73704">
        <ele>20.85</ele>
        <time>2020-05-31T16:23:50Z</time>
      </trkpt>
      <trkpt lat="47.05215" lon="-1.73699">
        <ele>21.55</ele>
        <time>2020-05-31T16:23:52Z</time>
      </trkpt>
      <trkpt lat="47.05206" lon="-1.73695">
        <ele>21.31</ele>
        <time>2020-05-31T16:23:54Z</time>
      </trkpt>
      <trkpt lat="47.05196" lon="-1.7369">
        <ele>21.12</ele>
        <time>2020-05-31T16:23:56Z</time>
      </trkpt>
      <trkpt lat="47.05186" lon="-1.73684">
        <ele>21.13</ele>
        <time>2020-05-31T16:23:58Z</time>
      </trkpt>
      <trkpt lat="47.05176" lon="-1.73678">
        <ele>20.67</ele>
        <time>2020-05-31T16:24:00Z</time>
      </trkpt>
      <trkpt lat="47.05167" lon="-1.73672">
        <ele>20.72</ele>
        <time>2020-05-31T16:24:02Z</time>
      </trkpt>
      <trkpt lat="47.05157" lon="-1.73664">
        <ele>20.72</ele>
        <time>2020-05-31T16:24:04Z</time>
      </trkpt>
      <trkpt lat="47.05147" lon="-1.73656">
        <ele>20.72</ele>
        <time>2020-05-31T16:24:06Z</time>
      </trkpt>
      <trkpt lat="47.05138" lon="-1.73647">
        <ele>20.79</ele>
        <time>2020-05-31T16:24:08Z</time>
      </trkpt>
      <trkpt lat="47.05131" lon="-1.73636">
        <ele>20.91</ele>
        <time>2020-05-31T16:24:10Z</time>
      </trkpt>
      <trkpt lat="47.05124" lon="-1.73625">
        <ele>22.11</ele>
        <time>2020-05-31T16:24:12Z</time>
      </trkpt>
      <trkpt lat="47.05119" lon="-1.73613">
        <ele>23.17</ele>
        <time>2020-05-31T16:24:14Z</time>
      </trkpt>
      <trkpt lat="47.05112" lon="-1.736">
        <ele>24.44</ele>
        <time>2020-05-31T16:24:16Z</time>
      </trkpt>
      <trkpt lat="47.05106" lon="-1.7359">
        <ele>25.94</ele>
        <time>2020-05-31T16:24:18Z</time>
      </trkpt>
      <trkpt lat="47.05098" lon="-1.73573">
        <ele>26.71</ele>
        <time>2020-05-31T16:24:21Z</time>
      </trkpt>
      <trkpt lat="47.05092" lon="-1.7356">
        <ele>26.22</ele>
        <time>2020-05-31T16:24:23Z</time>
      </trkpt>
      <trkpt lat="47.05086" lon="-1.73549">
        <ele>24.43</ele>
        <time>2020-05-31T16:24:25Z</time>
      </trkpt>
      <trkpt lat="47.05079" lon="-1.73534">
        <ele>24.51</ele>
        <time>2020-05-31T16:24:27Z</time>
      </trkpt>
      <trkpt lat="47.05071" lon="-1.73521">
        <ele>26.15</ele>
        <time>2020-05-31T16:24:29Z</time>
      </trkpt>
      <trkpt lat="47.05063" lon="-1.73507">
        <ele>27.44</ele>
        <time>2020-05-31T16:24:31Z</time>
      </trkpt>
      <trkpt lat="47.05057" lon="-1.73496">
        <ele>27.88</ele>
        <time>2020-05-31T16:24:33Z</time>
      </trkpt>
      <trkpt lat="47.05051" lon="-1.73484">
        <ele>28.53</ele>
        <time>2020-05-31T16:24:35Z</time>
      </trkpt>
      <trkpt lat="47.05046" lon="-1.73473">
        <ele>29.82</ele>
        <time>2020-05-31T16:24:37Z</time>
      </trkpt>
      <trkpt lat="47.0504" lon="-1.73462">
        <ele>30.25</ele>
        <time>2020-05-31T16:24:39Z</time>
      </trkpt>
      <trkpt lat="47.05033" lon="-1.73449">
        <ele>30.28</ele>
        <time>2020-05-31T16:24:41Z</time>
      </trkpt>
      <trkpt lat="47.05027" lon="-1.73437">
        <ele>29.67</ele>
        <time>2020-05-31T16:24:43Z</time>
      </trkpt>
      <trkpt lat="47.05021" lon="-1.73426">
        <ele>30.26</ele>
        <time>2020-05-31T16:24:45Z</time>
      </trkpt>
      <trkpt lat="47.05015" lon="-1.73415">
        <ele>30.57</ele>
        <time>2020-05-31T16:24:47Z</time>
      </trkpt>
      <trkpt lat="47.05007" lon="-1.73401">
        <ele>31.28</ele>
        <time>2020-05-31T16:24:49Z</time>
      </trkpt>
      <trkpt lat="47.05001" lon="-1.73387">
        <ele>30.83</ele>
        <time>2020-05-31T16:24:51Z</time>
      </trkpt>
      <trkpt lat="47.04994" lon="-1.73375">
        <ele>30.08</ele>
        <time>2020-05-31T16:24:53Z</time>
      </trkpt>
      <trkpt lat="47.04986" lon="-1.73359">
        <ele>29.99</ele>
        <time>2020-05-31T16:24:56Z</time>
      </trkpt>
      <trkpt lat="47.04979" lon="-1.73344">
        <ele>30.12</ele>
        <time>2020-05-31T16:24:58Z</time>
      </trkpt>
      <trkpt lat="47.04972" lon="-1.7333">
        <ele>30.69</ele>
        <time>2020-05-31T16:25:00Z</time>
      </trkpt>
      <trkpt lat="47.04964" lon="-1.73316">
        <ele>30.7</ele>
        <time>2020-05-31T16:25:02Z</time>
      </trkpt>
      <trkpt lat="47.04958" lon="-1.73306">
        <ele>30.18</ele>
        <time>2020-05-31T16:25:04Z</time>
      </trkpt>
      <trkpt lat="47.04951" lon="-1.73293">
        <ele>29.7</ele>
        <time>2020-05-31T16:25:06Z</time>
      </trkpt>
      <trkpt lat="47.04943" lon="-1.73281">
        <ele>28.85</ele>
        <time>2020-05-31T16:25:08Z</time>
      </trkpt>
      <trkpt lat="47.04935" lon="-1.73267">
        <ele>28.34</ele>
        <time>2020-05-31T16:25:10Z</time>
      </trkpt>
      <trkpt lat="47.04928" lon="-1.73254">
        <ele>28.47</ele>
        <time>2020-05-31T16:25:12Z</time>
      </trkpt>
      <trkpt lat="47.04922" lon="-1.73239">
        <ele>29.21</ele>
        <time>2020-05-31T16:25:14Z</time>
      </trkpt>
      <trkpt lat="47.04914" lon="-1.73222">
        <ele>28.94</ele>
        <time>2020-05-31T16:25:17Z</time>
      </trkpt>
      <trkpt lat="47.04909" lon="-1.73206">
        <ele>28.83</ele>
        <time>2020-05-31T16:25:19Z</time>
      </trkpt>
      <trkpt lat="47.04907" lon="-1.73189">
        <ele>27.93</ele>
        <time>2020-05-31T16:25:21Z</time>
      </trkpt>
      <trkpt lat="47.04906" lon="-1.73172">
        <ele>29.11</ele>
        <time>2020-05-31T16:25:23Z</time>
      </trkpt>
      <trkpt lat="47.04905" lon="-1.73152">
        <ele>29.91</ele>
        <time>2020-05-31T16:25:25Z</time>
      </trkpt>
      <trkpt lat="47.04905" lon="-1.73138">
        <ele>30.94</ele>
        <time>2020-05-31T16:25:27Z</time>
      </trkpt>
      <trkpt lat="47.04905" lon="-1.7312">
        <ele>31.79</ele>
        <time>2020-05-31T16:25:29Z</time>
      </trkpt>
      <trkpt lat="47.04904" lon="-1.73105">
        <ele>31.48</ele>
        <time>2020-05-31T16:25:31Z</time>
      </trkpt>
      <trkpt lat="47.04902" lon="-1.73089">
        <ele>30.36</ele>
        <time>2020-05-31T16:25:33Z</time>
      </trkpt>
      <trkpt lat="47.04899" lon="-1.73075">
        <ele>30.67</ele>
        <time>2020-05-31T16:25:35Z</time>
      </trkpt>
      <trkpt lat="47.04895" lon="-1.73062">
        <ele>31.03</ele>
        <time>2020-05-31T16:25:37Z</time>
      </trkpt>
      <trkpt lat="47.04889" lon="-1.73049">
        <ele>30.5</ele>
        <time>2020-05-31T16:25:39Z</time>
      </trkpt>
      <trkpt lat="47.04883" lon="-1.73035">
        <ele>30.05</ele>
        <time>2020-05-31T16:25:41Z</time>
      </trkpt>
      <trkpt lat="47.04878" lon="-1.73022">
        <ele>29.38</ele>
        <time>2020-05-31T16:25:43Z</time>
      </trkpt>
      <trkpt lat="47.04871" lon="-1.73007">
        <ele>29.78</ele>
        <time>2020-05-31T16:25:45Z</time>
      </trkpt>
      <trkpt lat="47.04864" lon="-1.72992">
        <ele>30.14</ele>
        <time>2020-05-31T16:25:47Z</time>
      </trkpt>
      <trkpt lat="47.04858" lon="-1.72978">
        <ele>29.9</ele>
        <time>2020-05-31T16:25:49Z</time>
      </trkpt>
      <trkpt lat="47.04851" lon="-1.72963">
        <ele>30.17</ele>
        <time>2020-05-31T16:25:51Z</time>
      </trkpt>
      <trkpt lat="47.04845" lon="-1.72949">
        <ele>29.42</ele>
        <time>2020-05-31T16:25:53Z</time>
      </trkpt>
      <trkpt lat="47.04838" lon="-1.72933">
        <ele>28.58</ele>
        <time>2020-05-31T16:25:55Z</time>
      </trkpt>
      <trkpt lat="47.04833" lon="-1.72917">
        <ele>28.23</ele>
        <time>2020-05-31T16:25:57Z</time>
      </trkpt>
      <trkpt lat="47.04827" lon="-1.72903">
        <ele>27.49</ele>
        <time>2020-05-31T16:25:59Z</time>
      </trkpt>
      <trkpt lat="47.04821" lon="-1.72887">
        <ele>27.18</ele>
        <time>2020-05-31T16:26:01Z</time>
      </trkpt>
      <trkpt lat="47.04815" lon="-1.72869">
        <ele>26.01</ele>
        <time>2020-05-31T16:26:03Z</time>
      </trkpt>
      <trkpt lat="47.04811" lon="-1.72855">
        <ele>25.91</ele>
        <time>2020-05-31T16:26:05Z</time>
      </trkpt>
      <trkpt lat="47.04808" lon="-1.72837">
        <ele>25.95</ele>
        <time>2020-05-31T16:26:07Z</time>
      </trkpt>
      <trkpt lat="47.04805" lon="-1.72819">
        <ele>26.96</ele>
        <time>2020-05-31T16:26:09Z</time>
      </trkpt>
      <trkpt lat="47.04803" lon="-1.72798">
        <ele>27.08</ele>
        <time>2020-05-31T16:26:11Z</time>
      </trkpt>
      <trkpt lat="47.04802" lon="-1.72781">
        <ele>26.02</ele>
        <time>2020-05-31T16:26:13Z</time>
      </trkpt>
      <trkpt lat="47.048" lon="-1.72765">
        <ele>25.22</ele>
        <time>2020-05-31T16:26:15Z</time>
      </trkpt>
      <trkpt lat="47.04799" lon="-1.7275">
        <ele>25.23</ele>
        <time>2020-05-31T16:26:17Z</time>
      </trkpt>
      <trkpt lat="47.04798" lon="-1.72732">
        <ele>25.36</ele>
        <time>2020-05-31T16:26:19Z</time>
      </trkpt>
      <trkpt lat="47.04795" lon="-1.72715">
        <ele>25.54</ele>
        <time>2020-05-31T16:26:21Z</time>
      </trkpt>
      <trkpt lat="47.04792" lon="-1.72697">
        <ele>26.02</ele>
        <time>2020-05-31T16:26:23Z</time>
      </trkpt>
      <trkpt lat="47.0479" lon="-1.7268">
        <ele>26.31</ele>
        <time>2020-05-31T16:26:25Z</time>
      </trkpt>
      <trkpt lat="47.04788" lon="-1.72662">
        <ele>26.25</ele>
        <time>2020-05-31T16:26:27Z</time>
      </trkpt>
      <trkpt lat="47.04785" lon="-1.72644">
        <ele>25.76</ele>
        <time>2020-05-31T16:26:29Z</time>
      </trkpt>
      <trkpt lat="47.04781" lon="-1.72627">
        <ele>25.64</ele>
        <time>2020-05-31T16:26:31Z</time>
      </trkpt>
      <trkpt lat="47.04779" lon="-1.72609">
        <ele>25.09</ele>
        <time>2020-05-31T16:26:33Z</time>
      </trkpt>
      <trkpt lat="47.04776" lon="-1.72592">
        <ele>24.77</ele>
        <time>2020-05-31T16:26:35Z</time>
      </trkpt>
      <trkpt lat="47.04774" lon="-1.72575">
        <ele>24.22</ele>
        <time>2020-05-31T16:26:37Z</time>
      </trkpt>
      <trkpt lat="47.04772" lon="-1.72559">
        <ele>24.04</ele>
        <time>2020-05-31T16:26:39Z</time>
      </trkpt>
      <trkpt lat="47.04769" lon="-1.7254">
        <ele>24.16</ele>
        <time>2020-05-31T16:26:41Z</time>
      </trkpt>
      <trkpt lat="47.04768" lon="-1.72525">
        <ele>25.62</ele>
        <time>2020-05-31T16:26:43Z</time>
      </trkpt>
      <trkpt lat="47.04765" lon="-1.72506">
        <ele>26.71</ele>
        <time>2020-05-31T16:26:46Z</time>
      </trkpt>
      <trkpt lat="47.04762" lon="-1.72486">
        <ele>26.05</ele>
        <time>2020-05-31T16:26:49Z</time>
      </trkpt>
      <trkpt lat="47.0476" lon="-1.72471">
        <ele>25.37</ele>
        <time>2020-05-31T16:26:51Z</time>
      </trkpt>
      <trkpt lat="47.04758" lon="-1.72457">
        <ele>24.72</ele>
        <time>2020-05-31T16:26:53Z</time>
      </trkpt>
      <trkpt lat="47.04755" lon="-1.72443">
        <ele>24.8</ele>
        <time>2020-05-31T16:26:55Z</time>
      </trkpt>
      <trkpt lat="47.04752" lon="-1.72428">
        <ele>25.31</ele>
        <time>2020-05-31T16:26:57Z</time>
      </trkpt>
      <trkpt lat="47.04749" lon="-1.72415">
        <ele>25.4</ele>
        <time>2020-05-31T16:26:59Z</time>
      </trkpt>
      <trkpt lat="47.04746" lon="-1.72399">
        <ele>26.12</ele>
        <time>2020-05-31T16:27:01Z</time>
      </trkpt>
      <trkpt lat="47.04743" lon="-1.72384">
        <ele>25.17</ele>
        <time>2020-05-31T16:27:03Z</time>
      </trkpt>
      <trkpt lat="47.04739" lon="-1.72371">
        <ele>24.53</ele>
        <time>2020-05-31T16:27:05Z</time>
      </trkpt>
      <trkpt lat="47.04736" lon="-1.72355">
        <ele>23.81</ele>
        <time>2020-05-31T16:27:07Z</time>
      </trkpt>
      <trkpt lat="47.04733" lon="-1.7234">
        <ele>23.9</ele>
        <time>2020-05-31T16:27:09Z</time>
      </trkpt>
      <trkpt lat="47.0473" lon="-1.72327">
        <ele>25.08</ele>
        <time>2020-05-31T16:27:11Z</time>
      </trkpt>
      <trkpt lat="47.04727" lon="-1.72308">
        <ele>25.72</ele>
        <time>2020-05-31T16:27:14Z</time>
      </trkpt>
      <trkpt lat="47.04722" lon="-1.72291">
        <ele>26.18</ele>
        <time>2020-05-31T16:27:17Z</time>
      </trkpt>
      <trkpt lat="47.04718" lon="-1.72271">
        <ele>26.4</ele>
        <time>2020-05-31T16:27:20Z</time>
      </trkpt>
      <trkpt lat="47.04714" lon="-1.72257">
        <ele>26.58</ele>
        <time>2020-05-31T16:27:22Z</time>
      </trkpt>
      <trkpt lat="47.04711" lon="-1.72238">
        <ele>26.05</ele>
        <time>2020-05-31T16:27:25Z</time>
      </trkpt>
      <trkpt lat="47.04707" lon="-1.72219">
        <ele>26.4</ele>
        <time>2020-05-31T16:27:28Z</time>
      </trkpt>
      <trkpt lat="47.04704" lon="-1.72204">
        <ele>26.65</ele>
        <time>2020-05-31T16:27:30Z</time>
      </trkpt>
      <trkpt lat="47.047" lon="-1.72184">
        <ele>26.81</ele>
        <time>2020-05-31T16:27:33Z</time>
      </trkpt>
      <trkpt lat="47.04696" lon="-1.72162">
        <ele>27.02</ele>
        <time>2020-05-31T16:27:36Z</time>
      </trkpt>
      <trkpt lat="47.04693" lon="-1.72145">
        <ele>28.09</ele>
        <time>2020-05-31T16:27:39Z</time>
      </trkpt>
      <trkpt lat="47.04691" lon="-1.72132">
        <ele>28.9</ele>
        <time>2020-05-31T16:27:41Z</time>
      </trkpt>
      <trkpt lat="47.04688" lon="-1.72117">
        <ele>28.84</ele>
        <time>2020-05-31T16:27:43Z</time>
      </trkpt>
      <trkpt lat="47.04686" lon="-1.72098">
        <ele>29.31</ele>
        <time>2020-05-31T16:27:46Z</time>
      </trkpt>
      <trkpt lat="47.04682" lon="-1.72084">
        <ele>29.08</ele>
        <time>2020-05-31T16:27:48Z</time>
      </trkpt>
      <trkpt lat="47.04674" lon="-1.72075">
        <ele>28.73</ele>
        <time>2020-05-31T16:27:50Z</time>
      </trkpt>
      <trkpt lat="47.04663" lon="-1.72066">
        <ele>28.54</ele>
        <time>2020-05-31T16:27:52Z</time>
      </trkpt>
      <trkpt lat="47.04653" lon="-1.72058">
        <ele>29.02</ele>
        <time>2020-05-31T16:27:54Z</time>
      </trkpt>
      <trkpt lat="47.04643" lon="-1.7205">
        <ele>29.37</ele>
        <time>2020-05-31T16:27:56Z</time>
      </trkpt>
      <trkpt lat="47.04632" lon="-1.72041">
        <ele>29.81</ele>
        <time>2020-05-31T16:27:58Z</time>
      </trkpt>
      <trkpt lat="47.04623" lon="-1.72032">
        <ele>29.92</ele>
        <time>2020-05-31T16:28:00Z</time>
      </trkpt>
      <trkpt lat="47.04613" lon="-1.72022">
        <ele>30.05</ele>
        <time>2020-05-31T16:28:02Z</time>
      </trkpt>
      <trkpt lat="47.04606" lon="-1.72014">
        <ele>30.26</ele>
        <time>2020-05-31T16:28:04Z</time>
      </trkpt>
      <trkpt lat="47.04599" lon="-1.72002">
        <ele>30.35</ele>
        <time>2020-05-31T16:28:06Z</time>
      </trkpt>
      <trkpt lat="47.0459" lon="-1.71989">
        <ele>30.19</ele>
        <time>2020-05-31T16:28:08Z</time>
      </trkpt>
      <trkpt lat="47.04583" lon="-1.71978">
        <ele>29.78</ele>
        <time>2020-05-31T16:28:10Z</time>
      </trkpt>
      <trkpt lat="47.04575" lon="-1.71963">
        <ele>29.6</ele>
        <time>2020-05-31T16:28:12Z</time>
      </trkpt>
      <trkpt lat="47.04567" lon="-1.7195">
        <ele>29.35</ele>
        <time>2020-05-31T16:28:14Z</time>
      </trkpt>
      <trkpt lat="47.04559" lon="-1.71937">
        <ele>28.33</ele>
        <time>2020-05-31T16:28:16Z</time>
      </trkpt>
      <trkpt lat="47.04552" lon="-1.71926">
        <ele>28.97</ele>
        <time>2020-05-31T16:28:18Z</time>
      </trkpt>
      <trkpt lat="47.04545" lon="-1.71913">
        <ele>29.55</ele>
        <time>2020-05-31T16:28:20Z</time>
      </trkpt>
      <trkpt lat="47.04537" lon="-1.71901">
        <ele>30.92</ele>
        <time>2020-05-31T16:28:22Z</time>
      </trkpt>
      <trkpt lat="47.0453" lon="-1.7189">
        <ele>30.32</ele>
        <time>2020-05-31T16:28:24Z</time>
      </trkpt>
      <trkpt lat="47.04524" lon="-1.7188">
        <ele>29.47</ele>
        <time>2020-05-31T16:28:26Z</time>
      </trkpt>
      <trkpt lat="47.04516" lon="-1.71869">
        <ele>29.6</ele>
        <time>2020-05-31T16:28:28Z</time>
      </trkpt>
      <trkpt lat="47.0451" lon="-1.71857">
        <ele>28.76</ele>
        <time>2020-05-31T16:28:30Z</time>
      </trkpt>
      <trkpt lat="47.04502" lon="-1.71844">
        <ele>28.57</ele>
        <time>2020-05-31T16:28:32Z</time>
      </trkpt>
      <trkpt lat="47.04493" lon="-1.71829">
        <ele>28.6</ele>
        <time>2020-05-31T16:28:35Z</time>
      </trkpt>
      <trkpt lat="47.04486" lon="-1.71818">
        <ele>29.19</ele>
        <time>2020-05-31T16:28:37Z</time>
      </trkpt>
      <trkpt lat="47.04479" lon="-1.71808">
        <ele>29.66</ele>
        <time>2020-05-31T16:28:39Z</time>
      </trkpt>
      <trkpt lat="47.0447" lon="-1.71797">
        <ele>29.21</ele>
        <time>2020-05-31T16:28:41Z</time>
      </trkpt>
      <trkpt lat="47.04461" lon="-1.71784">
        <ele>29.49</ele>
        <time>2020-05-31T16:28:43Z</time>
      </trkpt>
      <trkpt lat="47.04453" lon="-1.71774">
        <ele>30.11</ele>
        <time>2020-05-31T16:28:45Z</time>
      </trkpt>
      <trkpt lat="47.04444" lon="-1.71761">
        <ele>30.37</ele>
        <time>2020-05-31T16:28:47Z</time>
      </trkpt>
      <trkpt lat="47.04436" lon="-1.71751">
        <ele>30.54</ele>
        <time>2020-05-31T16:28:49Z</time>
      </trkpt>
      <trkpt lat="47.04428" lon="-1.7174">
        <ele>30.55</ele>
        <time>2020-05-31T16:28:51Z</time>
      </trkpt>
      <trkpt lat="47.04417" lon="-1.71726">
        <ele>30.79</ele>
        <time>2020-05-31T16:28:53Z</time>
      </trkpt>
      <trkpt lat="47.04409" lon="-1.71715">
        <ele>31.35</ele>
        <time>2020-05-31T16:28:55Z</time>
      </trkpt>
      <trkpt lat="47.04399" lon="-1.71702">
        <ele>31.38</ele>
        <time>2020-05-31T16:28:57Z</time>
      </trkpt>
      <trkpt lat="47.0439" lon="-1.7169">
        <ele>31.06</ele>
        <time>2020-05-31T16:28:59Z</time>
      </trkpt>
      <trkpt lat="47.04381" lon="-1.7168">
        <ele>30.83</ele>
        <time>2020-05-31T16:29:01Z</time>
      </trkpt>
      <trkpt lat="47.04371" lon="-1.71668">
        <ele>30.03</ele>
        <time>2020-05-31T16:29:03Z</time>
      </trkpt>
      <trkpt lat="47.04362" lon="-1.71655">
        <ele>28.93</ele>
        <time>2020-05-31T16:29:05Z</time>
      </trkpt>
      <trkpt lat="47.04353" lon="-1.71642">
        <ele>28.38</ele>
        <time>2020-05-31T16:29:07Z</time>
      </trkpt>
      <trkpt lat="47.04345" lon="-1.7163">
        <ele>27.81</ele>
        <time>2020-05-31T16:29:09Z</time>
      </trkpt>
      <trkpt lat="47.04336" lon="-1.71615">
        <ele>27.31</ele>
        <time>2020-05-31T16:29:11Z</time>
      </trkpt>
      <trkpt lat="47.0433" lon="-1.71605">
        <ele>27.92</ele>
        <time>2020-05-31T16:29:13Z</time>
      </trkpt>
      <trkpt lat="47.04322" lon="-1.71592">
        <ele>27.03</ele>
        <time>2020-05-31T16:29:15Z</time>
      </trkpt>
      <trkpt lat="47.04315" lon="-1.7158">
        <ele>26.71</ele>
        <time>2020-05-31T16:29:17Z</time>
      </trkpt>
      <trkpt lat="47.04307" lon="-1.71566">
        <ele>26</ele>
        <time>2020-05-31T16:29:19Z</time>
      </trkpt>
      <trkpt lat="47.04302" lon="-1.71555">
        <ele>25.59</ele>
        <time>2020-05-31T16:29:21Z</time>
      </trkpt>
      <trkpt lat="47.04295" lon="-1.7154">
        <ele>24.91</ele>
        <time>2020-05-31T16:29:23Z</time>
      </trkpt>
      <trkpt lat="47.0429" lon="-1.71526">
        <ele>24.85</ele>
        <time>2020-05-31T16:29:25Z</time>
      </trkpt>
      <trkpt lat="47.04284" lon="-1.71512">
        <ele>25.18</ele>
        <time>2020-05-31T16:29:27Z</time>
      </trkpt>
      <trkpt lat="47.04278" lon="-1.71499">
        <ele>25.72</ele>
        <time>2020-05-31T16:29:29Z</time>
      </trkpt>
      <trkpt lat="47.04271" lon="-1.71484">
        <ele>25.59</ele>
        <time>2020-05-31T16:29:31Z</time>
      </trkpt>
      <trkpt lat="47.04265" lon="-1.71471">
        <ele>24.56</ele>
        <time>2020-05-31T16:29:33Z</time>
      </trkpt>
      <trkpt lat="47.04259" lon="-1.71459">
        <ele>24.61</ele>
        <time>2020-05-31T16:29:35Z</time>
      </trkpt>
      <trkpt lat="47.04253" lon="-1.71446">
        <ele>24.43</ele>
        <time>2020-05-31T16:29:37Z</time>
      </trkpt>
      <trkpt lat="47.04247" lon="-1.71434">
        <ele>24</ele>
        <time>2020-05-31T16:29:39Z</time>
      </trkpt>
      <trkpt lat="47.04241" lon="-1.71422">
        <ele>24.79</ele>
        <time>2020-05-31T16:29:41Z</time>
      </trkpt>
      <trkpt lat="47.04235" lon="-1.71409">
        <ele>25.42</ele>
        <time>2020-05-31T16:29:43Z</time>
      </trkpt>
      <trkpt lat="47.04229" lon="-1.71397">
        <ele>25.18</ele>
        <time>2020-05-31T16:29:45Z</time>
      </trkpt>
      <trkpt lat="47.04222" lon="-1.71383">
        <ele>25.65</ele>
        <time>2020-05-31T16:29:47Z</time>
      </trkpt>
      <trkpt lat="47.04217" lon="-1.71372">
        <ele>26.64</ele>
        <time>2020-05-31T16:29:49Z</time>
      </trkpt>
      <trkpt lat="47.04211" lon="-1.71359">
        <ele>26.83</ele>
        <time>2020-05-31T16:29:51Z</time>
      </trkpt>
      <trkpt lat="47.04206" lon="-1.71345">
        <ele>27.66</ele>
        <time>2020-05-31T16:29:52Z</time>
      </trkpt>
      <trkpt lat="47.042" lon="-1.7133">
        <ele>28.12</ele>
        <time>2020-05-31T16:29:54Z</time>
      </trkpt>
      <trkpt lat="47.04195" lon="-1.71315">
        <ele>27.99</ele>
        <time>2020-05-31T16:29:56Z</time>
      </trkpt>
      <trkpt lat="47.0419" lon="-1.71303">
        <ele>27.33</ele>
        <time>2020-05-31T16:29:58Z</time>
      </trkpt>
      <trkpt lat="47.04183" lon="-1.71289">
        <ele>26.27</ele>
        <time>2020-05-31T16:30:00Z</time>
      </trkpt>
      <trkpt lat="47.04176" lon="-1.71273">
        <ele>25.75</ele>
        <time>2020-05-31T16:30:02Z</time>
      </trkpt>
      <trkpt lat="47.04169" lon="-1.71256">
        <ele>25.92</ele>
        <time>2020-05-31T16:30:04Z</time>
      </trkpt>
      <trkpt lat="47.04162" lon="-1.7124">
        <ele>25.59</ele>
        <time>2020-05-31T16:30:06Z</time>
      </trkpt>
      <trkpt lat="47.04154" lon="-1.71221">
        <ele>24.75</ele>
        <time>2020-05-31T16:30:08Z</time>
      </trkpt>
      <trkpt lat="47.04146" lon="-1.71202">
        <ele>24.27</ele>
        <time>2020-05-31T16:30:10Z</time>
      </trkpt>
      <trkpt lat="47.04138" lon="-1.71185">
        <ele>23.28</ele>
        <time>2020-05-31T16:30:12Z</time>
      </trkpt>
      <trkpt lat="47.04133" lon="-1.71173">
        <ele>22.87</ele>
        <time>2020-05-31T16:30:13Z</time>
      </trkpt>
      <trkpt lat="47.04124" lon="-1.71153">
        <ele>22.76</ele>
        <time>2020-05-31T16:30:15Z</time>
      </trkpt>
      <trkpt lat="47.04115" lon="-1.71134">
        <ele>21.76</ele>
        <time>2020-05-31T16:30:17Z</time>
      </trkpt>
      <trkpt lat="47.04107" lon="-1.71114">
        <ele>21.31</ele>
        <time>2020-05-31T16:30:19Z</time>
      </trkpt>
      <trkpt lat="47.04099" lon="-1.71095">
        <ele>21.62</ele>
        <time>2020-05-31T16:30:21Z</time>
      </trkpt>
      <trkpt lat="47.04089" lon="-1.71076">
        <ele>21.82</ele>
        <time>2020-05-31T16:30:23Z</time>
      </trkpt>
      <trkpt lat="47.0408" lon="-1.71057">
        <ele>21.62</ele>
        <time>2020-05-31T16:30:25Z</time>
      </trkpt>
      <trkpt lat="47.04072" lon="-1.7104">
        <ele>22.01</ele>
        <time>2020-05-31T16:30:27Z</time>
      </trkpt>
      <trkpt lat="47.04064" lon="-1.71021">
        <ele>21.31</ele>
        <time>2020-05-31T16:30:29Z</time>
      </trkpt>
      <trkpt lat="47.04058" lon="-1.71006">
        <ele>21.46</ele>
        <time>2020-05-31T16:30:31Z</time>
      </trkpt>
      <trkpt lat="47.04051" lon="-1.70989">
        <ele>21.1</ele>
        <time>2020-05-31T16:30:33Z</time>
      </trkpt>
      <trkpt lat="47.04045" lon="-1.70974">
        <ele>21.38</ele>
        <time>2020-05-31T16:30:35Z</time>
      </trkpt>
      <trkpt lat="47.04039" lon="-1.7096">
        <ele>22.11</ele>
        <time>2020-05-31T16:30:37Z</time>
      </trkpt>
      <trkpt lat="47.04032" lon="-1.70945">
        <ele>22.23</ele>
        <time>2020-05-31T16:30:39Z</time>
      </trkpt>
      <trkpt lat="47.04025" lon="-1.70929">
        <ele>21.84</ele>
        <time>2020-05-31T16:30:41Z</time>
      </trkpt>
      <trkpt lat="47.0402" lon="-1.70917">
        <ele>21.43</ele>
        <time>2020-05-31T16:30:43Z</time>
      </trkpt>
      <trkpt lat="47.04013" lon="-1.70901">
        <ele>21.52</ele>
        <time>2020-05-31T16:30:45Z</time>
      </trkpt>
      <trkpt lat="47.04006" lon="-1.70884">
        <ele>21.85</ele>
        <time>2020-05-31T16:30:48Z</time>
      </trkpt>
      <trkpt lat="47.04" lon="-1.70872">
        <ele>22.03</ele>
        <time>2020-05-31T16:30:50Z</time>
      </trkpt>
      <trkpt lat="47.03992" lon="-1.70856">
        <ele>22.08</ele>
        <time>2020-05-31T16:30:53Z</time>
      </trkpt>
      <trkpt lat="47.03986" lon="-1.70843">
        <ele>23.27</ele>
        <time>2020-05-31T16:30:55Z</time>
      </trkpt>
      <trkpt lat="47.0398" lon="-1.7083">
        <ele>23.67</ele>
        <time>2020-05-31T16:30:57Z</time>
      </trkpt>
      <trkpt lat="47.03975" lon="-1.70818">
        <ele>24.13</ele>
        <time>2020-05-31T16:30:59Z</time>
      </trkpt>
      <trkpt lat="47.03969" lon="-1.70806">
        <ele>23.27</ele>
        <time>2020-05-31T16:31:01Z</time>
      </trkpt>
      <trkpt lat="47.03963" lon="-1.70793">
        <ele>22.61</ele>
        <time>2020-05-31T16:31:03Z</time>
      </trkpt>
      <trkpt lat="47.03958" lon="-1.70782">
        <ele>22.26</ele>
        <time>2020-05-31T16:31:05Z</time>
      </trkpt>
      <trkpt lat="47.03952" lon="-1.70769">
        <ele>22.3</ele>
        <time>2020-05-31T16:31:07Z</time>
      </trkpt>
      <trkpt lat="47.03946" lon="-1.70756">
        <ele>22.1</ele>
        <time>2020-05-31T16:31:09Z</time>
      </trkpt>
      <trkpt lat="47.0394" lon="-1.70743">
        <ele>22.1</ele>
        <time>2020-05-31T16:31:11Z</time>
      </trkpt>
      <trkpt lat="47.03934" lon="-1.70729">
        <ele>22.65</ele>
        <time>2020-05-31T16:31:13Z</time>
      </trkpt>
      <trkpt lat="47.03929" lon="-1.70715">
        <ele>23.6</ele>
        <time>2020-05-31T16:31:15Z</time>
      </trkpt>
      <trkpt lat="47.03923" lon="-1.70702">
        <ele>24.78</ele>
        <time>2020-05-31T16:31:17Z</time>
      </trkpt>
      <trkpt lat="47.03917" lon="-1.70687">
        <ele>25.83</ele>
        <time>2020-05-31T16:31:19Z</time>
      </trkpt>
      <trkpt lat="47.03912" lon="-1.70675">
        <ele>26.79</ele>
        <time>2020-05-31T16:31:21Z</time>
      </trkpt>
      <trkpt lat="47.03907" lon="-1.70663">
        <ele>26.27</ele>
        <time>2020-05-31T16:31:23Z</time>
      </trkpt>
      <trkpt lat="47.03901" lon="-1.7065">
        <ele>25.62</ele>
        <time>2020-05-31T16:31:25Z</time>
      </trkpt>
      <trkpt lat="47.03894" lon="-1.70634">
        <ele>26.09</ele>
        <time>2020-05-31T16:31:28Z</time>
      </trkpt>
      <trkpt lat="47.03888" lon="-1.70622">
        <ele>26</ele>
        <time>2020-05-31T16:31:30Z</time>
      </trkpt>
      <trkpt lat="47.03882" lon="-1.70607">
        <ele>24.91</ele>
        <time>2020-05-31T16:31:32Z</time>
      </trkpt>
      <trkpt lat="47.03875" lon="-1.70588">
        <ele>23.93</ele>
        <time>2020-05-31T16:31:35Z</time>
      </trkpt>
      <trkpt lat="47.0387" lon="-1.70567">
        <ele>24.87</ele>
        <time>2020-05-31T16:31:38Z</time>
      </trkpt>
      <trkpt lat="47.03866" lon="-1.70551">
        <ele>26.02</ele>
        <time>2020-05-31T16:31:40Z</time>
      </trkpt>
      <trkpt lat="47.03864" lon="-1.70537">
        <ele>25.61</ele>
        <time>2020-05-31T16:31:42Z</time>
      </trkpt>
      <trkpt lat="47.03863" lon="-1.70523">
        <ele>25.12</ele>
        <time>2020-05-31T16:31:44Z</time>
      </trkpt>
      <trkpt lat="47.03862" lon="-1.70509">
        <ele>25.28</ele>
        <time>2020-05-31T16:31:46Z</time>
      </trkpt>
      <trkpt lat="47.03862" lon="-1.70494">
        <ele>25.88</ele>
        <time>2020-05-31T16:31:48Z</time>
      </trkpt>
      <trkpt lat="47.03862" lon="-1.7048">
        <ele>26.67</ele>
        <time>2020-05-31T16:31:50Z</time>
      </trkpt>
      <trkpt lat="47.03862" lon="-1.70464">
        <ele>28.22</ele>
        <time>2020-05-31T16:31:52Z</time>
      </trkpt>
      <trkpt lat="47.03862" lon="-1.70447">
        <ele>28.43</ele>
        <time>2020-05-31T16:31:54Z</time>
      </trkpt>
      <trkpt lat="47.03862" lon="-1.70426">
        <ele>28.73</ele>
        <time>2020-05-31T16:31:57Z</time>
      </trkpt>
      <trkpt lat="47.03863" lon="-1.70411">
        <ele>28.7</ele>
        <time>2020-05-31T16:31:59Z</time>
      </trkpt>
      <trkpt lat="47.03864" lon="-1.70396">
        <ele>29.19</ele>
        <time>2020-05-31T16:32:01Z</time>
      </trkpt>
      <trkpt lat="47.03864" lon="-1.70378">
        <ele>30.83</ele>
        <time>2020-05-31T16:32:04Z</time>
      </trkpt>
      <trkpt lat="47.03865" lon="-1.70362">
        <ele>31.61</ele>
        <time>2020-05-31T16:32:06Z</time>
      </trkpt>
      <trkpt lat="47.03866" lon="-1.70345">
        <ele>31.09</ele>
        <time>2020-05-31T16:32:08Z</time>
      </trkpt>
      <trkpt lat="47.03867" lon="-1.70328">
        <ele>30.7</ele>
        <time>2020-05-31T16:32:10Z</time>
      </trkpt>
      <trkpt lat="47.03868" lon="-1.70312">
        <ele>30.52</ele>
        <time>2020-05-31T16:32:12Z</time>
      </trkpt>
      <trkpt lat="47.03869" lon="-1.70295">
        <ele>30.14</ele>
        <time>2020-05-31T16:32:14Z</time>
      </trkpt>
      <trkpt lat="47.0387" lon="-1.70279">
        <ele>29.66</ele>
        <time>2020-05-31T16:32:16Z</time>
      </trkpt>
      <trkpt lat="47.03872" lon="-1.70264">
        <ele>29.64</ele>
        <time>2020-05-31T16:32:18Z</time>
      </trkpt>
      <trkpt lat="47.03872" lon="-1.70251">
        <ele>29.75</ele>
        <time>2020-05-31T16:32:20Z</time>
      </trkpt>
      <trkpt lat="47.03873" lon="-1.70233">
        <ele>29.82</ele>
        <time>2020-05-31T16:32:22Z</time>
      </trkpt>
      <trkpt lat="47.03873" lon="-1.70213">
        <ele>29.08</ele>
        <time>2020-05-31T16:32:24Z</time>
      </trkpt>
      <trkpt lat="47.03874" lon="-1.70196">
        <ele>29.22</ele>
        <time>2020-05-31T16:32:26Z</time>
      </trkpt>
      <trkpt lat="47.03876" lon="-1.70178">
        <ele>29.27</ele>
        <time>2020-05-31T16:32:28Z</time>
      </trkpt>
      <trkpt lat="47.03876" lon="-1.70161">
        <ele>28.46</ele>
        <time>2020-05-31T16:32:30Z</time>
      </trkpt>
      <trkpt lat="47.03878" lon="-1.70139">
        <ele>28.47</ele>
        <time>2020-05-31T16:32:32Z</time>
      </trkpt>
      <trkpt lat="47.03878" lon="-1.70117">
        <ele>28.08</ele>
        <time>2020-05-31T16:32:34Z</time>
      </trkpt>
      <trkpt lat="47.03879" lon="-1.701">
        <ele>27.45</ele>
        <time>2020-05-31T16:32:36Z</time>
      </trkpt>
      <trkpt lat="47.0388" lon="-1.70079">
        <ele>26.98</ele>
        <time>2020-05-31T16:32:38Z</time>
      </trkpt>
      <trkpt lat="47.0388" lon="-1.70057">
        <ele>26.32</ele>
        <time>2020-05-31T16:32:40Z</time>
      </trkpt>
      <trkpt lat="47.03878" lon="-1.70035">
        <ele>26.35</ele>
        <time>2020-05-31T16:32:42Z</time>
      </trkpt>
      <trkpt lat="47.03874" lon="-1.70015">
        <ele>26.3</ele>
        <time>2020-05-31T16:32:44Z</time>
      </trkpt>
      <trkpt lat="47.03868" lon="-1.69998">
        <ele>27.59</ele>
        <time>2020-05-31T16:32:46Z</time>
      </trkpt>
      <trkpt lat="47.0386" lon="-1.69981">
        <ele>27.88</ele>
        <time>2020-05-31T16:32:48Z</time>
      </trkpt>
      <trkpt lat="47.03851" lon="-1.69963">
        <ele>27.53</ele>
        <time>2020-05-31T16:32:50Z</time>
      </trkpt>
      <trkpt lat="47.03843" lon="-1.69948">
        <ele>26.83</ele>
        <time>2020-05-31T16:32:52Z</time>
      </trkpt>
      <trkpt lat="47.03835" lon="-1.69931">
        <ele>25.93</ele>
        <time>2020-05-31T16:32:54Z</time>
      </trkpt>
      <trkpt lat="47.03827" lon="-1.69916">
        <ele>25.61</ele>
        <time>2020-05-31T16:32:56Z</time>
      </trkpt>
      <trkpt lat="47.03819" lon="-1.69903">
        <ele>26.32</ele>
        <time>2020-05-31T16:32:58Z</time>
      </trkpt>
      <trkpt lat="47.03812" lon="-1.69888">
        <ele>27.1</ele>
        <time>2020-05-31T16:33:00Z</time>
      </trkpt>
      <trkpt lat="47.03805" lon="-1.69875">
        <ele>28.23</ele>
        <time>2020-05-31T16:33:02Z</time>
      </trkpt>
      <trkpt lat="47.03798" lon="-1.69861">
        <ele>29.82</ele>
        <time>2020-05-31T16:33:04Z</time>
      </trkpt>
      <trkpt lat="47.03791" lon="-1.69848">
        <ele>28.91</ele>
        <time>2020-05-31T16:33:06Z</time>
      </trkpt>
      <trkpt lat="47.03781" lon="-1.69831">
        <ele>27.32</ele>
        <time>2020-05-31T16:33:08Z</time>
      </trkpt>
      <trkpt lat="47.03775" lon="-1.69818">
        <ele>26.49</ele>
        <time>2020-05-31T16:33:10Z</time>
      </trkpt>
      <trkpt lat="47.03768" lon="-1.69805">
        <ele>26.28</ele>
        <time>2020-05-31T16:33:12Z</time>
      </trkpt>
      <trkpt lat="47.03761" lon="-1.6979">
        <ele>26.56</ele>
        <time>2020-05-31T16:33:14Z</time>
      </trkpt>
      <trkpt lat="47.03752" lon="-1.69777">
        <ele>25.87</ele>
        <time>2020-05-31T16:33:16Z</time>
      </trkpt>
      <trkpt lat="47.03745" lon="-1.69763">
        <ele>26.15</ele>
        <time>2020-05-31T16:33:18Z</time>
      </trkpt>
      <trkpt lat="47.03737" lon="-1.6975">
        <ele>26.62</ele>
        <time>2020-05-31T16:33:20Z</time>
      </trkpt>
      <trkpt lat="47.03729" lon="-1.69735">
        <ele>26.88</ele>
        <time>2020-05-31T16:33:22Z</time>
      </trkpt>
      <trkpt lat="47.0372" lon="-1.69719">
        <ele>27.75</ele>
        <time>2020-05-31T16:33:24Z</time>
      </trkpt>
      <trkpt lat="47.03713" lon="-1.69706">
        <ele>28.45</ele>
        <time>2020-05-31T16:33:26Z</time>
      </trkpt>
      <trkpt lat="47.03706" lon="-1.69693">
        <ele>28.56</ele>
        <time>2020-05-31T16:33:28Z</time>
      </trkpt>
      <trkpt lat="47.03698" lon="-1.69678">
        <ele>27.61</ele>
        <time>2020-05-31T16:33:30Z</time>
      </trkpt>
      <trkpt lat="47.03692" lon="-1.69665">
        <ele>26.65</ele>
        <time>2020-05-31T16:33:32Z</time>
      </trkpt>
      <trkpt lat="47.03686" lon="-1.69653">
        <ele>26.76</ele>
        <time>2020-05-31T16:33:34Z</time>
      </trkpt>
      <trkpt lat="47.03679" lon="-1.69639">
        <ele>27.06</ele>
        <time>2020-05-31T16:33:36Z</time>
      </trkpt>
      <trkpt lat="47.03671" lon="-1.69624">
        <ele>27.53</ele>
        <time>2020-05-31T16:33:38Z</time>
      </trkpt>
      <trkpt lat="47.03663" lon="-1.69608">
        <ele>28.26</ele>
        <time>2020-05-31T16:33:40Z</time>
      </trkpt>
      <trkpt lat="47.03656" lon="-1.69591">
        <ele>28.58</ele>
        <time>2020-05-31T16:33:42Z</time>
      </trkpt>
      <trkpt lat="47.0365" lon="-1.69575">
        <ele>28.58</ele>
        <time>2020-05-31T16:33:44Z</time>
      </trkpt>
      <trkpt lat="47.03644" lon="-1.69557">
        <ele>28.6</ele>
        <time>2020-05-31T16:33:46Z</time>
      </trkpt>
      <trkpt lat="47.03639" lon="-1.69542">
        <ele>28.44</ele>
        <time>2020-05-31T16:33:48Z</time>
      </trkpt>
      <trkpt lat="47.03635" lon="-1.69523">
        <ele>28.6</ele>
        <time>2020-05-31T16:33:50Z</time>
      </trkpt>
      <trkpt lat="47.03631" lon="-1.69504">
        <ele>28.61</ele>
        <time>2020-05-31T16:33:52Z</time>
      </trkpt>
      <trkpt lat="47.03628" lon="-1.69485">
        <ele>28.54</ele>
        <time>2020-05-31T16:33:54Z</time>
      </trkpt>
      <trkpt lat="47.03626" lon="-1.69467">
        <ele>29.58</ele>
        <time>2020-05-31T16:33:56Z</time>
      </trkpt>
      <trkpt lat="47.03624" lon="-1.6945">
        <ele>30.43</ele>
        <time>2020-05-31T16:33:58Z</time>
      </trkpt>
      <trkpt lat="47.03621" lon="-1.69435">
        <ele>29.82</ele>
        <time>2020-05-31T16:34:00Z</time>
      </trkpt>
      <trkpt lat="47.03619" lon="-1.69419">
        <ele>29.43</ele>
        <time>2020-05-31T16:34:02Z</time>
      </trkpt>
      <trkpt lat="47.03616" lon="-1.69402">
        <ele>28.98</ele>
        <time>2020-05-31T16:34:04Z</time>
      </trkpt>
      <trkpt lat="47.03613" lon="-1.69384">
        <ele>28.75</ele>
        <time>2020-05-31T16:34:06Z</time>
      </trkpt>
      <trkpt lat="47.03611" lon="-1.69368">
        <ele>28.38</ele>
        <time>2020-05-31T16:34:08Z</time>
      </trkpt>
      <trkpt lat="47.03608" lon="-1.69349">
        <ele>28.3</ele>
        <time>2020-05-31T16:34:10Z</time>
      </trkpt>
      <trkpt lat="47.03605" lon="-1.69332">
        <ele>28.59</ele>
        <time>2020-05-31T16:34:12Z</time>
      </trkpt>
      <trkpt lat="47.03602" lon="-1.69316">
        <ele>29.25</ele>
        <time>2020-05-31T16:34:14Z</time>
      </trkpt>
      <trkpt lat="47.03599" lon="-1.69298">
        <ele>30.01</ele>
        <time>2020-05-31T16:34:16Z</time>
      </trkpt>
      <trkpt lat="47.03597" lon="-1.69282">
        <ele>30.4</ele>
        <time>2020-05-31T16:34:18Z</time>
      </trkpt>
      <trkpt lat="47.03594" lon="-1.69266">
        <ele>30.6</ele>
        <time>2020-05-31T16:34:20Z</time>
      </trkpt>
      <trkpt lat="47.03591" lon="-1.69248">
        <ele>30.32</ele>
        <time>2020-05-31T16:34:22Z</time>
      </trkpt>
      <trkpt lat="47.03587" lon="-1.69231">
        <ele>29.32</ele>
        <time>2020-05-31T16:34:24Z</time>
      </trkpt>
      <trkpt lat="47.03584" lon="-1.69215">
        <ele>29.28</ele>
        <time>2020-05-31T16:34:26Z</time>
      </trkpt>
      <trkpt lat="47.03581" lon="-1.69197">
        <ele>29.87</ele>
        <time>2020-05-31T16:34:28Z</time>
      </trkpt>
      <trkpt lat="47.03578" lon="-1.69181">
        <ele>29.87</ele>
        <time>2020-05-31T16:34:30Z</time>
      </trkpt>
      <trkpt lat="47.03575" lon="-1.69165">
        <ele>29.75</ele>
        <time>2020-05-31T16:34:32Z</time>
      </trkpt>
      <trkpt lat="47.03572" lon="-1.69147">
        <ele>30.17</ele>
        <time>2020-05-31T16:34:34Z</time>
      </trkpt>
      <trkpt lat="47.03569" lon="-1.69131">
        <ele>30.36</ele>
        <time>2020-05-31T16:34:36Z</time>
      </trkpt>
      <trkpt lat="47.03566" lon="-1.69116">
        <ele>30.52</ele>
        <time>2020-05-31T16:34:38Z</time>
      </trkpt>
      <trkpt lat="47.03563" lon="-1.69096">
        <ele>30.6</ele>
        <time>2020-05-31T16:34:40Z</time>
      </trkpt>
      <trkpt lat="47.0356" lon="-1.69082">
        <ele>30.8</ele>
        <time>2020-05-31T16:34:42Z</time>
      </trkpt>
      <trkpt lat="47.03557" lon="-1.69063">
        <ele>30.29</ele>
        <time>2020-05-31T16:34:44Z</time>
      </trkpt>
      <trkpt lat="47.03553" lon="-1.69047">
        <ele>29.35</ele>
        <time>2020-05-31T16:34:46Z</time>
      </trkpt>
      <trkpt lat="47.03551" lon="-1.6903">
        <ele>29.55</ele>
        <time>2020-05-31T16:34:48Z</time>
      </trkpt>
      <trkpt lat="47.03549" lon="-1.69015">
        <ele>28.93</ele>
        <time>2020-05-31T16:34:50Z</time>
      </trkpt>
      <trkpt lat="47.03548" lon="-1.69">
        <ele>28.84</ele>
        <time>2020-05-31T16:34:52Z</time>
      </trkpt>
      <trkpt lat="47.03547" lon="-1.68981">
        <ele>29.46</ele>
        <time>2020-05-31T16:34:54Z</time>
      </trkpt>
      <trkpt lat="47.03548" lon="-1.68962">
        <ele>30.16</ele>
        <time>2020-05-31T16:34:56Z</time>
      </trkpt>
      <trkpt lat="47.03547" lon="-1.68944">
        <ele>31.04</ele>
        <time>2020-05-31T16:34:58Z</time>
      </trkpt>
      <trkpt lat="47.03546" lon="-1.68924">
        <ele>31.1</ele>
        <time>2020-05-31T16:35:00Z</time>
      </trkpt>
      <trkpt lat="47.03545" lon="-1.68904">
        <ele>30.94</ele>
        <time>2020-05-31T16:35:02Z</time>
      </trkpt>
      <trkpt lat="47.03545" lon="-1.68886">
        <ele>30.52</ele>
        <time>2020-05-31T16:35:04Z</time>
      </trkpt>
      <trkpt lat="47.03544" lon="-1.68868">
        <ele>30.66</ele>
        <time>2020-05-31T16:35:06Z</time>
      </trkpt>
      <trkpt lat="47.03543" lon="-1.68846">
        <ele>29.46</ele>
        <time>2020-05-31T16:35:08Z</time>
      </trkpt>
      <trkpt lat="47.03542" lon="-1.68824">
        <ele>28.2</ele>
        <time>2020-05-31T16:35:10Z</time>
      </trkpt>
      <trkpt lat="47.03541" lon="-1.68801">
        <ele>27.86</ele>
        <time>2020-05-31T16:35:12Z</time>
      </trkpt>
      <trkpt lat="47.0354" lon="-1.68783">
        <ele>28.3</ele>
        <time>2020-05-31T16:35:14Z</time>
      </trkpt>
      <trkpt lat="47.0354" lon="-1.68766">
        <ele>29.58</ele>
        <time>2020-05-31T16:35:16Z</time>
      </trkpt>
      <trkpt lat="47.03539" lon="-1.68749">
        <ele>29.58</ele>
        <time>2020-05-31T16:35:18Z</time>
      </trkpt>
      <trkpt lat="47.03538" lon="-1.68731">
        <ele>29.09</ele>
        <time>2020-05-31T16:35:20Z</time>
      </trkpt>
      <trkpt lat="47.03537" lon="-1.68714">
        <ele>28.61</ele>
        <time>2020-05-31T16:35:22Z</time>
      </trkpt>
      <trkpt lat="47.03536" lon="-1.68695">
        <ele>28.79</ele>
        <time>2020-05-31T16:35:24Z</time>
      </trkpt>
      <trkpt lat="47.03536" lon="-1.68679">
        <ele>28.38</ele>
        <time>2020-05-31T16:35:26Z</time>
      </trkpt>
      <trkpt lat="47.03534" lon="-1.6866">
        <ele>26.3</ele>
        <time>2020-05-31T16:35:28Z</time>
      </trkpt>
      <trkpt lat="47.03533" lon="-1.68643">
        <ele>26.52</ele>
        <time>2020-05-31T16:35:30Z</time>
      </trkpt>
      <trkpt lat="47.03532" lon="-1.68625">
        <ele>27.28</ele>
        <time>2020-05-31T16:35:32Z</time>
      </trkpt>
      <trkpt lat="47.03531" lon="-1.68609">
        <ele>26.62</ele>
        <time>2020-05-31T16:35:34Z</time>
      </trkpt>
      <trkpt lat="47.0353" lon="-1.68591">
        <ele>25.36</ele>
        <time>2020-05-31T16:35:36Z</time>
      </trkpt>
      <trkpt lat="47.03529" lon="-1.68574">
        <ele>25.07</ele>
        <time>2020-05-31T16:35:38Z</time>
      </trkpt>
      <trkpt lat="47.03529" lon="-1.68555">
        <ele>27.38</ele>
        <time>2020-05-31T16:35:41Z</time>
      </trkpt>
      <trkpt lat="47.03528" lon="-1.6854">
        <ele>29.07</ele>
        <time>2020-05-31T16:35:43Z</time>
      </trkpt>
      <trkpt lat="47.03528" lon="-1.68524">
        <ele>29.35</ele>
        <time>2020-05-31T16:35:45Z</time>
      </trkpt>
      <trkpt lat="47.03527" lon="-1.6851">
        <ele>29.3</ele>
        <time>2020-05-31T16:35:47Z</time>
      </trkpt>
      <trkpt lat="47.03526" lon="-1.68494">
        <ele>28.19</ele>
        <time>2020-05-31T16:35:49Z</time>
      </trkpt>
      <trkpt lat="47.03526" lon="-1.68478">
        <ele>26.61</ele>
        <time>2020-05-31T16:35:51Z</time>
      </trkpt>
      <trkpt lat="47.03525" lon="-1.68463">
        <ele>26.34</ele>
        <time>2020-05-31T16:35:53Z</time>
      </trkpt>
      <trkpt lat="47.03524" lon="-1.68446">
        <ele>26.12</ele>
        <time>2020-05-31T16:35:55Z</time>
      </trkpt>
      <trkpt lat="47.03523" lon="-1.68428">
        <ele>27.16</ele>
        <time>2020-05-31T16:35:58Z</time>
      </trkpt>
      <trkpt lat="47.03522" lon="-1.68412">
        <ele>27.97</ele>
        <time>2020-05-31T16:36:00Z</time>
      </trkpt>
      <trkpt lat="47.03522" lon="-1.68398">
        <ele>27.58</ele>
        <time>2020-05-31T16:36:02Z</time>
      </trkpt>
      <trkpt lat="47.03521" lon="-1.68384">
        <ele>27.67</ele>
        <time>2020-05-31T16:36:04Z</time>
      </trkpt>
      <trkpt lat="47.0352" lon="-1.68366">
        <ele>27.21</ele>
        <time>2020-05-31T16:36:06Z</time>
      </trkpt>
      <trkpt lat="47.0352" lon="-1.68351">
        <ele>27.54</ele>
        <time>2020-05-31T16:36:08Z</time>
      </trkpt>
      <trkpt lat="47.03519" lon="-1.68337">
        <ele>27.59</ele>
        <time>2020-05-31T16:36:10Z</time>
      </trkpt>
      <trkpt lat="47.03518" lon="-1.68321">
        <ele>27.09</ele>
        <time>2020-05-31T16:36:12Z</time>
      </trkpt>
      <trkpt lat="47.03518" lon="-1.68303">
        <ele>26.77</ele>
        <time>2020-05-31T16:36:14Z</time>
      </trkpt>
      <trkpt lat="47.03517" lon="-1.68288">
        <ele>27.3</ele>
        <time>2020-05-31T16:36:16Z</time>
      </trkpt>
      <trkpt lat="47.03517" lon="-1.68271">
        <ele>27.04</ele>
        <time>2020-05-31T16:36:18Z</time>
      </trkpt>
      <trkpt lat="47.03518" lon="-1.68255">
        <ele>26.97</ele>
        <time>2020-05-31T16:36:20Z</time>
      </trkpt>
      <trkpt lat="47.03518" lon="-1.68239">
        <ele>28.03</ele>
        <time>2020-05-31T16:36:22Z</time>
      </trkpt>
      <trkpt lat="47.03518" lon="-1.68221">
        <ele>27.49</ele>
        <time>2020-05-31T16:36:24Z</time>
      </trkpt>
      <trkpt lat="47.03518" lon="-1.68202">
        <ele>26.42</ele>
        <time>2020-05-31T16:36:26Z</time>
      </trkpt>
      <trkpt lat="47.03518" lon="-1.68182">
        <ele>25.65</ele>
        <time>2020-05-31T16:36:28Z</time>
      </trkpt>
      <trkpt lat="47.03517" lon="-1.68162">
        <ele>24.06</ele>
        <time>2020-05-31T16:36:30Z</time>
      </trkpt>
      <trkpt lat="47.03517" lon="-1.68141">
        <ele>23.7</ele>
        <time>2020-05-31T16:36:32Z</time>
      </trkpt>
      <trkpt lat="47.03518" lon="-1.6812">
        <ele>24.51</ele>
        <time>2020-05-31T16:36:34Z</time>
      </trkpt>
      <trkpt lat="47.03518" lon="-1.68098">
        <ele>24.15</ele>
        <time>2020-05-31T16:36:36Z</time>
      </trkpt>
      <trkpt lat="47.03519" lon="-1.68076">
        <ele>23.53</ele>
        <time>2020-05-31T16:36:38Z</time>
      </trkpt>
      <trkpt lat="47.03519" lon="-1.68054">
        <ele>24.25</ele>
        <time>2020-05-31T16:36:40Z</time>
      </trkpt>
      <trkpt lat="47.03519" lon="-1.68036">
        <ele>24.29</ele>
        <time>2020-05-31T16:36:42Z</time>
      </trkpt>
      <trkpt lat="47.03518" lon="-1.6802">
        <ele>23.07</ele>
        <time>2020-05-31T16:36:44Z</time>
      </trkpt>
      <trkpt lat="47.03517" lon="-1.68">
        <ele>22.54</ele>
        <time>2020-05-31T16:36:46Z</time>
      </trkpt>
      <trkpt lat="47.03517" lon="-1.67982">
        <ele>21.89</ele>
        <time>2020-05-31T16:36:48Z</time>
      </trkpt>
      <trkpt lat="47.03517" lon="-1.67968">
        <ele>21.41</ele>
        <time>2020-05-31T16:36:50Z</time>
      </trkpt>
      <trkpt lat="47.03517" lon="-1.67949">
        <ele>21.51</ele>
        <time>2020-05-31T16:36:52Z</time>
      </trkpt>
      <trkpt lat="47.03517" lon="-1.67935">
        <ele>21.38</ele>
        <time>2020-05-31T16:36:54Z</time>
      </trkpt>
      <trkpt lat="47.03517" lon="-1.67919">
        <ele>21.52</ele>
        <time>2020-05-31T16:36:56Z</time>
      </trkpt>
      <trkpt lat="47.03517" lon="-1.67901">
        <ele>21.2</ele>
        <time>2020-05-31T16:36:58Z</time>
      </trkpt>
      <trkpt lat="47.03516" lon="-1.67883">
        <ele>21.37</ele>
        <time>2020-05-31T16:37:00Z</time>
      </trkpt>
      <trkpt lat="47.03517" lon="-1.67865">
        <ele>21.47</ele>
        <time>2020-05-31T16:37:02Z</time>
      </trkpt>
      <trkpt lat="47.03517" lon="-1.67847">
        <ele>21.06</ele>
        <time>2020-05-31T16:37:04Z</time>
      </trkpt>
      <trkpt lat="47.03517" lon="-1.67832">
        <ele>21.09</ele>
        <time>2020-05-31T16:37:06Z</time>
      </trkpt>
      <trkpt lat="47.03517" lon="-1.67813">
        <ele>21.17</ele>
        <time>2020-05-31T16:37:08Z</time>
      </trkpt>
      <trkpt lat="47.03517" lon="-1.67796">
        <ele>21.31</ele>
        <time>2020-05-31T16:37:10Z</time>
      </trkpt>
      <trkpt lat="47.03517" lon="-1.67778">
        <ele>21.67</ele>
        <time>2020-05-31T16:37:12Z</time>
      </trkpt>
      <trkpt lat="47.03517" lon="-1.67759">
        <ele>20.72</ele>
        <time>2020-05-31T16:37:14Z</time>
      </trkpt>
      <trkpt lat="47.03517" lon="-1.67743">
        <ele>20.87</ele>
        <time>2020-05-31T16:37:16Z</time>
      </trkpt>
      <trkpt lat="47.03517" lon="-1.67724">
        <ele>21.45</ele>
        <time>2020-05-31T16:37:18Z</time>
      </trkpt>
      <trkpt lat="47.03516" lon="-1.67709">
        <ele>21.83</ele>
        <time>2020-05-31T16:37:20Z</time>
      </trkpt>
      <trkpt lat="47.03516" lon="-1.67692">
        <ele>20.93</ele>
        <time>2020-05-31T16:37:22Z</time>
      </trkpt>
      <trkpt lat="47.03516" lon="-1.67675">
        <ele>20.7</ele>
        <time>2020-05-31T16:37:24Z</time>
      </trkpt>
      <trkpt lat="47.03516" lon="-1.67655">
        <ele>20.59</ele>
        <time>2020-05-31T16:37:26Z</time>
      </trkpt>
      <trkpt lat="47.03517" lon="-1.67638">
        <ele>21.17</ele>
        <time>2020-05-31T16:37:28Z</time>
      </trkpt>
      <trkpt lat="47.03517" lon="-1.67619">
        <ele>21.56</ele>
        <time>2020-05-31T16:37:30Z</time>
      </trkpt>
      <trkpt lat="47.03516" lon="-1.676">
        <ele>21.51</ele>
        <time>2020-05-31T16:37:32Z</time>
      </trkpt>
      <trkpt lat="47.03516" lon="-1.67579">
        <ele>21.4</ele>
        <time>2020-05-31T16:37:34Z</time>
      </trkpt>
      <trkpt lat="47.03517" lon="-1.67558">
        <ele>20.31</ele>
        <time>2020-05-31T16:37:36Z</time>
      </trkpt>
      <trkpt lat="47.03517" lon="-1.67539">
        <ele>19.74</ele>
        <time>2020-05-31T16:37:38Z</time>
      </trkpt>
      <trkpt lat="47.03516" lon="-1.6752">
        <ele>18.71</ele>
        <time>2020-05-31T16:37:40Z</time>
      </trkpt>
      <trkpt lat="47.03516" lon="-1.67499">
        <ele>17.79</ele>
        <time>2020-05-31T16:37:42Z</time>
      </trkpt>
      <trkpt lat="47.03515" lon="-1.67478">
        <ele>16.6</ele>
        <time>2020-05-31T16:37:44Z</time>
      </trkpt>
      <trkpt lat="47.03515" lon="-1.67455">
        <ele>14.96</ele>
        <time>2020-05-31T16:37:46Z</time>
      </trkpt>
      <trkpt lat="47.03515" lon="-1.67433">
        <ele>14.25</ele>
        <time>2020-05-31T16:37:48Z</time>
      </trkpt>
      <trkpt lat="47.03515" lon="-1.67411">
        <ele>14.22</ele>
        <time>2020-05-31T16:37:50Z</time>
      </trkpt>
      <trkpt lat="47.03515" lon="-1.67393">
        <ele>13.38</ele>
        <time>2020-05-31T16:37:52Z</time>
      </trkpt>
      <trkpt lat="47.03514" lon="-1.67371">
        <ele>13.73</ele>
        <time>2020-05-31T16:37:54Z</time>
      </trkpt>
      <trkpt lat="47.03514" lon="-1.6735">
        <ele>13.86</ele>
        <time>2020-05-31T16:37:56Z</time>
      </trkpt>
      <trkpt lat="47.03514" lon="-1.6733">
        <ele>13.21</ele>
        <time>2020-05-31T16:37:58Z</time>
      </trkpt>
      <trkpt lat="47.03513" lon="-1.67311">
        <ele>12.97</ele>
        <time>2020-05-31T16:38:00Z</time>
      </trkpt>
      <trkpt lat="47.03513" lon="-1.67295">
        <ele>13.26</ele>
        <time>2020-05-31T16:38:02Z</time>
      </trkpt>
      <trkpt lat="47.03513" lon="-1.67278">
        <ele>13.73</ele>
        <time>2020-05-31T16:38:04Z</time>
      </trkpt>
      <trkpt lat="47.03513" lon="-1.67261">
        <ele>14.11</ele>
        <time>2020-05-31T16:38:06Z</time>
      </trkpt>
      <trkpt lat="47.03514" lon="-1.67244">
        <ele>14.33</ele>
        <time>2020-05-31T16:38:08Z</time>
      </trkpt>
      <trkpt lat="47.03513" lon="-1.67227">
        <ele>14.97</ele>
        <time>2020-05-31T16:38:10Z</time>
      </trkpt>
      <trkpt lat="47.03513" lon="-1.6721">
        <ele>15.2</ele>
        <time>2020-05-31T16:38:12Z</time>
      </trkpt>
      <trkpt lat="47.03513" lon="-1.67194">
        <ele>15.23</ele>
        <time>2020-05-31T16:38:14Z</time>
      </trkpt>
      <trkpt lat="47.03511" lon="-1.67178">
        <ele>15.93</ele>
        <time>2020-05-31T16:38:16Z</time>
      </trkpt>
      <trkpt lat="47.0351" lon="-1.67161">
        <ele>16.45</ele>
        <time>2020-05-31T16:38:18Z</time>
      </trkpt>
      <trkpt lat="47.03508" lon="-1.67147">
        <ele>16.39</ele>
        <time>2020-05-31T16:38:20Z</time>
      </trkpt>
      <trkpt lat="47.03506" lon="-1.67131">
        <ele>15.65</ele>
        <time>2020-05-31T16:38:22Z</time>
      </trkpt>
      <trkpt lat="47.03504" lon="-1.67118">
        <ele>15.83</ele>
        <time>2020-05-31T16:38:24Z</time>
      </trkpt>
      <trkpt lat="47.03501" lon="-1.67103">
        <ele>14.77</ele>
        <time>2020-05-31T16:38:26Z</time>
      </trkpt>
      <trkpt lat="47.03498" lon="-1.67086">
        <ele>14.14</ele>
        <time>2020-05-31T16:38:28Z</time>
      </trkpt>
      <trkpt lat="47.03496" lon="-1.67074">
        <ele>14.76</ele>
        <time>2020-05-31T16:38:30Z</time>
      </trkpt>
      <trkpt lat="47.03493" lon="-1.6706">
        <ele>15.57</ele>
        <time>2020-05-31T16:38:32Z</time>
      </trkpt>
      <trkpt lat="47.0349" lon="-1.67041">
        <ele>16.68</ele>
        <time>2020-05-31T16:38:35Z</time>
      </trkpt>
      <trkpt lat="47.03488" lon="-1.67027">
        <ele>16.65</ele>
        <time>2020-05-31T16:38:37Z</time>
      </trkpt>
      <trkpt lat="47.03485" lon="-1.6701">
        <ele>16.09</ele>
        <time>2020-05-31T16:38:39Z</time>
      </trkpt>
      <trkpt lat="47.03482" lon="-1.66989">
        <ele>15.28</ele>
        <time>2020-05-31T16:38:43Z</time>
      </trkpt>
      <trkpt lat="47.03481" lon="-1.66974">
        <ele>14.65</ele>
        <time>2020-05-31T16:38:44Z</time>
      </trkpt>
      <trkpt lat="47.03479" lon="-1.6696">
        <ele>14.4</ele>
        <time>2020-05-31T16:38:47Z</time>
      </trkpt>
      <trkpt lat="47.03479" lon="-1.66942">
        <ele>13.62</ele>
        <time>2020-05-31T16:38:49Z</time>
      </trkpt>
      <trkpt lat="47.0348" lon="-1.66926">
        <ele>14.34</ele>
        <time>2020-05-31T16:38:51Z</time>
      </trkpt>
      <trkpt lat="47.03481" lon="-1.66909">
        <ele>14.6</ele>
        <time>2020-05-31T16:38:53Z</time>
      </trkpt>
      <trkpt lat="47.03481" lon="-1.66893">
        <ele>15.14</ele>
        <time>2020-05-31T16:38:55Z</time>
      </trkpt>
      <trkpt lat="47.03482" lon="-1.66876">
        <ele>15.65</ele>
        <time>2020-05-31T16:38:57Z</time>
      </trkpt>
      <trkpt lat="47.03484" lon="-1.6686">
        <ele>15.69</ele>
        <time>2020-05-31T16:38:59Z</time>
      </trkpt>
      <trkpt lat="47.03485" lon="-1.66843">
        <ele>14.97</ele>
        <time>2020-05-31T16:39:01Z</time>
      </trkpt>
      <trkpt lat="47.03486" lon="-1.66828">
        <ele>14.37</ele>
        <time>2020-05-31T16:39:03Z</time>
      </trkpt>
      <trkpt lat="47.03487" lon="-1.66804">
        <ele>13.92</ele>
        <time>2020-05-31T16:39:05Z</time>
      </trkpt>
      <trkpt lat="47.03487" lon="-1.66788">
        <ele>13.18</ele>
        <time>2020-05-31T16:39:07Z</time>
      </trkpt>
      <trkpt lat="47.03489" lon="-1.66771">
        <ele>12.44</ele>
        <time>2020-05-31T16:39:09Z</time>
      </trkpt>
      <trkpt lat="47.0349" lon="-1.66751">
        <ele>11.31</ele>
        <time>2020-05-31T16:39:11Z</time>
      </trkpt>
      <trkpt lat="47.03491" lon="-1.66735">
        <ele>10.59</ele>
        <time>2020-05-31T16:39:13Z</time>
      </trkpt>
      <trkpt lat="47.03491" lon="-1.66717">
        <ele>10.05</ele>
        <time>2020-05-31T16:39:15Z</time>
      </trkpt>
      <trkpt lat="47.03492" lon="-1.667">
        <ele>9.88</ele>
        <time>2020-05-31T16:39:17Z</time>
      </trkpt>
      <trkpt lat="47.03492" lon="-1.66681">
        <ele>9.64</ele>
        <time>2020-05-31T16:39:19Z</time>
      </trkpt>
      <trkpt lat="47.03492" lon="-1.66664">
        <ele>9.91</ele>
        <time>2020-05-31T16:39:21Z</time>
      </trkpt>
      <trkpt lat="47.0349" lon="-1.66647">
        <ele>9.92</ele>
        <time>2020-05-31T16:39:23Z</time>
      </trkpt>
      <trkpt lat="47.03489" lon="-1.6663">
        <ele>10.27</ele>
        <time>2020-05-31T16:39:25Z</time>
      </trkpt>
      <trkpt lat="47.03488" lon="-1.66613">
        <ele>10.7</ele>
        <time>2020-05-31T16:39:27Z</time>
      </trkpt>
      <trkpt lat="47.03487" lon="-1.66599">
        <ele>11.53</ele>
        <time>2020-05-31T16:39:29Z</time>
      </trkpt>
      <trkpt lat="47.03486" lon="-1.66584">
        <ele>11.64</ele>
        <time>2020-05-31T16:39:31Z</time>
      </trkpt>
      <trkpt lat="47.03485" lon="-1.66569">
        <ele>12.31</ele>
        <time>2020-05-31T16:39:33Z</time>
      </trkpt>
      <trkpt lat="47.03484" lon="-1.66553">
        <ele>12.49</ele>
        <time>2020-05-31T16:39:35Z</time>
      </trkpt>
      <trkpt lat="47.03483" lon="-1.66537">
        <ele>13.38</ele>
        <time>2020-05-31T16:39:37Z</time>
      </trkpt>
      <trkpt lat="47.03482" lon="-1.66521">
        <ele>13.76</ele>
        <time>2020-05-31T16:39:39Z</time>
      </trkpt>
      <trkpt lat="47.03482" lon="-1.66505">
        <ele>14.17</ele>
        <time>2020-05-31T16:39:41Z</time>
      </trkpt>
      <trkpt lat="47.03481" lon="-1.66491">
        <ele>14.58</ele>
        <time>2020-05-31T16:39:43Z</time>
      </trkpt>
      <trkpt lat="47.0348" lon="-1.66473">
        <ele>15.29</ele>
        <time>2020-05-31T16:39:45Z</time>
      </trkpt>
      <trkpt lat="47.03478" lon="-1.66458">
        <ele>15.17</ele>
        <time>2020-05-31T16:39:47Z</time>
      </trkpt>
      <trkpt lat="47.03477" lon="-1.66441">
        <ele>14.89</ele>
        <time>2020-05-31T16:39:49Z</time>
      </trkpt>
      <trkpt lat="47.03477" lon="-1.66428">
        <ele>15.49</ele>
        <time>2020-05-31T16:39:51Z</time>
      </trkpt>
      <trkpt lat="47.03475" lon="-1.6641">
        <ele>16.1</ele>
        <time>2020-05-31T16:39:53Z</time>
      </trkpt>
      <trkpt lat="47.03475" lon="-1.66395">
        <ele>16.42</ele>
        <time>2020-05-31T16:39:55Z</time>
      </trkpt>
      <trkpt lat="47.03474" lon="-1.66379">
        <ele>16.96</ele>
        <time>2020-05-31T16:39:57Z</time>
      </trkpt>
      <trkpt lat="47.03473" lon="-1.66363">
        <ele>17.63</ele>
        <time>2020-05-31T16:39:59Z</time>
      </trkpt>
      <trkpt lat="47.03471" lon="-1.66347">
        <ele>18</ele>
        <time>2020-05-31T16:40:01Z</time>
      </trkpt>
      <trkpt lat="47.0347" lon="-1.66329">
        <ele>18.23</ele>
        <time>2020-05-31T16:40:03Z</time>
      </trkpt>
      <trkpt lat="47.0347" lon="-1.66315">
        <ele>17.51</ele>
        <time>2020-05-31T16:40:05Z</time>
      </trkpt>
      <trkpt lat="47.03469" lon="-1.66295">
        <ele>16.66</ele>
        <time>2020-05-31T16:40:07Z</time>
      </trkpt>
      <trkpt lat="47.03467" lon="-1.6628">
        <ele>15.96</ele>
        <time>2020-05-31T16:40:09Z</time>
      </trkpt>
      <trkpt lat="47.03466" lon="-1.66262">
        <ele>16.01</ele>
        <time>2020-05-31T16:40:11Z</time>
      </trkpt>
      <trkpt lat="47.03465" lon="-1.66244">
        <ele>15.5</ele>
        <time>2020-05-31T16:40:13Z</time>
      </trkpt>
      <trkpt lat="47.03464" lon="-1.66228">
        <ele>13.97</ele>
        <time>2020-05-31T16:40:15Z</time>
      </trkpt>
      <trkpt lat="47.03463" lon="-1.66209">
        <ele>13.3</ele>
        <time>2020-05-31T16:40:17Z</time>
      </trkpt>
      <trkpt lat="47.03463" lon="-1.6619">
        <ele>14.52</ele>
        <time>2020-05-31T16:40:19Z</time>
      </trkpt>
      <trkpt lat="47.03462" lon="-1.66174">
        <ele>15.11</ele>
        <time>2020-05-31T16:40:21Z</time>
      </trkpt>
      <trkpt lat="47.03461" lon="-1.66157">
        <ele>15.63</ele>
        <time>2020-05-31T16:40:23Z</time>
      </trkpt>
      <trkpt lat="47.0346" lon="-1.66141">
        <ele>15.83</ele>
        <time>2020-05-31T16:40:25Z</time>
      </trkpt>
      <trkpt lat="47.03457" lon="-1.66122">
        <ele>14.83</ele>
        <time>2020-05-31T16:40:27Z</time>
      </trkpt>
      <trkpt lat="47.0345" lon="-1.66107">
        <ele>13.98</ele>
        <time>2020-05-31T16:40:29Z</time>
      </trkpt>
      <trkpt lat="47.0344" lon="-1.66094">
        <ele>13.9</ele>
        <time>2020-05-31T16:40:31Z</time>
      </trkpt>
      <trkpt lat="47.03428" lon="-1.6609">
        <ele>13.97</ele>
        <time>2020-05-31T16:40:33Z</time>
      </trkpt>
      <trkpt lat="47.03417" lon="-1.66095">
        <ele>13.91</ele>
        <time>2020-05-31T16:40:35Z</time>
      </trkpt>
      <trkpt lat="47.03405" lon="-1.661">
        <ele>13.68</ele>
        <time>2020-05-31T16:40:37Z</time>
      </trkpt>
      <trkpt lat="47.03395" lon="-1.66098">
        <ele>13.42</ele>
        <time>2020-05-31T16:40:39Z</time>
      </trkpt>
      <trkpt lat="47.03387" lon="-1.66088">
        <ele>12.86</ele>
        <time>2020-05-31T16:40:41Z</time>
      </trkpt>
      <trkpt lat="47.03382" lon="-1.66071">
        <ele>12.57</ele>
        <time>2020-05-31T16:40:43Z</time>
      </trkpt>
      <trkpt lat="47.03382" lon="-1.66057">
        <ele>12.36</ele>
        <time>2020-05-31T16:40:45Z</time>
      </trkpt>
      <trkpt lat="47.03386" lon="-1.66043">
        <ele>12.8</ele>
        <time>2020-05-31T16:40:47Z</time>
      </trkpt>
      <trkpt lat="47.03391" lon="-1.66031">
        <ele>13.39</ele>
        <time>2020-05-31T16:40:49Z</time>
      </trkpt>
      <trkpt lat="47.03397" lon="-1.66017">
        <ele>13.97</ele>
        <time>2020-05-31T16:40:51Z</time>
      </trkpt>
      <trkpt lat="47.03398" lon="-1.66002">
        <ele>13.74</ele>
        <time>2020-05-31T16:40:53Z</time>
      </trkpt>
      <trkpt lat="47.03398" lon="-1.65987">
        <ele>13.75</ele>
        <time>2020-05-31T16:40:55Z</time>
      </trkpt>
      <trkpt lat="47.03398" lon="-1.65972">
        <ele>13.4</ele>
        <time>2020-05-31T16:40:57Z</time>
      </trkpt>
      <trkpt lat="47.03397" lon="-1.65959">
        <ele>13.68</ele>
        <time>2020-05-31T16:40:59Z</time>
      </trkpt>
      <trkpt lat="47.03396" lon="-1.65944">
        <ele>15.09</ele>
        <time>2020-05-31T16:41:01Z</time>
      </trkpt>
      <trkpt lat="47.03395" lon="-1.65929">
        <ele>15.24</ele>
        <time>2020-05-31T16:41:03Z</time>
      </trkpt>
      <trkpt lat="47.03393" lon="-1.65909">
        <ele>16.41</ele>
        <time>2020-05-31T16:41:06Z</time>
      </trkpt>
      <trkpt lat="47.0339" lon="-1.65896">
        <ele>16.08</ele>
        <time>2020-05-31T16:41:08Z</time>
      </trkpt>
      <trkpt lat="47.03385" lon="-1.65879">
        <ele>15.86</ele>
        <time>2020-05-31T16:41:11Z</time>
      </trkpt>
      <trkpt lat="47.0338" lon="-1.65866">
        <ele>14.88</ele>
        <time>2020-05-31T16:41:13Z</time>
      </trkpt>
      <trkpt lat="47.03373" lon="-1.65852">
        <ele>12.67</ele>
        <time>2020-05-31T16:41:16Z</time>
      </trkpt>
      <trkpt lat="47.03367" lon="-1.6584">
        <ele>13.95</ele>
        <time>2020-05-31T16:41:18Z</time>
      </trkpt>
      <trkpt lat="47.0336" lon="-1.65828">
        <ele>15.09</ele>
        <time>2020-05-31T16:41:20Z</time>
      </trkpt>
      <trkpt lat="47.03355" lon="-1.65815">
        <ele>15.8</ele>
        <time>2020-05-31T16:41:22Z</time>
      </trkpt>
      <trkpt lat="47.03349" lon="-1.65803">
        <ele>16.34</ele>
        <time>2020-05-31T16:41:24Z</time>
      </trkpt>
      <trkpt lat="47.03343" lon="-1.6579">
        <ele>17.81</ele>
        <time>2020-05-31T16:41:26Z</time>
      </trkpt>
      <trkpt lat="47.03336" lon="-1.65775">
        <ele>18.48</ele>
        <time>2020-05-31T16:41:29Z</time>
      </trkpt>
      <trkpt lat="47.03331" lon="-1.65763">
        <ele>19.09</ele>
        <time>2020-05-31T16:41:31Z</time>
      </trkpt>
      <trkpt lat="47.03325" lon="-1.65748">
        <ele>18.74</ele>
        <time>2020-05-31T16:41:33Z</time>
      </trkpt>
      <trkpt lat="47.0332" lon="-1.65734">
        <ele>17.65</ele>
        <time>2020-05-31T16:41:35Z</time>
      </trkpt>
      <trkpt lat="47.03315" lon="-1.65716">
        <ele>16.38</ele>
        <time>2020-05-31T16:41:37Z</time>
      </trkpt>
      <trkpt lat="47.03312" lon="-1.65699">
        <ele>15.54</ele>
        <time>2020-05-31T16:41:39Z</time>
      </trkpt>
      <trkpt lat="47.0331" lon="-1.65681">
        <ele>13.95</ele>
        <time>2020-05-31T16:41:41Z</time>
      </trkpt>
      <trkpt lat="47.03309" lon="-1.65665">
        <ele>13.91</ele>
        <time>2020-05-31T16:41:43Z</time>
      </trkpt>
      <trkpt lat="47.0331" lon="-1.65648">
        <ele>12.9</ele>
        <time>2020-05-31T16:41:45Z</time>
      </trkpt>
      <trkpt lat="47.0331" lon="-1.65629">
        <ele>13.2</ele>
        <time>2020-05-31T16:41:47Z</time>
      </trkpt>
      <trkpt lat="47.03311" lon="-1.65613">
        <ele>12.58</ele>
        <time>2020-05-31T16:41:49Z</time>
      </trkpt>
      <trkpt lat="47.03306" lon="-1.65597">
        <ele>12.87</ele>
        <time>2020-05-31T16:41:51Z</time>
      </trkpt>
      <trkpt lat="47.03303" lon="-1.65577">
        <ele>13.75</ele>
        <time>2020-05-31T16:41:53Z</time>
      </trkpt>
      <trkpt lat="47.03304" lon="-1.6556">
        <ele>14.82</ele>
        <time>2020-05-31T16:41:55Z</time>
      </trkpt>
      <trkpt lat="47.03307" lon="-1.65543">
        <ele>15.25</ele>
        <time>2020-05-31T16:41:57Z</time>
      </trkpt>
      <trkpt lat="47.03308" lon="-1.65526">
        <ele>16.2</ele>
        <time>2020-05-31T16:41:59Z</time>
      </trkpt>
      <trkpt lat="47.03305" lon="-1.65508">
        <ele>16.44</ele>
        <time>2020-05-31T16:42:01Z</time>
      </trkpt>
      <trkpt lat="47.03301" lon="-1.6549">
        <ele>15.56</ele>
        <time>2020-05-31T16:42:03Z</time>
      </trkpt>
      <trkpt lat="47.03296" lon="-1.65472">
        <ele>14.44</ele>
        <time>2020-05-31T16:42:05Z</time>
      </trkpt>
      <trkpt lat="47.03293" lon="-1.65457">
        <ele>13.25</ele>
        <time>2020-05-31T16:42:07Z</time>
      </trkpt>
      <trkpt lat="47.03288" lon="-1.65437">
        <ele>13.1</ele>
        <time>2020-05-31T16:42:09Z</time>
      </trkpt>
      <trkpt lat="47.03283" lon="-1.65419">
        <ele>12.63</ele>
        <time>2020-05-31T16:42:11Z</time>
      </trkpt>
      <trkpt lat="47.03279" lon="-1.65403">
        <ele>12.25</ele>
        <time>2020-05-31T16:42:13Z</time>
      </trkpt>
      <trkpt lat="47.03275" lon="-1.65387">
        <ele>12.15</ele>
        <time>2020-05-31T16:42:15Z</time>
      </trkpt>
      <trkpt lat="47.0327" lon="-1.65367">
        <ele>11.74</ele>
        <time>2020-05-31T16:42:17Z</time>
      </trkpt>
      <trkpt lat="47.03266" lon="-1.65348">
        <ele>10.33</ele>
        <time>2020-05-31T16:42:19Z</time>
      </trkpt>
      <trkpt lat="47.03262" lon="-1.65331">
        <ele>9.76</ele>
        <time>2020-05-31T16:42:21Z</time>
      </trkpt>
      <trkpt lat="47.03257" lon="-1.65314">
        <ele>10.1</ele>
        <time>2020-05-31T16:42:23Z</time>
      </trkpt>
      <trkpt lat="47.03252" lon="-1.65295">
        <ele>9.27</ele>
        <time>2020-05-31T16:42:25Z</time>
      </trkpt>
      <trkpt lat="47.03247" lon="-1.65277">
        <ele>8.27</ele>
        <time>2020-05-31T16:42:27Z</time>
      </trkpt>
      <trkpt lat="47.03243" lon="-1.65259">
        <ele>7.13</ele>
        <time>2020-05-31T16:42:29Z</time>
      </trkpt>
      <trkpt lat="47.03239" lon="-1.65242">
        <ele>7.34</ele>
        <time>2020-05-31T16:42:31Z</time>
      </trkpt>
      <trkpt lat="47.03233" lon="-1.65222">
        <ele>6.96</ele>
        <time>2020-05-31T16:42:33Z</time>
      </trkpt>
      <trkpt lat="47.03228" lon="-1.65205">
        <ele>6.64</ele>
        <time>2020-05-31T16:42:35Z</time>
      </trkpt>
      <trkpt lat="47.03222" lon="-1.65189">
        <ele>7.64</ele>
        <time>2020-05-31T16:42:37Z</time>
      </trkpt>
      <trkpt lat="47.03217" lon="-1.65173">
        <ele>8.33</ele>
        <time>2020-05-31T16:42:39Z</time>
      </trkpt>
      <trkpt lat="47.03211" lon="-1.65158">
        <ele>9.46</ele>
        <time>2020-05-31T16:42:41Z</time>
      </trkpt>
      <trkpt lat="47.03205" lon="-1.65143">
        <ele>10.21</ele>
        <time>2020-05-31T16:42:43Z</time>
      </trkpt>
      <trkpt lat="47.03199" lon="-1.65127">
        <ele>10.75</ele>
        <time>2020-05-31T16:42:45Z</time>
      </trkpt>
      <trkpt lat="47.03193" lon="-1.65113">
        <ele>10.57</ele>
        <time>2020-05-31T16:42:47Z</time>
      </trkpt>
      <trkpt lat="47.03185" lon="-1.65096">
        <ele>10.83</ele>
        <time>2020-05-31T16:42:49Z</time>
      </trkpt>
      <trkpt lat="47.03178" lon="-1.65081">
        <ele>10.74</ele>
        <time>2020-05-31T16:42:51Z</time>
      </trkpt>
      <trkpt lat="47.03172" lon="-1.65068">
        <ele>10.93</ele>
        <time>2020-05-31T16:42:53Z</time>
      </trkpt>
      <trkpt lat="47.03165" lon="-1.65053">
        <ele>10.57</ele>
        <time>2020-05-31T16:42:55Z</time>
      </trkpt>
      <trkpt lat="47.03158" lon="-1.65041">
        <ele>11.04</ele>
        <time>2020-05-31T16:42:57Z</time>
      </trkpt>
      <trkpt lat="47.0315" lon="-1.65027">
        <ele>11</ele>
        <time>2020-05-31T16:42:59Z</time>
      </trkpt>
      <trkpt lat="47.03142" lon="-1.65013">
        <ele>10.7</ele>
        <time>2020-05-31T16:43:01Z</time>
      </trkpt>
      <trkpt lat="47.03136" lon="-1.65001">
        <ele>10.62</ele>
        <time>2020-05-31T16:43:03Z</time>
      </trkpt>
      <trkpt lat="47.03127" lon="-1.64988">
        <ele>10.49</ele>
        <time>2020-05-31T16:43:05Z</time>
      </trkpt>
      <trkpt lat="47.0312" lon="-1.64976">
        <ele>9.93</ele>
        <time>2020-05-31T16:43:07Z</time>
      </trkpt>
      <trkpt lat="47.03112" lon="-1.64962">
        <ele>10.39</ele>
        <time>2020-05-31T16:43:09Z</time>
      </trkpt>
      <trkpt lat="47.03104" lon="-1.6495">
        <ele>10.77</ele>
        <time>2020-05-31T16:43:11Z</time>
      </trkpt>
      <trkpt lat="47.03095" lon="-1.64936">
        <ele>11.16</ele>
        <time>2020-05-31T16:43:13Z</time>
      </trkpt>
      <trkpt lat="47.03089" lon="-1.64924">
        <ele>11.27</ele>
        <time>2020-05-31T16:43:15Z</time>
      </trkpt>
      <trkpt lat="47.03082" lon="-1.64915">
        <ele>11.75</ele>
        <time>2020-05-31T16:43:17Z</time>
      </trkpt>
      <trkpt lat="47.03075" lon="-1.64905">
        <ele>12.29</ele>
        <time>2020-05-31T16:43:19Z</time>
      </trkpt>
      <trkpt lat="47.03068" lon="-1.64893">
        <ele>11.76</ele>
        <time>2020-05-31T16:43:21Z</time>
      </trkpt>
      <trkpt lat="47.0306" lon="-1.6488">
        <ele>11.52</ele>
        <time>2020-05-31T16:43:23Z</time>
      </trkpt>
      <trkpt lat="47.03053" lon="-1.64868">
        <ele>11.34</ele>
        <time>2020-05-31T16:43:25Z</time>
      </trkpt>
      <trkpt lat="47.03045" lon="-1.64857">
        <ele>11.02</ele>
        <time>2020-05-31T16:43:27Z</time>
      </trkpt>
      <trkpt lat="47.03036" lon="-1.64842">
        <ele>10.14</ele>
        <time>2020-05-31T16:43:29Z</time>
      </trkpt>
      <trkpt lat="47.03029" lon="-1.64829">
        <ele>10.02</ele>
        <time>2020-05-31T16:43:31Z</time>
      </trkpt>
      <trkpt lat="47.03021" lon="-1.64817">
        <ele>10.92</ele>
        <time>2020-05-31T16:43:33Z</time>
      </trkpt>
      <trkpt lat="47.03012" lon="-1.64805">
        <ele>11.38</ele>
        <time>2020-05-31T16:43:35Z</time>
      </trkpt>
      <trkpt lat="47.03002" lon="-1.64799">
        <ele>12.3</ele>
        <time>2020-05-31T16:43:37Z</time>
      </trkpt>
      <trkpt lat="47.02991" lon="-1.6479">
        <ele>12.74</ele>
        <time>2020-05-31T16:43:39Z</time>
      </trkpt>
      <trkpt lat="47.02985" lon="-1.64778">
        <ele>13.2</ele>
        <time>2020-05-31T16:43:41Z</time>
      </trkpt>
      <trkpt lat="47.02982" lon="-1.64764">
        <ele>13.27</ele>
        <time>2020-05-31T16:43:43Z</time>
      </trkpt>
      <trkpt lat="47.02978" lon="-1.64748">
        <ele>13.03</ele>
        <time>2020-05-31T16:43:45Z</time>
      </trkpt>
      <trkpt lat="47.0297" lon="-1.64734">
        <ele>12.9</ele>
        <time>2020-05-31T16:43:47Z</time>
      </trkpt>
      <trkpt lat="47.02961" lon="-1.64721">
        <ele>13.53</ele>
        <time>2020-05-31T16:43:49Z</time>
      </trkpt>
      <trkpt lat="47.02953" lon="-1.64708">
        <ele>13.9</ele>
        <time>2020-05-31T16:43:51Z</time>
      </trkpt>
      <trkpt lat="47.02945" lon="-1.64696">
        <ele>14.44</ele>
        <time>2020-05-31T16:43:53Z</time>
      </trkpt>
      <trkpt lat="47.02938" lon="-1.64686">
        <ele>15.07</ele>
        <time>2020-05-31T16:43:55Z</time>
      </trkpt>
      <trkpt lat="47.02932" lon="-1.64675">
        <ele>13.7</ele>
        <time>2020-05-31T16:43:57Z</time>
      </trkpt>
      <trkpt lat="47.02925" lon="-1.64665">
        <ele>14.38</ele>
        <time>2020-05-31T16:43:59Z</time>
      </trkpt>
      <trkpt lat="47.02915" lon="-1.6465">
        <ele>13.84</ele>
        <time>2020-05-31T16:44:02Z</time>
      </trkpt>
      <trkpt lat="47.02908" lon="-1.64639">
        <ele>13.67</ele>
        <time>2020-05-31T16:44:04Z</time>
      </trkpt>
      <trkpt lat="47.02901" lon="-1.64628">
        <ele>12.89</ele>
        <time>2020-05-31T16:44:06Z</time>
      </trkpt>
      <trkpt lat="47.02895" lon="-1.64619">
        <ele>12.38</ele>
        <time>2020-05-31T16:44:08Z</time>
      </trkpt>
      <trkpt lat="47.02887" lon="-1.64608">
        <ele>11.98</ele>
        <time>2020-05-31T16:44:10Z</time>
      </trkpt>
      <trkpt lat="47.02879" lon="-1.64595">
        <ele>11.46</ele>
        <time>2020-05-31T16:44:13Z</time>
      </trkpt>
      <trkpt lat="47.02871" lon="-1.64584">
        <ele>11.07</ele>
        <time>2020-05-31T16:44:15Z</time>
      </trkpt>
      <trkpt lat="47.02862" lon="-1.6457">
        <ele>12.29</ele>
        <time>2020-05-31T16:44:18Z</time>
      </trkpt>
      <trkpt lat="47.02855" lon="-1.64558">
        <ele>13.44</ele>
        <time>2020-05-31T16:44:20Z</time>
      </trkpt>
      <trkpt lat="47.02849" lon="-1.64548">
        <ele>15.03</ele>
        <time>2020-05-31T16:44:22Z</time>
      </trkpt>
      <trkpt lat="47.02842" lon="-1.64536">
        <ele>14.87</ele>
        <time>2020-05-31T16:44:24Z</time>
      </trkpt>
      <trkpt lat="47.02833" lon="-1.64521">
        <ele>14.61</ele>
        <time>2020-05-31T16:44:27Z</time>
      </trkpt>
      <trkpt lat="47.02825" lon="-1.64508">
        <ele>15.09</ele>
        <time>2020-05-31T16:44:29Z</time>
      </trkpt>
      <trkpt lat="47.02818" lon="-1.64497">
        <ele>15.11</ele>
        <time>2020-05-31T16:44:31Z</time>
      </trkpt>
      <trkpt lat="47.02812" lon="-1.64486">
        <ele>14.53</ele>
        <time>2020-05-31T16:44:33Z</time>
      </trkpt>
      <trkpt lat="47.02804" lon="-1.64471">
        <ele>13.81</ele>
        <time>2020-05-31T16:44:35Z</time>
      </trkpt>
      <trkpt lat="47.02799" lon="-1.6446">
        <ele>14.53</ele>
        <time>2020-05-31T16:44:37Z</time>
      </trkpt>
      <trkpt lat="47.02794" lon="-1.64447">
        <ele>14.7</ele>
        <time>2020-05-31T16:44:39Z</time>
      </trkpt>
      <trkpt lat="47.02787" lon="-1.64433">
        <ele>15.29</ele>
        <time>2020-05-31T16:44:41Z</time>
      </trkpt>
      <trkpt lat="47.0278" lon="-1.64421">
        <ele>14.87</ele>
        <time>2020-05-31T16:44:43Z</time>
      </trkpt>
      <trkpt lat="47.02772" lon="-1.64409">
        <ele>14.83</ele>
        <time>2020-05-31T16:44:45Z</time>
      </trkpt>
      <trkpt lat="47.02762" lon="-1.64401">
        <ele>14.96</ele>
        <time>2020-05-31T16:44:47Z</time>
      </trkpt>
      <trkpt lat="47.02755" lon="-1.64388">
        <ele>15.01</ele>
        <time>2020-05-31T16:44:49Z</time>
      </trkpt>
      <trkpt lat="47.02755" lon="-1.64374">
        <ele>14.53</ele>
        <time>2020-05-31T16:44:51Z</time>
      </trkpt>
      <trkpt lat="47.02761" lon="-1.64364">
        <ele>14.11</ele>
        <time>2020-05-31T16:44:53Z</time>
      </trkpt>
      <trkpt lat="47.02771" lon="-1.64362">
        <ele>13.89</ele>
        <time>2020-05-31T16:44:55Z</time>
      </trkpt>
      <trkpt lat="47.02783" lon="-1.64361">
        <ele>13.66</ele>
        <time>2020-05-31T16:44:57Z</time>
      </trkpt>
      <trkpt lat="47.02794" lon="-1.64357">
        <ele>14.21</ele>
        <time>2020-05-31T16:44:59Z</time>
      </trkpt>
      <trkpt lat="47.02803" lon="-1.64352">
        <ele>14.24</ele>
        <time>2020-05-31T16:45:01Z</time>
      </trkpt>
      <trkpt lat="47.02814" lon="-1.64346">
        <ele>14.68</ele>
        <time>2020-05-31T16:45:03Z</time>
      </trkpt>
      <trkpt lat="47.02823" lon="-1.64342">
        <ele>15.24</ele>
        <time>2020-05-31T16:45:05Z</time>
      </trkpt>
      <trkpt lat="47.02834" lon="-1.64338">
        <ele>15.8</ele>
        <time>2020-05-31T16:45:07Z</time>
      </trkpt>
      <trkpt lat="47.02844" lon="-1.64336">
        <ele>16.17</ele>
        <time>2020-05-31T16:45:09Z</time>
      </trkpt>
      <trkpt lat="47.02855" lon="-1.64335">
        <ele>16.14</ele>
        <time>2020-05-31T16:45:11Z</time>
      </trkpt>
      <trkpt lat="47.02866" lon="-1.64335">
        <ele>15.94</ele>
        <time>2020-05-31T16:45:13Z</time>
      </trkpt>
      <trkpt lat="47.02877" lon="-1.64335">
        <ele>15.87</ele>
        <time>2020-05-31T16:45:15Z</time>
      </trkpt>
      <trkpt lat="47.02886" lon="-1.64333">
        <ele>16.38</ele>
        <time>2020-05-31T16:45:17Z</time>
      </trkpt>
      <trkpt lat="47.02899" lon="-1.64329">
        <ele>17.16</ele>
        <time>2020-05-31T16:45:19Z</time>
      </trkpt>
      <trkpt lat="47.02908" lon="-1.64323">
        <ele>17.7</ele>
        <time>2020-05-31T16:45:21Z</time>
      </trkpt>
      <trkpt lat="47.02918" lon="-1.64315">
        <ele>17.68</ele>
        <time>2020-05-31T16:45:23Z</time>
      </trkpt>
      <trkpt lat="47.02927" lon="-1.64308">
        <ele>16.89</ele>
        <time>2020-05-31T16:45:25Z</time>
      </trkpt>
      <trkpt lat="47.02935" lon="-1.64301">
        <ele>15.74</ele>
        <time>2020-05-31T16:45:27Z</time>
      </trkpt>
      <trkpt lat="47.02946" lon="-1.64294">
        <ele>15.26</ele>
        <time>2020-05-31T16:45:29Z</time>
      </trkpt>
      <trkpt lat="47.02958" lon="-1.64286">
        <ele>15.28</ele>
        <time>2020-05-31T16:45:31Z</time>
      </trkpt>
      <trkpt lat="47.0297" lon="-1.64278">
        <ele>15.23</ele>
        <time>2020-05-31T16:45:33Z</time>
      </trkpt>
      <trkpt lat="47.02981" lon="-1.64271">
        <ele>15.23</ele>
        <time>2020-05-31T16:45:35Z</time>
      </trkpt>
      <trkpt lat="47.02993" lon="-1.64263">
        <ele>14.55</ele>
        <time>2020-05-31T16:45:37Z</time>
      </trkpt>
      <trkpt lat="47.03004" lon="-1.64254">
        <ele>14.14</ele>
        <time>2020-05-31T16:45:39Z</time>
      </trkpt>
      <trkpt lat="47.03017" lon="-1.64244">
        <ele>13.31</ele>
        <time>2020-05-31T16:45:41Z</time>
      </trkpt>
      <trkpt lat="47.03029" lon="-1.64236">
        <ele>13.35</ele>
        <time>2020-05-31T16:45:43Z</time>
      </trkpt>
      <trkpt lat="47.03042" lon="-1.64227">
        <ele>13.04</ele>
        <time>2020-05-31T16:45:45Z</time>
      </trkpt>
      <trkpt lat="47.03055" lon="-1.64219">
        <ele>13.07</ele>
        <time>2020-05-31T16:45:47Z</time>
      </trkpt>
      <trkpt lat="47.0307" lon="-1.64213">
        <ele>12.63</ele>
        <time>2020-05-31T16:45:49Z</time>
      </trkpt>
      <trkpt lat="47.03084" lon="-1.6421">
        <ele>12.05</ele>
        <time>2020-05-31T16:45:51Z</time>
      </trkpt>
      <trkpt lat="47.03098" lon="-1.64213">
        <ele>12.46</ele>
        <time>2020-05-31T16:45:53Z</time>
      </trkpt>
      <trkpt lat="47.03111" lon="-1.64217">
        <ele>12.72</ele>
        <time>2020-05-31T16:45:55Z</time>
      </trkpt>
      <trkpt lat="47.03124" lon="-1.6422">
        <ele>12.84</ele>
        <time>2020-05-31T16:45:57Z</time>
      </trkpt>
      <trkpt lat="47.03139" lon="-1.64225">
        <ele>13.31</ele>
        <time>2020-05-31T16:45:59Z</time>
      </trkpt>
      <trkpt lat="47.0315" lon="-1.64229">
        <ele>12.62</ele>
        <time>2020-05-31T16:46:01Z</time>
      </trkpt>
      <trkpt lat="47.03164" lon="-1.64233">
        <ele>10.89</ele>
        <time>2020-05-31T16:46:03Z</time>
      </trkpt>
      <trkpt lat="47.03179" lon="-1.64238">
        <ele>8.35</ele>
        <time>2020-05-31T16:46:05Z</time>
      </trkpt>
      <trkpt lat="47.03194" lon="-1.64241">
        <ele>6.85</ele>
        <time>2020-05-31T16:46:07Z</time>
      </trkpt>
      <trkpt lat="47.03208" lon="-1.64242">
        <ele>5.92</ele>
        <time>2020-05-31T16:46:09Z</time>
      </trkpt>
      <trkpt lat="47.03224" lon="-1.64243">
        <ele>5.67</ele>
        <time>2020-05-31T16:46:11Z</time>
      </trkpt>
      <trkpt lat="47.03238" lon="-1.64243">
        <ele>5.34</ele>
        <time>2020-05-31T16:46:13Z</time>
      </trkpt>
      <trkpt lat="47.03253" lon="-1.64242">
        <ele>5.71</ele>
        <time>2020-05-31T16:46:15Z</time>
      </trkpt>
      <trkpt lat="47.03266" lon="-1.64242">
        <ele>5.66</ele>
        <time>2020-05-31T16:46:17Z</time>
      </trkpt>
      <trkpt lat="47.03281" lon="-1.64242">
        <ele>5.21</ele>
        <time>2020-05-31T16:46:19Z</time>
      </trkpt>
      <trkpt lat="47.03296" lon="-1.64241">
        <ele>4.47</ele>
        <time>2020-05-31T16:46:21Z</time>
      </trkpt>
      <trkpt lat="47.0331" lon="-1.6424">
        <ele>4.26</ele>
        <time>2020-05-31T16:46:23Z</time>
      </trkpt>
      <trkpt lat="47.03325" lon="-1.64239">
        <ele>4.7</ele>
        <time>2020-05-31T16:46:25Z</time>
      </trkpt>
      <trkpt lat="47.03339" lon="-1.64239">
        <ele>4.85</ele>
        <time>2020-05-31T16:46:27Z</time>
      </trkpt>
      <trkpt lat="47.03351" lon="-1.6424">
        <ele>4.78</ele>
        <time>2020-05-31T16:46:29Z</time>
      </trkpt>
      <trkpt lat="47.03365" lon="-1.64242">
        <ele>4.64</ele>
        <time>2020-05-31T16:46:31Z</time>
      </trkpt>
      <trkpt lat="47.03379" lon="-1.64246">
        <ele>3.78</ele>
        <time>2020-05-31T16:46:33Z</time>
      </trkpt>
      <trkpt lat="47.03392" lon="-1.6425">
        <ele>4.1</ele>
        <time>2020-05-31T16:46:35Z</time>
      </trkpt>
      <trkpt lat="47.03404" lon="-1.64254">
        <ele>4.22</ele>
        <time>2020-05-31T16:46:37Z</time>
      </trkpt>
      <trkpt lat="47.03415" lon="-1.64258">
        <ele>3.68</ele>
        <time>2020-05-31T16:46:39Z</time>
      </trkpt>
      <trkpt lat="47.03427" lon="-1.64263">
        <ele>3.18</ele>
        <time>2020-05-31T16:46:41Z</time>
      </trkpt>
      <trkpt lat="47.03439" lon="-1.64269">
        <ele>3.55</ele>
        <time>2020-05-31T16:46:43Z</time>
      </trkpt>
      <trkpt lat="47.03451" lon="-1.64274">
        <ele>3.93</ele>
        <time>2020-05-31T16:46:45Z</time>
      </trkpt>
      <trkpt lat="47.03463" lon="-1.64278">
        <ele>3.37</ele>
        <time>2020-05-31T16:46:47Z</time>
      </trkpt>
      <trkpt lat="47.03477" lon="-1.64283">
        <ele>2.76</ele>
        <time>2020-05-31T16:46:49Z</time>
      </trkpt>
      <trkpt lat="47.0349" lon="-1.64289">
        <ele>2.72</ele>
        <time>2020-05-31T16:46:51Z</time>
      </trkpt>
      <trkpt lat="47.03503" lon="-1.64294">
        <ele>2.8</ele>
        <time>2020-05-31T16:46:53Z</time>
      </trkpt>
      <trkpt lat="47.03516" lon="-1.64299">
        <ele>2.53</ele>
        <time>2020-05-31T16:46:55Z</time>
      </trkpt>
      <trkpt lat="47.03528" lon="-1.64304">
        <ele>2.62</ele>
        <time>2020-05-31T16:46:57Z</time>
      </trkpt>
      <trkpt lat="47.03541" lon="-1.64307">
        <ele>2.05</ele>
        <time>2020-05-31T16:46:59Z</time>
      </trkpt>
      <trkpt lat="47.03553" lon="-1.64309">
        <ele>2.46</ele>
        <time>2020-05-31T16:47:01Z</time>
      </trkpt>
      <trkpt lat="47.03565" lon="-1.64308">
        <ele>2.38</ele>
        <time>2020-05-31T16:47:03Z</time>
      </trkpt>
      <trkpt lat="47.03574" lon="-1.64296">
        <ele>0.75</ele>
        <time>2020-05-31T16:47:05Z</time>
      </trkpt>
      <trkpt lat="47.03572" lon="-1.64278">
        <ele>0.29</ele>
        <time>2020-05-31T16:47:07Z</time>
      </trkpt>
      <trkpt lat="47.03567" lon="-1.64258">
        <ele>0.6</ele>
        <time>2020-05-31T16:47:09Z</time>
      </trkpt>
      <trkpt lat="47.03562" lon="-1.64242">
        <ele>1.48</ele>
        <time>2020-05-31T16:47:11Z</time>
      </trkpt>
      <trkpt lat="47.03558" lon="-1.64225">
        <ele>2.96</ele>
        <time>2020-05-31T16:47:13Z</time>
      </trkpt>
      <trkpt lat="47.03554" lon="-1.64209">
        <ele>3.18</ele>
        <time>2020-05-31T16:47:15Z</time>
      </trkpt>
      <trkpt lat="47.03562" lon="-1.64193">
        <ele>2.28</ele>
        <time>2020-05-31T16:47:18Z</time>
      </trkpt>
      <trkpt lat="47.03573" lon="-1.64188">
        <ele>1.76</ele>
        <time>2020-05-31T16:47:20Z</time>
      </trkpt>
      <trkpt lat="47.03584" lon="-1.64183">
        <ele>1.76</ele>
        <time>2020-05-31T16:47:22Z</time>
      </trkpt>
      <trkpt lat="47.03595" lon="-1.64177">
        <ele>1.37</ele>
        <time>2020-05-31T16:47:24Z</time>
      </trkpt>
      <trkpt lat="47.03608" lon="-1.64168">
        <ele>1.03</ele>
        <time>2020-05-31T16:47:27Z</time>
      </trkpt>
      <trkpt lat="47.03615" lon="-1.64155">
        <ele>0.37</ele>
        <time>2020-05-31T16:47:29Z</time>
      </trkpt>
      <trkpt lat="47.03612" lon="-1.64135">
        <ele>0.15</ele>
        <time>2020-05-31T16:47:31Z</time>
      </trkpt>
      <trkpt lat="47.03604" lon="-1.6412">
        <ele>1.36</ele>
        <time>2020-05-31T16:47:33Z</time>
      </trkpt>
      <trkpt lat="47.03598" lon="-1.64106">
        <ele>1.81</ele>
        <time>2020-05-31T16:47:35Z</time>
      </trkpt>
      <trkpt lat="47.03592" lon="-1.64092">
        <ele>0.98</ele>
        <time>2020-05-31T16:47:36Z</time>
      </trkpt>
      <trkpt lat="47.03584" lon="-1.64077">
        <ele>0.62</ele>
        <time>2020-05-31T16:47:38Z</time>
      </trkpt>
      <trkpt lat="47.03578" lon="-1.64064">
        <ele>-0.22</ele>
        <time>2020-05-31T16:47:40Z</time>
      </trkpt>
      <trkpt lat="47.03572" lon="-1.64048">
        <ele>-1.51</ele>
        <time>2020-05-31T16:47:42Z</time>
      </trkpt>
      <trkpt lat="47.03575" lon="-1.64028">
        <ele>-1</ele>
        <time>2020-05-31T16:47:44Z</time>
      </trkpt>
      <trkpt lat="47.03583" lon="-1.64017">
        <ele>0.44</ele>
        <time>2020-05-31T16:47:46Z</time>
      </trkpt>
      <trkpt lat="47.03596" lon="-1.64015">
        <ele>1.59</ele>
        <time>2020-05-31T16:47:48Z</time>
      </trkpt>
      <trkpt lat="47.03607" lon="-1.64025">
        <ele>2.24</ele>
        <time>2020-05-31T16:47:50Z</time>
      </trkpt>
      <trkpt lat="47.03613" lon="-1.64039">
        <ele>2.29</ele>
        <time>2020-05-31T16:47:52Z</time>
      </trkpt>
      <trkpt lat="47.03618" lon="-1.64052">
        <ele>2.18</ele>
        <time>2020-05-31T16:47:54Z</time>
      </trkpt>
      <trkpt lat="47.03624" lon="-1.64066">
        <ele>2.72</ele>
        <time>2020-05-31T16:47:56Z</time>
      </trkpt>
      <trkpt lat="47.0363" lon="-1.64081">
        <ele>2.33</ele>
        <time>2020-05-31T16:47:58Z</time>
      </trkpt>
      <trkpt lat="47.03637" lon="-1.64095">
        <ele>2.96</ele>
        <time>2020-05-31T16:48:00Z</time>
      </trkpt>
      <trkpt lat="47.03643" lon="-1.64112">
        <ele>1.8</ele>
        <time>2020-05-31T16:48:02Z</time>
      </trkpt>
      <trkpt lat="47.03652" lon="-1.64126">
        <ele>1.64</ele>
        <time>2020-05-31T16:48:04Z</time>
      </trkpt>
      <trkpt lat="47.03664" lon="-1.6413">
        <ele>2.04</ele>
        <time>2020-05-31T16:48:06Z</time>
      </trkpt>
      <trkpt lat="47.03675" lon="-1.64128">
        <ele>1.19</ele>
        <time>2020-05-31T16:48:08Z</time>
      </trkpt>
      <trkpt lat="47.03689" lon="-1.64124">
        <ele>1.39</ele>
        <time>2020-05-31T16:48:10Z</time>
      </trkpt>
      <trkpt lat="47.03702" lon="-1.6412">
        <ele>1.68</ele>
        <time>2020-05-31T16:48:12Z</time>
      </trkpt>
      <trkpt lat="47.03716" lon="-1.64117">
        <ele>3.22</ele>
        <time>2020-05-31T16:48:14Z</time>
      </trkpt>
      <trkpt lat="47.0373" lon="-1.64113">
        <ele>4.17</ele>
        <time>2020-05-31T16:48:16Z</time>
      </trkpt>
      <trkpt lat="47.03743" lon="-1.64109">
        <ele>4.1</ele>
        <time>2020-05-31T16:48:18Z</time>
      </trkpt>
      <trkpt lat="47.03755" lon="-1.64106">
        <ele>4.36</ele>
        <time>2020-05-31T16:48:20Z</time>
      </trkpt>
      <trkpt lat="47.03767" lon="-1.64104">
        <ele>5.3</ele>
        <time>2020-05-31T16:48:22Z</time>
      </trkpt>
      <trkpt lat="47.03781" lon="-1.64101">
        <ele>5.28</ele>
        <time>2020-05-31T16:48:24Z</time>
      </trkpt>
      <trkpt lat="47.03794" lon="-1.64097">
        <ele>5.35</ele>
        <time>2020-05-31T16:48:26Z</time>
      </trkpt>
      <trkpt lat="47.03805" lon="-1.64095">
        <ele>5.19</ele>
        <time>2020-05-31T16:48:28Z</time>
      </trkpt>
      <trkpt lat="47.03817" lon="-1.64092">
        <ele>4.14</ele>
        <time>2020-05-31T16:48:30Z</time>
      </trkpt>
      <trkpt lat="47.03829" lon="-1.64089">
        <ele>4.6</ele>
        <time>2020-05-31T16:48:32Z</time>
      </trkpt>
      <trkpt lat="47.03841" lon="-1.64086">
        <ele>5.43</ele>
        <time>2020-05-31T16:48:34Z</time>
      </trkpt>
      <trkpt lat="47.03852" lon="-1.64086">
        <ele>5.56</ele>
        <time>2020-05-31T16:48:36Z</time>
      </trkpt>
      <trkpt lat="47.03865" lon="-1.64092">
        <ele>5.07</ele>
        <time>2020-05-31T16:48:38Z</time>
      </trkpt>
      <trkpt lat="47.03877" lon="-1.64097">
        <ele>4.76</ele>
        <time>2020-05-31T16:48:40Z</time>
      </trkpt>
      <trkpt lat="47.03891" lon="-1.641">
        <ele>3.81</ele>
        <time>2020-05-31T16:48:42Z</time>
      </trkpt>
      <trkpt lat="47.03902" lon="-1.64107">
        <ele>3.1</ele>
        <time>2020-05-31T16:48:44Z</time>
      </trkpt>
      <trkpt lat="47.03913" lon="-1.64115">
        <ele>3.12</ele>
        <time>2020-05-31T16:48:46Z</time>
      </trkpt>
      <trkpt lat="47.03925" lon="-1.64124">
        <ele>3.17</ele>
        <time>2020-05-31T16:48:48Z</time>
      </trkpt>
      <trkpt lat="47.03935" lon="-1.64131">
        <ele>3.3</ele>
        <time>2020-05-31T16:48:50Z</time>
      </trkpt>
      <trkpt lat="47.03946" lon="-1.64139">
        <ele>2.94</ele>
        <time>2020-05-31T16:48:52Z</time>
      </trkpt>
      <trkpt lat="47.03958" lon="-1.64143">
        <ele>2.78</ele>
        <time>2020-05-31T16:48:54Z</time>
      </trkpt>
      <trkpt lat="47.0397" lon="-1.64144">
        <ele>2.76</ele>
        <time>2020-05-31T16:48:56Z</time>
      </trkpt>
      <trkpt lat="47.03982" lon="-1.64142">
        <ele>2.36</ele>
        <time>2020-05-31T16:48:58Z</time>
      </trkpt>
      <trkpt lat="47.03994" lon="-1.64136">
        <ele>1.65</ele>
        <time>2020-05-31T16:49:00Z</time>
      </trkpt>
      <trkpt lat="47.04004" lon="-1.64132">
        <ele>1.76</ele>
        <time>2020-05-31T16:49:02Z</time>
      </trkpt>
      <trkpt lat="47.04015" lon="-1.64125">
        <ele>2.13</ele>
        <time>2020-05-31T16:49:04Z</time>
      </trkpt>
      <trkpt lat="47.04025" lon="-1.6412">
        <ele>2.63</ele>
        <time>2020-05-31T16:49:06Z</time>
      </trkpt>
      <trkpt lat="47.04038" lon="-1.64114">
        <ele>1.59</ele>
        <time>2020-05-31T16:49:08Z</time>
      </trkpt>
      <trkpt lat="47.0405" lon="-1.64108">
        <ele>1.38</ele>
        <time>2020-05-31T16:49:10Z</time>
      </trkpt>
      <trkpt lat="47.04063" lon="-1.64103">
        <ele>1.33</ele>
        <time>2020-05-31T16:49:12Z</time>
      </trkpt>
      <trkpt lat="47.04079" lon="-1.64095">
        <ele>1.05</ele>
        <time>2020-05-31T16:49:14Z</time>
      </trkpt>
      <trkpt lat="47.04092" lon="-1.64088">
        <ele>0.96</ele>
        <time>2020-05-31T16:49:16Z</time>
      </trkpt>
      <trkpt lat="47.04104" lon="-1.64084">
        <ele>0.73</ele>
        <time>2020-05-31T16:49:18Z</time>
      </trkpt>
      <trkpt lat="47.04117" lon="-1.64078">
        <ele>0.35</ele>
        <time>2020-05-31T16:49:20Z</time>
      </trkpt>
      <trkpt lat="47.04129" lon="-1.64074">
        <ele>-0.06</ele>
        <time>2020-05-31T16:49:22Z</time>
      </trkpt>
      <trkpt lat="47.0414" lon="-1.64069">
        <ele>-0.53</ele>
        <time>2020-05-31T16:49:24Z</time>
      </trkpt>
      <trkpt lat="47.04153" lon="-1.64063">
        <ele>0.03</ele>
        <time>2020-05-31T16:49:26Z</time>
      </trkpt>
      <trkpt lat="47.04166" lon="-1.64058">
        <ele>-0.23</ele>
        <time>2020-05-31T16:49:28Z</time>
      </trkpt>
      <trkpt lat="47.04179" lon="-1.64052">
        <ele>-0.21</ele>
        <time>2020-05-31T16:49:30Z</time>
      </trkpt>
      <trkpt lat="47.0419" lon="-1.64047">
        <ele>-0.29</ele>
        <time>2020-05-31T16:49:32Z</time>
      </trkpt>
      <trkpt lat="47.04201" lon="-1.64043">
        <ele>0.24</ele>
        <time>2020-05-31T16:49:34Z</time>
      </trkpt>
      <trkpt lat="47.04213" lon="-1.64038">
        <ele>0.8</ele>
        <time>2020-05-31T16:49:36Z</time>
      </trkpt>
      <trkpt lat="47.04224" lon="-1.64032">
        <ele>-0.47</ele>
        <time>2020-05-31T16:49:38Z</time>
      </trkpt>
      <trkpt lat="47.04237" lon="-1.64027">
        <ele>-0.41</ele>
        <time>2020-05-31T16:49:40Z</time>
      </trkpt>
      <trkpt lat="47.04247" lon="-1.64023">
        <ele>0.19</ele>
        <time>2020-05-31T16:49:42Z</time>
      </trkpt>
      <trkpt lat="47.04259" lon="-1.64018">
        <ele>0.23</ele>
        <time>2020-05-31T16:49:44Z</time>
      </trkpt>
      <trkpt lat="47.04272" lon="-1.64012">
        <ele>-0.08</ele>
        <time>2020-05-31T16:49:46Z</time>
      </trkpt>
      <trkpt lat="47.04285" lon="-1.64007">
        <ele>0.38</ele>
        <time>2020-05-31T16:49:48Z</time>
      </trkpt>
      <trkpt lat="47.04296" lon="-1.64003">
        <ele>0.54</ele>
        <time>2020-05-31T16:49:50Z</time>
      </trkpt>
      <trkpt lat="47.04306" lon="-1.63998">
        <ele>-0.03</ele>
        <time>2020-05-31T16:49:52Z</time>
      </trkpt>
      <trkpt lat="47.04318" lon="-1.63992">
        <ele>-0.18</ele>
        <time>2020-05-31T16:49:54Z</time>
      </trkpt>
      <trkpt lat="47.04331" lon="-1.63986">
        <ele>-0.48</ele>
        <time>2020-05-31T16:49:56Z</time>
      </trkpt>
      <trkpt lat="47.04343" lon="-1.63981">
        <ele>-0.66</ele>
        <time>2020-05-31T16:49:58Z</time>
      </trkpt>
      <trkpt lat="47.04353" lon="-1.63977">
        <ele>-0.43</ele>
        <time>2020-05-31T16:50:00Z</time>
      </trkpt>
      <trkpt lat="47.04364" lon="-1.63971">
        <ele>0.03</ele>
        <time>2020-05-31T16:50:02Z</time>
      </trkpt>
      <trkpt lat="47.04376" lon="-1.63966">
        <ele>0.12</ele>
        <time>2020-05-31T16:50:04Z</time>
      </trkpt>
      <trkpt lat="47.04389" lon="-1.63959">
        <ele>-0.42</ele>
        <time>2020-05-31T16:50:06Z</time>
      </trkpt>
      <trkpt lat="47.044" lon="-1.63954">
        <ele>-2.23</ele>
        <time>2020-05-31T16:50:08Z</time>
      </trkpt>
      <trkpt lat="47.0441" lon="-1.63949">
        <ele>-3.83</ele>
        <time>2020-05-31T16:50:10Z</time>
      </trkpt>
      <trkpt lat="47.04424" lon="-1.63943">
        <ele>-4.15</ele>
        <time>2020-05-31T16:50:12Z</time>
      </trkpt>
      <trkpt lat="47.04436" lon="-1.63937">
        <ele>-4.11</ele>
        <time>2020-05-31T16:50:14Z</time>
      </trkpt>
      <trkpt lat="47.04448" lon="-1.63932">
        <ele>-4.13</ele>
        <time>2020-05-31T16:50:16Z</time>
      </trkpt>
      <trkpt lat="47.0446" lon="-1.63926">
        <ele>-4.02</ele>
        <time>2020-05-31T16:50:18Z</time>
      </trkpt>
      <trkpt lat="47.0447" lon="-1.63918">
        <ele>-3.15</ele>
        <time>2020-05-31T16:50:20Z</time>
      </trkpt>
      <trkpt lat="47.04482" lon="-1.63911">
        <ele>-1.63</ele>
        <time>2020-05-31T16:50:22Z</time>
      </trkpt>
      <trkpt lat="47.04493" lon="-1.63908">
        <ele>-2.56</ele>
        <time>2020-05-31T16:50:24Z</time>
      </trkpt>
      <trkpt lat="47.04506" lon="-1.63903">
        <ele>-3.51</ele>
        <time>2020-05-31T16:50:26Z</time>
      </trkpt>
      <trkpt lat="47.04519" lon="-1.63895">
        <ele>-3.59</ele>
        <time>2020-05-31T16:50:28Z</time>
      </trkpt>
      <trkpt lat="47.0453" lon="-1.63888">
        <ele>-2.79</ele>
        <time>2020-05-31T16:50:30Z</time>
      </trkpt>
      <trkpt lat="47.04541" lon="-1.6388">
        <ele>-1.15</ele>
        <time>2020-05-31T16:50:32Z</time>
      </trkpt>
      <trkpt lat="47.04551" lon="-1.63874">
        <ele>-0.64</ele>
        <time>2020-05-31T16:50:34Z</time>
      </trkpt>
      <trkpt lat="47.04562" lon="-1.63866">
        <ele>-0.28</ele>
        <time>2020-05-31T16:50:36Z</time>
      </trkpt>
      <trkpt lat="47.04573" lon="-1.63859">
        <ele>0.64</ele>
        <time>2020-05-31T16:50:38Z</time>
      </trkpt>
      <trkpt lat="47.04582" lon="-1.63853">
        <ele>1.33</ele>
        <time>2020-05-31T16:50:40Z</time>
      </trkpt>
      <trkpt lat="47.04594" lon="-1.63848">
        <ele>0.93</ele>
        <time>2020-05-31T16:50:42Z</time>
      </trkpt>
      <trkpt lat="47.04603" lon="-1.63845">
        <ele>-0.05</ele>
        <time>2020-05-31T16:50:44Z</time>
      </trkpt>
      <trkpt lat="47.04612" lon="-1.63843">
        <ele>-0.76</ele>
        <time>2020-05-31T16:50:46Z</time>
      </trkpt>
      <trkpt lat="47.04624" lon="-1.63841">
        <ele>-1.22</ele>
        <time>2020-05-31T16:50:48Z</time>
      </trkpt>
      <trkpt lat="47.04635" lon="-1.63839">
        <ele>-1.78</ele>
        <time>2020-05-31T16:50:50Z</time>
      </trkpt>
      <trkpt lat="47.04644" lon="-1.63838">
        <ele>-2.09</ele>
        <time>2020-05-31T16:50:52Z</time>
      </trkpt>
      <trkpt lat="47.04655" lon="-1.63834">
        <ele>-0.96</ele>
        <time>2020-05-31T16:50:54Z</time>
      </trkpt>
      <trkpt lat="47.04664" lon="-1.63829">
        <ele>-0.19</ele>
        <time>2020-05-31T16:50:56Z</time>
      </trkpt>
      <trkpt lat="47.04676" lon="-1.63821">
        <ele>0.02</ele>
        <time>2020-05-31T16:50:59Z</time>
      </trkpt>
      <trkpt lat="47.0469" lon="-1.63813">
        <ele>-0.21</ele>
        <time>2020-05-31T16:51:02Z</time>
      </trkpt>
      <trkpt lat="47.04699" lon="-1.6381">
        <ele>0.1</ele>
        <time>2020-05-31T16:51:04Z</time>
      </trkpt>
      <trkpt lat="47.04711" lon="-1.63804">
        <ele>0.7</ele>
        <time>2020-05-31T16:51:06Z</time>
      </trkpt>
      <trkpt lat="47.04721" lon="-1.63798">
        <ele>1.85</ele>
        <time>2020-05-31T16:51:08Z</time>
      </trkpt>
      <trkpt lat="47.0473" lon="-1.63796">
        <ele>3.19</ele>
        <time>2020-05-31T16:51:10Z</time>
      </trkpt>
      <trkpt lat="47.04741" lon="-1.63797">
        <ele>5.49</ele>
        <time>2020-05-31T16:51:12Z</time>
      </trkpt>
      <trkpt lat="47.04754" lon="-1.63795">
        <ele>5.6</ele>
        <time>2020-05-31T16:51:15Z</time>
      </trkpt>
      <trkpt lat="47.04765" lon="-1.63792">
        <ele>5.35</ele>
        <time>2020-05-31T16:51:17Z</time>
      </trkpt>
      <trkpt lat="47.04775" lon="-1.63788">
        <ele>5.93</ele>
        <time>2020-05-31T16:51:19Z</time>
      </trkpt>
      <trkpt lat="47.04784" lon="-1.63784">
        <ele>5.7</ele>
        <time>2020-05-31T16:51:21Z</time>
      </trkpt>
      <trkpt lat="47.04794" lon="-1.63781">
        <ele>5.65</ele>
        <time>2020-05-31T16:51:23Z</time>
      </trkpt>
      <trkpt lat="47.04803" lon="-1.63779">
        <ele>4.86</ele>
        <time>2020-05-31T16:51:25Z</time>
      </trkpt>
      <trkpt lat="47.04813" lon="-1.63778">
        <ele>5.9</ele>
        <time>2020-05-31T16:51:27Z</time>
      </trkpt>
      <trkpt lat="47.04825" lon="-1.63776">
        <ele>6.56</ele>
        <time>2020-05-31T16:51:29Z</time>
      </trkpt>
      <trkpt lat="47.04836" lon="-1.63775">
        <ele>6.49</ele>
        <time>2020-05-31T16:51:31Z</time>
      </trkpt>
      <trkpt lat="47.04847" lon="-1.63773">
        <ele>5.07</ele>
        <time>2020-05-31T16:51:33Z</time>
      </trkpt>
      <trkpt lat="47.04859" lon="-1.63772">
        <ele>4.71</ele>
        <time>2020-05-31T16:51:35Z</time>
      </trkpt>
      <trkpt lat="47.04868" lon="-1.63771">
        <ele>4.88</ele>
        <time>2020-05-31T16:51:37Z</time>
      </trkpt>
      <trkpt lat="47.04879" lon="-1.63768">
        <ele>4.7</ele>
        <time>2020-05-31T16:51:39Z</time>
      </trkpt>
      <trkpt lat="47.04891" lon="-1.63767">
        <ele>5.26</ele>
        <time>2020-05-31T16:51:41Z</time>
      </trkpt>
      <trkpt lat="47.04905" lon="-1.63764">
        <ele>5.37</ele>
        <time>2020-05-31T16:51:43Z</time>
      </trkpt>
      <trkpt lat="47.04918" lon="-1.6376">
        <ele>4.61</ele>
        <time>2020-05-31T16:51:45Z</time>
      </trkpt>
      <trkpt lat="47.04929" lon="-1.63756">
        <ele>4.45</ele>
        <time>2020-05-31T16:51:47Z</time>
      </trkpt>
      <trkpt lat="47.04938" lon="-1.63742">
        <ele>4.93</ele>
        <time>2020-05-31T16:51:49Z</time>
      </trkpt>
      <trkpt lat="47.04945" lon="-1.63724">
        <ele>4.33</ele>
        <time>2020-05-31T16:51:51Z</time>
      </trkpt>
      <trkpt lat="47.04948" lon="-1.63704">
        <ele>4.33</ele>
        <time>2020-05-31T16:51:53Z</time>
      </trkpt>
      <trkpt lat="47.04948" lon="-1.63684">
        <ele>4.39</ele>
        <time>2020-05-31T16:51:55Z</time>
      </trkpt>
      <trkpt lat="47.04947" lon="-1.63668">
        <ele>4.57</ele>
        <time>2020-05-31T16:51:57Z</time>
      </trkpt>
      <trkpt lat="47.04946" lon="-1.63649">
        <ele>4.99</ele>
        <time>2020-05-31T16:51:59Z</time>
      </trkpt>
      <trkpt lat="47.04948" lon="-1.6363">
        <ele>5.6</ele>
        <time>2020-05-31T16:52:01Z</time>
      </trkpt>
      <trkpt lat="47.04953" lon="-1.63612">
        <ele>5.89</ele>
        <time>2020-05-31T16:52:03Z</time>
      </trkpt>
      <trkpt lat="47.0496" lon="-1.63594">
        <ele>5.32</ele>
        <time>2020-05-31T16:52:05Z</time>
      </trkpt>
      <trkpt lat="47.04969" lon="-1.6358">
        <ele>4.55</ele>
        <time>2020-05-31T16:52:07Z</time>
      </trkpt>
      <trkpt lat="47.0498" lon="-1.63566">
        <ele>4.09</ele>
        <time>2020-05-31T16:52:09Z</time>
      </trkpt>
      <trkpt lat="47.04991" lon="-1.63556">
        <ele>3.7</ele>
        <time>2020-05-31T16:52:11Z</time>
      </trkpt>
      <trkpt lat="47.05005" lon="-1.63549">
        <ele>2.85</ele>
        <time>2020-05-31T16:52:13Z</time>
      </trkpt>
      <trkpt lat="47.05019" lon="-1.63542">
        <ele>1.83</ele>
        <time>2020-05-31T16:52:15Z</time>
      </trkpt>
      <trkpt lat="47.05033" lon="-1.63538">
        <ele>1.07</ele>
        <time>2020-05-31T16:52:17Z</time>
      </trkpt>
      <trkpt lat="47.05047" lon="-1.63533">
        <ele>1.08</ele>
        <time>2020-05-31T16:52:19Z</time>
      </trkpt>
      <trkpt lat="47.05059" lon="-1.63529">
        <ele>1.35</ele>
        <time>2020-05-31T16:52:21Z</time>
      </trkpt>
      <trkpt lat="47.0507" lon="-1.63526">
        <ele>1.98</ele>
        <time>2020-05-31T16:52:23Z</time>
      </trkpt>
      <trkpt lat="47.05083" lon="-1.63521">
        <ele>2.34</ele>
        <time>2020-05-31T16:52:25Z</time>
      </trkpt>
      <trkpt lat="47.05095" lon="-1.63516">
        <ele>2.69</ele>
        <time>2020-05-31T16:52:27Z</time>
      </trkpt>
      <trkpt lat="47.05107" lon="-1.63512">
        <ele>2.56</ele>
        <time>2020-05-31T16:52:29Z</time>
      </trkpt>
      <trkpt lat="47.05119" lon="-1.63509">
        <ele>2.74</ele>
        <time>2020-05-31T16:52:31Z</time>
      </trkpt>
      <trkpt lat="47.05131" lon="-1.63503">
        <ele>2.59</ele>
        <time>2020-05-31T16:52:33Z</time>
      </trkpt>
      <trkpt lat="47.05146" lon="-1.63498">
        <ele>2.52</ele>
        <time>2020-05-31T16:52:35Z</time>
      </trkpt>
      <trkpt lat="47.05157" lon="-1.63493">
        <ele>2.13</ele>
        <time>2020-05-31T16:52:37Z</time>
      </trkpt>
      <trkpt lat="47.05169" lon="-1.63488">
        <ele>1.89</ele>
        <time>2020-05-31T16:52:39Z</time>
      </trkpt>
      <trkpt lat="47.0518" lon="-1.63483">
        <ele>1.84</ele>
        <time>2020-05-31T16:52:41Z</time>
      </trkpt>
      <trkpt lat="47.05192" lon="-1.63478">
        <ele>2.29</ele>
        <time>2020-05-31T16:52:43Z</time>
      </trkpt>
      <trkpt lat="47.05204" lon="-1.63473">
        <ele>2.95</ele>
        <time>2020-05-31T16:52:45Z</time>
      </trkpt>
      <trkpt lat="47.05218" lon="-1.63468">
        <ele>2.66</ele>
        <time>2020-05-31T16:52:47Z</time>
      </trkpt>
      <trkpt lat="47.05229" lon="-1.63464">
        <ele>3.17</ele>
        <time>2020-05-31T16:52:49Z</time>
      </trkpt>
      <trkpt lat="47.0524" lon="-1.63462">
        <ele>3.2</ele>
        <time>2020-05-31T16:52:51Z</time>
      </trkpt>
      <trkpt lat="47.05252" lon="-1.63459">
        <ele>2.43</ele>
        <time>2020-05-31T16:52:53Z</time>
      </trkpt>
      <trkpt lat="47.05266" lon="-1.63455">
        <ele>1.79</ele>
        <time>2020-05-31T16:52:55Z</time>
      </trkpt>
      <trkpt lat="47.05277" lon="-1.63453">
        <ele>1.65</ele>
        <time>2020-05-31T16:52:57Z</time>
      </trkpt>
      <trkpt lat="47.0529" lon="-1.63451">
        <ele>1.2</ele>
        <time>2020-05-31T16:52:59Z</time>
      </trkpt>
      <trkpt lat="47.05302" lon="-1.63449">
        <ele>0.62</ele>
        <time>2020-05-31T16:53:01Z</time>
      </trkpt>
      <trkpt lat="47.05315" lon="-1.63446">
        <ele>0.62</ele>
        <time>2020-05-31T16:53:03Z</time>
      </trkpt>
      <trkpt lat="47.05329" lon="-1.63445">
        <ele>0.61</ele>
        <time>2020-05-31T16:53:05Z</time>
      </trkpt>
      <trkpt lat="47.05341" lon="-1.63445">
        <ele>1.81</ele>
        <time>2020-05-31T16:53:07Z</time>
      </trkpt>
      <trkpt lat="47.05352" lon="-1.63444">
        <ele>2.71</ele>
        <time>2020-05-31T16:53:09Z</time>
      </trkpt>
      <trkpt lat="47.05362" lon="-1.63439">
        <ele>3.02</ele>
        <time>2020-05-31T16:53:11Z</time>
      </trkpt>
      <trkpt lat="47.05372" lon="-1.63433">
        <ele>3.32</ele>
        <time>2020-05-31T16:53:13Z</time>
      </trkpt>
      <trkpt lat="47.05384" lon="-1.63433">
        <ele>2.46</ele>
        <time>2020-05-31T16:53:15Z</time>
      </trkpt>
      <trkpt lat="47.05396" lon="-1.63436">
        <ele>0.94</ele>
        <time>2020-05-31T16:53:17Z</time>
      </trkpt>
      <trkpt lat="47.05409" lon="-1.63436">
        <ele>-0.56</ele>
        <time>2020-05-31T16:53:19Z</time>
      </trkpt>
      <trkpt lat="47.05422" lon="-1.63433">
        <ele>-1.48</ele>
        <time>2020-05-31T16:53:21Z</time>
      </trkpt>
      <trkpt lat="47.05435" lon="-1.6343">
        <ele>-1.53</ele>
        <time>2020-05-31T16:53:23Z</time>
      </trkpt>
      <trkpt lat="47.05447" lon="-1.63428">
        <ele>-1.47</ele>
        <time>2020-05-31T16:53:25Z</time>
      </trkpt>
      <trkpt lat="47.0546" lon="-1.63425">
        <ele>-1.35</ele>
        <time>2020-05-31T16:53:27Z</time>
      </trkpt>
      <trkpt lat="47.05473" lon="-1.63423">
        <ele>-1.6</ele>
        <time>2020-05-31T16:53:29Z</time>
      </trkpt>
      <trkpt lat="47.05485" lon="-1.63421">
        <ele>-1.71</ele>
        <time>2020-05-31T16:53:31Z</time>
      </trkpt>
      <trkpt lat="47.05498" lon="-1.6342">
        <ele>-1.46</ele>
        <time>2020-05-31T16:53:33Z</time>
      </trkpt>
      <trkpt lat="47.05511" lon="-1.63417">
        <ele>-1.62</ele>
        <time>2020-05-31T16:53:35Z</time>
      </trkpt>
      <trkpt lat="47.05524" lon="-1.63414">
        <ele>-0.87</ele>
        <time>2020-05-31T16:53:37Z</time>
      </trkpt>
      <trkpt lat="47.05538" lon="-1.6341">
        <ele>0.27</ele>
        <time>2020-05-31T16:53:39Z</time>
      </trkpt>
      <trkpt lat="47.0555" lon="-1.63406">
        <ele>0.39</ele>
        <time>2020-05-31T16:53:41Z</time>
      </trkpt>
      <trkpt lat="47.05563" lon="-1.63401">
        <ele>0.57</ele>
        <time>2020-05-31T16:53:43Z</time>
      </trkpt>
      <trkpt lat="47.05575" lon="-1.63396">
        <ele>1.26</ele>
        <time>2020-05-31T16:53:45Z</time>
      </trkpt>
      <trkpt lat="47.05588" lon="-1.6339">
        <ele>1.91</ele>
        <time>2020-05-31T16:53:47Z</time>
      </trkpt>
      <trkpt lat="47.05601" lon="-1.63384">
        <ele>2.35</ele>
        <time>2020-05-31T16:53:49Z</time>
      </trkpt>
      <trkpt lat="47.05611" lon="-1.63379">
        <ele>2.25</ele>
        <time>2020-05-31T16:53:51Z</time>
      </trkpt>
      <trkpt lat="47.05621" lon="-1.63373">
        <ele>1.14</ele>
        <time>2020-05-31T16:53:53Z</time>
      </trkpt>
      <trkpt lat="47.05633" lon="-1.63367">
        <ele>0.09</ele>
        <time>2020-05-31T16:53:55Z</time>
      </trkpt>
      <trkpt lat="47.05646" lon="-1.63362">
        <ele>0.24</ele>
        <time>2020-05-31T16:53:57Z</time>
      </trkpt>
      <trkpt lat="47.05658" lon="-1.63356">
        <ele>0.38</ele>
        <time>2020-05-31T16:53:59Z</time>
      </trkpt>
      <trkpt lat="47.05669" lon="-1.63351">
        <ele>0.34</ele>
        <time>2020-05-31T16:54:01Z</time>
      </trkpt>
      <trkpt lat="47.0568" lon="-1.63346">
        <ele>0.48</ele>
        <time>2020-05-31T16:54:03Z</time>
      </trkpt>
      <trkpt lat="47.05691" lon="-1.6334">
        <ele>0.64</ele>
        <time>2020-05-31T16:54:05Z</time>
      </trkpt>
      <trkpt lat="47.05702" lon="-1.63334">
        <ele>0.9</ele>
        <time>2020-05-31T16:54:07Z</time>
      </trkpt>
      <trkpt lat="47.05713" lon="-1.63329">
        <ele>0.3</ele>
        <time>2020-05-31T16:54:09Z</time>
      </trkpt>
      <trkpt lat="47.05724" lon="-1.63324">
        <ele>0.47</ele>
        <time>2020-05-31T16:54:11Z</time>
      </trkpt>
      <trkpt lat="47.05736" lon="-1.6332">
        <ele>0.55</ele>
        <time>2020-05-31T16:54:13Z</time>
      </trkpt>
      <trkpt lat="47.05748" lon="-1.63315">
        <ele>1.22</ele>
        <time>2020-05-31T16:54:15Z</time>
      </trkpt>
      <trkpt lat="47.05761" lon="-1.63309">
        <ele>1</ele>
        <time>2020-05-31T16:54:17Z</time>
      </trkpt>
      <trkpt lat="47.05772" lon="-1.63302">
        <ele>0.68</ele>
        <time>2020-05-31T16:54:19Z</time>
      </trkpt>
      <trkpt lat="47.05785" lon="-1.63296">
        <ele>-0.54</ele>
        <time>2020-05-31T16:54:21Z</time>
      </trkpt>
      <trkpt lat="47.05798" lon="-1.63289">
        <ele>-1.45</ele>
        <time>2020-05-31T16:54:23Z</time>
      </trkpt>
      <trkpt lat="47.0581" lon="-1.63284">
        <ele>-2.4</ele>
        <time>2020-05-31T16:54:25Z</time>
      </trkpt>
      <trkpt lat="47.05821" lon="-1.63278">
        <ele>-2.94</ele>
        <time>2020-05-31T16:54:27Z</time>
      </trkpt>
      <trkpt lat="47.05835" lon="-1.63271">
        <ele>-2.55</ele>
        <time>2020-05-31T16:54:29Z</time>
      </trkpt>
      <trkpt lat="47.05846" lon="-1.63266">
        <ele>-1.72</ele>
        <time>2020-05-31T16:54:31Z</time>
      </trkpt>
      <trkpt lat="47.05858" lon="-1.6326">
        <ele>-0.57</ele>
        <time>2020-05-31T16:54:33Z</time>
      </trkpt>
      <trkpt lat="47.05872" lon="-1.63254">
        <ele>0.25</ele>
        <time>2020-05-31T16:54:35Z</time>
      </trkpt>
      <trkpt lat="47.05885" lon="-1.63248">
        <ele>0.48</ele>
        <time>2020-05-31T16:54:37Z</time>
      </trkpt>
      <trkpt lat="47.05896" lon="-1.63245">
        <ele>1.23</ele>
        <time>2020-05-31T16:54:39Z</time>
      </trkpt>
      <trkpt lat="47.05909" lon="-1.63239">
        <ele>0.87</ele>
        <time>2020-05-31T16:54:41Z</time>
      </trkpt>
      <trkpt lat="47.05921" lon="-1.63233">
        <ele>0.67</ele>
        <time>2020-05-31T16:54:43Z</time>
      </trkpt>
      <trkpt lat="47.05933" lon="-1.63227">
        <ele>0.44</ele>
        <time>2020-05-31T16:54:45Z</time>
      </trkpt>
      <trkpt lat="47.05945" lon="-1.63222">
        <ele>0.28</ele>
        <time>2020-05-31T16:54:47Z</time>
      </trkpt>
      <trkpt lat="47.05958" lon="-1.63216">
        <ele>1.1</ele>
        <time>2020-05-31T16:54:49Z</time>
      </trkpt>
      <trkpt lat="47.0597" lon="-1.6321">
        <ele>2.51</ele>
        <time>2020-05-31T16:54:51Z</time>
      </trkpt>
      <trkpt lat="47.05982" lon="-1.63204">
        <ele>3.63</ele>
        <time>2020-05-31T16:54:53Z</time>
      </trkpt>
      <trkpt lat="47.05994" lon="-1.63198">
        <ele>3.31</ele>
        <time>2020-05-31T16:54:55Z</time>
      </trkpt>
      <trkpt lat="47.06005" lon="-1.63194">
        <ele>1.64</ele>
        <time>2020-05-31T16:54:57Z</time>
      </trkpt>
      <trkpt lat="47.06015" lon="-1.63189">
        <ele>0.64</ele>
        <time>2020-05-31T16:54:59Z</time>
      </trkpt>
      <trkpt lat="47.06028" lon="-1.63183">
        <ele>0.83</ele>
        <time>2020-05-31T16:55:01Z</time>
      </trkpt>
      <trkpt lat="47.06039" lon="-1.63179">
        <ele>0.7</ele>
        <time>2020-05-31T16:55:03Z</time>
      </trkpt>
      <trkpt lat="47.06051" lon="-1.63179">
        <ele>1.05</ele>
        <time>2020-05-31T16:55:05Z</time>
      </trkpt>
      <trkpt lat="47.06055" lon="-1.63193">
        <ele>1.21</ele>
        <time>2020-05-31T16:55:07Z</time>
      </trkpt>
      <trkpt lat="47.06054" lon="-1.63215">
        <ele>0.64</ele>
        <time>2020-05-31T16:55:09Z</time>
      </trkpt>
      <trkpt lat="47.06051" lon="-1.6324">
        <ele>-0.81</ele>
        <time>2020-05-31T16:55:11Z</time>
      </trkpt>
      <trkpt lat="47.06047" lon="-1.63259">
        <ele>-1.73</ele>
        <time>2020-05-31T16:55:13Z</time>
      </trkpt>
      <trkpt lat="47.06044" lon="-1.63279">
        <ele>-2.34</ele>
        <time>2020-05-31T16:55:15Z</time>
      </trkpt>
      <trkpt lat="47.0604" lon="-1.63298">
        <ele>-3.92</ele>
        <time>2020-05-31T16:55:17Z</time>
      </trkpt>
      <trkpt lat="47.06041" lon="-1.63314">
        <ele>-4.24</ele>
        <time>2020-05-31T16:55:19Z</time>
      </trkpt>
      <trkpt lat="47.06051" lon="-1.63326">
        <ele>-3.49</ele>
        <time>2020-05-31T16:55:21Z</time>
      </trkpt>
      <trkpt lat="47.06064" lon="-1.63332">
        <ele>-2.43</ele>
        <time>2020-05-31T16:55:23Z</time>
      </trkpt>
      <trkpt lat="47.06078" lon="-1.63337">
        <ele>-1.71</ele>
        <time>2020-05-31T16:55:25Z</time>
      </trkpt>
      <trkpt lat="47.0609" lon="-1.63341">
        <ele>-1.61</ele>
        <time>2020-05-31T16:55:27Z</time>
      </trkpt>
      <trkpt lat="47.06104" lon="-1.63345">
        <ele>-1.92</ele>
        <time>2020-05-31T16:55:29Z</time>
      </trkpt>
      <trkpt lat="47.06118" lon="-1.63351">
        <ele>-2.01</ele>
        <time>2020-05-31T16:55:31Z</time>
      </trkpt>
      <trkpt lat="47.06131" lon="-1.63356">
        <ele>-2.05</ele>
        <time>2020-05-31T16:55:33Z</time>
      </trkpt>
      <trkpt lat="47.06145" lon="-1.63363">
        <ele>-1.95</ele>
        <time>2020-05-31T16:55:35Z</time>
      </trkpt>
      <trkpt lat="47.06158" lon="-1.63368">
        <ele>-2.1</ele>
        <time>2020-05-31T16:55:37Z</time>
      </trkpt>
      <trkpt lat="47.0617" lon="-1.63372">
        <ele>-2.48</ele>
        <time>2020-05-31T16:55:39Z</time>
      </trkpt>
      <trkpt lat="47.06183" lon="-1.63377">
        <ele>-2.15</ele>
        <time>2020-05-31T16:55:41Z</time>
      </trkpt>
      <trkpt lat="47.06195" lon="-1.63381">
        <ele>-1.32</ele>
        <time>2020-05-31T16:55:43Z</time>
      </trkpt>
      <trkpt lat="47.06208" lon="-1.63385">
        <ele>-0.2</ele>
        <time>2020-05-31T16:55:45Z</time>
      </trkpt>
      <trkpt lat="47.0622" lon="-1.6339">
        <ele>0.68</ele>
        <time>2020-05-31T16:55:47Z</time>
      </trkpt>
      <trkpt lat="47.06234" lon="-1.63395">
        <ele>1.3</ele>
        <time>2020-05-31T16:55:49Z</time>
      </trkpt>
      <trkpt lat="47.06245" lon="-1.63399">
        <ele>0.92</ele>
        <time>2020-05-31T16:55:51Z</time>
      </trkpt>
      <trkpt lat="47.06256" lon="-1.63403">
        <ele>-0.06</ele>
        <time>2020-05-31T16:55:53Z</time>
      </trkpt>
      <trkpt lat="47.06268" lon="-1.63409">
        <ele>-1.31</ele>
        <time>2020-05-31T16:55:55Z</time>
      </trkpt>
      <trkpt lat="47.06281" lon="-1.63413">
        <ele>-1.81</ele>
        <time>2020-05-31T16:55:57Z</time>
      </trkpt>
      <trkpt lat="47.06295" lon="-1.63419">
        <ele>-2.95</ele>
        <time>2020-05-31T16:55:59Z</time>
      </trkpt>
      <trkpt lat="47.06307" lon="-1.63424">
        <ele>-2.76</ele>
        <time>2020-05-31T16:56:01Z</time>
      </trkpt>
      <trkpt lat="47.06319" lon="-1.6343">
        <ele>-2.49</ele>
        <time>2020-05-31T16:56:03Z</time>
      </trkpt>
      <trkpt lat="47.06329" lon="-1.63437">
        <ele>-2.56</ele>
        <time>2020-05-31T16:56:05Z</time>
      </trkpt>
      <trkpt lat="47.0634" lon="-1.63447">
        <ele>-2.83</ele>
        <time>2020-05-31T16:56:07Z</time>
      </trkpt>
      <trkpt lat="47.06351" lon="-1.63459">
        <ele>-2.59</ele>
        <time>2020-05-31T16:56:09Z</time>
      </trkpt>
      <trkpt lat="47.06359" lon="-1.63471">
        <ele>-2.09</ele>
        <time>2020-05-31T16:56:11Z</time>
      </trkpt>
      <trkpt lat="47.06367" lon="-1.63488">
        <ele>-1.94</ele>
        <time>2020-05-31T16:56:13Z</time>
      </trkpt>
      <trkpt lat="47.06375" lon="-1.63506">
        <ele>-1.1</ele>
        <time>2020-05-31T16:56:15Z</time>
      </trkpt>
      <trkpt lat="47.06383" lon="-1.63524">
        <ele>-1.24</ele>
        <time>2020-05-31T16:56:17Z</time>
      </trkpt>
      <trkpt lat="47.06393" lon="-1.63536">
        <ele>-2.11</ele>
        <time>2020-05-31T16:56:19Z</time>
      </trkpt>
      <trkpt lat="47.06404" lon="-1.63544">
        <ele>-2.54</ele>
        <time>2020-05-31T16:56:21Z</time>
      </trkpt>
      <trkpt lat="47.06415" lon="-1.63553">
        <ele>-1.72</ele>
        <time>2020-05-31T16:56:23Z</time>
      </trkpt>
      <trkpt lat="47.06424" lon="-1.6356">
        <ele>-1.48</ele>
        <time>2020-05-31T16:56:25Z</time>
      </trkpt>
      <trkpt lat="47.06435" lon="-1.6357">
        <ele>-2.06</ele>
        <time>2020-05-31T16:56:27Z</time>
      </trkpt>
      <trkpt lat="47.06446" lon="-1.63579">
        <ele>-2.68</ele>
        <time>2020-05-31T16:56:29Z</time>
      </trkpt>
      <trkpt lat="47.06458" lon="-1.63589">
        <ele>-2.95</ele>
        <time>2020-05-31T16:56:31Z</time>
      </trkpt>
      <trkpt lat="47.0647" lon="-1.63599">
        <ele>-3.3</ele>
        <time>2020-05-31T16:56:33Z</time>
      </trkpt>
      <trkpt lat="47.06481" lon="-1.6361">
        <ele>-4.11</ele>
        <time>2020-05-31T16:56:35Z</time>
      </trkpt>
      <trkpt lat="47.06491" lon="-1.63617">
        <ele>-4.09</ele>
        <time>2020-05-31T16:56:37Z</time>
      </trkpt>
      <trkpt lat="47.06502" lon="-1.63625">
        <ele>-4.14</ele>
        <time>2020-05-31T16:56:39Z</time>
      </trkpt>
      <trkpt lat="47.06513" lon="-1.63632">
        <ele>-3.67</ele>
        <time>2020-05-31T16:56:41Z</time>
      </trkpt>
      <trkpt lat="47.06524" lon="-1.63641">
        <ele>-2.76</ele>
        <time>2020-05-31T16:56:43Z</time>
      </trkpt>
      <trkpt lat="47.06536" lon="-1.63649">
        <ele>-2.61</ele>
        <time>2020-05-31T16:56:45Z</time>
      </trkpt>
      <trkpt lat="47.06549" lon="-1.63658">
        <ele>-2.21</ele>
        <time>2020-05-31T16:56:47Z</time>
      </trkpt>
      <trkpt lat="47.0656" lon="-1.63666">
        <ele>-2.42</ele>
        <time>2020-05-31T16:56:49Z</time>
      </trkpt>
      <trkpt lat="47.0657" lon="-1.63674">
        <ele>-3.08</ele>
        <time>2020-05-31T16:56:51Z</time>
      </trkpt>
      <trkpt lat="47.06579" lon="-1.63682">
        <ele>-3.36</ele>
        <time>2020-05-31T16:56:53Z</time>
      </trkpt>
      <trkpt lat="47.06589" lon="-1.63691">
        <ele>-2</ele>
        <time>2020-05-31T16:56:56Z</time>
      </trkpt>
      <trkpt lat="47.06598" lon="-1.63702">
        <ele>-1.79</ele>
        <time>2020-05-31T16:56:57Z</time>
      </trkpt>
      <trkpt lat="47.06607" lon="-1.63713">
        <ele>-2.33</ele>
        <time>2020-05-31T16:57:00Z</time>
      </trkpt>
      <trkpt lat="47.06617" lon="-1.63725">
        <ele>-2.66</ele>
        <time>2020-05-31T16:57:02Z</time>
      </trkpt>
      <trkpt lat="47.06627" lon="-1.63738">
        <ele>-2.8</ele>
        <time>2020-05-31T16:57:04Z</time>
      </trkpt>
      <trkpt lat="47.06636" lon="-1.63751">
        <ele>-2.44</ele>
        <time>2020-05-31T16:57:06Z</time>
      </trkpt>
      <trkpt lat="47.06646" lon="-1.63764">
        <ele>-2.47</ele>
        <time>2020-05-31T16:57:08Z</time>
      </trkpt>
      <trkpt lat="47.06655" lon="-1.63776">
        <ele>-2.78</ele>
        <time>2020-05-31T16:57:10Z</time>
      </trkpt>
      <trkpt lat="47.06665" lon="-1.63789">
        <ele>-2.81</ele>
        <time>2020-05-31T16:57:12Z</time>
      </trkpt>
      <trkpt lat="47.06673" lon="-1.638">
        <ele>-3.14</ele>
        <time>2020-05-31T16:57:14Z</time>
      </trkpt>
      <trkpt lat="47.06682" lon="-1.63812">
        <ele>-3.39</ele>
        <time>2020-05-31T16:57:16Z</time>
      </trkpt>
      <trkpt lat="47.06692" lon="-1.63825">
        <ele>-3.75</ele>
        <time>2020-05-31T16:57:18Z</time>
      </trkpt>
      <trkpt lat="47.06702" lon="-1.63836">
        <ele>-3.71</ele>
        <time>2020-05-31T16:57:20Z</time>
      </trkpt>
      <trkpt lat="47.06715" lon="-1.63842">
        <ele>-3.86</ele>
        <time>2020-05-31T16:57:22Z</time>
      </trkpt>
      <trkpt lat="47.06728" lon="-1.63836">
        <ele>-4.57</ele>
        <time>2020-05-31T16:57:24Z</time>
      </trkpt>
      <trkpt lat="47.06741" lon="-1.63827">
        <ele>-4.71</ele>
        <time>2020-05-31T16:57:26Z</time>
      </trkpt>
      <trkpt lat="47.06751" lon="-1.63818">
        <ele>-4.79</ele>
        <time>2020-05-31T16:57:28Z</time>
      </trkpt>
      <trkpt lat="47.0676" lon="-1.63808">
        <ele>-4.46</ele>
        <time>2020-05-31T16:57:30Z</time>
      </trkpt>
      <trkpt lat="47.06769" lon="-1.63799">
        <ele>-4.74</ele>
        <time>2020-05-31T16:57:32Z</time>
      </trkpt>
      <trkpt lat="47.06778" lon="-1.63791">
        <ele>-4.59</ele>
        <time>2020-05-31T16:57:34Z</time>
      </trkpt>
      <trkpt lat="47.06787" lon="-1.63782">
        <ele>-4.5</ele>
        <time>2020-05-31T16:57:36Z</time>
      </trkpt>
      <trkpt lat="47.06797" lon="-1.63773">
        <ele>-4.91</ele>
        <time>2020-05-31T16:57:38Z</time>
      </trkpt>
      <trkpt lat="47.06806" lon="-1.63764">
        <ele>-5.11</ele>
        <time>2020-05-31T16:57:40Z</time>
      </trkpt>
      <trkpt lat="47.06814" lon="-1.63756">
        <ele>-4.69</ele>
        <time>2020-05-31T16:57:42Z</time>
      </trkpt>
      <trkpt lat="47.06822" lon="-1.63746">
        <ele>-3.44</ele>
        <time>2020-05-31T16:57:44Z</time>
      </trkpt>
      <trkpt lat="47.06831" lon="-1.63735">
        <ele>-2.13</ele>
        <time>2020-05-31T16:57:46Z</time>
      </trkpt>
      <trkpt lat="47.06839" lon="-1.63722">
        <ele>-2.18</ele>
        <time>2020-05-31T16:57:48Z</time>
      </trkpt>
      <trkpt lat="47.06846" lon="-1.63704">
        <ele>-2.15</ele>
        <time>2020-05-31T16:57:50Z</time>
      </trkpt>
      <trkpt lat="47.06849" lon="-1.63687">
        <ele>-1.7</ele>
        <time>2020-05-31T16:57:52Z</time>
      </trkpt>
      <trkpt lat="47.06853" lon="-1.63669">
        <ele>-0.93</ele>
        <time>2020-05-31T16:57:54Z</time>
      </trkpt>
      <trkpt lat="47.06855" lon="-1.6365">
        <ele>-0.39</ele>
        <time>2020-05-31T16:57:56Z</time>
      </trkpt>
      <trkpt lat="47.06857" lon="-1.63634">
        <ele>-0.17</ele>
        <time>2020-05-31T16:57:58Z</time>
      </trkpt>
      <trkpt lat="47.06857" lon="-1.63618">
        <ele>0.25</ele>
        <time>2020-05-31T16:58:00Z</time>
      </trkpt>
      <trkpt lat="47.06858" lon="-1.636">
        <ele>-0.06</ele>
        <time>2020-05-31T16:58:02Z</time>
      </trkpt>
      <trkpt lat="47.0686" lon="-1.6358">
        <ele>-0.66</ele>
        <time>2020-05-31T16:58:04Z</time>
      </trkpt>
      <trkpt lat="47.06861" lon="-1.63563">
        <ele>-0.17</ele>
        <time>2020-05-31T16:58:06Z</time>
      </trkpt>
      <trkpt lat="47.06862" lon="-1.63547">
        <ele>0.35</ele>
        <time>2020-05-31T16:58:08Z</time>
      </trkpt>
      <trkpt lat="47.06865" lon="-1.63531">
        <ele>0.77</ele>
        <time>2020-05-31T16:58:10Z</time>
      </trkpt>
      <trkpt lat="47.06868" lon="-1.63516">
        <ele>1.63</ele>
        <time>2020-05-31T16:58:12Z</time>
      </trkpt>
      <trkpt lat="47.06873" lon="-1.63499">
        <ele>2.37</ele>
        <time>2020-05-31T16:58:14Z</time>
      </trkpt>
      <trkpt lat="47.06877" lon="-1.63485">
        <ele>1.88</ele>
        <time>2020-05-31T16:58:16Z</time>
      </trkpt>
      <trkpt lat="47.06885" lon="-1.63472">
        <ele>0.21</ele>
        <time>2020-05-31T16:58:18Z</time>
      </trkpt>
      <trkpt lat="47.06894" lon="-1.63461">
        <ele>-0.42</ele>
        <time>2020-05-31T16:58:20Z</time>
      </trkpt>
      <trkpt lat="47.06905" lon="-1.63453">
        <ele>-0.68</ele>
        <time>2020-05-31T16:58:22Z</time>
      </trkpt>
      <trkpt lat="47.06913" lon="-1.63448">
        <ele>-0.58</ele>
        <time>2020-05-31T16:58:24Z</time>
      </trkpt>
      <trkpt lat="47.06924" lon="-1.63443">
        <ele>0.48</ele>
        <time>2020-05-31T16:58:26Z</time>
      </trkpt>
      <trkpt lat="47.06934" lon="-1.63439">
        <ele>0.52</ele>
        <time>2020-05-31T16:58:28Z</time>
      </trkpt>
      <trkpt lat="47.06945" lon="-1.63432">
        <ele>0.85</ele>
        <time>2020-05-31T16:58:30Z</time>
      </trkpt>
      <trkpt lat="47.06956" lon="-1.63425">
        <ele>0.75</ele>
        <time>2020-05-31T16:58:32Z</time>
      </trkpt>
      <trkpt lat="47.06968" lon="-1.63415">
        <ele>0.43</ele>
        <time>2020-05-31T16:58:35Z</time>
      </trkpt>
      <trkpt lat="47.06977" lon="-1.63407">
        <ele>0.4</ele>
        <time>2020-05-31T16:58:37Z</time>
      </trkpt>
      <trkpt lat="47.06986" lon="-1.63399">
        <ele>0.65</ele>
        <time>2020-05-31T16:58:39Z</time>
      </trkpt>
      <trkpt lat="47.06994" lon="-1.6339">
        <ele>-0.22</ele>
        <time>2020-05-31T16:58:41Z</time>
      </trkpt>
      <trkpt lat="47.07003" lon="-1.63381">
        <ele>-0.66</ele>
        <time>2020-05-31T16:58:43Z</time>
      </trkpt>
      <trkpt lat="47.07011" lon="-1.63373">
        <ele>-0.03</ele>
        <time>2020-05-31T16:58:45Z</time>
      </trkpt>
      <trkpt lat="47.0702" lon="-1.63365">
        <ele>0.74</ele>
        <time>2020-05-31T16:58:47Z</time>
      </trkpt>
      <trkpt lat="47.07029" lon="-1.63354">
        <ele>1.15</ele>
        <time>2020-05-31T16:58:49Z</time>
      </trkpt>
      <trkpt lat="47.07038" lon="-1.63345">
        <ele>0.79</ele>
        <time>2020-05-31T16:58:51Z</time>
      </trkpt>
      <trkpt lat="47.07047" lon="-1.63338">
        <ele>0.6</ele>
        <time>2020-05-31T16:58:53Z</time>
      </trkpt>
      <trkpt lat="47.07056" lon="-1.63327">
        <ele>0.91</ele>
        <time>2020-05-31T16:58:55Z</time>
      </trkpt>
      <trkpt lat="47.07065" lon="-1.63314">
        <ele>1</ele>
        <time>2020-05-31T16:58:57Z</time>
      </trkpt>
      <trkpt lat="47.07073" lon="-1.63301">
        <ele>0.28</ele>
        <time>2020-05-31T16:58:59Z</time>
      </trkpt>
      <trkpt lat="47.07078" lon="-1.63287">
        <ele>0.15</ele>
        <time>2020-05-31T16:59:01Z</time>
      </trkpt>
      <trkpt lat="47.07084" lon="-1.63267">
        <ele>-0.88</ele>
        <time>2020-05-31T16:59:03Z</time>
      </trkpt>
      <trkpt lat="47.07088" lon="-1.63248">
        <ele>-0.96</ele>
        <time>2020-05-31T16:59:05Z</time>
      </trkpt>
      <trkpt lat="47.07091" lon="-1.63229">
        <ele>-0.37</ele>
        <time>2020-05-31T16:59:07Z</time>
      </trkpt>
      <trkpt lat="47.07092" lon="-1.6321">
        <ele>0.11</ele>
        <time>2020-05-31T16:59:09Z</time>
      </trkpt>
      <trkpt lat="47.07093" lon="-1.63195">
        <ele>0.04</ele>
        <time>2020-05-31T16:59:11Z</time>
      </trkpt>
      <trkpt lat="47.07095" lon="-1.63178">
        <ele>0.96</ele>
        <time>2020-05-31T16:59:13Z</time>
      </trkpt>
      <trkpt lat="47.07102" lon="-1.63164">
        <ele>1.84</ele>
        <time>2020-05-31T16:59:15Z</time>
      </trkpt>
      <trkpt lat="47.07108" lon="-1.63153">
        <ele>3.25</ele>
        <time>2020-05-31T16:59:17Z</time>
      </trkpt>
      <trkpt lat="47.07119" lon="-1.63144">
        <ele>4.08</ele>
        <time>2020-05-31T16:59:19Z</time>
      </trkpt>
      <trkpt lat="47.0713" lon="-1.63134">
        <ele>4.97</ele>
        <time>2020-05-31T16:59:21Z</time>
      </trkpt>
      <trkpt lat="47.07142" lon="-1.63126">
        <ele>4.15</ele>
        <time>2020-05-31T16:59:23Z</time>
      </trkpt>
      <trkpt lat="47.07153" lon="-1.63123">
        <ele>3.43</ele>
        <time>2020-05-31T16:59:25Z</time>
      </trkpt>
      <trkpt lat="47.07167" lon="-1.63122">
        <ele>3.27</ele>
        <time>2020-05-31T16:59:27Z</time>
      </trkpt>
      <trkpt lat="47.07181" lon="-1.63123">
        <ele>3.04</ele>
        <time>2020-05-31T16:59:29Z</time>
      </trkpt>
      <trkpt lat="47.07194" lon="-1.63125">
        <ele>2.23</ele>
        <time>2020-05-31T16:59:31Z</time>
      </trkpt>
      <trkpt lat="47.07205" lon="-1.63127">
        <ele>1.99</ele>
        <time>2020-05-31T16:59:33Z</time>
      </trkpt>
      <trkpt lat="47.07214" lon="-1.63133">
        <ele>0.99</ele>
        <time>2020-05-31T16:59:35Z</time>
      </trkpt>
      <trkpt lat="47.07225" lon="-1.63144">
        <ele>-0.9</ele>
        <time>2020-05-31T16:59:37Z</time>
      </trkpt>
      <trkpt lat="47.07236" lon="-1.63154">
        <ele>-0.57</ele>
        <time>2020-05-31T16:59:39Z</time>
      </trkpt>
      <trkpt lat="47.07247" lon="-1.63163">
        <ele>-0.26</ele>
        <time>2020-05-31T16:59:41Z</time>
      </trkpt>
      <trkpt lat="47.07258" lon="-1.63173">
        <ele>-0.01</ele>
        <time>2020-05-31T16:59:43Z</time>
      </trkpt>
      <trkpt lat="47.07267" lon="-1.63182">
        <ele>0.84</ele>
        <time>2020-05-31T16:59:45Z</time>
      </trkpt>
      <trkpt lat="47.07277" lon="-1.63194">
        <ele>1.07</ele>
        <time>2020-05-31T16:59:47Z</time>
      </trkpt>
      <trkpt lat="47.07286" lon="-1.63207">
        <ele>1.52</ele>
        <time>2020-05-31T16:59:49Z</time>
      </trkpt>
      <trkpt lat="47.07294" lon="-1.6322">
        <ele>1.37</ele>
        <time>2020-05-31T16:59:51Z</time>
      </trkpt>
      <trkpt lat="47.07302" lon="-1.63233">
        <ele>0.93</ele>
        <time>2020-05-31T16:59:53Z</time>
      </trkpt>
      <trkpt lat="47.0731" lon="-1.63244">
        <ele>1.04</ele>
        <time>2020-05-31T16:59:55Z</time>
      </trkpt>
      <trkpt lat="47.07318" lon="-1.63254">
        <ele>1.14</ele>
        <time>2020-05-31T16:59:57Z</time>
      </trkpt>
      <trkpt lat="47.07327" lon="-1.63267">
        <ele>0.54</ele>
        <time>2020-05-31T16:59:59Z</time>
      </trkpt>
      <trkpt lat="47.07336" lon="-1.63277">
        <ele>-0.43</ele>
        <time>2020-05-31T17:00:01Z</time>
      </trkpt>
      <trkpt lat="47.07345" lon="-1.63287">
        <ele>-1.04</ele>
        <time>2020-05-31T17:00:03Z</time>
      </trkpt>
      <trkpt lat="47.07355" lon="-1.63294">
        <ele>-1.68</ele>
        <time>2020-05-31T17:00:05Z</time>
      </trkpt>
      <trkpt lat="47.07365" lon="-1.63302">
        <ele>-2.28</ele>
        <time>2020-05-31T17:00:07Z</time>
      </trkpt>
      <trkpt lat="47.07377" lon="-1.6331">
        <ele>-2.74</ele>
        <time>2020-05-31T17:00:09Z</time>
      </trkpt>
      <trkpt lat="47.07387" lon="-1.63317">
        <ele>-2.4</ele>
        <time>2020-05-31T17:00:11Z</time>
      </trkpt>
      <trkpt lat="47.07398" lon="-1.63324">
        <ele>-1.72</ele>
        <time>2020-05-31T17:00:13Z</time>
      </trkpt>
      <trkpt lat="47.07409" lon="-1.63332">
        <ele>-1.71</ele>
        <time>2020-05-31T17:00:15Z</time>
      </trkpt>
      <trkpt lat="47.07421" lon="-1.63339">
        <ele>-1.95</ele>
        <time>2020-05-31T17:00:17Z</time>
      </trkpt>
      <trkpt lat="47.0743" lon="-1.63345">
        <ele>-2.65</ele>
        <time>2020-05-31T17:00:19Z</time>
      </trkpt>
      <trkpt lat="47.07442" lon="-1.63353">
        <ele>-2.96</ele>
        <time>2020-05-31T17:00:21Z</time>
      </trkpt>
      <trkpt lat="47.07454" lon="-1.63361">
        <ele>-3.78</ele>
        <time>2020-05-31T17:00:23Z</time>
      </trkpt>
      <trkpt lat="47.07465" lon="-1.63368">
        <ele>-2.93</ele>
        <time>2020-05-31T17:00:25Z</time>
      </trkpt>
      <trkpt lat="47.07477" lon="-1.63375">
        <ele>-1.71</ele>
        <time>2020-05-31T17:00:27Z</time>
      </trkpt>
      <trkpt lat="47.07487" lon="-1.63381">
        <ele>-2.17</ele>
        <time>2020-05-31T17:00:29Z</time>
      </trkpt>
      <trkpt lat="47.07496" lon="-1.63387">
        <ele>-2.96</ele>
        <time>2020-05-31T17:00:31Z</time>
      </trkpt>
      <trkpt lat="47.07507" lon="-1.63393">
        <ele>-3.24</ele>
        <time>2020-05-31T17:00:33Z</time>
      </trkpt>
      <trkpt lat="47.07518" lon="-1.63399">
        <ele>-3.09</ele>
        <time>2020-05-31T17:00:35Z</time>
      </trkpt>
      <trkpt lat="47.07529" lon="-1.63407">
        <ele>-3.41</ele>
        <time>2020-05-31T17:00:37Z</time>
      </trkpt>
      <trkpt lat="47.07542" lon="-1.63414">
        <ele>-3.12</ele>
        <time>2020-05-31T17:00:39Z</time>
      </trkpt>
      <trkpt lat="47.07554" lon="-1.63422">
        <ele>-1.65</ele>
        <time>2020-05-31T17:00:41Z</time>
      </trkpt>
      <trkpt lat="47.07564" lon="-1.63428">
        <ele>-0.76</ele>
        <time>2020-05-31T17:00:43Z</time>
      </trkpt>
      <trkpt lat="47.07576" lon="-1.63434">
        <ele>-0.98</ele>
        <time>2020-05-31T17:00:45Z</time>
      </trkpt>
      <trkpt lat="47.07586" lon="-1.63437">
        <ele>-1.08</ele>
        <time>2020-05-31T17:00:47Z</time>
      </trkpt>
      <trkpt lat="47.07599" lon="-1.63441">
        <ele>-0.57</ele>
        <time>2020-05-31T17:00:49Z</time>
      </trkpt>
      <trkpt lat="47.07612" lon="-1.63441">
        <ele>-0.48</ele>
        <time>2020-05-31T17:00:51Z</time>
      </trkpt>
      <trkpt lat="47.07623" lon="-1.63437">
        <ele>-0.65</ele>
        <time>2020-05-31T17:00:53Z</time>
      </trkpt>
      <trkpt lat="47.07634" lon="-1.63432">
        <ele>-0.7</ele>
        <time>2020-05-31T17:00:55Z</time>
      </trkpt>
      <trkpt lat="47.07645" lon="-1.63427">
        <ele>-1.1</ele>
        <time>2020-05-31T17:00:57Z</time>
      </trkpt>
      <trkpt lat="47.07655" lon="-1.63422">
        <ele>-1.77</ele>
        <time>2020-05-31T17:00:59Z</time>
      </trkpt>
      <trkpt lat="47.07666" lon="-1.63419">
        <ele>-1.98</ele>
        <time>2020-05-31T17:01:01Z</time>
      </trkpt>
      <trkpt lat="47.07677" lon="-1.63416">
        <ele>-1.88</ele>
        <time>2020-05-31T17:01:03Z</time>
      </trkpt>
      <trkpt lat="47.07688" lon="-1.63412">
        <ele>-1.61</ele>
        <time>2020-05-31T17:01:05Z</time>
      </trkpt>
      <trkpt lat="47.07698" lon="-1.63407">
        <ele>-1.78</ele>
        <time>2020-05-31T17:01:07Z</time>
      </trkpt>
      <trkpt lat="47.07708" lon="-1.63398">
        <ele>-2.61</ele>
        <time>2020-05-31T17:01:09Z</time>
      </trkpt>
      <trkpt lat="47.07716" lon="-1.63389">
        <ele>-3.25</ele>
        <time>2020-05-31T17:01:11Z</time>
      </trkpt>
      <trkpt lat="47.07725" lon="-1.63378">
        <ele>-3.84</ele>
        <time>2020-05-31T17:01:13Z</time>
      </trkpt>
      <trkpt lat="47.07733" lon="-1.63369">
        <ele>-3.62</ele>
        <time>2020-05-31T17:01:15Z</time>
      </trkpt>
      <trkpt lat="47.0774" lon="-1.63359">
        <ele>-3.43</ele>
        <time>2020-05-31T17:01:17Z</time>
      </trkpt>
      <trkpt lat="47.0775" lon="-1.63348">
        <ele>-3.45</ele>
        <time>2020-05-31T17:01:19Z</time>
      </trkpt>
      <trkpt lat="47.07757" lon="-1.63338">
        <ele>-2.98</ele>
        <time>2020-05-31T17:01:21Z</time>
      </trkpt>
      <trkpt lat="47.07766" lon="-1.63327">
        <ele>-2.21</ele>
        <time>2020-05-31T17:01:23Z</time>
      </trkpt>
      <trkpt lat="47.07778" lon="-1.63312">
        <ele>-0.71</ele>
        <time>2020-05-31T17:01:26Z</time>
      </trkpt>
      <trkpt lat="47.07791" lon="-1.63296">
        <ele>-0.89</ele>
        <time>2020-05-31T17:01:29Z</time>
      </trkpt>
      <trkpt lat="47.07801" lon="-1.63284">
        <ele>-0.08</ele>
        <time>2020-05-31T17:01:31Z</time>
      </trkpt>
      <trkpt lat="47.07809" lon="-1.63273">
        <ele>0.72</ele>
        <time>2020-05-31T17:01:33Z</time>
      </trkpt>
      <trkpt lat="47.07817" lon="-1.63263">
        <ele>1.28</ele>
        <time>2020-05-31T17:01:35Z</time>
      </trkpt>
      <trkpt lat="47.07824" lon="-1.63247">
        <ele>1.53</ele>
        <time>2020-05-31T17:01:37Z</time>
      </trkpt>
      <trkpt lat="47.07828" lon="-1.63229">
        <ele>0.04</ele>
        <time>2020-05-31T17:01:39Z</time>
      </trkpt>
      <trkpt lat="47.07825" lon="-1.63215">
        <ele>-0.38</ele>
        <time>2020-05-31T17:01:41Z</time>
      </trkpt>
      <trkpt lat="47.0782" lon="-1.632">
        <ele>0.4</ele>
        <time>2020-05-31T17:01:43Z</time>
      </trkpt>
      <trkpt lat="47.07814" lon="-1.63187">
        <ele>0.47</ele>
        <time>2020-05-31T17:01:45Z</time>
      </trkpt>
      <trkpt lat="47.07808" lon="-1.63174">
        <ele>-0.14</ele>
        <time>2020-05-31T17:01:47Z</time>
      </trkpt>
      <trkpt lat="47.07801" lon="-1.6316">
        <ele>-1.52</ele>
        <time>2020-05-31T17:01:49Z</time>
      </trkpt>
      <trkpt lat="47.07797" lon="-1.63147">
        <ele>-2.09</ele>
        <time>2020-05-31T17:01:51Z</time>
      </trkpt>
      <trkpt lat="47.078" lon="-1.63132">
        <ele>-3.07</ele>
        <time>2020-05-31T17:01:54Z</time>
      </trkpt>
      <trkpt lat="47.07809" lon="-1.63131">
        <ele>-3.39</ele>
        <time>2020-05-31T17:01:56Z</time>
      </trkpt>
      <trkpt lat="47.07819" lon="-1.63131">
        <ele>-4.2</ele>
        <time>2020-05-31T17:01:58Z</time>
      </trkpt>
      <trkpt lat="47.0783" lon="-1.6313">
        <ele>-3.93</ele>
        <time>2020-05-31T17:02:00Z</time>
      </trkpt>
      <trkpt lat="47.0784" lon="-1.63129">
        <ele>-3.77</ele>
        <time>2020-05-31T17:02:02Z</time>
      </trkpt>
      <trkpt lat="47.07852" lon="-1.63129">
        <ele>-3.75</ele>
        <time>2020-05-31T17:02:04Z</time>
      </trkpt>
      <trkpt lat="47.07866" lon="-1.63127">
        <ele>-3.13</ele>
        <time>2020-05-31T17:02:06Z</time>
      </trkpt>
      <trkpt lat="47.07879" lon="-1.63126">
        <ele>-2.1</ele>
        <time>2020-05-31T17:02:08Z</time>
      </trkpt>
      <trkpt lat="47.07891" lon="-1.63125">
        <ele>-2.75</ele>
        <time>2020-05-31T17:02:10Z</time>
      </trkpt>
      <trkpt lat="47.07903" lon="-1.63123">
        <ele>-4</ele>
        <time>2020-05-31T17:02:12Z</time>
      </trkpt>
      <trkpt lat="47.07913" lon="-1.63123">
        <ele>-3.54</ele>
        <time>2020-05-31T17:02:14Z</time>
      </trkpt>
      <trkpt lat="47.07925" lon="-1.63121">
        <ele>-2.56</ele>
        <time>2020-05-31T17:02:16Z</time>
      </trkpt>
      <trkpt lat="47.07936" lon="-1.6312">
        <ele>-3.88</ele>
        <time>2020-05-31T17:02:18Z</time>
      </trkpt>
      <trkpt lat="47.07947" lon="-1.6312">
        <ele>-3.57</ele>
        <time>2020-05-31T17:02:20Z</time>
      </trkpt>
      <trkpt lat="47.07961" lon="-1.63118">
        <ele>-3.62</ele>
        <time>2020-05-31T17:02:22Z</time>
      </trkpt>
      <trkpt lat="47.07973" lon="-1.63117">
        <ele>-2.98</ele>
        <time>2020-05-31T17:02:24Z</time>
      </trkpt>
      <trkpt lat="47.07985" lon="-1.63116">
        <ele>-3.2</ele>
        <time>2020-05-31T17:02:26Z</time>
      </trkpt>
      <trkpt lat="47.07996" lon="-1.63115">
        <ele>-3.66</ele>
        <time>2020-05-31T17:02:28Z</time>
      </trkpt>
      <trkpt lat="47.08005" lon="-1.63115">
        <ele>-4.56</ele>
        <time>2020-05-31T17:02:30Z</time>
      </trkpt>
      <trkpt lat="47.08016" lon="-1.63114">
        <ele>-4.48</ele>
        <time>2020-05-31T17:02:32Z</time>
      </trkpt>
      <trkpt lat="47.08027" lon="-1.63112">
        <ele>-3.8</ele>
        <time>2020-05-31T17:02:34Z</time>
      </trkpt>
      <trkpt lat="47.0804" lon="-1.6311">
        <ele>-2.94</ele>
        <time>2020-05-31T17:02:36Z</time>
      </trkpt>
      <trkpt lat="47.08052" lon="-1.6311">
        <ele>-2.48</ele>
        <time>2020-05-31T17:02:38Z</time>
      </trkpt>
      <trkpt lat="47.08064" lon="-1.63109">
        <ele>-3.41</ele>
        <time>2020-05-31T17:02:40Z</time>
      </trkpt>
      <trkpt lat="47.08076" lon="-1.63108">
        <ele>-3.02</ele>
        <time>2020-05-31T17:02:42Z</time>
      </trkpt>
      <trkpt lat="47.08091" lon="-1.63106">
        <ele>-2.93</ele>
        <time>2020-05-31T17:02:44Z</time>
      </trkpt>
      <trkpt lat="47.08105" lon="-1.63104">
        <ele>-3.76</ele>
        <time>2020-05-31T17:02:46Z</time>
      </trkpt>
      <trkpt lat="47.08116" lon="-1.63102">
        <ele>-3.91</ele>
        <time>2020-05-31T17:02:48Z</time>
      </trkpt>
      <trkpt lat="47.08127" lon="-1.63101">
        <ele>-3.42</ele>
        <time>2020-05-31T17:02:50Z</time>
      </trkpt>
      <trkpt lat="47.08139" lon="-1.63099">
        <ele>-2.56</ele>
        <time>2020-05-31T17:02:52Z</time>
      </trkpt>
      <trkpt lat="47.08153" lon="-1.63097">
        <ele>-3.08</ele>
        <time>2020-05-31T17:02:54Z</time>
      </trkpt>
      <trkpt lat="47.08166" lon="-1.63096">
        <ele>-2.68</ele>
        <time>2020-05-31T17:02:56Z</time>
      </trkpt>
      <trkpt lat="47.08178" lon="-1.63095">
        <ele>-1.66</ele>
        <time>2020-05-31T17:02:58Z</time>
      </trkpt>
      <trkpt lat="47.08189" lon="-1.63095">
        <ele>-1.49</ele>
        <time>2020-05-31T17:03:00Z</time>
      </trkpt>
      <trkpt lat="47.08202" lon="-1.63095">
        <ele>-2.08</ele>
        <time>2020-05-31T17:03:02Z</time>
      </trkpt>
      <trkpt lat="47.08214" lon="-1.63094">
        <ele>-2.96</ele>
        <time>2020-05-31T17:03:04Z</time>
      </trkpt>
      <trkpt lat="47.08226" lon="-1.63092">
        <ele>-2.35</ele>
        <time>2020-05-31T17:03:06Z</time>
      </trkpt>
      <trkpt lat="47.08236" lon="-1.63091">
        <ele>-2.38</ele>
        <time>2020-05-31T17:03:08Z</time>
      </trkpt>
      <trkpt lat="47.08247" lon="-1.6309">
        <ele>-1.22</ele>
        <time>2020-05-31T17:03:10Z</time>
      </trkpt>
      <trkpt lat="47.08259" lon="-1.63089">
        <ele>-0.05</ele>
        <time>2020-05-31T17:03:12Z</time>
      </trkpt>
      <trkpt lat="47.08271" lon="-1.63088">
        <ele>-0.05</ele>
        <time>2020-05-31T17:03:14Z</time>
      </trkpt>
      <trkpt lat="47.08281" lon="-1.63088">
        <ele>0.28</ele>
        <time>2020-05-31T17:03:16Z</time>
      </trkpt>
      <trkpt lat="47.08294" lon="-1.63087">
        <ele>1.61</ele>
        <time>2020-05-31T17:03:18Z</time>
      </trkpt>
      <trkpt lat="47.08308" lon="-1.63086">
        <ele>0.88</ele>
        <time>2020-05-31T17:03:20Z</time>
      </trkpt>
      <trkpt lat="47.08323" lon="-1.63084">
        <ele>-0.36</ele>
        <time>2020-05-31T17:03:22Z</time>
      </trkpt>
      <trkpt lat="47.08335" lon="-1.63083">
        <ele>-1.38</ele>
        <time>2020-05-31T17:03:24Z</time>
      </trkpt>
      <trkpt lat="47.08347" lon="-1.63083">
        <ele>-1.95</ele>
        <time>2020-05-31T17:03:26Z</time>
      </trkpt>
      <trkpt lat="47.0836" lon="-1.63083">
        <ele>-1.92</ele>
        <time>2020-05-31T17:03:28Z</time>
      </trkpt>
      <trkpt lat="47.08373" lon="-1.63082">
        <ele>-1.36</ele>
        <time>2020-05-31T17:03:30Z</time>
      </trkpt>
      <trkpt lat="47.08385" lon="-1.63079">
        <ele>-1.51</ele>
        <time>2020-05-31T17:03:32Z</time>
      </trkpt>
      <trkpt lat="47.08398" lon="-1.63073">
        <ele>-0.77</ele>
        <time>2020-05-31T17:03:34Z</time>
      </trkpt>
      <trkpt lat="47.08411" lon="-1.63064">
        <ele>-0.99</ele>
        <time>2020-05-31T17:03:36Z</time>
      </trkpt>
      <trkpt lat="47.08422" lon="-1.63053">
        <ele>-0.31</ele>
        <time>2020-05-31T17:03:38Z</time>
      </trkpt>
      <trkpt lat="47.08431" lon="-1.63039">
        <ele>0.3</ele>
        <time>2020-05-31T17:03:40Z</time>
      </trkpt>
      <trkpt lat="47.0844" lon="-1.63024">
        <ele>1.47</ele>
        <time>2020-05-31T17:03:42Z</time>
      </trkpt>
      <trkpt lat="47.08449" lon="-1.6301">
        <ele>2.45</ele>
        <time>2020-05-31T17:03:44Z</time>
      </trkpt>
      <trkpt lat="47.08457" lon="-1.62994">
        <ele>2.67</ele>
        <time>2020-05-31T17:03:46Z</time>
      </trkpt>
      <trkpt lat="47.08464" lon="-1.62982">
        <ele>2.76</ele>
        <time>2020-05-31T17:03:48Z</time>
      </trkpt>
      <trkpt lat="47.08472" lon="-1.62969">
        <ele>2.94</ele>
        <time>2020-05-31T17:03:50Z</time>
      </trkpt>
      <trkpt lat="47.08477" lon="-1.62957">
        <ele>3.16</ele>
        <time>2020-05-31T17:03:52Z</time>
      </trkpt>
      <trkpt lat="47.08485" lon="-1.62944">
        <ele>5.12</ele>
        <time>2020-05-31T17:03:54Z</time>
      </trkpt>
      <trkpt lat="47.08494" lon="-1.62929">
        <ele>5.71</ele>
        <time>2020-05-31T17:03:56Z</time>
      </trkpt>
      <trkpt lat="47.08502" lon="-1.62917">
        <ele>5.98</ele>
        <time>2020-05-31T17:03:58Z</time>
      </trkpt>
      <trkpt lat="47.0851" lon="-1.62905">
        <ele>6.82</ele>
        <time>2020-05-31T17:04:00Z</time>
      </trkpt>
      <trkpt lat="47.08518" lon="-1.62893">
        <ele>5.3</ele>
        <time>2020-05-31T17:04:02Z</time>
      </trkpt>
      <trkpt lat="47.08524" lon="-1.62881">
        <ele>3.52</ele>
        <time>2020-05-31T17:04:04Z</time>
      </trkpt>
      <trkpt lat="47.08532" lon="-1.62868">
        <ele>3.11</ele>
        <time>2020-05-31T17:04:06Z</time>
      </trkpt>
      <trkpt lat="47.08541" lon="-1.62854">
        <ele>2.6</ele>
        <time>2020-05-31T17:04:08Z</time>
      </trkpt>
      <trkpt lat="47.0855" lon="-1.62841">
        <ele>1.87</ele>
        <time>2020-05-31T17:04:10Z</time>
      </trkpt>
      <trkpt lat="47.08559" lon="-1.6283">
        <ele>3.04</ele>
        <time>2020-05-31T17:04:12Z</time>
      </trkpt>
      <trkpt lat="47.08568" lon="-1.62821">
        <ele>3.81</ele>
        <time>2020-05-31T17:04:14Z</time>
      </trkpt>
      <trkpt lat="47.08578" lon="-1.62809">
        <ele>3.97</ele>
        <time>2020-05-31T17:04:16Z</time>
      </trkpt>
      <trkpt lat="47.0858" lon="-1.62793">
        <ele>2.44</ele>
        <time>2020-05-31T17:04:18Z</time>
      </trkpt>
      <trkpt lat="47.08579" lon="-1.62774">
        <ele>1.04</ele>
        <time>2020-05-31T17:04:20Z</time>
      </trkpt>
      <trkpt lat="47.08579" lon="-1.62754">
        <ele>0.04</ele>
        <time>2020-05-31T17:04:22Z</time>
      </trkpt>
      <trkpt lat="47.08579" lon="-1.62736">
        <ele>0.58</ele>
        <time>2020-05-31T17:04:24Z</time>
      </trkpt>
      <trkpt lat="47.08579" lon="-1.62717">
        <ele>0.84</ele>
        <time>2020-05-31T17:04:26Z</time>
      </trkpt>
      <trkpt lat="47.0858" lon="-1.62701">
        <ele>1.5</ele>
        <time>2020-05-31T17:04:28Z</time>
      </trkpt>
      <trkpt lat="47.0858" lon="-1.62683">
        <ele>1.28</ele>
        <time>2020-05-31T17:04:30Z</time>
      </trkpt>
      <trkpt lat="47.08581" lon="-1.62666">
        <ele>0.16</ele>
        <time>2020-05-31T17:04:32Z</time>
      </trkpt>
      <trkpt lat="47.08582" lon="-1.62649">
        <ele>-1.72</ele>
        <time>2020-05-31T17:04:34Z</time>
      </trkpt>
      <trkpt lat="47.08582" lon="-1.62632">
        <ele>-1.73</ele>
        <time>2020-05-31T17:04:36Z</time>
      </trkpt>
      <trkpt lat="47.08583" lon="-1.62616">
        <ele>-0.67</ele>
        <time>2020-05-31T17:04:38Z</time>
      </trkpt>
      <trkpt lat="47.08583" lon="-1.626">
        <ele>-0.87</ele>
        <time>2020-05-31T17:04:40Z</time>
      </trkpt>
      <trkpt lat="47.08584" lon="-1.62583">
        <ele>-1.83</ele>
        <time>2020-05-31T17:04:42Z</time>
      </trkpt>
      <trkpt lat="47.08584" lon="-1.62567">
        <ele>-2.7</ele>
        <time>2020-05-31T17:04:44Z</time>
      </trkpt>
      <trkpt lat="47.08586" lon="-1.62551">
        <ele>-3.3</ele>
        <time>2020-05-31T17:04:46Z</time>
      </trkpt>
      <trkpt lat="47.08587" lon="-1.62537">
        <ele>-2.35</ele>
        <time>2020-05-31T17:04:48Z</time>
      </trkpt>
      <trkpt lat="47.08587" lon="-1.6252">
        <ele>-1.38</ele>
        <time>2020-05-31T17:04:50Z</time>
      </trkpt>
      <trkpt lat="47.08588" lon="-1.62504">
        <ele>-0.79</ele>
        <time>2020-05-31T17:04:52Z</time>
      </trkpt>
      <trkpt lat="47.08588" lon="-1.62485">
        <ele>-0.37</ele>
        <time>2020-05-31T17:04:54Z</time>
      </trkpt>
      <trkpt lat="47.08589" lon="-1.62468">
        <ele>-0.36</ele>
        <time>2020-05-31T17:04:56Z</time>
      </trkpt>
      <trkpt lat="47.0859" lon="-1.62453">
        <ele>-0.92</ele>
        <time>2020-05-31T17:04:58Z</time>
      </trkpt>
      <trkpt lat="47.0859" lon="-1.62438">
        <ele>-1.28</ele>
        <time>2020-05-31T17:05:00Z</time>
      </trkpt>
      <trkpt lat="47.08591" lon="-1.62419">
        <ele>-3</ele>
        <time>2020-05-31T17:05:03Z</time>
      </trkpt>
      <trkpt lat="47.08593" lon="-1.62404">
        <ele>-3.85</ele>
        <time>2020-05-31T17:05:05Z</time>
      </trkpt>
      <trkpt lat="47.08594" lon="-1.62383">
        <ele>-3.26</ele>
        <time>2020-05-31T17:05:08Z</time>
      </trkpt>
      <trkpt lat="47.08596" lon="-1.62362">
        <ele>-1.84</ele>
        <time>2020-05-31T17:05:11Z</time>
      </trkpt>
      <trkpt lat="47.08605" lon="-1.62349">
        <ele>-1.37</ele>
        <time>2020-05-31T17:05:14Z</time>
      </trkpt>
      <trkpt lat="47.08615" lon="-1.62344">
        <ele>-0.92</ele>
        <time>2020-05-31T17:05:16Z</time>
      </trkpt>
      <trkpt lat="47.08624" lon="-1.62341">
        <ele>-0.26</ele>
        <time>2020-05-31T17:05:18Z</time>
      </trkpt>
      <trkpt lat="47.08635" lon="-1.62336">
        <ele>0.07</ele>
        <time>2020-05-31T17:05:20Z</time>
      </trkpt>
      <trkpt lat="47.08645" lon="-1.62333">
        <ele>0.71</ele>
        <time>2020-05-31T17:05:22Z</time>
      </trkpt>
      <trkpt lat="47.08655" lon="-1.6233">
        <ele>0.69</ele>
        <time>2020-05-31T17:05:24Z</time>
      </trkpt>
      <trkpt lat="47.08666" lon="-1.62327">
        <ele>1.21</ele>
        <time>2020-05-31T17:05:26Z</time>
      </trkpt>
      <trkpt lat="47.08675" lon="-1.62323">
        <ele>1.06</ele>
        <time>2020-05-31T17:05:28Z</time>
      </trkpt>
      <trkpt lat="47.08687" lon="-1.62318">
        <ele>1.19</ele>
        <time>2020-05-31T17:05:30Z</time>
      </trkpt>
      <trkpt lat="47.08698" lon="-1.62314">
        <ele>1.14</ele>
        <time>2020-05-31T17:05:33Z</time>
      </trkpt>
      <trkpt lat="47.08708" lon="-1.62308">
        <ele>1.88</ele>
        <time>2020-05-31T17:05:35Z</time>
      </trkpt>
      <trkpt lat="47.08719" lon="-1.62304">
        <ele>3.45</ele>
        <time>2020-05-31T17:05:37Z</time>
      </trkpt>
      <trkpt lat="47.08729" lon="-1.62299">
        <ele>3.83</ele>
        <time>2020-05-31T17:05:39Z</time>
      </trkpt>
      <trkpt lat="47.08738" lon="-1.62295">
        <ele>3.43</ele>
        <time>2020-05-31T17:05:41Z</time>
      </trkpt>
      <trkpt lat="47.08748" lon="-1.62291">
        <ele>3.58</ele>
        <time>2020-05-31T17:05:43Z</time>
      </trkpt>
      <trkpt lat="47.08761" lon="-1.62287">
        <ele>2.7</ele>
        <time>2020-05-31T17:05:45Z</time>
      </trkpt>
      <trkpt lat="47.0877" lon="-1.62282">
        <ele>1.85</ele>
        <time>2020-05-31T17:05:47Z</time>
      </trkpt>
      <trkpt lat="47.08779" lon="-1.62279">
        <ele>0.95</ele>
        <time>2020-05-31T17:05:49Z</time>
      </trkpt>
      <trkpt lat="47.08788" lon="-1.62275">
        <ele>1.21</ele>
        <time>2020-05-31T17:05:51Z</time>
      </trkpt>
      <trkpt lat="47.088" lon="-1.6227">
        <ele>0.2</ele>
        <time>2020-05-31T17:05:53Z</time>
      </trkpt>
      <trkpt lat="47.08812" lon="-1.62265">
        <ele>-0.49</ele>
        <time>2020-05-31T17:05:55Z</time>
      </trkpt>
      <trkpt lat="47.08821" lon="-1.62261">
        <ele>-0.56</ele>
        <time>2020-05-31T17:05:57Z</time>
      </trkpt>
      <trkpt lat="47.08831" lon="-1.62256">
        <ele>-0.75</ele>
        <time>2020-05-31T17:05:59Z</time>
      </trkpt>
      <trkpt lat="47.08841" lon="-1.62251">
        <ele>0.36</ele>
        <time>2020-05-31T17:06:01Z</time>
      </trkpt>
      <trkpt lat="47.08853" lon="-1.62247">
        <ele>1.69</ele>
        <time>2020-05-31T17:06:03Z</time>
      </trkpt>
      <trkpt lat="47.08863" lon="-1.62244">
        <ele>2.31</ele>
        <time>2020-05-31T17:06:05Z</time>
      </trkpt>
      <trkpt lat="47.08873" lon="-1.6224">
        <ele>2.59</ele>
        <time>2020-05-31T17:06:07Z</time>
      </trkpt>
      <trkpt lat="47.08883" lon="-1.62236">
        <ele>1.55</ele>
        <time>2020-05-31T17:06:09Z</time>
      </trkpt>
      <trkpt lat="47.08894" lon="-1.62233">
        <ele>1.18</ele>
        <time>2020-05-31T17:06:11Z</time>
      </trkpt>
      <trkpt lat="47.08905" lon="-1.62229">
        <ele>2.62</ele>
        <time>2020-05-31T17:06:13Z</time>
      </trkpt>
      <trkpt lat="47.08916" lon="-1.62223">
        <ele>3.71</ele>
        <time>2020-05-31T17:06:15Z</time>
      </trkpt>
      <trkpt lat="47.08927" lon="-1.62217">
        <ele>4.3</ele>
        <time>2020-05-31T17:06:16Z</time>
      </trkpt>
      <trkpt lat="47.08938" lon="-1.62211">
        <ele>5.05</ele>
        <time>2020-05-31T17:06:18Z</time>
      </trkpt>
      <trkpt lat="47.08947" lon="-1.62207">
        <ele>4.94</ele>
        <time>2020-05-31T17:06:20Z</time>
      </trkpt>
      <trkpt lat="47.08957" lon="-1.62204">
        <ele>4.51</ele>
        <time>2020-05-31T17:06:22Z</time>
      </trkpt>
      <trkpt lat="47.08969" lon="-1.62199">
        <ele>3.69</ele>
        <time>2020-05-31T17:06:24Z</time>
      </trkpt>
      <trkpt lat="47.08982" lon="-1.62193">
        <ele>3.57</ele>
        <time>2020-05-31T17:06:27Z</time>
      </trkpt>
      <trkpt lat="47.08992" lon="-1.62189">
        <ele>3.49</ele>
        <time>2020-05-31T17:06:29Z</time>
      </trkpt>
      <trkpt lat="47.09003" lon="-1.62185">
        <ele>4.23</ele>
        <time>2020-05-31T17:06:31Z</time>
      </trkpt>
      <trkpt lat="47.09013" lon="-1.6218">
        <ele>5.03</ele>
        <time>2020-05-31T17:06:33Z</time>
      </trkpt>
      <trkpt lat="47.09023" lon="-1.62177">
        <ele>4.99</ele>
        <time>2020-05-31T17:06:35Z</time>
      </trkpt>
      <trkpt lat="47.09032" lon="-1.62173">
        <ele>5.05</ele>
        <time>2020-05-31T17:06:37Z</time>
      </trkpt>
      <trkpt lat="47.09042" lon="-1.62169">
        <ele>4.47</ele>
        <time>2020-05-31T17:06:39Z</time>
      </trkpt>
      <trkpt lat="47.09052" lon="-1.62165">
        <ele>4.78</ele>
        <time>2020-05-31T17:06:41Z</time>
      </trkpt>
      <trkpt lat="47.09064" lon="-1.6216">
        <ele>5.35</ele>
        <time>2020-05-31T17:06:44Z</time>
      </trkpt>
      <trkpt lat="47.09077" lon="-1.62155">
        <ele>6.46</ele>
        <time>2020-05-31T17:06:46Z</time>
      </trkpt>
      <trkpt lat="47.09089" lon="-1.6215">
        <ele>5.9</ele>
        <time>2020-05-31T17:06:49Z</time>
      </trkpt>
      <trkpt lat="47.09099" lon="-1.62146">
        <ele>5.72</ele>
        <time>2020-05-31T17:06:51Z</time>
      </trkpt>
      <trkpt lat="47.09109" lon="-1.6214">
        <ele>5.23</ele>
        <time>2020-05-31T17:06:53Z</time>
      </trkpt>
      <trkpt lat="47.09119" lon="-1.62137">
        <ele>4.25</ele>
        <time>2020-05-31T17:06:55Z</time>
      </trkpt>
      <trkpt lat="47.0913" lon="-1.62133">
        <ele>3.57</ele>
        <time>2020-05-31T17:06:57Z</time>
      </trkpt>
      <trkpt lat="47.09142" lon="-1.62128">
        <ele>2.03</ele>
        <time>2020-05-31T17:07:00Z</time>
      </trkpt>
      <trkpt lat="47.09152" lon="-1.62124">
        <ele>1.57</ele>
        <time>2020-05-31T17:07:02Z</time>
      </trkpt>
      <trkpt lat="47.09161" lon="-1.62119">
        <ele>2.5</ele>
        <time>2020-05-31T17:07:04Z</time>
      </trkpt>
      <trkpt lat="47.09173" lon="-1.62114">
        <ele>3.47</ele>
        <time>2020-05-31T17:07:06Z</time>
      </trkpt>
      <trkpt lat="47.09182" lon="-1.62107">
        <ele>4.4</ele>
        <time>2020-05-31T17:07:08Z</time>
      </trkpt>
      <trkpt lat="47.09183" lon="-1.62092">
        <ele>4.77</ele>
        <time>2020-05-31T17:07:10Z</time>
      </trkpt>
      <trkpt lat="47.09179" lon="-1.62079">
        <ele>5.81</ele>
        <time>2020-05-31T17:07:12Z</time>
      </trkpt>
      <trkpt lat="47.09172" lon="-1.62066">
        <ele>6.74</ele>
        <time>2020-05-31T17:07:14Z</time>
      </trkpt>
      <trkpt lat="47.09167" lon="-1.62052">
        <ele>7.19</ele>
        <time>2020-05-31T17:07:16Z</time>
      </trkpt>
      <trkpt lat="47.09161" lon="-1.62038">
        <ele>6.47</ele>
        <time>2020-05-31T17:07:18Z</time>
      </trkpt>
      <trkpt lat="47.09155" lon="-1.62023">
        <ele>7.04</ele>
        <time>2020-05-31T17:07:20Z</time>
      </trkpt>
      <trkpt lat="47.09151" lon="-1.62011">
        <ele>6.62</ele>
        <time>2020-05-31T17:07:22Z</time>
      </trkpt>
      <trkpt lat="47.09146" lon="-1.61996">
        <ele>6.51</ele>
        <time>2020-05-31T17:07:24Z</time>
      </trkpt>
      <trkpt lat="47.0914" lon="-1.61982">
        <ele>6.59</ele>
        <time>2020-05-31T17:07:26Z</time>
      </trkpt>
      <trkpt lat="47.09135" lon="-1.61968">
        <ele>6.95</ele>
        <time>2020-05-31T17:07:28Z</time>
      </trkpt>
      <trkpt lat="47.0913" lon="-1.61956">
        <ele>7.1</ele>
        <time>2020-05-31T17:07:30Z</time>
      </trkpt>
      <trkpt lat="47.09127" lon="-1.61944">
        <ele>6.93</ele>
        <time>2020-05-31T17:07:32Z</time>
      </trkpt>
      <trkpt lat="47.09122" lon="-1.6193">
        <ele>7.31</ele>
        <time>2020-05-31T17:07:34Z</time>
      </trkpt>
      <trkpt lat="47.09116" lon="-1.61914">
        <ele>7.31</ele>
        <time>2020-05-31T17:07:36Z</time>
      </trkpt>
      <trkpt lat="47.0911" lon="-1.61896">
        <ele>6.94</ele>
        <time>2020-05-31T17:07:39Z</time>
      </trkpt>
      <trkpt lat="47.09105" lon="-1.61882">
        <ele>5.78</ele>
        <time>2020-05-31T17:07:41Z</time>
      </trkpt>
      <trkpt lat="47.091" lon="-1.61868">
        <ele>5.41</ele>
        <time>2020-05-31T17:07:43Z</time>
      </trkpt>
      <trkpt lat="47.09096" lon="-1.61856">
        <ele>5.48</ele>
        <time>2020-05-31T17:07:45Z</time>
      </trkpt>
      <trkpt lat="47.0909" lon="-1.61843">
        <ele>5.73</ele>
        <time>2020-05-31T17:07:47Z</time>
      </trkpt>
      <trkpt lat="47.09085" lon="-1.61828">
        <ele>5.3</ele>
        <time>2020-05-31T17:07:49Z</time>
      </trkpt>
      <trkpt lat="47.0908" lon="-1.61814">
        <ele>5.33</ele>
        <time>2020-05-31T17:07:51Z</time>
      </trkpt>
      <trkpt lat="47.09076" lon="-1.618">
        <ele>4.95</ele>
        <time>2020-05-31T17:07:53Z</time>
      </trkpt>
      <trkpt lat="47.0907" lon="-1.61786">
        <ele>4.4</ele>
        <time>2020-05-31T17:07:55Z</time>
      </trkpt>
      <trkpt lat="47.09064" lon="-1.61771">
        <ele>4.03</ele>
        <time>2020-05-31T17:07:57Z</time>
      </trkpt>
      <trkpt lat="47.09058" lon="-1.61758">
        <ele>3.76</ele>
        <time>2020-05-31T17:07:59Z</time>
      </trkpt>
      <trkpt lat="47.09054" lon="-1.61745">
        <ele>4.84</ele>
        <time>2020-05-31T17:08:01Z</time>
      </trkpt>
      <trkpt lat="47.09049" lon="-1.61732">
        <ele>5.45</ele>
        <time>2020-05-31T17:08:03Z</time>
      </trkpt>
      <trkpt lat="47.09044" lon="-1.61717">
        <ele>6.58</ele>
        <time>2020-05-31T17:08:05Z</time>
      </trkpt>
      <trkpt lat="47.0904" lon="-1.61704">
        <ele>7.26</ele>
        <time>2020-05-31T17:08:07Z</time>
      </trkpt>
      <trkpt lat="47.09035" lon="-1.61689">
        <ele>7.19</ele>
        <time>2020-05-31T17:08:09Z</time>
      </trkpt>
      <trkpt lat="47.09031" lon="-1.61676">
        <ele>6.93</ele>
        <time>2020-05-31T17:08:11Z</time>
      </trkpt>
      <trkpt lat="47.09025" lon="-1.61663">
        <ele>6.67</ele>
        <time>2020-05-31T17:08:13Z</time>
      </trkpt>
      <trkpt lat="47.09021" lon="-1.61649">
        <ele>5.74</ele>
        <time>2020-05-31T17:08:15Z</time>
      </trkpt>
      <trkpt lat="47.09016" lon="-1.61635">
        <ele>5.04</ele>
        <time>2020-05-31T17:08:17Z</time>
      </trkpt>
      <trkpt lat="47.09012" lon="-1.61623">
        <ele>4.68</ele>
        <time>2020-05-31T17:08:19Z</time>
      </trkpt>
      <trkpt lat="47.09007" lon="-1.6161">
        <ele>4.54</ele>
        <time>2020-05-31T17:08:21Z</time>
      </trkpt>
      <trkpt lat="47.09" lon="-1.61595">
        <ele>4.57</ele>
        <time>2020-05-31T17:08:23Z</time>
      </trkpt>
      <trkpt lat="47.08998" lon="-1.61578">
        <ele>3.36</ele>
        <time>2020-05-31T17:08:26Z</time>
      </trkpt>
      <trkpt lat="47.0901" lon="-1.61573">
        <ele>2.39</ele>
        <time>2020-05-31T17:08:28Z</time>
      </trkpt>
      <trkpt lat="47.09021" lon="-1.61569">
        <ele>3.44</ele>
        <time>2020-05-31T17:08:30Z</time>
      </trkpt>
      <trkpt lat="47.09032" lon="-1.61564">
        <ele>4.59</ele>
        <time>2020-05-31T17:08:32Z</time>
      </trkpt>
      <trkpt lat="47.09043" lon="-1.61558">
        <ele>5.01</ele>
        <time>2020-05-31T17:08:34Z</time>
      </trkpt>
      <trkpt lat="47.09052" lon="-1.61553">
        <ele>5.98</ele>
        <time>2020-05-31T17:08:36Z</time>
      </trkpt>
      <trkpt lat="47.09063" lon="-1.61547">
        <ele>6.64</ele>
        <time>2020-05-31T17:08:38Z</time>
      </trkpt>
      <trkpt lat="47.09073" lon="-1.61542">
        <ele>7.28</ele>
        <time>2020-05-31T17:08:40Z</time>
      </trkpt>
      <trkpt lat="47.09083" lon="-1.61536">
        <ele>7.24</ele>
        <time>2020-05-31T17:08:42Z</time>
      </trkpt>
      <trkpt lat="47.09096" lon="-1.61528">
        <ele>5.48</ele>
        <time>2020-05-31T17:08:45Z</time>
      </trkpt>
      <trkpt lat="47.09105" lon="-1.61522">
        <ele>5.51</ele>
        <time>2020-05-31T17:08:47Z</time>
      </trkpt>
      <trkpt lat="47.09117" lon="-1.61515">
        <ele>5.45</ele>
        <time>2020-05-31T17:08:49Z</time>
      </trkpt>
      <trkpt lat="47.09131" lon="-1.61509">
        <ele>5.21</ele>
        <time>2020-05-31T17:08:52Z</time>
      </trkpt>
      <trkpt lat="47.09142" lon="-1.61504">
        <ele>4.83</ele>
        <time>2020-05-31T17:08:54Z</time>
      </trkpt>
      <trkpt lat="47.09155" lon="-1.61496">
        <ele>5.38</ele>
        <time>2020-05-31T17:08:57Z</time>
      </trkpt>
      <trkpt lat="47.09166" lon="-1.61489">
        <ele>6.25</ele>
        <time>2020-05-31T17:08:59Z</time>
      </trkpt>
      <trkpt lat="47.09176" lon="-1.61483">
        <ele>6.36</ele>
        <time>2020-05-31T17:09:01Z</time>
      </trkpt>
      <trkpt lat="47.09186" lon="-1.61477">
        <ele>6</ele>
        <time>2020-05-31T17:09:03Z</time>
      </trkpt>
      <trkpt lat="47.09196" lon="-1.61472">
        <ele>5.19</ele>
        <time>2020-05-31T17:09:05Z</time>
      </trkpt>
      <trkpt lat="47.09205" lon="-1.61467">
        <ele>4.81</ele>
        <time>2020-05-31T17:09:07Z</time>
      </trkpt>
      <trkpt lat="47.09216" lon="-1.61461">
        <ele>3.66</ele>
        <time>2020-05-31T17:09:09Z</time>
      </trkpt>
      <trkpt lat="47.09226" lon="-1.61453">
        <ele>4.21</ele>
        <time>2020-05-31T17:09:11Z</time>
      </trkpt>
      <trkpt lat="47.09238" lon="-1.61447">
        <ele>4.97</ele>
        <time>2020-05-31T17:09:13Z</time>
      </trkpt>
      <trkpt lat="47.09248" lon="-1.61441">
        <ele>5.82</ele>
        <time>2020-05-31T17:09:15Z</time>
      </trkpt>
      <trkpt lat="47.09258" lon="-1.61435">
        <ele>5.52</ele>
        <time>2020-05-31T17:09:17Z</time>
      </trkpt>
      <trkpt lat="47.09268" lon="-1.6143">
        <ele>4.62</ele>
        <time>2020-05-31T17:09:19Z</time>
      </trkpt>
      <trkpt lat="47.09278" lon="-1.61426">
        <ele>4.63</ele>
        <time>2020-05-31T17:09:21Z</time>
      </trkpt>
      <trkpt lat="47.09284" lon="-1.6141">
        <ele>3.51</ele>
        <time>2020-05-31T17:09:24Z</time>
      </trkpt>
      <trkpt lat="47.0928" lon="-1.61393">
        <ele>3.86</ele>
        <time>2020-05-31T17:09:26Z</time>
      </trkpt>
      <trkpt lat="47.09277" lon="-1.61375">
        <ele>4.83</ele>
        <time>2020-05-31T17:09:28Z</time>
      </trkpt>
      <trkpt lat="47.09274" lon="-1.61362">
        <ele>4.58</ele>
        <time>2020-05-31T17:09:30Z</time>
      </trkpt>
      <trkpt lat="47.09271" lon="-1.61345">
        <ele>4.09</ele>
        <time>2020-05-31T17:09:32Z</time>
      </trkpt>
      <trkpt lat="47.09267" lon="-1.61329">
        <ele>3.76</ele>
        <time>2020-05-31T17:09:34Z</time>
      </trkpt>
      <trkpt lat="47.09264" lon="-1.61316">
        <ele>2.82</ele>
        <time>2020-05-31T17:09:36Z</time>
      </trkpt>
      <trkpt lat="47.09261" lon="-1.613">
        <ele>2.84</ele>
        <time>2020-05-31T17:09:38Z</time>
      </trkpt>
      <trkpt lat="47.09258" lon="-1.61285">
        <ele>3.61</ele>
        <time>2020-05-31T17:09:40Z</time>
      </trkpt>
      <trkpt lat="47.09255" lon="-1.6127">
        <ele>5.1</ele>
        <time>2020-05-31T17:09:42Z</time>
      </trkpt>
      <trkpt lat="47.09251" lon="-1.61256">
        <ele>5.2</ele>
        <time>2020-05-31T17:09:44Z</time>
      </trkpt>
      <trkpt lat="47.09247" lon="-1.61239">
        <ele>5.21</ele>
        <time>2020-05-31T17:09:47Z</time>
      </trkpt>
      <trkpt lat="47.09244" lon="-1.61223">
        <ele>5.02</ele>
        <time>2020-05-31T17:09:49Z</time>
      </trkpt>
      <trkpt lat="47.0924" lon="-1.61209">
        <ele>5.04</ele>
        <time>2020-05-31T17:09:51Z</time>
      </trkpt>
      <trkpt lat="47.09236" lon="-1.61197">
        <ele>5.35</ele>
        <time>2020-05-31T17:09:53Z</time>
      </trkpt>
      <trkpt lat="47.0923" lon="-1.61183">
        <ele>5.07</ele>
        <time>2020-05-31T17:09:58Z</time>
      </trkpt>
      <trkpt lat="47.0924" lon="-1.61178">
        <ele>5.08</ele>
        <time>2020-05-31T17:10:04Z</time>
      </trkpt>
      <trkpt lat="47.09253" lon="-1.61182">
        <ele>5</ele>
        <time>2020-05-31T17:10:06Z</time>
      </trkpt>
      <trkpt lat="47.09267" lon="-1.61186">
        <ele>4.4</ele>
        <time>2020-05-31T17:10:08Z</time>
      </trkpt>
      <trkpt lat="47.09277" lon="-1.61191">
        <ele>3.99</ele>
        <time>2020-05-31T17:10:10Z</time>
      </trkpt>
      <trkpt lat="47.09287" lon="-1.61195">
        <ele>3.43</ele>
        <time>2020-05-31T17:10:12Z</time>
      </trkpt>
      <trkpt lat="47.093" lon="-1.61198">
        <ele>3.21</ele>
        <time>2020-05-31T17:10:14Z</time>
      </trkpt>
      <trkpt lat="47.09312" lon="-1.61199">
        <ele>2.23</ele>
        <time>2020-05-31T17:10:16Z</time>
      </trkpt>
      <trkpt lat="47.09326" lon="-1.61202">
        <ele>2.07</ele>
        <time>2020-05-31T17:10:18Z</time>
      </trkpt>
      <trkpt lat="47.09338" lon="-1.61205">
        <ele>2.2</ele>
        <time>2020-05-31T17:10:20Z</time>
      </trkpt>
      <trkpt lat="47.09349" lon="-1.61207">
        <ele>1.45</ele>
        <time>2020-05-31T17:10:22Z</time>
      </trkpt>
      <trkpt lat="47.09362" lon="-1.61212">
        <ele>1.22</ele>
        <time>2020-05-31T17:10:24Z</time>
      </trkpt>
      <trkpt lat="47.09375" lon="-1.61218">
        <ele>2.49</ele>
        <time>2020-05-31T17:10:26Z</time>
      </trkpt>
      <trkpt lat="47.09387" lon="-1.61225">
        <ele>2.38</ele>
        <time>2020-05-31T17:10:28Z</time>
      </trkpt>
      <trkpt lat="47.09398" lon="-1.61231">
        <ele>2.1</ele>
        <time>2020-05-31T17:10:30Z</time>
      </trkpt>
      <trkpt lat="47.09409" lon="-1.61236">
        <ele>1.84</ele>
        <time>2020-05-31T17:10:32Z</time>
      </trkpt>
      <trkpt lat="47.09424" lon="-1.61232">
        <ele>0.94</ele>
        <time>2020-05-31T17:10:34Z</time>
      </trkpt>
      <trkpt lat="47.09435" lon="-1.6122">
        <ele>-0.38</ele>
        <time>2020-05-31T17:10:36Z</time>
      </trkpt>
      <trkpt lat="47.09445" lon="-1.61207">
        <ele>-0.89</ele>
        <time>2020-05-31T17:10:38Z</time>
      </trkpt>
      <trkpt lat="47.09456" lon="-1.61194">
        <ele>0.21</ele>
        <time>2020-05-31T17:10:40Z</time>
      </trkpt>
      <trkpt lat="47.09467" lon="-1.61183">
        <ele>1.7</ele>
        <time>2020-05-31T17:10:42Z</time>
      </trkpt>
      <trkpt lat="47.09479" lon="-1.6117">
        <ele>2.41</ele>
        <time>2020-05-31T17:10:44Z</time>
      </trkpt>
      <trkpt lat="47.09488" lon="-1.6116">
        <ele>2.67</ele>
        <time>2020-05-31T17:10:46Z</time>
      </trkpt>
      <trkpt lat="47.09499" lon="-1.6115">
        <ele>2.53</ele>
        <time>2020-05-31T17:10:48Z</time>
      </trkpt>
      <trkpt lat="47.09509" lon="-1.61142">
        <ele>1.65</ele>
        <time>2020-05-31T17:10:50Z</time>
      </trkpt>
      <trkpt lat="47.0952" lon="-1.61137">
        <ele>1.23</ele>
        <time>2020-05-31T17:10:52Z</time>
      </trkpt>
      <trkpt lat="47.09533" lon="-1.61133">
        <ele>1.02</ele>
        <time>2020-05-31T17:10:54Z</time>
      </trkpt>
      <trkpt lat="47.09547" lon="-1.61131">
        <ele>0.63</ele>
        <time>2020-05-31T17:10:56Z</time>
      </trkpt>
      <trkpt lat="47.09561" lon="-1.61129">
        <ele>0.49</ele>
        <time>2020-05-31T17:10:58Z</time>
      </trkpt>
      <trkpt lat="47.09574" lon="-1.61129">
        <ele>0.08</ele>
        <time>2020-05-31T17:11:00Z</time>
      </trkpt>
      <trkpt lat="47.09587" lon="-1.61128">
        <ele>0.49</ele>
        <time>2020-05-31T17:11:02Z</time>
      </trkpt>
      <trkpt lat="47.096" lon="-1.6113">
        <ele>0.72</ele>
        <time>2020-05-31T17:11:04Z</time>
      </trkpt>
      <trkpt lat="47.09613" lon="-1.61129">
        <ele>0.27</ele>
        <time>2020-05-31T17:11:06Z</time>
      </trkpt>
      <trkpt lat="47.09628" lon="-1.61128">
        <ele>0.18</ele>
        <time>2020-05-31T17:11:08Z</time>
      </trkpt>
      <trkpt lat="47.09642" lon="-1.61126">
        <ele>0.08</ele>
        <time>2020-05-31T17:11:10Z</time>
      </trkpt>
      <trkpt lat="47.09655" lon="-1.61125">
        <ele>0.49</ele>
        <time>2020-05-31T17:11:12Z</time>
      </trkpt>
      <trkpt lat="47.09668" lon="-1.61123">
        <ele>0.62</ele>
        <time>2020-05-31T17:11:14Z</time>
      </trkpt>
      <trkpt lat="47.0968" lon="-1.61121">
        <ele>-0.27</ele>
        <time>2020-05-31T17:11:16Z</time>
      </trkpt>
      <trkpt lat="47.09695" lon="-1.61119">
        <ele>0.34</ele>
        <time>2020-05-31T17:11:18Z</time>
      </trkpt>
      <trkpt lat="47.09707" lon="-1.61117">
        <ele>-0.21</ele>
        <time>2020-05-31T17:11:20Z</time>
      </trkpt>
      <trkpt lat="47.0972" lon="-1.61116">
        <ele>-1.51</ele>
        <time>2020-05-31T17:11:22Z</time>
      </trkpt>
      <trkpt lat="47.09733" lon="-1.61115">
        <ele>-0.82</ele>
        <time>2020-05-31T17:11:24Z</time>
      </trkpt>
      <trkpt lat="47.09747" lon="-1.61113">
        <ele>-0.03</ele>
        <time>2020-05-31T17:11:26Z</time>
      </trkpt>
      <trkpt lat="47.0976" lon="-1.61112">
        <ele>1.17</ele>
        <time>2020-05-31T17:11:28Z</time>
      </trkpt>
      <trkpt lat="47.09773" lon="-1.6111">
        <ele>1.52</ele>
        <time>2020-05-31T17:11:30Z</time>
      </trkpt>
      <trkpt lat="47.09785" lon="-1.61108">
        <ele>2.19</ele>
        <time>2020-05-31T17:11:32Z</time>
      </trkpt>
      <trkpt lat="47.098" lon="-1.61104">
        <ele>2.21</ele>
        <time>2020-05-31T17:11:34Z</time>
      </trkpt>
      <trkpt lat="47.09815" lon="-1.61097">
        <ele>2.99</ele>
        <time>2020-05-31T17:11:36Z</time>
      </trkpt>
      <trkpt lat="47.09825" lon="-1.6109">
        <ele>3.28</ele>
        <time>2020-05-31T17:11:38Z</time>
      </trkpt>
      <trkpt lat="47.09835" lon="-1.61082">
        <ele>2.59</ele>
        <time>2020-05-31T17:11:40Z</time>
      </trkpt>
      <trkpt lat="47.09843" lon="-1.61073">
        <ele>2.22</ele>
        <time>2020-05-31T17:11:42Z</time>
      </trkpt>
      <trkpt lat="47.09852" lon="-1.61062">
        <ele>1.04</ele>
        <time>2020-05-31T17:11:44Z</time>
      </trkpt>
      <trkpt lat="47.0986" lon="-1.6105">
        <ele>0.86</ele>
        <time>2020-05-31T17:11:46Z</time>
      </trkpt>
      <trkpt lat="47.09866" lon="-1.61039">
        <ele>0.75</ele>
        <time>2020-05-31T17:11:48Z</time>
      </trkpt>
      <trkpt lat="47.09871" lon="-1.61026">
        <ele>1.75</ele>
        <time>2020-05-31T17:11:50Z</time>
      </trkpt>
      <trkpt lat="47.09877" lon="-1.61013">
        <ele>2.76</ele>
        <time>2020-05-31T17:11:52Z</time>
      </trkpt>
      <trkpt lat="47.09883" lon="-1.60997">
        <ele>2.59</ele>
        <time>2020-05-31T17:11:54Z</time>
      </trkpt>
      <trkpt lat="47.09889" lon="-1.60983">
        <ele>4.02</ele>
        <time>2020-05-31T17:11:57Z</time>
      </trkpt>
      <trkpt lat="47.09894" lon="-1.60969">
        <ele>5.12</ele>
        <time>2020-05-31T17:11:59Z</time>
      </trkpt>
      <trkpt lat="47.09898" lon="-1.60957">
        <ele>5.55</ele>
        <time>2020-05-31T17:12:01Z</time>
      </trkpt>
      <trkpt lat="47.09902" lon="-1.60945">
        <ele>5.39</ele>
        <time>2020-05-31T17:12:03Z</time>
      </trkpt>
      <trkpt lat="47.09907" lon="-1.60933">
        <ele>4.72</ele>
        <time>2020-05-31T17:12:05Z</time>
      </trkpt>
      <trkpt lat="47.09911" lon="-1.60921">
        <ele>4.06</ele>
        <time>2020-05-31T17:12:07Z</time>
      </trkpt>
      <trkpt lat="47.09915" lon="-1.60909">
        <ele>3.46</ele>
        <time>2020-05-31T17:12:09Z</time>
      </trkpt>
      <trkpt lat="47.0992" lon="-1.60897">
        <ele>3.43</ele>
        <time>2020-05-31T17:12:11Z</time>
      </trkpt>
      <trkpt lat="47.09925" lon="-1.60884">
        <ele>4.8</ele>
        <time>2020-05-31T17:12:13Z</time>
      </trkpt>
      <trkpt lat="47.09931" lon="-1.6087">
        <ele>5.42</ele>
        <time>2020-05-31T17:12:15Z</time>
      </trkpt>
      <trkpt lat="47.09938" lon="-1.60855">
        <ele>4.87</ele>
        <time>2020-05-31T17:12:18Z</time>
      </trkpt>
      <trkpt lat="47.09944" lon="-1.60836">
        <ele>3.66</ele>
        <time>2020-05-31T17:12:21Z</time>
      </trkpt>
      <trkpt lat="47.09949" lon="-1.60821">
        <ele>3.46</ele>
        <time>2020-05-31T17:12:23Z</time>
      </trkpt>
      <trkpt lat="47.09954" lon="-1.60809">
        <ele>4.9</ele>
        <time>2020-05-31T17:12:25Z</time>
      </trkpt>
      <trkpt lat="47.09958" lon="-1.60796">
        <ele>4.69</ele>
        <time>2020-05-31T17:12:27Z</time>
      </trkpt>
      <trkpt lat="47.09962" lon="-1.60782">
        <ele>4.86</ele>
        <time>2020-05-31T17:12:29Z</time>
      </trkpt>
      <trkpt lat="47.09965" lon="-1.60769">
        <ele>5.19</ele>
        <time>2020-05-31T17:12:31Z</time>
      </trkpt>
      <trkpt lat="47.09969" lon="-1.60757">
        <ele>5.85</ele>
        <time>2020-05-31T17:12:33Z</time>
      </trkpt>
      <trkpt lat="47.09973" lon="-1.60742">
        <ele>6.44</ele>
        <time>2020-05-31T17:12:35Z</time>
      </trkpt>
      <trkpt lat="47.09977" lon="-1.60729">
        <ele>6.78</ele>
        <time>2020-05-31T17:12:37Z</time>
      </trkpt>
      <trkpt lat="47.09982" lon="-1.60715">
        <ele>6.58</ele>
        <time>2020-05-31T17:12:39Z</time>
      </trkpt>
      <trkpt lat="47.09985" lon="-1.60703">
        <ele>6.49</ele>
        <time>2020-05-31T17:12:41Z</time>
      </trkpt>
      <trkpt lat="47.09989" lon="-1.60689">
        <ele>6.49</ele>
        <time>2020-05-31T17:12:43Z</time>
      </trkpt>
      <trkpt lat="47.09993" lon="-1.60675">
        <ele>6.19</ele>
        <time>2020-05-31T17:12:45Z</time>
      </trkpt>
      <trkpt lat="47.09998" lon="-1.6066">
        <ele>5.8</ele>
        <time>2020-05-31T17:12:47Z</time>
      </trkpt>
      <trkpt lat="47.10002" lon="-1.60646">
        <ele>6.11</ele>
        <time>2020-05-31T17:12:49Z</time>
      </trkpt>
      <trkpt lat="47.10008" lon="-1.60627">
        <ele>7.35</ele>
        <time>2020-05-31T17:12:52Z</time>
      </trkpt>
      <trkpt lat="47.10012" lon="-1.60613">
        <ele>7.5</ele>
        <time>2020-05-31T17:12:54Z</time>
      </trkpt>
      <trkpt lat="47.10016" lon="-1.606">
        <ele>8.15</ele>
        <time>2020-05-31T17:12:56Z</time>
      </trkpt>
      <trkpt lat="47.1002" lon="-1.60584">
        <ele>7.69</ele>
        <time>2020-05-31T17:12:58Z</time>
      </trkpt>
      <trkpt lat="47.10025" lon="-1.60568">
        <ele>6.77</ele>
        <time>2020-05-31T17:13:00Z</time>
      </trkpt>
      <trkpt lat="47.1003" lon="-1.6055">
        <ele>6.66</ele>
        <time>2020-05-31T17:13:03Z</time>
      </trkpt>
      <trkpt lat="47.10034" lon="-1.60534">
        <ele>6.24</ele>
        <time>2020-05-31T17:13:05Z</time>
      </trkpt>
      <trkpt lat="47.10039" lon="-1.60516">
        <ele>4.66</ele>
        <time>2020-05-31T17:13:08Z</time>
      </trkpt>
      <trkpt lat="47.10043" lon="-1.60502">
        <ele>3.89</ele>
        <time>2020-05-31T17:13:10Z</time>
      </trkpt>
      <trkpt lat="47.10046" lon="-1.60487">
        <ele>3.84</ele>
        <time>2020-05-31T17:13:12Z</time>
      </trkpt>
      <trkpt lat="47.10049" lon="-1.60473">
        <ele>3.01</ele>
        <time>2020-05-31T17:13:14Z</time>
      </trkpt>
      <trkpt lat="47.10052" lon="-1.60459">
        <ele>3.34</ele>
        <time>2020-05-31T17:13:16Z</time>
      </trkpt>
      <trkpt lat="47.10056" lon="-1.60442">
        <ele>4.02</ele>
        <time>2020-05-31T17:13:18Z</time>
      </trkpt>
      <trkpt lat="47.10058" lon="-1.60426">
        <ele>5.28</ele>
        <time>2020-05-31T17:13:20Z</time>
      </trkpt>
      <trkpt lat="47.10061" lon="-1.60408">
        <ele>5.91</ele>
        <time>2020-05-31T17:13:22Z</time>
      </trkpt>
      <trkpt lat="47.10062" lon="-1.60394">
        <ele>4.82</ele>
        <time>2020-05-31T17:13:24Z</time>
      </trkpt>
      <trkpt lat="47.10064" lon="-1.60378">
        <ele>4.64</ele>
        <time>2020-05-31T17:13:26Z</time>
      </trkpt>
      <trkpt lat="47.10065" lon="-1.60364">
        <ele>5.6</ele>
        <time>2020-05-31T17:13:28Z</time>
      </trkpt>
      <trkpt lat="47.10067" lon="-1.60346">
        <ele>5.92</ele>
        <time>2020-05-31T17:13:30Z</time>
      </trkpt>
      <trkpt lat="47.10068" lon="-1.60331">
        <ele>5.22</ele>
        <time>2020-05-31T17:13:32Z</time>
      </trkpt>
      <trkpt lat="47.1007" lon="-1.60315">
        <ele>4.83</ele>
        <time>2020-05-31T17:13:34Z</time>
      </trkpt>
      <trkpt lat="47.10071" lon="-1.60299">
        <ele>5.05</ele>
        <time>2020-05-31T17:13:36Z</time>
      </trkpt>
      <trkpt lat="47.10073" lon="-1.60283">
        <ele>4.36</ele>
        <time>2020-05-31T17:13:38Z</time>
      </trkpt>
      <trkpt lat="47.10075" lon="-1.60267">
        <ele>4.18</ele>
        <time>2020-05-31T17:13:40Z</time>
      </trkpt>
      <trkpt lat="47.10076" lon="-1.60251">
        <ele>4.9</ele>
        <time>2020-05-31T17:13:42Z</time>
      </trkpt>
      <trkpt lat="47.10077" lon="-1.60238">
        <ele>5.68</ele>
        <time>2020-05-31T17:13:44Z</time>
      </trkpt>
      <trkpt lat="47.10078" lon="-1.60222">
        <ele>5.77</ele>
        <time>2020-05-31T17:13:46Z</time>
      </trkpt>
      <trkpt lat="47.10079" lon="-1.60206">
        <ele>5.76</ele>
        <time>2020-05-31T17:13:48Z</time>
      </trkpt>
      <trkpt lat="47.1008" lon="-1.60191">
        <ele>6.07</ele>
        <time>2020-05-31T17:13:50Z</time>
      </trkpt>
      <trkpt lat="47.1008" lon="-1.60176">
        <ele>5.12</ele>
        <time>2020-05-31T17:13:52Z</time>
      </trkpt>
      <trkpt lat="47.10079" lon="-1.6016">
        <ele>3.65</ele>
        <time>2020-05-31T17:13:54Z</time>
      </trkpt>
      <trkpt lat="47.10072" lon="-1.60148">
        <ele>3.26</ele>
        <time>2020-05-31T17:13:56Z</time>
      </trkpt>
      <trkpt lat="47.10068" lon="-1.60135">
        <ele>3.27</ele>
        <time>2020-05-31T17:13:58Z</time>
      </trkpt>
      <trkpt lat="47.10072" lon="-1.60115">
        <ele>2.69</ele>
        <time>2020-05-31T17:14:01Z</time>
      </trkpt>
      <trkpt lat="47.1008" lon="-1.60106">
        <ele>2.7</ele>
        <time>2020-05-31T17:14:03Z</time>
      </trkpt>
      <trkpt lat="47.1009" lon="-1.60102">
        <ele>3.18</ele>
        <time>2020-05-31T17:14:05Z</time>
      </trkpt>
      <trkpt lat="47.101" lon="-1.60097">
        <ele>3.7</ele>
        <time>2020-05-31T17:14:07Z</time>
      </trkpt>
      <trkpt lat="47.10109" lon="-1.60088">
        <ele>3.91</ele>
        <time>2020-05-31T17:14:09Z</time>
      </trkpt>
      <trkpt lat="47.10116" lon="-1.60077">
        <ele>4.32</ele>
        <time>2020-05-31T17:14:11Z</time>
      </trkpt>
      <trkpt lat="47.10124" lon="-1.60065">
        <ele>4.91</ele>
        <time>2020-05-31T17:14:13Z</time>
      </trkpt>
      <trkpt lat="47.10132" lon="-1.60053">
        <ele>5.5</ele>
        <time>2020-05-31T17:14:15Z</time>
      </trkpt>
      <trkpt lat="47.10139" lon="-1.60041">
        <ele>6.08</ele>
        <time>2020-05-31T17:14:17Z</time>
      </trkpt>
      <trkpt lat="47.10148" lon="-1.6003">
        <ele>6.73</ele>
        <time>2020-05-31T17:14:19Z</time>
      </trkpt>
      <trkpt lat="47.10155" lon="-1.60019">
        <ele>7.91</ele>
        <time>2020-05-31T17:14:21Z</time>
      </trkpt>
      <trkpt lat="47.10163" lon="-1.60006">
        <ele>8.1</ele>
        <time>2020-05-31T17:14:23Z</time>
      </trkpt>
      <trkpt lat="47.10171" lon="-1.59993">
        <ele>9.22</ele>
        <time>2020-05-31T17:14:25Z</time>
      </trkpt>
      <trkpt lat="47.10178" lon="-1.59981">
        <ele>9.39</ele>
        <time>2020-05-31T17:14:27Z</time>
      </trkpt>
      <trkpt lat="47.10185" lon="-1.59971">
        <ele>8.67</ele>
        <time>2020-05-31T17:14:29Z</time>
      </trkpt>
      <trkpt lat="47.10192" lon="-1.59958">
        <ele>8.32</ele>
        <time>2020-05-31T17:14:31Z</time>
      </trkpt>
      <trkpt lat="47.10199" lon="-1.59945">
        <ele>7.55</ele>
        <time>2020-05-31T17:14:33Z</time>
      </trkpt>
      <trkpt lat="47.10208" lon="-1.59931">
        <ele>7.5</ele>
        <time>2020-05-31T17:14:36Z</time>
      </trkpt>
      <trkpt lat="47.10214" lon="-1.59919">
        <ele>6.89</ele>
        <time>2020-05-31T17:14:38Z</time>
      </trkpt>
      <trkpt lat="47.10221" lon="-1.59908">
        <ele>6.2</ele>
        <time>2020-05-31T17:14:40Z</time>
      </trkpt>
      <trkpt lat="47.10228" lon="-1.59896">
        <ele>5.3</ele>
        <time>2020-05-31T17:14:42Z</time>
      </trkpt>
      <trkpt lat="47.10235" lon="-1.59885">
        <ele>4.48</ele>
        <time>2020-05-31T17:14:44Z</time>
      </trkpt>
      <trkpt lat="47.10242" lon="-1.59872">
        <ele>4.9</ele>
        <time>2020-05-31T17:14:46Z</time>
      </trkpt>
      <trkpt lat="47.10251" lon="-1.59857">
        <ele>6.2</ele>
        <time>2020-05-31T17:14:48Z</time>
      </trkpt>
      <trkpt lat="47.10258" lon="-1.59844">
        <ele>7.75</ele>
        <time>2020-05-31T17:14:50Z</time>
      </trkpt>
      <trkpt lat="47.10264" lon="-1.59834">
        <ele>7.91</ele>
        <time>2020-05-31T17:14:52Z</time>
      </trkpt>
      <trkpt lat="47.10271" lon="-1.59824">
        <ele>7.8</ele>
        <time>2020-05-31T17:14:54Z</time>
      </trkpt>
      <trkpt lat="47.10278" lon="-1.59814">
        <ele>7.78</ele>
        <time>2020-05-31T17:14:56Z</time>
      </trkpt>
      <trkpt lat="47.10284" lon="-1.59803">
        <ele>7.06</ele>
        <time>2020-05-31T17:14:58Z</time>
      </trkpt>
      <trkpt lat="47.1029" lon="-1.59792">
        <ele>6.86</ele>
        <time>2020-05-31T17:15:00Z</time>
      </trkpt>
      <trkpt lat="47.103" lon="-1.59777">
        <ele>6.52</ele>
        <time>2020-05-31T17:15:03Z</time>
      </trkpt>
      <trkpt lat="47.10307" lon="-1.59766">
        <ele>5.67</ele>
        <time>2020-05-31T17:15:05Z</time>
      </trkpt>
      <trkpt lat="47.10313" lon="-1.59755">
        <ele>5.37</ele>
        <time>2020-05-31T17:15:07Z</time>
      </trkpt>
      <trkpt lat="47.10319" lon="-1.59744">
        <ele>5.51</ele>
        <time>2020-05-31T17:15:09Z</time>
      </trkpt>
      <trkpt lat="47.10325" lon="-1.59734">
        <ele>5.84</ele>
        <time>2020-05-31T17:15:11Z</time>
      </trkpt>
      <trkpt lat="47.10332" lon="-1.59721">
        <ele>5.81</ele>
        <time>2020-05-31T17:15:13Z</time>
      </trkpt>
      <trkpt lat="47.10339" lon="-1.59709">
        <ele>7.47</ele>
        <time>2020-05-31T17:15:15Z</time>
      </trkpt>
      <trkpt lat="47.10345" lon="-1.59697">
        <ele>7.63</ele>
        <time>2020-05-31T17:15:17Z</time>
      </trkpt>
      <trkpt lat="47.10351" lon="-1.59687">
        <ele>6.63</ele>
        <time>2020-05-31T17:15:19Z</time>
      </trkpt>
      <trkpt lat="47.10357" lon="-1.59676">
        <ele>7.09</ele>
        <time>2020-05-31T17:15:21Z</time>
      </trkpt>
      <trkpt lat="47.10366" lon="-1.59662">
        <ele>6.49</ele>
        <time>2020-05-31T17:15:24Z</time>
      </trkpt>
      <trkpt lat="47.10373" lon="-1.59649">
        <ele>6.47</ele>
        <time>2020-05-31T17:15:26Z</time>
      </trkpt>
      <trkpt lat="47.1038" lon="-1.59637">
        <ele>6.24</ele>
        <time>2020-05-31T17:15:28Z</time>
      </trkpt>
      <trkpt lat="47.10388" lon="-1.59624">
        <ele>6.52</ele>
        <time>2020-05-31T17:15:30Z</time>
      </trkpt>
      <trkpt lat="47.10395" lon="-1.59612">
        <ele>7.67</ele>
        <time>2020-05-31T17:15:32Z</time>
      </trkpt>
      <trkpt lat="47.10402" lon="-1.59601">
        <ele>9.18</ele>
        <time>2020-05-31T17:15:34Z</time>
      </trkpt>
      <trkpt lat="47.10408" lon="-1.59592">
        <ele>10.47</ele>
        <time>2020-05-31T17:15:36Z</time>
      </trkpt>
      <trkpt lat="47.10415" lon="-1.59582">
        <ele>11.4</ele>
        <time>2020-05-31T17:15:38Z</time>
      </trkpt>
      <trkpt lat="47.10422" lon="-1.5957">
        <ele>11.16</ele>
        <time>2020-05-31T17:15:40Z</time>
      </trkpt>
      <trkpt lat="47.10432" lon="-1.59556">
        <ele>9.25</ele>
        <time>2020-05-31T17:15:43Z</time>
      </trkpt>
      <trkpt lat="47.10439" lon="-1.59544">
        <ele>7.81</ele>
        <time>2020-05-31T17:15:46Z</time>
      </trkpt>
      <trkpt lat="47.10445" lon="-1.59533">
        <ele>6.91</ele>
        <time>2020-05-31T17:15:47Z</time>
      </trkpt>
      <trkpt lat="47.10454" lon="-1.59517">
        <ele>5.97</ele>
        <time>2020-05-31T17:15:51Z</time>
      </trkpt>
      <trkpt lat="47.1046" lon="-1.59506">
        <ele>6.52</ele>
        <time>2020-05-31T17:15:53Z</time>
      </trkpt>
      <trkpt lat="47.10467" lon="-1.59494">
        <ele>7.07</ele>
        <time>2020-05-31T17:15:55Z</time>
      </trkpt>
      <trkpt lat="47.10474" lon="-1.59483">
        <ele>7.13</ele>
        <time>2020-05-31T17:15:57Z</time>
      </trkpt>
      <trkpt lat="47.10481" lon="-1.59471">
        <ele>6.58</ele>
        <time>2020-05-31T17:15:59Z</time>
      </trkpt>
      <trkpt lat="47.10487" lon="-1.59461">
        <ele>5.39</ele>
        <time>2020-05-31T17:16:01Z</time>
      </trkpt>
      <trkpt lat="47.10496" lon="-1.59449">
        <ele>4.67</ele>
        <time>2020-05-31T17:16:03Z</time>
      </trkpt>
      <trkpt lat="47.10502" lon="-1.59438">
        <ele>3.64</ele>
        <time>2020-05-31T17:16:05Z</time>
      </trkpt>
      <trkpt lat="47.1051" lon="-1.59426">
        <ele>2.3</ele>
        <time>2020-05-31T17:16:07Z</time>
      </trkpt>
      <trkpt lat="47.10516" lon="-1.59415">
        <ele>1.32</ele>
        <time>2020-05-31T17:16:09Z</time>
      </trkpt>
      <trkpt lat="47.10522" lon="-1.59403">
        <ele>0.78</ele>
        <time>2020-05-31T17:16:11Z</time>
      </trkpt>
      <trkpt lat="47.1053" lon="-1.5939">
        <ele>2.39</ele>
        <time>2020-05-31T17:16:13Z</time>
      </trkpt>
      <trkpt lat="47.10537" lon="-1.59378">
        <ele>3.83</ele>
        <time>2020-05-31T17:16:15Z</time>
      </trkpt>
      <trkpt lat="47.10544" lon="-1.59367">
        <ele>4.52</ele>
        <time>2020-05-31T17:16:17Z</time>
      </trkpt>
      <trkpt lat="47.10553" lon="-1.59352">
        <ele>5.33</ele>
        <time>2020-05-31T17:16:20Z</time>
      </trkpt>
      <trkpt lat="47.10562" lon="-1.59336">
        <ele>7.07</ele>
        <time>2020-05-31T17:16:23Z</time>
      </trkpt>
      <trkpt lat="47.10568" lon="-1.59325">
        <ele>8.75</ele>
        <time>2020-05-31T17:16:25Z</time>
      </trkpt>
      <trkpt lat="47.10574" lon="-1.59313">
        <ele>9.82</ele>
        <time>2020-05-31T17:16:27Z</time>
      </trkpt>
      <trkpt lat="47.1058" lon="-1.59302">
        <ele>11.51</ele>
        <time>2020-05-31T17:16:29Z</time>
      </trkpt>
      <trkpt lat="47.10586" lon="-1.5929">
        <ele>12.12</ele>
        <time>2020-05-31T17:16:31Z</time>
      </trkpt>
      <trkpt lat="47.10592" lon="-1.59279">
        <ele>11.13</ele>
        <time>2020-05-31T17:16:33Z</time>
      </trkpt>
      <trkpt lat="47.10598" lon="-1.59269">
        <ele>9.57</ele>
        <time>2020-05-31T17:16:35Z</time>
      </trkpt>
      <trkpt lat="47.10604" lon="-1.59257">
        <ele>9.61</ele>
        <time>2020-05-31T17:16:37Z</time>
      </trkpt>
      <trkpt lat="47.1061" lon="-1.59246">
        <ele>9.91</ele>
        <time>2020-05-31T17:16:39Z</time>
      </trkpt>
      <trkpt lat="47.10616" lon="-1.59235">
        <ele>10.08</ele>
        <time>2020-05-31T17:16:41Z</time>
      </trkpt>
      <trkpt lat="47.10623" lon="-1.59224">
        <ele>8.9</ele>
        <time>2020-05-31T17:16:43Z</time>
      </trkpt>
      <trkpt lat="47.1063" lon="-1.59213">
        <ele>8.35</ele>
        <time>2020-05-31T17:16:45Z</time>
      </trkpt>
      <trkpt lat="47.10637" lon="-1.592">
        <ele>9.53</ele>
        <time>2020-05-31T17:16:47Z</time>
      </trkpt>
      <trkpt lat="47.10644" lon="-1.59187">
        <ele>10.7</ele>
        <time>2020-05-31T17:16:49Z</time>
      </trkpt>
      <trkpt lat="47.10649" lon="-1.59175">
        <ele>12.47</ele>
        <time>2020-05-31T17:16:51Z</time>
      </trkpt>
      <trkpt lat="47.10655" lon="-1.59163">
        <ele>12.52</ele>
        <time>2020-05-31T17:16:53Z</time>
      </trkpt>
      <trkpt lat="47.1066" lon="-1.5915">
        <ele>11.8</ele>
        <time>2020-05-31T17:16:55Z</time>
      </trkpt>
      <trkpt lat="47.10665" lon="-1.59138">
        <ele>11.65</ele>
        <time>2020-05-31T17:16:57Z</time>
      </trkpt>
      <trkpt lat="47.10669" lon="-1.59125">
        <ele>13.14</ele>
        <time>2020-05-31T17:16:59Z</time>
      </trkpt>
      <trkpt lat="47.10674" lon="-1.59112">
        <ele>14.7</ele>
        <time>2020-05-31T17:17:01Z</time>
      </trkpt>
      <trkpt lat="47.10678" lon="-1.59099">
        <ele>15.58</ele>
        <time>2020-05-31T17:17:03Z</time>
      </trkpt>
      <trkpt lat="47.10684" lon="-1.59083">
        <ele>16.53</ele>
        <time>2020-05-31T17:17:06Z</time>
      </trkpt>
      <trkpt lat="47.1069" lon="-1.59066">
        <ele>16.87</ele>
        <time>2020-05-31T17:17:09Z</time>
      </trkpt>
      <trkpt lat="47.10694" lon="-1.59054">
        <ele>16.59</ele>
        <time>2020-05-31T17:17:11Z</time>
      </trkpt>
      <trkpt lat="47.107" lon="-1.59038">
        <ele>15.19</ele>
        <time>2020-05-31T17:17:14Z</time>
      </trkpt>
      <trkpt lat="47.10705" lon="-1.59025">
        <ele>14.03</ele>
        <time>2020-05-31T17:17:16Z</time>
      </trkpt>
      <trkpt lat="47.1071" lon="-1.59013">
        <ele>13.95</ele>
        <time>2020-05-31T17:17:18Z</time>
      </trkpt>
      <trkpt lat="47.10717" lon="-1.58994">
        <ele>13.67</ele>
        <time>2020-05-31T17:17:21Z</time>
      </trkpt>
      <trkpt lat="47.10722" lon="-1.58981">
        <ele>13.6</ele>
        <time>2020-05-31T17:17:23Z</time>
      </trkpt>
      <trkpt lat="47.10728" lon="-1.58965">
        <ele>14.13</ele>
        <time>2020-05-31T17:17:26Z</time>
      </trkpt>
      <trkpt lat="47.10733" lon="-1.58953">
        <ele>13.81</ele>
        <time>2020-05-31T17:17:28Z</time>
      </trkpt>
      <trkpt lat="47.10737" lon="-1.5894">
        <ele>13.82</ele>
        <time>2020-05-31T17:17:30Z</time>
      </trkpt>
      <trkpt lat="47.10741" lon="-1.58927">
        <ele>13.88</ele>
        <time>2020-05-31T17:17:32Z</time>
      </trkpt>
      <trkpt lat="47.10747" lon="-1.58914">
        <ele>12.6</ele>
        <time>2020-05-31T17:17:34Z</time>
      </trkpt>
      <trkpt lat="47.10754" lon="-1.58902">
        <ele>11.41</ele>
        <time>2020-05-31T17:17:36Z</time>
      </trkpt>
      <trkpt lat="47.10762" lon="-1.5889">
        <ele>10.38</ele>
        <time>2020-05-31T17:17:38Z</time>
      </trkpt>
      <trkpt lat="47.10771" lon="-1.58879">
        <ele>10.21</ele>
        <time>2020-05-31T17:17:40Z</time>
      </trkpt>
      <trkpt lat="47.1078" lon="-1.58866">
        <ele>10.96</ele>
        <time>2020-05-31T17:17:42Z</time>
      </trkpt>
      <trkpt lat="47.10787" lon="-1.58854">
        <ele>12.07</ele>
        <time>2020-05-31T17:17:44Z</time>
      </trkpt>
      <trkpt lat="47.10794" lon="-1.58842">
        <ele>13.27</ele>
        <time>2020-05-31T17:17:46Z</time>
      </trkpt>
      <trkpt lat="47.10802" lon="-1.58829">
        <ele>13.55</ele>
        <time>2020-05-31T17:17:48Z</time>
      </trkpt>
      <trkpt lat="47.1081" lon="-1.58817">
        <ele>14.17</ele>
        <time>2020-05-31T17:17:50Z</time>
      </trkpt>
      <trkpt lat="47.10819" lon="-1.58802">
        <ele>15.07</ele>
        <time>2020-05-31T17:17:52Z</time>
      </trkpt>
      <trkpt lat="47.10828" lon="-1.58788">
        <ele>14.8</ele>
        <time>2020-05-31T17:17:54Z</time>
      </trkpt>
      <trkpt lat="47.10836" lon="-1.58775">
        <ele>15.24</ele>
        <time>2020-05-31T17:17:56Z</time>
      </trkpt>
      <trkpt lat="47.10845" lon="-1.58763">
        <ele>14.96</ele>
        <time>2020-05-31T17:17:58Z</time>
      </trkpt>
      <trkpt lat="47.10854" lon="-1.58751">
        <ele>13.84</ele>
        <time>2020-05-31T17:18:00Z</time>
      </trkpt>
      <trkpt lat="47.10862" lon="-1.58738">
        <ele>12.73</ele>
        <time>2020-05-31T17:18:02Z</time>
      </trkpt>
      <trkpt lat="47.1087" lon="-1.58726">
        <ele>12.09</ele>
        <time>2020-05-31T17:18:04Z</time>
      </trkpt>
      <trkpt lat="47.10877" lon="-1.58714">
        <ele>11.9</ele>
        <time>2020-05-31T17:18:06Z</time>
      </trkpt>
      <trkpt lat="47.10885" lon="-1.58703">
        <ele>11.99</ele>
        <time>2020-05-31T17:18:08Z</time>
      </trkpt>
      <trkpt lat="47.10894" lon="-1.58687">
        <ele>11.73</ele>
        <time>2020-05-31T17:18:10Z</time>
      </trkpt>
      <trkpt lat="47.10904" lon="-1.58673">
        <ele>11.22</ele>
        <time>2020-05-31T17:18:12Z</time>
      </trkpt>
      <trkpt lat="47.10913" lon="-1.58659">
        <ele>11.35</ele>
        <time>2020-05-31T17:18:14Z</time>
      </trkpt>
      <trkpt lat="47.10923" lon="-1.58646">
        <ele>12.04</ele>
        <time>2020-05-31T17:18:16Z</time>
      </trkpt>
      <trkpt lat="47.10933" lon="-1.58631">
        <ele>14.18</ele>
        <time>2020-05-31T17:18:18Z</time>
      </trkpt>
      <trkpt lat="47.10942" lon="-1.58618">
        <ele>14.93</ele>
        <time>2020-05-31T17:18:20Z</time>
      </trkpt>
      <trkpt lat="47.1095" lon="-1.58605">
        <ele>14.58</ele>
        <time>2020-05-31T17:18:22Z</time>
      </trkpt>
      <trkpt lat="47.10958" lon="-1.58593">
        <ele>13.77</ele>
        <time>2020-05-31T17:18:24Z</time>
      </trkpt>
      <trkpt lat="47.10966" lon="-1.58581">
        <ele>13.29</ele>
        <time>2020-05-31T17:18:26Z</time>
      </trkpt>
      <trkpt lat="47.10975" lon="-1.58568">
        <ele>12.34</ele>
        <time>2020-05-31T17:18:28Z</time>
      </trkpt>
      <trkpt lat="47.10984" lon="-1.58556">
        <ele>11.03</ele>
        <time>2020-05-31T17:18:30Z</time>
      </trkpt>
      <trkpt lat="47.10992" lon="-1.58545">
        <ele>9.49</ele>
        <time>2020-05-31T17:18:32Z</time>
      </trkpt>
      <trkpt lat="47.11" lon="-1.58533">
        <ele>9.13</ele>
        <time>2020-05-31T17:18:34Z</time>
      </trkpt>
      <trkpt lat="47.11008" lon="-1.58521">
        <ele>9.98</ele>
        <time>2020-05-31T17:18:36Z</time>
      </trkpt>
      <trkpt lat="47.11016" lon="-1.58507">
        <ele>9.57</ele>
        <time>2020-05-31T17:18:38Z</time>
      </trkpt>
      <trkpt lat="47.11025" lon="-1.58496">
        <ele>8.36</ele>
        <time>2020-05-31T17:18:40Z</time>
      </trkpt>
      <trkpt lat="47.11034" lon="-1.58482">
        <ele>6.78</ele>
        <time>2020-05-31T17:18:42Z</time>
      </trkpt>
      <trkpt lat="47.11042" lon="-1.58469">
        <ele>5.96</ele>
        <time>2020-05-31T17:18:44Z</time>
      </trkpt>
      <trkpt lat="47.11049" lon="-1.58458">
        <ele>4.5</ele>
        <time>2020-05-31T17:18:46Z</time>
      </trkpt>
      <trkpt lat="47.11057" lon="-1.58446">
        <ele>3.85</ele>
        <time>2020-05-31T17:18:48Z</time>
      </trkpt>
      <trkpt lat="47.11065" lon="-1.58434">
        <ele>4.36</ele>
        <time>2020-05-31T17:18:50Z</time>
      </trkpt>
      <trkpt lat="47.11075" lon="-1.58419">
        <ele>5.73</ele>
        <time>2020-05-31T17:18:52Z</time>
      </trkpt>
      <trkpt lat="47.11081" lon="-1.58408">
        <ele>5.88</ele>
        <time>2020-05-31T17:18:54Z</time>
      </trkpt>
      <trkpt lat="47.1109" lon="-1.58395">
        <ele>5.14</ele>
        <time>2020-05-31T17:18:56Z</time>
      </trkpt>
      <trkpt lat="47.11099" lon="-1.58383">
        <ele>3.73</ele>
        <time>2020-05-31T17:18:58Z</time>
      </trkpt>
      <trkpt lat="47.11107" lon="-1.5837">
        <ele>2.94</ele>
        <time>2020-05-31T17:19:00Z</time>
      </trkpt>
      <trkpt lat="47.11115" lon="-1.58358">
        <ele>2.81</ele>
        <time>2020-05-31T17:19:02Z</time>
      </trkpt>
      <trkpt lat="47.11123" lon="-1.58346">
        <ele>2.6</ele>
        <time>2020-05-31T17:19:04Z</time>
      </trkpt>
      <trkpt lat="47.11132" lon="-1.58333">
        <ele>2.75</ele>
        <time>2020-05-31T17:19:06Z</time>
      </trkpt>
      <trkpt lat="47.11141" lon="-1.58319">
        <ele>2.88</ele>
        <time>2020-05-31T17:19:08Z</time>
      </trkpt>
      <trkpt lat="47.11149" lon="-1.58305">
        <ele>2.78</ele>
        <time>2020-05-31T17:19:10Z</time>
      </trkpt>
      <trkpt lat="47.11158" lon="-1.5829">
        <ele>3.18</ele>
        <time>2020-05-31T17:19:12Z</time>
      </trkpt>
      <trkpt lat="47.11166" lon="-1.58278">
        <ele>4.35</ele>
        <time>2020-05-31T17:19:14Z</time>
      </trkpt>
      <trkpt lat="47.11175" lon="-1.58266">
        <ele>4.74</ele>
        <time>2020-05-31T17:19:16Z</time>
      </trkpt>
      <trkpt lat="47.11184" lon="-1.58252">
        <ele>4.73</ele>
        <time>2020-05-31T17:19:18Z</time>
      </trkpt>
      <trkpt lat="47.1119" lon="-1.58243">
        <ele>5.58</ele>
        <time>2020-05-31T17:19:20Z</time>
      </trkpt>
      <trkpt lat="47.11198" lon="-1.58231">
        <ele>5.85</ele>
        <time>2020-05-31T17:19:22Z</time>
      </trkpt>
      <trkpt lat="47.11205" lon="-1.5822">
        <ele>5.59</ele>
        <time>2020-05-31T17:19:24Z</time>
      </trkpt>
      <trkpt lat="47.11214" lon="-1.58207">
        <ele>4.96</ele>
        <time>2020-05-31T17:19:26Z</time>
      </trkpt>
      <trkpt lat="47.11223" lon="-1.58197">
        <ele>4.26</ele>
        <time>2020-05-31T17:19:28Z</time>
      </trkpt>
      <trkpt lat="47.11233" lon="-1.58184">
        <ele>3.8</ele>
        <time>2020-05-31T17:19:30Z</time>
      </trkpt>
      <trkpt lat="47.11244" lon="-1.58173">
        <ele>4.34</ele>
        <time>2020-05-31T17:19:32Z</time>
      </trkpt>
      <trkpt lat="47.11253" lon="-1.58162">
        <ele>4.99</ele>
        <time>2020-05-31T17:19:34Z</time>
      </trkpt>
      <trkpt lat="47.11261" lon="-1.58153">
        <ele>5.41</ele>
        <time>2020-05-31T17:19:36Z</time>
      </trkpt>
      <trkpt lat="47.11271" lon="-1.58144">
        <ele>6.5</ele>
        <time>2020-05-31T17:19:38Z</time>
      </trkpt>
      <trkpt lat="47.1128" lon="-1.58136">
        <ele>7.72</ele>
        <time>2020-05-31T17:19:40Z</time>
      </trkpt>
      <trkpt lat="47.11291" lon="-1.58128">
        <ele>7.94</ele>
        <time>2020-05-31T17:19:42Z</time>
      </trkpt>
      <trkpt lat="47.11303" lon="-1.5812">
        <ele>7.25</ele>
        <time>2020-05-31T17:19:44Z</time>
      </trkpt>
      <trkpt lat="47.11314" lon="-1.58112">
        <ele>5.67</ele>
        <time>2020-05-31T17:19:46Z</time>
      </trkpt>
      <trkpt lat="47.11326" lon="-1.58105">
        <ele>5.3</ele>
        <time>2020-05-31T17:19:48Z</time>
      </trkpt>
      <trkpt lat="47.11337" lon="-1.58097">
        <ele>5.09</ele>
        <time>2020-05-31T17:19:50Z</time>
      </trkpt>
      <trkpt lat="47.1135" lon="-1.58089">
        <ele>4.35</ele>
        <time>2020-05-31T17:19:52Z</time>
      </trkpt>
      <trkpt lat="47.11361" lon="-1.58082">
        <ele>3.53</ele>
        <time>2020-05-31T17:19:54Z</time>
      </trkpt>
      <trkpt lat="47.11373" lon="-1.58075">
        <ele>3.15</ele>
        <time>2020-05-31T17:19:56Z</time>
      </trkpt>
      <trkpt lat="47.11383" lon="-1.5807">
        <ele>3.18</ele>
        <time>2020-05-31T17:19:58Z</time>
      </trkpt>
      <trkpt lat="47.11395" lon="-1.58063">
        <ele>3.33</ele>
        <time>2020-05-31T17:20:00Z</time>
      </trkpt>
      <trkpt lat="47.11406" lon="-1.58057">
        <ele>3.06</ele>
        <time>2020-05-31T17:20:02Z</time>
      </trkpt>
      <trkpt lat="47.11421" lon="-1.58048">
        <ele>3.15</ele>
        <time>2020-05-31T17:20:04Z</time>
      </trkpt>
      <trkpt lat="47.11429" lon="-1.58043">
        <ele>3.75</ele>
        <time>2020-05-31T17:20:06Z</time>
      </trkpt>
      <trkpt lat="47.11441" lon="-1.58036">
        <ele>3.51</ele>
        <time>2020-05-31T17:20:08Z</time>
      </trkpt>
      <trkpt lat="47.11453" lon="-1.58032">
        <ele>3.84</ele>
        <time>2020-05-31T17:20:10Z</time>
      </trkpt>
      <trkpt lat="47.11466" lon="-1.58027">
        <ele>3.93</ele>
        <time>2020-05-31T17:20:12Z</time>
      </trkpt>
      <trkpt lat="47.11477" lon="-1.58024">
        <ele>3.57</ele>
        <time>2020-05-31T17:20:14Z</time>
      </trkpt>
      <trkpt lat="47.11488" lon="-1.58023">
        <ele>4.23</ele>
        <time>2020-05-31T17:20:16Z</time>
      </trkpt>
      <trkpt lat="47.11499" lon="-1.58021">
        <ele>6.05</ele>
        <time>2020-05-31T17:20:18Z</time>
      </trkpt>
      <trkpt lat="47.1151" lon="-1.5802">
        <ele>6.64</ele>
        <time>2020-05-31T17:20:20Z</time>
      </trkpt>
      <trkpt lat="47.11522" lon="-1.5802">
        <ele>7.22</ele>
        <time>2020-05-31T17:20:22Z</time>
      </trkpt>
      <trkpt lat="47.11536" lon="-1.5802">
        <ele>6.62</ele>
        <time>2020-05-31T17:20:24Z</time>
      </trkpt>
      <trkpt lat="47.11549" lon="-1.58021">
        <ele>5.69</ele>
        <time>2020-05-31T17:20:26Z</time>
      </trkpt>
      <trkpt lat="47.11562" lon="-1.58023">
        <ele>5.78</ele>
        <time>2020-05-31T17:20:28Z</time>
      </trkpt>
      <trkpt lat="47.11575" lon="-1.58025">
        <ele>6.47</ele>
        <time>2020-05-31T17:20:30Z</time>
      </trkpt>
      <trkpt lat="47.11588" lon="-1.58026">
        <ele>6.68</ele>
        <time>2020-05-31T17:20:32Z</time>
      </trkpt>
      <trkpt lat="47.11601" lon="-1.58027">
        <ele>6.49</ele>
        <time>2020-05-31T17:20:34Z</time>
      </trkpt>
      <trkpt lat="47.11611" lon="-1.58028">
        <ele>5.87</ele>
        <time>2020-05-31T17:20:36Z</time>
      </trkpt>
      <trkpt lat="47.11621" lon="-1.58031">
        <ele>4.7</ele>
        <time>2020-05-31T17:20:38Z</time>
      </trkpt>
      <trkpt lat="47.1163" lon="-1.58029">
        <ele>3.72</ele>
        <time>2020-05-31T17:20:40Z</time>
      </trkpt>
      <trkpt lat="47.11641" lon="-1.58027">
        <ele>3.1</ele>
        <time>2020-05-31T17:20:42Z</time>
      </trkpt>
      <trkpt lat="47.11653" lon="-1.58028">
        <ele>2.54</ele>
        <time>2020-05-31T17:20:44Z</time>
      </trkpt>
      <trkpt lat="47.11666" lon="-1.5803">
        <ele>1.25</ele>
        <time>2020-05-31T17:20:46Z</time>
      </trkpt>
      <trkpt lat="47.11677" lon="-1.58031">
        <ele>0.69</ele>
        <time>2020-05-31T17:20:48Z</time>
      </trkpt>
      <trkpt lat="47.11687" lon="-1.58032">
        <ele>0.22</ele>
        <time>2020-05-31T17:20:50Z</time>
      </trkpt>
      <trkpt lat="47.11701" lon="-1.58034">
        <ele>0.06</ele>
        <time>2020-05-31T17:20:52Z</time>
      </trkpt>
      <trkpt lat="47.11714" lon="-1.58034">
        <ele>-0.25</ele>
        <time>2020-05-31T17:20:54Z</time>
      </trkpt>
      <trkpt lat="47.11725" lon="-1.58035">
        <ele>1.1</ele>
        <time>2020-05-31T17:20:56Z</time>
      </trkpt>
      <trkpt lat="47.11735" lon="-1.58035">
        <ele>1.73</ele>
        <time>2020-05-31T17:20:58Z</time>
      </trkpt>
      <trkpt lat="47.11746" lon="-1.58036">
        <ele>2.14</ele>
        <time>2020-05-31T17:21:00Z</time>
      </trkpt>
      <trkpt lat="47.11759" lon="-1.58037">
        <ele>3.08</ele>
        <time>2020-05-31T17:21:02Z</time>
      </trkpt>
      <trkpt lat="47.11768" lon="-1.58038">
        <ele>2.6</ele>
        <time>2020-05-31T17:21:04Z</time>
      </trkpt>
      <trkpt lat="47.11777" lon="-1.58041">
        <ele>1.61</ele>
        <time>2020-05-31T17:21:06Z</time>
      </trkpt>
      <trkpt lat="47.11788" lon="-1.58044">
        <ele>0.93</ele>
        <time>2020-05-31T17:21:08Z</time>
      </trkpt>
      <trkpt lat="47.11799" lon="-1.58048">
        <ele>0.91</ele>
        <time>2020-05-31T17:21:10Z</time>
      </trkpt>
      <trkpt lat="47.11812" lon="-1.58052">
        <ele>1.42</ele>
        <time>2020-05-31T17:21:13Z</time>
      </trkpt>
      <trkpt lat="47.11823" lon="-1.58055">
        <ele>2.52</ele>
        <time>2020-05-31T17:21:15Z</time>
      </trkpt>
      <trkpt lat="47.11832" lon="-1.58059">
        <ele>3.37</ele>
        <time>2020-05-31T17:21:17Z</time>
      </trkpt>
      <trkpt lat="47.11844" lon="-1.58061">
        <ele>3.77</ele>
        <time>2020-05-31T17:21:19Z</time>
      </trkpt>
      <trkpt lat="47.11854" lon="-1.58063">
        <ele>3.06</ele>
        <time>2020-05-31T17:21:21Z</time>
      </trkpt>
      <trkpt lat="47.11864" lon="-1.58065">
        <ele>2.51</ele>
        <time>2020-05-31T17:21:23Z</time>
      </trkpt>
      <trkpt lat="47.11878" lon="-1.58069">
        <ele>1.9</ele>
        <time>2020-05-31T17:21:26Z</time>
      </trkpt>
      <trkpt lat="47.11887" lon="-1.58072">
        <ele>1.58</ele>
        <time>2020-05-31T17:21:28Z</time>
      </trkpt>
      <trkpt lat="47.11898" lon="-1.58075">
        <ele>0.95</ele>
        <time>2020-05-31T17:21:30Z</time>
      </trkpt>
      <trkpt lat="47.11911" lon="-1.58077">
        <ele>1.34</ele>
        <time>2020-05-31T17:21:32Z</time>
      </trkpt>
      <trkpt lat="47.11922" lon="-1.5808">
        <ele>1.58</ele>
        <time>2020-05-31T17:21:34Z</time>
      </trkpt>
      <trkpt lat="47.11931" lon="-1.58083">
        <ele>2.06</ele>
        <time>2020-05-31T17:21:36Z</time>
      </trkpt>
      <trkpt lat="47.11943" lon="-1.58086">
        <ele>3.17</ele>
        <time>2020-05-31T17:21:38Z</time>
      </trkpt>
      <trkpt lat="47.11954" lon="-1.58088">
        <ele>3.12</ele>
        <time>2020-05-31T17:21:40Z</time>
      </trkpt>
      <trkpt lat="47.11966" lon="-1.5809">
        <ele>1.5</ele>
        <time>2020-05-31T17:21:42Z</time>
      </trkpt>
      <trkpt lat="47.11976" lon="-1.58092">
        <ele>0.41</ele>
        <time>2020-05-31T17:21:44Z</time>
      </trkpt>
      <trkpt lat="47.11987" lon="-1.58097">
        <ele>0.52</ele>
        <time>2020-05-31T17:21:46Z</time>
      </trkpt>
      <trkpt lat="47.11998" lon="-1.581">
        <ele>1.1</ele>
        <time>2020-05-31T17:21:48Z</time>
      </trkpt>
      <trkpt lat="47.12008" lon="-1.58103">
        <ele>2.24</ele>
        <time>2020-05-31T17:21:50Z</time>
      </trkpt>
      <trkpt lat="47.1202" lon="-1.58104">
        <ele>2.46</ele>
        <time>2020-05-31T17:21:53Z</time>
      </trkpt>
      <trkpt lat="47.1203" lon="-1.58113">
        <ele>3.36</ele>
        <time>2020-05-31T17:21:55Z</time>
      </trkpt>
      <trkpt lat="47.12041" lon="-1.58123">
        <ele>3.74</ele>
        <time>2020-05-31T17:21:57Z</time>
      </trkpt>
      <trkpt lat="47.12051" lon="-1.5813">
        <ele>4.14</ele>
        <time>2020-05-31T17:21:59Z</time>
      </trkpt>
      <trkpt lat="47.12063" lon="-1.58138">
        <ele>3.93</ele>
        <time>2020-05-31T17:22:01Z</time>
      </trkpt>
      <trkpt lat="47.12074" lon="-1.58145">
        <ele>4.5</ele>
        <time>2020-05-31T17:22:03Z</time>
      </trkpt>
      <trkpt lat="47.12086" lon="-1.58152">
        <ele>5.12</ele>
        <time>2020-05-31T17:22:05Z</time>
      </trkpt>
      <trkpt lat="47.121" lon="-1.5816">
        <ele>3.7</ele>
        <time>2020-05-31T17:22:07Z</time>
      </trkpt>
      <trkpt lat="47.12112" lon="-1.58168">
        <ele>3.52</ele>
        <time>2020-05-31T17:22:09Z</time>
      </trkpt>
      <trkpt lat="47.12126" lon="-1.58179">
        <ele>3.75</ele>
        <time>2020-05-31T17:22:11Z</time>
      </trkpt>
      <trkpt lat="47.12138" lon="-1.58191">
        <ele>3.82</ele>
        <time>2020-05-31T17:22:13Z</time>
      </trkpt>
      <trkpt lat="47.12152" lon="-1.58205">
        <ele>3.64</ele>
        <time>2020-05-31T17:22:15Z</time>
      </trkpt>
      <trkpt lat="47.12164" lon="-1.58217">
        <ele>3.24</ele>
        <time>2020-05-31T17:22:17Z</time>
      </trkpt>
      <trkpt lat="47.12177" lon="-1.58232">
        <ele>2.82</ele>
        <time>2020-05-31T17:22:19Z</time>
      </trkpt>
      <trkpt lat="47.1219" lon="-1.58245">
        <ele>2.89</ele>
        <time>2020-05-31T17:22:21Z</time>
      </trkpt>
      <trkpt lat="47.12204" lon="-1.58257">
        <ele>2.01</ele>
        <time>2020-05-31T17:22:23Z</time>
      </trkpt>
      <trkpt lat="47.12217" lon="-1.58269">
        <ele>0.63</ele>
        <time>2020-05-31T17:22:25Z</time>
      </trkpt>
      <trkpt lat="47.1223" lon="-1.58281">
        <ele>-0.67</ele>
        <time>2020-05-31T17:22:27Z</time>
      </trkpt>
      <trkpt lat="47.12241" lon="-1.5829">
        <ele>-1.61</ele>
        <time>2020-05-31T17:22:29Z</time>
      </trkpt>
      <trkpt lat="47.12254" lon="-1.58302">
        <ele>-1.52</ele>
        <time>2020-05-31T17:22:31Z</time>
      </trkpt>
      <trkpt lat="47.12266" lon="-1.58314">
        <ele>-0.67</ele>
        <time>2020-05-31T17:22:33Z</time>
      </trkpt>
      <trkpt lat="47.12278" lon="-1.58326">
        <ele>-0.34</ele>
        <time>2020-05-31T17:22:35Z</time>
      </trkpt>
      <trkpt lat="47.12288" lon="-1.58337">
        <ele>-0.69</ele>
        <time>2020-05-31T17:22:37Z</time>
      </trkpt>
      <trkpt lat="47.12297" lon="-1.58348">
        <ele>-0.52</ele>
        <time>2020-05-31T17:22:39Z</time>
      </trkpt>
      <trkpt lat="47.12301" lon="-1.58365">
        <ele>-0.03</ele>
        <time>2020-05-31T17:22:41Z</time>
      </trkpt>
      <trkpt lat="47.12304" lon="-1.58383">
        <ele>0.56</ele>
        <time>2020-05-31T17:22:43Z</time>
      </trkpt>
      <trkpt lat="47.12306" lon="-1.58402">
        <ele>-0.29</ele>
        <time>2020-05-31T17:22:45Z</time>
      </trkpt>
      <trkpt lat="47.12314" lon="-1.5842">
        <ele>1.18</ele>
        <time>2020-05-31T17:22:48Z</time>
      </trkpt>
      <trkpt lat="47.12323" lon="-1.58433">
        <ele>1.62</ele>
        <time>2020-05-31T17:22:50Z</time>
      </trkpt>
      <trkpt lat="47.12334" lon="-1.58438">
        <ele>1.24</ele>
        <time>2020-05-31T17:22:52Z</time>
      </trkpt>
      <trkpt lat="47.12345" lon="-1.5844">
        <ele>1.87</ele>
        <time>2020-05-31T17:22:54Z</time>
      </trkpt>
      <trkpt lat="47.12359" lon="-1.58437">
        <ele>2.51</ele>
        <time>2020-05-31T17:22:56Z</time>
      </trkpt>
      <trkpt lat="47.12372" lon="-1.58433">
        <ele>3.04</ele>
        <time>2020-05-31T17:22:58Z</time>
      </trkpt>
      <trkpt lat="47.12383" lon="-1.58431">
        <ele>4.08</ele>
        <time>2020-05-31T17:23:00Z</time>
      </trkpt>
      <trkpt lat="47.12394" lon="-1.58427">
        <ele>5.7</ele>
        <time>2020-05-31T17:23:02Z</time>
      </trkpt>
      <trkpt lat="47.12406" lon="-1.5842">
        <ele>7.38</ele>
        <time>2020-05-31T17:23:04Z</time>
      </trkpt>
      <trkpt lat="47.12416" lon="-1.58411">
        <ele>7.65</ele>
        <time>2020-05-31T17:23:06Z</time>
      </trkpt>
      <trkpt lat="47.12426" lon="-1.58402">
        <ele>7.33</ele>
        <time>2020-05-31T17:23:08Z</time>
      </trkpt>
      <trkpt lat="47.12435" lon="-1.58395">
        <ele>7.35</ele>
        <time>2020-05-31T17:23:10Z</time>
      </trkpt>
      <trkpt lat="47.12446" lon="-1.58383">
        <ele>6.83</ele>
        <time>2020-05-31T17:23:12Z</time>
      </trkpt>
      <trkpt lat="47.12457" lon="-1.58373">
        <ele>5.68</ele>
        <time>2020-05-31T17:23:14Z</time>
      </trkpt>
      <trkpt lat="47.12467" lon="-1.58363">
        <ele>4.41</ele>
        <time>2020-05-31T17:23:17Z</time>
      </trkpt>
      <trkpt lat="47.12478" lon="-1.58354">
        <ele>4.96</ele>
        <time>2020-05-31T17:23:20Z</time>
      </trkpt>
      <trkpt lat="47.12487" lon="-1.58348">
        <ele>4.77</ele>
        <time>2020-05-31T17:23:22Z</time>
      </trkpt>
      <trkpt lat="47.12496" lon="-1.5834">
        <ele>6.43</ele>
        <time>2020-05-31T17:23:24Z</time>
      </trkpt>
      <trkpt lat="47.12507" lon="-1.5833">
        <ele>7.78</ele>
        <time>2020-05-31T17:23:27Z</time>
      </trkpt>
      <trkpt lat="47.12515" lon="-1.58319">
        <ele>6.81</ele>
        <time>2020-05-31T17:23:29Z</time>
      </trkpt>
      <trkpt lat="47.12523" lon="-1.58312">
        <ele>6.9</ele>
        <time>2020-05-31T17:23:31Z</time>
      </trkpt>
      <trkpt lat="47.12536" lon="-1.58303">
        <ele>7.68</ele>
        <time>2020-05-31T17:23:34Z</time>
      </trkpt>
      <trkpt lat="47.12544" lon="-1.58297">
        <ele>7.7</ele>
        <time>2020-05-31T17:23:36Z</time>
      </trkpt>
      <trkpt lat="47.12553" lon="-1.58291">
        <ele>7.16</ele>
        <time>2020-05-31T17:23:38Z</time>
      </trkpt>
      <trkpt lat="47.12561" lon="-1.58284">
        <ele>8.48</ele>
        <time>2020-05-31T17:23:40Z</time>
      </trkpt>
      <trkpt lat="47.12571" lon="-1.58276">
        <ele>9.7</ele>
        <time>2020-05-31T17:23:42Z</time>
      </trkpt>
      <trkpt lat="47.12581" lon="-1.58267">
        <ele>10.34</ele>
        <time>2020-05-31T17:23:44Z</time>
      </trkpt>
      <trkpt lat="47.1259" lon="-1.58258">
        <ele>10.21</ele>
        <time>2020-05-31T17:23:46Z</time>
      </trkpt>
      <trkpt lat="47.12598" lon="-1.5825">
        <ele>10.51</ele>
        <time>2020-05-31T17:23:48Z</time>
      </trkpt>
      <trkpt lat="47.12607" lon="-1.58241">
        <ele>10.47</ele>
        <time>2020-05-31T17:23:50Z</time>
      </trkpt>
      <trkpt lat="47.12616" lon="-1.58233">
        <ele>9.71</ele>
        <time>2020-05-31T17:23:52Z</time>
      </trkpt>
      <trkpt lat="47.12624" lon="-1.58227">
        <ele>9.31</ele>
        <time>2020-05-31T17:23:54Z</time>
      </trkpt>
      <trkpt lat="47.12635" lon="-1.58218">
        <ele>8.38</ele>
        <time>2020-05-31T17:23:56Z</time>
      </trkpt>
      <trkpt lat="47.12645" lon="-1.5821">
        <ele>8.04</ele>
        <time>2020-05-31T17:23:58Z</time>
      </trkpt>
      <trkpt lat="47.12654" lon="-1.582">
        <ele>8.01</ele>
        <time>2020-05-31T17:24:00Z</time>
      </trkpt>
      <trkpt lat="47.12662" lon="-1.58191">
        <ele>7.62</ele>
        <time>2020-05-31T17:24:02Z</time>
      </trkpt>
      <trkpt lat="47.12671" lon="-1.58183">
        <ele>7.34</ele>
        <time>2020-05-31T17:24:04Z</time>
      </trkpt>
      <trkpt lat="47.12681" lon="-1.58176">
        <ele>8.29</ele>
        <time>2020-05-31T17:24:06Z</time>
      </trkpt>
      <trkpt lat="47.12691" lon="-1.58167">
        <ele>8.72</ele>
        <time>2020-05-31T17:24:08Z</time>
      </trkpt>
      <trkpt lat="47.127" lon="-1.58158">
        <ele>9.17</ele>
        <time>2020-05-31T17:24:10Z</time>
      </trkpt>
      <trkpt lat="47.12707" lon="-1.58149">
        <ele>9.2</ele>
        <time>2020-05-31T17:24:12Z</time>
      </trkpt>
      <trkpt lat="47.12717" lon="-1.58139">
        <ele>7.77</ele>
        <time>2020-05-31T17:24:14Z</time>
      </trkpt>
      <trkpt lat="47.12727" lon="-1.58129">
        <ele>7.42</ele>
        <time>2020-05-31T17:24:16Z</time>
      </trkpt>
      <trkpt lat="47.12738" lon="-1.5812">
        <ele>7.95</ele>
        <time>2020-05-31T17:24:18Z</time>
      </trkpt>
      <trkpt lat="47.12746" lon="-1.58111">
        <ele>8.43</ele>
        <time>2020-05-31T17:24:20Z</time>
      </trkpt>
      <trkpt lat="47.12753" lon="-1.58099">
        <ele>8.58</ele>
        <time>2020-05-31T17:24:22Z</time>
      </trkpt>
      <trkpt lat="47.12763" lon="-1.58094">
        <ele>9.06</ele>
        <time>2020-05-31T17:24:24Z</time>
      </trkpt>
      <trkpt lat="47.12774" lon="-1.58086">
        <ele>9.2</ele>
        <time>2020-05-31T17:24:26Z</time>
      </trkpt>
      <trkpt lat="47.12784" lon="-1.58076">
        <ele>9.43</ele>
        <time>2020-05-31T17:24:28Z</time>
      </trkpt>
      <trkpt lat="47.12796" lon="-1.58064">
        <ele>10.4</ele>
        <time>2020-05-31T17:24:30Z</time>
      </trkpt>
      <trkpt lat="47.12807" lon="-1.58055">
        <ele>11.43</ele>
        <time>2020-05-31T17:24:32Z</time>
      </trkpt>
      <trkpt lat="47.12815" lon="-1.58047">
        <ele>11.19</ele>
        <time>2020-05-31T17:24:34Z</time>
      </trkpt>
      <trkpt lat="47.12826" lon="-1.58041">
        <ele>9.98</ele>
        <time>2020-05-31T17:24:36Z</time>
      </trkpt>
      <trkpt lat="47.12838" lon="-1.58031">
        <ele>9.38</ele>
        <time>2020-05-31T17:24:38Z</time>
      </trkpt>
      <trkpt lat="47.12848" lon="-1.58021">
        <ele>8.82</ele>
        <time>2020-05-31T17:24:40Z</time>
      </trkpt>
      <trkpt lat="47.12859" lon="-1.58009">
        <ele>9.57</ele>
        <time>2020-05-31T17:24:42Z</time>
      </trkpt>
      <trkpt lat="47.12869" lon="-1.57998">
        <ele>9.46</ele>
        <time>2020-05-31T17:24:44Z</time>
      </trkpt>
      <trkpt lat="47.12879" lon="-1.57988">
        <ele>9.14</ele>
        <time>2020-05-31T17:24:46Z</time>
      </trkpt>
      <trkpt lat="47.12889" lon="-1.57978">
        <ele>8.61</ele>
        <time>2020-05-31T17:24:48Z</time>
      </trkpt>
      <trkpt lat="47.12897" lon="-1.57971">
        <ele>8.29</ele>
        <time>2020-05-31T17:24:50Z</time>
      </trkpt>
      <trkpt lat="47.12908" lon="-1.5796">
        <ele>9.23</ele>
        <time>2020-05-31T17:24:52Z</time>
      </trkpt>
      <trkpt lat="47.12917" lon="-1.57952">
        <ele>9.42</ele>
        <time>2020-05-31T17:24:54Z</time>
      </trkpt>
      <trkpt lat="47.1293" lon="-1.57949">
        <ele>9.98</ele>
        <time>2020-05-31T17:24:56Z</time>
      </trkpt>
      <trkpt lat="47.12943" lon="-1.57946">
        <ele>9.47</ele>
        <time>2020-05-31T17:24:58Z</time>
      </trkpt>
      <trkpt lat="47.12956" lon="-1.57949">
        <ele>8.73</ele>
        <time>2020-05-31T17:25:00Z</time>
      </trkpt>
      <trkpt lat="47.12967" lon="-1.57959">
        <ele>7.75</ele>
        <time>2020-05-31T17:25:02Z</time>
      </trkpt>
      <trkpt lat="47.1298" lon="-1.57964">
        <ele>6.94</ele>
        <time>2020-05-31T17:25:04Z</time>
      </trkpt>
      <trkpt lat="47.12992" lon="-1.57968">
        <ele>6.32</ele>
        <time>2020-05-31T17:25:06Z</time>
      </trkpt>
      <trkpt lat="47.13006" lon="-1.57971">
        <ele>6.01</ele>
        <time>2020-05-31T17:25:08Z</time>
      </trkpt>
      <trkpt lat="47.13019" lon="-1.57976">
        <ele>6.52</ele>
        <time>2020-05-31T17:25:10Z</time>
      </trkpt>
      <trkpt lat="47.13031" lon="-1.57981">
        <ele>6.43</ele>
        <time>2020-05-31T17:25:12Z</time>
      </trkpt>
      <trkpt lat="47.13043" lon="-1.57984">
        <ele>5.02</ele>
        <time>2020-05-31T17:25:14Z</time>
      </trkpt>
      <trkpt lat="47.13054" lon="-1.5799">
        <ele>3.72</ele>
        <time>2020-05-31T17:25:16Z</time>
      </trkpt>
      <trkpt lat="47.13065" lon="-1.57994">
        <ele>3.03</ele>
        <time>2020-05-31T17:25:18Z</time>
      </trkpt>
      <trkpt lat="47.13078" lon="-1.57999">
        <ele>1.24</ele>
        <time>2020-05-31T17:25:20Z</time>
      </trkpt>
      <trkpt lat="47.13091" lon="-1.58003">
        <ele>-0.18</ele>
        <time>2020-05-31T17:25:22Z</time>
      </trkpt>
      <trkpt lat="47.13104" lon="-1.58006">
        <ele>-0.77</ele>
        <time>2020-05-31T17:25:24Z</time>
      </trkpt>
      <trkpt lat="47.13115" lon="-1.58009">
        <ele>-0.88</ele>
        <time>2020-05-31T17:25:26Z</time>
      </trkpt>
      <trkpt lat="47.13127" lon="-1.58011">
        <ele>-0.66</ele>
        <time>2020-05-31T17:25:28Z</time>
      </trkpt>
      <trkpt lat="47.13139" lon="-1.58013">
        <ele>-0.23</ele>
        <time>2020-05-31T17:25:30Z</time>
      </trkpt>
      <trkpt lat="47.13151" lon="-1.58014">
        <ele>0.17</ele>
        <time>2020-05-31T17:25:32Z</time>
      </trkpt>
      <trkpt lat="47.13162" lon="-1.58014">
        <ele>-0.07</ele>
        <time>2020-05-31T17:25:34Z</time>
      </trkpt>
      <trkpt lat="47.13176" lon="-1.58016">
        <ele>-0.71</ele>
        <time>2020-05-31T17:25:36Z</time>
      </trkpt>
      <trkpt lat="47.1319" lon="-1.58017">
        <ele>-1.53</ele>
        <time>2020-05-31T17:25:37Z</time>
      </trkpt>
      <trkpt lat="47.13203" lon="-1.58018">
        <ele>-1.53</ele>
        <time>2020-05-31T17:25:39Z</time>
      </trkpt>
      <trkpt lat="47.13217" lon="-1.58019">
        <ele>-1.2</ele>
        <time>2020-05-31T17:25:41Z</time>
      </trkpt>
      <trkpt lat="47.13229" lon="-1.58019">
        <ele>-1.59</ele>
        <time>2020-05-31T17:25:43Z</time>
      </trkpt>
      <trkpt lat="47.13243" lon="-1.58019">
        <ele>-1.63</ele>
        <time>2020-05-31T17:25:45Z</time>
      </trkpt>
      <trkpt lat="47.13257" lon="-1.58017">
        <ele>-1.31</ele>
        <time>2020-05-31T17:25:47Z</time>
      </trkpt>
      <trkpt lat="47.13267" lon="-1.58015">
        <ele>-0.54</ele>
        <time>2020-05-31T17:25:49Z</time>
      </trkpt>
      <trkpt lat="47.13278" lon="-1.5801">
        <ele>0.15</ele>
        <time>2020-05-31T17:25:51Z</time>
      </trkpt>
      <trkpt lat="47.13291" lon="-1.58006">
        <ele>-0.88</ele>
        <time>2020-05-31T17:25:53Z</time>
      </trkpt>
      <trkpt lat="47.13302" lon="-1.58002">
        <ele>-2.6</ele>
        <time>2020-05-31T17:25:55Z</time>
      </trkpt>
      <trkpt lat="47.13315" lon="-1.57998">
        <ele>-3.31</ele>
        <time>2020-05-31T17:25:58Z</time>
      </trkpt>
      <trkpt lat="47.13324" lon="-1.57995">
        <ele>-2.69</ele>
        <time>2020-05-31T17:26:00Z</time>
      </trkpt>
      <trkpt lat="47.13337" lon="-1.57991">
        <ele>-1.04</ele>
        <time>2020-05-31T17:26:03Z</time>
      </trkpt>
      <trkpt lat="47.13347" lon="-1.57991">
        <ele>0.48</ele>
        <time>2020-05-31T17:26:05Z</time>
      </trkpt>
      <trkpt lat="47.13358" lon="-1.57993">
        <ele>1.7</ele>
        <time>2020-05-31T17:26:07Z</time>
      </trkpt>
      <trkpt lat="47.13368" lon="-1.57997">
        <ele>2.75</ele>
        <time>2020-05-31T17:26:09Z</time>
      </trkpt>
      <trkpt lat="47.13382" lon="-1.58007">
        <ele>3.66</ele>
        <time>2020-05-31T17:26:12Z</time>
      </trkpt>
      <trkpt lat="47.13392" lon="-1.58015">
        <ele>4.13</ele>
        <time>2020-05-31T17:26:14Z</time>
      </trkpt>
      <trkpt lat="47.13401" lon="-1.58024">
        <ele>4.15</ele>
        <time>2020-05-31T17:26:16Z</time>
      </trkpt>
      <trkpt lat="47.1341" lon="-1.58031">
        <ele>5.59</ele>
        <time>2020-05-31T17:26:18Z</time>
      </trkpt>
      <trkpt lat="47.13419" lon="-1.5804">
        <ele>7.58</ele>
        <time>2020-05-31T17:26:20Z</time>
      </trkpt>
      <trkpt lat="47.13428" lon="-1.58047">
        <ele>7.99</ele>
        <time>2020-05-31T17:26:22Z</time>
      </trkpt>
      <trkpt lat="47.1344" lon="-1.58057">
        <ele>7.03</ele>
        <time>2020-05-31T17:26:25Z</time>
      </trkpt>
      <trkpt lat="47.13448" lon="-1.58066">
        <ele>6.39</ele>
        <time>2020-05-31T17:26:27Z</time>
      </trkpt>
      <trkpt lat="47.13457" lon="-1.58073">
        <ele>7.08</ele>
        <time>2020-05-31T17:26:29Z</time>
      </trkpt>
      <trkpt lat="47.13467" lon="-1.58082">
        <ele>7.16</ele>
        <time>2020-05-31T17:26:31Z</time>
      </trkpt>
      <trkpt lat="47.13475" lon="-1.58089">
        <ele>7.51</ele>
        <time>2020-05-31T17:26:33Z</time>
      </trkpt>
      <trkpt lat="47.13484" lon="-1.58096">
        <ele>7.78</ele>
        <time>2020-05-31T17:26:35Z</time>
      </trkpt>
      <trkpt lat="47.13494" lon="-1.58104">
        <ele>7.92</ele>
        <time>2020-05-31T17:26:37Z</time>
      </trkpt>
      <trkpt lat="47.13502" lon="-1.58111">
        <ele>8.42</ele>
        <time>2020-05-31T17:26:39Z</time>
      </trkpt>
      <trkpt lat="47.13511" lon="-1.58119">
        <ele>8.36</ele>
        <time>2020-05-31T17:26:41Z</time>
      </trkpt>
      <trkpt lat="47.1352" lon="-1.58124">
        <ele>8.17</ele>
        <time>2020-05-31T17:26:43Z</time>
      </trkpt>
      <trkpt lat="47.1353" lon="-1.58129">
        <ele>7.42</ele>
        <time>2020-05-31T17:26:45Z</time>
      </trkpt>
      <trkpt lat="47.13544" lon="-1.58135">
        <ele>5.98</ele>
        <time>2020-05-31T17:26:48Z</time>
      </trkpt>
      <trkpt lat="47.13556" lon="-1.58137">
        <ele>6.2</ele>
        <time>2020-05-31T17:26:50Z</time>
      </trkpt>
      <trkpt lat="47.13566" lon="-1.58139">
        <ele>6.46</ele>
        <time>2020-05-31T17:26:52Z</time>
      </trkpt>
      <trkpt lat="47.13576" lon="-1.5814">
        <ele>6.86</ele>
        <time>2020-05-31T17:26:54Z</time>
      </trkpt>
      <trkpt lat="47.13588" lon="-1.58141">
        <ele>6.06</ele>
        <time>2020-05-31T17:26:56Z</time>
      </trkpt>
      <trkpt lat="47.13597" lon="-1.58142">
        <ele>5.96</ele>
        <time>2020-05-31T17:26:58Z</time>
      </trkpt>
      <trkpt lat="47.13608" lon="-1.58143">
        <ele>5.8</ele>
        <time>2020-05-31T17:27:00Z</time>
      </trkpt>
      <trkpt lat="47.13617" lon="-1.58143">
        <ele>4.92</ele>
        <time>2020-05-31T17:27:02Z</time>
      </trkpt>
      <trkpt lat="47.13629" lon="-1.58143">
        <ele>5.22</ele>
        <time>2020-05-31T17:27:04Z</time>
      </trkpt>
      <trkpt lat="47.13641" lon="-1.58144">
        <ele>4.86</ele>
        <time>2020-05-31T17:27:06Z</time>
      </trkpt>
      <trkpt lat="47.13651" lon="-1.58143">
        <ele>5.18</ele>
        <time>2020-05-31T17:27:08Z</time>
      </trkpt>
      <trkpt lat="47.13661" lon="-1.58144">
        <ele>5.18</ele>
        <time>2020-05-31T17:27:10Z</time>
      </trkpt>
      <trkpt lat="47.13671" lon="-1.58145">
        <ele>6.19</ele>
        <time>2020-05-31T17:27:12Z</time>
      </trkpt>
      <trkpt lat="47.13682" lon="-1.58147">
        <ele>7.25</ele>
        <time>2020-05-31T17:27:14Z</time>
      </trkpt>
      <trkpt lat="47.13694" lon="-1.58146">
        <ele>8.34</ele>
        <time>2020-05-31T17:27:16Z</time>
      </trkpt>
      <trkpt lat="47.13706" lon="-1.58145">
        <ele>8.04</ele>
        <time>2020-05-31T17:27:18Z</time>
      </trkpt>
      <trkpt lat="47.13718" lon="-1.58141">
        <ele>8.35</ele>
        <time>2020-05-31T17:27:20Z</time>
      </trkpt>
      <trkpt lat="47.13729" lon="-1.58135">
        <ele>9.2</ele>
        <time>2020-05-31T17:27:22Z</time>
      </trkpt>
      <trkpt lat="47.1374" lon="-1.58127">
        <ele>9.8</ele>
        <time>2020-05-31T17:27:24Z</time>
      </trkpt>
      <trkpt lat="47.1375" lon="-1.58116">
        <ele>10.53</ele>
        <time>2020-05-31T17:27:26Z</time>
      </trkpt>
      <trkpt lat="47.13758" lon="-1.58104">
        <ele>11.21</ele>
        <time>2020-05-31T17:27:28Z</time>
      </trkpt>
      <trkpt lat="47.13766" lon="-1.58093">
        <ele>11.48</ele>
        <time>2020-05-31T17:27:30Z</time>
      </trkpt>
      <trkpt lat="47.13774" lon="-1.58081">
        <ele>11.79</ele>
        <time>2020-05-31T17:27:32Z</time>
      </trkpt>
      <trkpt lat="47.13783" lon="-1.58068">
        <ele>12.92</ele>
        <time>2020-05-31T17:27:34Z</time>
      </trkpt>
      <trkpt lat="47.13791" lon="-1.58056">
        <ele>13.59</ele>
        <time>2020-05-31T17:27:36Z</time>
      </trkpt>
      <trkpt lat="47.138" lon="-1.58042">
        <ele>13.58</ele>
        <time>2020-05-31T17:27:38Z</time>
      </trkpt>
      <trkpt lat="47.13809" lon="-1.58031">
        <ele>13.66</ele>
        <time>2020-05-31T17:27:40Z</time>
      </trkpt>
      <trkpt lat="47.13817" lon="-1.5802">
        <ele>13.36</ele>
        <time>2020-05-31T17:27:42Z</time>
      </trkpt>
      <trkpt lat="47.13825" lon="-1.58008">
        <ele>13.61</ele>
        <time>2020-05-31T17:27:44Z</time>
      </trkpt>
      <trkpt lat="47.13835" lon="-1.57994">
        <ele>13.1</ele>
        <time>2020-05-31T17:27:46Z</time>
      </trkpt>
      <trkpt lat="47.13844" lon="-1.57982">
        <ele>13.24</ele>
        <time>2020-05-31T17:27:48Z</time>
      </trkpt>
      <trkpt lat="47.13852" lon="-1.5797">
        <ele>12.52</ele>
        <time>2020-05-31T17:27:50Z</time>
      </trkpt>
      <trkpt lat="47.13861" lon="-1.5796">
        <ele>10.88</ele>
        <time>2020-05-31T17:27:52Z</time>
      </trkpt>
      <trkpt lat="47.13869" lon="-1.57949">
        <ele>9.89</ele>
        <time>2020-05-31T17:27:54Z</time>
      </trkpt>
      <trkpt lat="47.13877" lon="-1.57937">
        <ele>10.44</ele>
        <time>2020-05-31T17:27:56Z</time>
      </trkpt>
      <trkpt lat="47.13886" lon="-1.57924">
        <ele>11.34</ele>
        <time>2020-05-31T17:27:58Z</time>
      </trkpt>
      <trkpt lat="47.13894" lon="-1.57911">
        <ele>12.27</ele>
        <time>2020-05-31T17:28:00Z</time>
      </trkpt>
      <trkpt lat="47.13902" lon="-1.579">
        <ele>12.84</ele>
        <time>2020-05-31T17:28:02Z</time>
      </trkpt>
      <trkpt lat="47.1391" lon="-1.5789">
        <ele>12.21</ele>
        <time>2020-05-31T17:28:04Z</time>
      </trkpt>
      <trkpt lat="47.13917" lon="-1.57881">
        <ele>11.84</ele>
        <time>2020-05-31T17:28:06Z</time>
      </trkpt>
      <trkpt lat="47.13925" lon="-1.5787">
        <ele>11.39</ele>
        <time>2020-05-31T17:28:08Z</time>
      </trkpt>
      <trkpt lat="47.13933" lon="-1.57857">
        <ele>11.28</ele>
        <time>2020-05-31T17:28:10Z</time>
      </trkpt>
      <trkpt lat="47.13942" lon="-1.57845">
        <ele>10.94</ele>
        <time>2020-05-31T17:28:12Z</time>
      </trkpt>
      <trkpt lat="47.13952" lon="-1.57831">
        <ele>11.3</ele>
        <time>2020-05-31T17:28:14Z</time>
      </trkpt>
      <trkpt lat="47.1396" lon="-1.5782">
        <ele>11.28</ele>
        <time>2020-05-31T17:28:16Z</time>
      </trkpt>
      <trkpt lat="47.1397" lon="-1.57807">
        <ele>10.76</ele>
        <time>2020-05-31T17:28:18Z</time>
      </trkpt>
      <trkpt lat="47.13977" lon="-1.57798">
        <ele>11.02</ele>
        <time>2020-05-31T17:28:20Z</time>
      </trkpt>
      <trkpt lat="47.13985" lon="-1.57786">
        <ele>11.86</ele>
        <time>2020-05-31T17:28:22Z</time>
      </trkpt>
      <trkpt lat="47.13993" lon="-1.57775">
        <ele>11.93</ele>
        <time>2020-05-31T17:28:24Z</time>
      </trkpt>
      <trkpt lat="47.14002" lon="-1.57763">
        <ele>11.7</ele>
        <time>2020-05-31T17:28:26Z</time>
      </trkpt>
      <trkpt lat="47.14012" lon="-1.57751">
        <ele>11.87</ele>
        <time>2020-05-31T17:28:28Z</time>
      </trkpt>
      <trkpt lat="47.1402" lon="-1.57741">
        <ele>12.08</ele>
        <time>2020-05-31T17:28:30Z</time>
      </trkpt>
      <trkpt lat="47.14028" lon="-1.57729">
        <ele>12.3</ele>
        <time>2020-05-31T17:28:32Z</time>
      </trkpt>
      <trkpt lat="47.14035" lon="-1.57718">
        <ele>13.21</ele>
        <time>2020-05-31T17:28:34Z</time>
      </trkpt>
      <trkpt lat="47.14042" lon="-1.57707">
        <ele>13.33</ele>
        <time>2020-05-31T17:28:36Z</time>
      </trkpt>
      <trkpt lat="47.1405" lon="-1.57695">
        <ele>13.72</ele>
        <time>2020-05-31T17:28:38Z</time>
      </trkpt>
      <trkpt lat="47.14058" lon="-1.57685">
        <ele>14.17</ele>
        <time>2020-05-31T17:28:40Z</time>
      </trkpt>
      <trkpt lat="47.14066" lon="-1.57672">
        <ele>13.71</ele>
        <time>2020-05-31T17:28:42Z</time>
      </trkpt>
      <trkpt lat="47.14073" lon="-1.57662">
        <ele>13.06</ele>
        <time>2020-05-31T17:28:44Z</time>
      </trkpt>
      <trkpt lat="47.14081" lon="-1.5765">
        <ele>11.9</ele>
        <time>2020-05-31T17:28:46Z</time>
      </trkpt>
      <trkpt lat="47.14087" lon="-1.57637">
        <ele>11.11</ele>
        <time>2020-05-31T17:28:48Z</time>
      </trkpt>
      <trkpt lat="47.14093" lon="-1.57622">
        <ele>9.24</ele>
        <time>2020-05-31T17:28:50Z</time>
      </trkpt>
      <trkpt lat="47.14099" lon="-1.57608">
        <ele>8.65</ele>
        <time>2020-05-31T17:28:52Z</time>
      </trkpt>
      <trkpt lat="47.14104" lon="-1.57594">
        <ele>8.57</ele>
        <time>2020-05-31T17:28:54Z</time>
      </trkpt>
      <trkpt lat="47.1411" lon="-1.5758">
        <ele>8.39</ele>
        <time>2020-05-31T17:28:56Z</time>
      </trkpt>
      <trkpt lat="47.14116" lon="-1.57565">
        <ele>9.75</ele>
        <time>2020-05-31T17:28:58Z</time>
      </trkpt>
      <trkpt lat="47.14122" lon="-1.57549">
        <ele>10.79</ele>
        <time>2020-05-31T17:29:00Z</time>
      </trkpt>
      <trkpt lat="47.14129" lon="-1.57533">
        <ele>11.78</ele>
        <time>2020-05-31T17:29:02Z</time>
      </trkpt>
      <trkpt lat="47.14136" lon="-1.57516">
        <ele>12.56</ele>
        <time>2020-05-31T17:29:04Z</time>
      </trkpt>
      <trkpt lat="47.14143" lon="-1.57501">
        <ele>13.24</ele>
        <time>2020-05-31T17:29:06Z</time>
      </trkpt>
      <trkpt lat="47.14149" lon="-1.57485">
        <ele>13.25</ele>
        <time>2020-05-31T17:29:08Z</time>
      </trkpt>
      <trkpt lat="47.14155" lon="-1.57469">
        <ele>12.55</ele>
        <time>2020-05-31T17:29:10Z</time>
      </trkpt>
      <trkpt lat="47.14161" lon="-1.57453">
        <ele>11.05</ele>
        <time>2020-05-31T17:29:12Z</time>
      </trkpt>
      <trkpt lat="47.14169" lon="-1.57436">
        <ele>10.17</ele>
        <time>2020-05-31T17:29:14Z</time>
      </trkpt>
      <trkpt lat="47.14177" lon="-1.57419">
        <ele>9.79</ele>
        <time>2020-05-31T17:29:16Z</time>
      </trkpt>
      <trkpt lat="47.14184" lon="-1.57403">
        <ele>10.12</ele>
        <time>2020-05-31T17:29:18Z</time>
      </trkpt>
      <trkpt lat="47.14191" lon="-1.57386">
        <ele>9.97</ele>
        <time>2020-05-31T17:29:20Z</time>
      </trkpt>
      <trkpt lat="47.14199" lon="-1.5737">
        <ele>10.22</ele>
        <time>2020-05-31T17:29:22Z</time>
      </trkpt>
      <trkpt lat="47.14206" lon="-1.57353">
        <ele>10.53</ele>
        <time>2020-05-31T17:29:24Z</time>
      </trkpt>
      <trkpt lat="47.14214" lon="-1.57336">
        <ele>10.79</ele>
        <time>2020-05-31T17:29:26Z</time>
      </trkpt>
      <trkpt lat="47.1422" lon="-1.57321">
        <ele>11.04</ele>
        <time>2020-05-31T17:29:28Z</time>
      </trkpt>
      <trkpt lat="47.14228" lon="-1.57307">
        <ele>12.22</ele>
        <time>2020-05-31T17:29:30Z</time>
      </trkpt>
      <trkpt lat="47.14234" lon="-1.57295">
        <ele>12.96</ele>
        <time>2020-05-31T17:29:32Z</time>
      </trkpt>
      <trkpt lat="47.14241" lon="-1.57282">
        <ele>13.38</ele>
        <time>2020-05-31T17:29:34Z</time>
      </trkpt>
      <trkpt lat="47.14249" lon="-1.57268">
        <ele>13.63</ele>
        <time>2020-05-31T17:29:36Z</time>
      </trkpt>
      <trkpt lat="47.14256" lon="-1.57254">
        <ele>13.35</ele>
        <time>2020-05-31T17:29:38Z</time>
      </trkpt>
      <trkpt lat="47.14264" lon="-1.57239">
        <ele>12.7</ele>
        <time>2020-05-31T17:29:40Z</time>
      </trkpt>
      <trkpt lat="47.1427" lon="-1.57226">
        <ele>10.72</ele>
        <time>2020-05-31T17:29:42Z</time>
      </trkpt>
      <trkpt lat="47.14277" lon="-1.5721">
        <ele>9.3</ele>
        <time>2020-05-31T17:29:44Z</time>
      </trkpt>
      <trkpt lat="47.14283" lon="-1.57198">
        <ele>9.31</ele>
        <time>2020-05-31T17:29:46Z</time>
      </trkpt>
      <trkpt lat="47.1429" lon="-1.57183">
        <ele>10.23</ele>
        <time>2020-05-31T17:29:48Z</time>
      </trkpt>
      <trkpt lat="47.14297" lon="-1.57167">
        <ele>11.44</ele>
        <time>2020-05-31T17:29:50Z</time>
      </trkpt>
      <trkpt lat="47.14304" lon="-1.57151">
        <ele>12.25</ele>
        <time>2020-05-31T17:29:52Z</time>
      </trkpt>
      <trkpt lat="47.1431" lon="-1.57136">
        <ele>13.04</ele>
        <time>2020-05-31T17:29:54Z</time>
      </trkpt>
      <trkpt lat="47.14313" lon="-1.57123">
        <ele>13.31</ele>
        <time>2020-05-31T17:29:56Z</time>
      </trkpt>
      <trkpt lat="47.14316" lon="-1.57107">
        <ele>13.32</ele>
        <time>2020-05-31T17:29:58Z</time>
      </trkpt>
      <trkpt lat="47.1432" lon="-1.5709">
        <ele>13.4</ele>
        <time>2020-05-31T17:30:00Z</time>
      </trkpt>
      <trkpt lat="47.14323" lon="-1.57073">
        <ele>13.8</ele>
        <time>2020-05-31T17:30:02Z</time>
      </trkpt>
      <trkpt lat="47.14325" lon="-1.57059">
        <ele>14.42</ele>
        <time>2020-05-31T17:30:04Z</time>
      </trkpt>
      <trkpt lat="47.14328" lon="-1.57044">
        <ele>15.23</ele>
        <time>2020-05-31T17:30:06Z</time>
      </trkpt>
      <trkpt lat="47.14329" lon="-1.57029">
        <ele>15.58</ele>
        <time>2020-05-31T17:30:08Z</time>
      </trkpt>
      <trkpt lat="47.14331" lon="-1.57013">
        <ele>15.11</ele>
        <time>2020-05-31T17:30:10Z</time>
      </trkpt>
      <trkpt lat="47.14333" lon="-1.56998">
        <ele>14.83</ele>
        <time>2020-05-31T17:30:12Z</time>
      </trkpt>
      <trkpt lat="47.14333" lon="-1.56984">
        <ele>13.86</ele>
        <time>2020-05-31T17:30:14Z</time>
      </trkpt>
      <trkpt lat="47.14334" lon="-1.56964">
        <ele>11.57</ele>
        <time>2020-05-31T17:30:17Z</time>
      </trkpt>
      <trkpt lat="47.14335" lon="-1.56946">
        <ele>10.58</ele>
        <time>2020-05-31T17:30:19Z</time>
      </trkpt>
      <trkpt lat="47.14337" lon="-1.56928">
        <ele>10.89</ele>
        <time>2020-05-31T17:30:22Z</time>
      </trkpt>
      <trkpt lat="47.14339" lon="-1.56913">
        <ele>11.1</ele>
        <time>2020-05-31T17:30:24Z</time>
      </trkpt>
      <trkpt lat="47.14341" lon="-1.56897">
        <ele>11.7</ele>
        <time>2020-05-31T17:30:26Z</time>
      </trkpt>
      <trkpt lat="47.14343" lon="-1.56878">
        <ele>12</ele>
        <time>2020-05-31T17:30:29Z</time>
      </trkpt>
      <trkpt lat="47.14347" lon="-1.56861">
        <ele>11.47</ele>
        <time>2020-05-31T17:30:32Z</time>
      </trkpt>
      <trkpt lat="47.1435" lon="-1.56847">
        <ele>11.93</ele>
        <time>2020-05-31T17:30:34Z</time>
      </trkpt>
      <trkpt lat="47.14353" lon="-1.56835">
        <ele>12.29</ele>
        <time>2020-05-31T17:30:36Z</time>
      </trkpt>
      <trkpt lat="47.14357" lon="-1.56822">
        <ele>12.8</ele>
        <time>2020-05-31T17:30:38Z</time>
      </trkpt>
      <trkpt lat="47.14361" lon="-1.56809">
        <ele>13.4</ele>
        <time>2020-05-31T17:30:40Z</time>
      </trkpt>
      <trkpt lat="47.14366" lon="-1.56797">
        <ele>14.15</ele>
        <time>2020-05-31T17:30:42Z</time>
      </trkpt>
      <trkpt lat="47.14372" lon="-1.56782">
        <ele>13.97</ele>
        <time>2020-05-31T17:30:45Z</time>
      </trkpt>
      <trkpt lat="47.14378" lon="-1.56768">
        <ele>13.24</ele>
        <time>2020-05-31T17:30:47Z</time>
      </trkpt>
      <trkpt lat="47.14385" lon="-1.56753">
        <ele>14.11</ele>
        <time>2020-05-31T17:30:49Z</time>
      </trkpt>
      <trkpt lat="47.14393" lon="-1.5674">
        <ele>14.64</ele>
        <time>2020-05-31T17:30:51Z</time>
      </trkpt>
      <trkpt lat="47.14399" lon="-1.56727">
        <ele>15.05</ele>
        <time>2020-05-31T17:30:53Z</time>
      </trkpt>
      <trkpt lat="47.14407" lon="-1.56712">
        <ele>17.38</ele>
        <time>2020-05-31T17:30:56Z</time>
      </trkpt>
      <trkpt lat="47.14414" lon="-1.56701">
        <ele>18.05</ele>
        <time>2020-05-31T17:30:58Z</time>
      </trkpt>
      <trkpt lat="47.14423" lon="-1.56687">
        <ele>18.74</ele>
        <time>2020-05-31T17:31:01Z</time>
      </trkpt>
      <trkpt lat="47.1443" lon="-1.56677">
        <ele>19.31</ele>
        <time>2020-05-31T17:31:03Z</time>
      </trkpt>
      <trkpt lat="47.14437" lon="-1.56664">
        <ele>20.24</ele>
        <time>2020-05-31T17:31:05Z</time>
      </trkpt>
      <trkpt lat="47.14444" lon="-1.56654">
        <ele>20.47</ele>
        <time>2020-05-31T17:31:07Z</time>
      </trkpt>
      <trkpt lat="47.14451" lon="-1.56643">
        <ele>19.89</ele>
        <time>2020-05-31T17:31:10Z</time>
      </trkpt>
      <trkpt lat="47.14461" lon="-1.56629">
        <ele>20.2</ele>
        <time>2020-05-31T17:31:13Z</time>
      </trkpt>
      <trkpt lat="47.14469" lon="-1.56619">
        <ele>19.67</ele>
        <time>2020-05-31T17:31:15Z</time>
      </trkpt>
      <trkpt lat="47.14476" lon="-1.56609">
        <ele>19.33</ele>
        <time>2020-05-31T17:31:17Z</time>
      </trkpt>
      <trkpt lat="47.14483" lon="-1.56599">
        <ele>18.78</ele>
        <time>2020-05-31T17:31:19Z</time>
      </trkpt>
      <trkpt lat="47.1449" lon="-1.5659">
        <ele>17.99</ele>
        <time>2020-05-31T17:31:21Z</time>
      </trkpt>
      <trkpt lat="47.14497" lon="-1.5658">
        <ele>18.29</ele>
        <time>2020-05-31T17:31:23Z</time>
      </trkpt>
      <trkpt lat="47.14504" lon="-1.56569">
        <ele>18.94</ele>
        <time>2020-05-31T17:31:25Z</time>
      </trkpt>
      <trkpt lat="47.14511" lon="-1.56559">
        <ele>18.84</ele>
        <time>2020-05-31T17:31:27Z</time>
      </trkpt>
      <trkpt lat="47.14519" lon="-1.56548">
        <ele>18.73</ele>
        <time>2020-05-31T17:31:29Z</time>
      </trkpt>
      <trkpt lat="47.14526" lon="-1.56539">
        <ele>18.2</ele>
        <time>2020-05-31T17:31:31Z</time>
      </trkpt>
      <trkpt lat="47.14533" lon="-1.56529">
        <ele>18.06</ele>
        <time>2020-05-31T17:31:33Z</time>
      </trkpt>
      <trkpt lat="47.1454" lon="-1.56518">
        <ele>17.75</ele>
        <time>2020-05-31T17:31:35Z</time>
      </trkpt>
      <trkpt lat="47.14549" lon="-1.56507">
        <ele>17.88</ele>
        <time>2020-05-31T17:31:37Z</time>
      </trkpt>
      <trkpt lat="47.14558" lon="-1.56493">
        <ele>18.38</ele>
        <time>2020-05-31T17:31:40Z</time>
      </trkpt>
      <trkpt lat="47.14567" lon="-1.56481">
        <ele>18.41</ele>
        <time>2020-05-31T17:31:42Z</time>
      </trkpt>
      <trkpt lat="47.14575" lon="-1.5647">
        <ele>17.68</ele>
        <time>2020-05-31T17:31:44Z</time>
      </trkpt>
      <trkpt lat="47.14582" lon="-1.56459">
        <ele>18.51</ele>
        <time>2020-05-31T17:31:46Z</time>
      </trkpt>
      <trkpt lat="47.14591" lon="-1.56447">
        <ele>19.8</ele>
        <time>2020-05-31T17:31:48Z</time>
      </trkpt>
      <trkpt lat="47.14598" lon="-1.56437">
        <ele>19.22</ele>
        <time>2020-05-31T17:31:50Z</time>
      </trkpt>
      <trkpt lat="47.14608" lon="-1.56424">
        <ele>18.32</ele>
        <time>2020-05-31T17:31:52Z</time>
      </trkpt>
      <trkpt lat="47.14616" lon="-1.56412">
        <ele>17.07</ele>
        <time>2020-05-31T17:31:54Z</time>
      </trkpt>
      <trkpt lat="47.14624" lon="-1.56401">
        <ele>17.1</ele>
        <time>2020-05-31T17:31:56Z</time>
      </trkpt>
      <trkpt lat="47.14632" lon="-1.56389">
        <ele>17.1</ele>
        <time>2020-05-31T17:31:58Z</time>
      </trkpt>
      <trkpt lat="47.1464" lon="-1.56377">
        <ele>16.99</ele>
        <time>2020-05-31T17:32:00Z</time>
      </trkpt>
      <trkpt lat="47.14647" lon="-1.56368">
        <ele>16.59</ele>
        <time>2020-05-31T17:32:02Z</time>
      </trkpt>
      <trkpt lat="47.14654" lon="-1.56358">
        <ele>17.2</ele>
        <time>2020-05-31T17:32:04Z</time>
      </trkpt>
      <trkpt lat="47.14662" lon="-1.56348">
        <ele>18.65</ele>
        <time>2020-05-31T17:32:06Z</time>
      </trkpt>
      <trkpt lat="47.14672" lon="-1.56338">
        <ele>19.43</ele>
        <time>2020-05-31T17:32:08Z</time>
      </trkpt>
      <trkpt lat="47.1468" lon="-1.5633">
        <ele>19.17</ele>
        <time>2020-05-31T17:32:10Z</time>
      </trkpt>
      <trkpt lat="47.1469" lon="-1.56322">
        <ele>18.36</ele>
        <time>2020-05-31T17:32:12Z</time>
      </trkpt>
      <trkpt lat="47.147" lon="-1.56314">
        <ele>18.23</ele>
        <time>2020-05-31T17:32:14Z</time>
      </trkpt>
      <trkpt lat="47.14709" lon="-1.56309">
        <ele>18.96</ele>
        <time>2020-05-31T17:32:16Z</time>
      </trkpt>
      <trkpt lat="47.14721" lon="-1.56301">
        <ele>19.55</ele>
        <time>2020-05-31T17:32:19Z</time>
      </trkpt>
      <trkpt lat="47.14731" lon="-1.56297">
        <ele>18.33</ele>
        <time>2020-05-31T17:32:21Z</time>
      </trkpt>
      <trkpt lat="47.14741" lon="-1.56292">
        <ele>15.99</ele>
        <time>2020-05-31T17:32:23Z</time>
      </trkpt>
      <trkpt lat="47.14749" lon="-1.56288">
        <ele>15.29</ele>
        <time>2020-05-31T17:32:25Z</time>
      </trkpt>
      <trkpt lat="47.14761" lon="-1.56285">
        <ele>15.31</ele>
        <time>2020-05-31T17:32:27Z</time>
      </trkpt>
      <trkpt lat="47.14772" lon="-1.5628">
        <ele>14.87</ele>
        <time>2020-05-31T17:32:29Z</time>
      </trkpt>
      <trkpt lat="47.14782" lon="-1.56275">
        <ele>15.08</ele>
        <time>2020-05-31T17:32:31Z</time>
      </trkpt>
      <trkpt lat="47.14794" lon="-1.5627">
        <ele>16.19</ele>
        <time>2020-05-31T17:32:33Z</time>
      </trkpt>
      <trkpt lat="47.14804" lon="-1.56265">
        <ele>16.6</ele>
        <time>2020-05-31T17:32:35Z</time>
      </trkpt>
      <trkpt lat="47.14814" lon="-1.5626">
        <ele>16.78</ele>
        <time>2020-05-31T17:32:37Z</time>
      </trkpt>
      <trkpt lat="47.14825" lon="-1.56255">
        <ele>17.18</ele>
        <time>2020-05-31T17:32:39Z</time>
      </trkpt>
      <trkpt lat="47.14835" lon="-1.5625">
        <ele>17.17</ele>
        <time>2020-05-31T17:32:41Z</time>
      </trkpt>
      <trkpt lat="47.14844" lon="-1.56243">
        <ele>17.08</ele>
        <time>2020-05-31T17:32:43Z</time>
      </trkpt>
      <trkpt lat="47.14854" lon="-1.56237">
        <ele>17.41</ele>
        <time>2020-05-31T17:32:45Z</time>
      </trkpt>
      <trkpt lat="47.14864" lon="-1.56229">
        <ele>17.78</ele>
        <time>2020-05-31T17:32:47Z</time>
      </trkpt>
      <trkpt lat="47.14874" lon="-1.5622">
        <ele>17.8</ele>
        <time>2020-05-31T17:32:49Z</time>
      </trkpt>
      <trkpt lat="47.14883" lon="-1.56211">
        <ele>16.92</ele>
        <time>2020-05-31T17:32:51Z</time>
      </trkpt>
      <trkpt lat="47.14892" lon="-1.56202">
        <ele>17.01</ele>
        <time>2020-05-31T17:32:53Z</time>
      </trkpt>
      <trkpt lat="47.14901" lon="-1.56191">
        <ele>16.95</ele>
        <time>2020-05-31T17:32:55Z</time>
      </trkpt>
      <trkpt lat="47.14909" lon="-1.56181">
        <ele>17.97</ele>
        <time>2020-05-31T17:32:57Z</time>
      </trkpt>
      <trkpt lat="47.14918" lon="-1.56172">
        <ele>18.48</ele>
        <time>2020-05-31T17:32:59Z</time>
      </trkpt>
      <trkpt lat="47.14926" lon="-1.56163">
        <ele>20.16</ele>
        <time>2020-05-31T17:33:01Z</time>
      </trkpt>
      <trkpt lat="47.14935" lon="-1.56153">
        <ele>21.1</ele>
        <time>2020-05-31T17:33:03Z</time>
      </trkpt>
      <trkpt lat="47.14944" lon="-1.56141">
        <ele>22</ele>
        <time>2020-05-31T17:33:05Z</time>
      </trkpt>
      <trkpt lat="47.14954" lon="-1.5613">
        <ele>21.87</ele>
        <time>2020-05-31T17:33:08Z</time>
      </trkpt>
      <trkpt lat="47.14962" lon="-1.5612">
        <ele>21.04</ele>
        <time>2020-05-31T17:33:10Z</time>
      </trkpt>
      <trkpt lat="47.1497" lon="-1.56111">
        <ele>21.34</ele>
        <time>2020-05-31T17:33:12Z</time>
      </trkpt>
      <trkpt lat="47.14978" lon="-1.56101">
        <ele>22.48</ele>
        <time>2020-05-31T17:33:14Z</time>
      </trkpt>
      <trkpt lat="47.14985" lon="-1.56092">
        <ele>22.75</ele>
        <time>2020-05-31T17:33:16Z</time>
      </trkpt>
      <trkpt lat="47.14993" lon="-1.56083">
        <ele>23.13</ele>
        <time>2020-05-31T17:33:18Z</time>
      </trkpt>
      <trkpt lat="47.15001" lon="-1.56076">
        <ele>23.27</ele>
        <time>2020-05-31T17:33:20Z</time>
      </trkpt>
      <trkpt lat="47.15011" lon="-1.56066">
        <ele>24.14</ele>
        <time>2020-05-31T17:33:22Z</time>
      </trkpt>
      <trkpt lat="47.1502" lon="-1.56056">
        <ele>24.81</ele>
        <time>2020-05-31T17:33:24Z</time>
      </trkpt>
      <trkpt lat="47.15028" lon="-1.56049">
        <ele>25.89</ele>
        <time>2020-05-31T17:33:26Z</time>
      </trkpt>
      <trkpt lat="47.15037" lon="-1.56041">
        <ele>25.42</ele>
        <time>2020-05-31T17:33:28Z</time>
      </trkpt>
      <trkpt lat="47.15048" lon="-1.56034">
        <ele>24.31</ele>
        <time>2020-05-31T17:33:30Z</time>
      </trkpt>
      <trkpt lat="47.15058" lon="-1.56028">
        <ele>22.81</ele>
        <time>2020-05-31T17:33:32Z</time>
      </trkpt>
      <trkpt lat="47.1507" lon="-1.56022">
        <ele>23.06</ele>
        <time>2020-05-31T17:33:34Z</time>
      </trkpt>
      <trkpt lat="47.15082" lon="-1.56018">
        <ele>23.47</ele>
        <time>2020-05-31T17:33:36Z</time>
      </trkpt>
      <trkpt lat="47.15095" lon="-1.56013">
        <ele>24.93</ele>
        <time>2020-05-31T17:33:39Z</time>
      </trkpt>
      <trkpt lat="47.15106" lon="-1.56009">
        <ele>25.57</ele>
        <time>2020-05-31T17:33:41Z</time>
      </trkpt>
      <trkpt lat="47.15115" lon="-1.56004">
        <ele>25.93</ele>
        <time>2020-05-31T17:33:43Z</time>
      </trkpt>
      <trkpt lat="47.15128" lon="-1.55999">
        <ele>25.48</ele>
        <time>2020-05-31T17:33:46Z</time>
      </trkpt>
      <trkpt lat="47.15139" lon="-1.55994">
        <ele>23.99</ele>
        <time>2020-05-31T17:33:48Z</time>
      </trkpt>
      <trkpt lat="47.15149" lon="-1.5599">
        <ele>22.38</ele>
        <time>2020-05-31T17:33:50Z</time>
      </trkpt>
      <trkpt lat="47.15161" lon="-1.55986">
        <ele>22.58</ele>
        <time>2020-05-31T17:33:52Z</time>
      </trkpt>
      <trkpt lat="47.15172" lon="-1.55982">
        <ele>23.71</ele>
        <time>2020-05-31T17:33:54Z</time>
      </trkpt>
      <trkpt lat="47.15183" lon="-1.55976">
        <ele>24.11</ele>
        <time>2020-05-31T17:33:56Z</time>
      </trkpt>
      <trkpt lat="47.15195" lon="-1.55971">
        <ele>24.04</ele>
        <time>2020-05-31T17:33:58Z</time>
      </trkpt>
      <trkpt lat="47.15206" lon="-1.55966">
        <ele>23.76</ele>
        <time>2020-05-31T17:34:00Z</time>
      </trkpt>
      <trkpt lat="47.15217" lon="-1.55961">
        <ele>22.99</ele>
        <time>2020-05-31T17:34:02Z</time>
      </trkpt>
      <trkpt lat="47.15227" lon="-1.55956">
        <ele>21.89</ele>
        <time>2020-05-31T17:34:04Z</time>
      </trkpt>
      <trkpt lat="47.15238" lon="-1.55952">
        <ele>21.59</ele>
        <time>2020-05-31T17:34:06Z</time>
      </trkpt>
      <trkpt lat="47.15249" lon="-1.55948">
        <ele>22.32</ele>
        <time>2020-05-31T17:34:08Z</time>
      </trkpt>
      <trkpt lat="47.15261" lon="-1.55942">
        <ele>23.48</ele>
        <time>2020-05-31T17:34:10Z</time>
      </trkpt>
      <trkpt lat="47.15271" lon="-1.55937">
        <ele>24.66</ele>
        <time>2020-05-31T17:34:12Z</time>
      </trkpt>
      <trkpt lat="47.15282" lon="-1.55932">
        <ele>25.69</ele>
        <time>2020-05-31T17:34:14Z</time>
      </trkpt>
      <trkpt lat="47.15294" lon="-1.55927">
        <ele>25.75</ele>
        <time>2020-05-31T17:34:16Z</time>
      </trkpt>
      <trkpt lat="47.15303" lon="-1.55922">
        <ele>25.14</ele>
        <time>2020-05-31T17:34:18Z</time>
      </trkpt>
      <trkpt lat="47.15314" lon="-1.55917">
        <ele>25.18</ele>
        <time>2020-05-31T17:34:20Z</time>
      </trkpt>
      <trkpt lat="47.15324" lon="-1.55912">
        <ele>25.34</ele>
        <time>2020-05-31T17:34:22Z</time>
      </trkpt>
      <trkpt lat="47.15334" lon="-1.55906">
        <ele>25.59</ele>
        <time>2020-05-31T17:34:24Z</time>
      </trkpt>
      <trkpt lat="47.15345" lon="-1.559">
        <ele>25.63</ele>
        <time>2020-05-31T17:34:26Z</time>
      </trkpt>
      <trkpt lat="47.15355" lon="-1.55894">
        <ele>26.42</ele>
        <time>2020-05-31T17:34:28Z</time>
      </trkpt>
      <trkpt lat="47.15365" lon="-1.5589">
        <ele>27.5</ele>
        <time>2020-05-31T17:34:30Z</time>
      </trkpt>
      <trkpt lat="47.15373" lon="-1.55886">
        <ele>28.54</ele>
        <time>2020-05-31T17:34:32Z</time>
      </trkpt>
      <trkpt lat="47.15387" lon="-1.5588">
        <ele>29.61</ele>
        <time>2020-05-31T17:34:35Z</time>
      </trkpt>
      <trkpt lat="47.15396" lon="-1.55878">
        <ele>29.6</ele>
        <time>2020-05-31T17:34:38Z</time>
      </trkpt>
      <trkpt lat="47.15405" lon="-1.55887">
        <ele>28.62</ele>
        <time>2020-05-31T17:34:41Z</time>
      </trkpt>
      <trkpt lat="47.15414" lon="-1.55899">
        <ele>27.86</ele>
        <time>2020-05-31T17:34:43Z</time>
      </trkpt>
      <trkpt lat="47.15426" lon="-1.5591">
        <ele>26.66</ele>
        <time>2020-05-31T17:34:45Z</time>
      </trkpt>
      <trkpt lat="47.15437" lon="-1.55919">
        <ele>25.55</ele>
        <time>2020-05-31T17:34:47Z</time>
      </trkpt>
      <trkpt lat="47.15447" lon="-1.55927">
        <ele>23.78</ele>
        <time>2020-05-31T17:34:49Z</time>
      </trkpt>
      <trkpt lat="47.15457" lon="-1.55934">
        <ele>22.38</ele>
        <time>2020-05-31T17:34:51Z</time>
      </trkpt>
      <trkpt lat="47.15467" lon="-1.55941">
        <ele>21.78</ele>
        <time>2020-05-31T17:34:53Z</time>
      </trkpt>
      <trkpt lat="47.15477" lon="-1.55949">
        <ele>20.43</ele>
        <time>2020-05-31T17:34:55Z</time>
      </trkpt>
      <trkpt lat="47.15489" lon="-1.5596">
        <ele>21.45</ele>
        <time>2020-05-31T17:34:57Z</time>
      </trkpt>
      <trkpt lat="47.15499" lon="-1.55969">
        <ele>22.55</ele>
        <time>2020-05-31T17:34:59Z</time>
      </trkpt>
      <trkpt lat="47.15508" lon="-1.55977">
        <ele>23.76</ele>
        <time>2020-05-31T17:35:01Z</time>
      </trkpt>
      <trkpt lat="47.15517" lon="-1.55984">
        <ele>23.9</ele>
        <time>2020-05-31T17:35:03Z</time>
      </trkpt>
      <trkpt lat="47.15528" lon="-1.55993">
        <ele>24.28</ele>
        <time>2020-05-31T17:35:05Z</time>
      </trkpt>
      <trkpt lat="47.1554" lon="-1.56003">
        <ele>23.97</ele>
        <time>2020-05-31T17:35:07Z</time>
      </trkpt>
      <trkpt lat="47.1555" lon="-1.5601">
        <ele>24.16</ele>
        <time>2020-05-31T17:35:09Z</time>
      </trkpt>
      <trkpt lat="47.15562" lon="-1.56019">
        <ele>24.64</ele>
        <time>2020-05-31T17:35:11Z</time>
      </trkpt>
      <trkpt lat="47.15574" lon="-1.56027">
        <ele>25.35</ele>
        <time>2020-05-31T17:35:13Z</time>
      </trkpt>
      <trkpt lat="47.15584" lon="-1.56036">
        <ele>25.71</ele>
        <time>2020-05-31T17:35:15Z</time>
      </trkpt>
      <trkpt lat="47.15587" lon="-1.56051">
        <ele>25.26</ele>
        <time>2020-05-31T17:35:17Z</time>
      </trkpt>
      <trkpt lat="47.15582" lon="-1.56072">
        <ele>25.08</ele>
        <time>2020-05-31T17:35:20Z</time>
      </trkpt>
      <trkpt lat="47.15578" lon="-1.56091">
        <ele>24.35</ele>
        <time>2020-05-31T17:35:22Z</time>
      </trkpt>
      <trkpt lat="47.15576" lon="-1.56108">
        <ele>24.32</ele>
        <time>2020-05-31T17:35:24Z</time>
      </trkpt>
      <trkpt lat="47.1558" lon="-1.56127">
        <ele>25.34</ele>
        <time>2020-05-31T17:35:26Z</time>
      </trkpt>
      <trkpt lat="47.15587" lon="-1.56142">
        <ele>26.14</ele>
        <time>2020-05-31T17:35:28Z</time>
      </trkpt>
      <trkpt lat="47.15593" lon="-1.56158">
        <ele>27.8</ele>
        <time>2020-05-31T17:35:30Z</time>
      </trkpt>
      <trkpt lat="47.15598" lon="-1.5617">
        <ele>28.44</ele>
        <time>2020-05-31T17:35:32Z</time>
      </trkpt>
      <trkpt lat="47.15604" lon="-1.56184">
        <ele>27.53</ele>
        <time>2020-05-31T17:35:34Z</time>
      </trkpt>
      <trkpt lat="47.15611" lon="-1.56202">
        <ele>27.66</ele>
        <time>2020-05-31T17:35:36Z</time>
      </trkpt>
      <trkpt lat="47.1562" lon="-1.56223">
        <ele>26.98</ele>
        <time>2020-05-31T17:35:38Z</time>
      </trkpt>
      <trkpt lat="47.15627" lon="-1.56239">
        <ele>26.55</ele>
        <time>2020-05-31T17:35:40Z</time>
      </trkpt>
      <trkpt lat="47.15635" lon="-1.56257">
        <ele>26.08</ele>
        <time>2020-05-31T17:35:42Z</time>
      </trkpt>
      <trkpt lat="47.15642" lon="-1.56274">
        <ele>25.47</ele>
        <time>2020-05-31T17:35:44Z</time>
      </trkpt>
      <trkpt lat="47.15649" lon="-1.56289">
        <ele>25.8</ele>
        <time>2020-05-31T17:35:46Z</time>
      </trkpt>
      <trkpt lat="47.15658" lon="-1.563">
        <ele>26.08</ele>
        <time>2020-05-31T17:35:48Z</time>
      </trkpt>
      <trkpt lat="47.15669" lon="-1.56309">
        <ele>25.33</ele>
        <time>2020-05-31T17:35:50Z</time>
      </trkpt>
      <trkpt lat="47.15678" lon="-1.56315">
        <ele>24.57</ele>
        <time>2020-05-31T17:35:52Z</time>
      </trkpt>
      <trkpt lat="47.15685" lon="-1.56329">
        <ele>24.32</ele>
        <time>2020-05-31T17:35:54Z</time>
      </trkpt>
      <trkpt lat="47.1569" lon="-1.56349">
        <ele>25.91</ele>
        <time>2020-05-31T17:35:56Z</time>
      </trkpt>
      <trkpt lat="47.15693" lon="-1.56369">
        <ele>26.81</ele>
        <time>2020-05-31T17:35:58Z</time>
      </trkpt>
      <trkpt lat="47.15697" lon="-1.56389">
        <ele>27.07</ele>
        <time>2020-05-31T17:36:00Z</time>
      </trkpt>
      <trkpt lat="47.15704" lon="-1.56407">
        <ele>27.82</ele>
        <time>2020-05-31T17:36:02Z</time>
      </trkpt>
      <trkpt lat="47.15713" lon="-1.56421">
        <ele>27.8</ele>
        <time>2020-05-31T17:36:04Z</time>
      </trkpt>
      <trkpt lat="47.15723" lon="-1.56433">
        <ele>26.8</ele>
        <time>2020-05-31T17:36:06Z</time>
      </trkpt>
      <trkpt lat="47.15733" lon="-1.56449">
        <ele>26.79</ele>
        <time>2020-05-31T17:36:08Z</time>
      </trkpt>
      <trkpt lat="47.15739" lon="-1.56466">
        <ele>26.34</ele>
        <time>2020-05-31T17:36:10Z</time>
      </trkpt>
      <trkpt lat="47.15744" lon="-1.56484">
        <ele>25.66</ele>
        <time>2020-05-31T17:36:12Z</time>
      </trkpt>
      <trkpt lat="47.15744" lon="-1.56504">
        <ele>25</ele>
        <time>2020-05-31T17:36:14Z</time>
      </trkpt>
      <trkpt lat="47.15742" lon="-1.56524">
        <ele>23.69</ele>
        <time>2020-05-31T17:36:16Z</time>
      </trkpt>
      <trkpt lat="47.15739" lon="-1.56543">
        <ele>22.35</ele>
        <time>2020-05-31T17:36:18Z</time>
      </trkpt>
      <trkpt lat="47.15734" lon="-1.56562">
        <ele>21.15</ele>
        <time>2020-05-31T17:36:20Z</time>
      </trkpt>
      <trkpt lat="47.15728" lon="-1.56583">
        <ele>20.11</ele>
        <time>2020-05-31T17:36:22Z</time>
      </trkpt>
      <trkpt lat="47.15723" lon="-1.56603">
        <ele>20.32</ele>
        <time>2020-05-31T17:36:24Z</time>
      </trkpt>
      <trkpt lat="47.15717" lon="-1.56622">
        <ele>21.16</ele>
        <time>2020-05-31T17:36:26Z</time>
      </trkpt>
      <trkpt lat="47.15711" lon="-1.56643">
        <ele>21.68</ele>
        <time>2020-05-31T17:36:28Z</time>
      </trkpt>
      <trkpt lat="47.15705" lon="-1.56663">
        <ele>21.6</ele>
        <time>2020-05-31T17:36:30Z</time>
      </trkpt>
      <trkpt lat="47.15701" lon="-1.56683">
        <ele>22.45</ele>
        <time>2020-05-31T17:36:32Z</time>
      </trkpt>
      <trkpt lat="47.15698" lon="-1.56703">
        <ele>24.53</ele>
        <time>2020-05-31T17:36:34Z</time>
      </trkpt>
      <trkpt lat="47.15698" lon="-1.56725">
        <ele>25.19</ele>
        <time>2020-05-31T17:36:36Z</time>
      </trkpt>
      <trkpt lat="47.157" lon="-1.56747">
        <ele>25.55</ele>
        <time>2020-05-31T17:36:38Z</time>
      </trkpt>
      <trkpt lat="47.15702" lon="-1.56771">
        <ele>25.65</ele>
        <time>2020-05-31T17:36:40Z</time>
      </trkpt>
      <trkpt lat="47.15706" lon="-1.56794">
        <ele>25.59</ele>
        <time>2020-05-31T17:36:42Z</time>
      </trkpt>
      <trkpt lat="47.15709" lon="-1.56817">
        <ele>25.72</ele>
        <time>2020-05-31T17:36:44Z</time>
      </trkpt>
      <trkpt lat="47.15713" lon="-1.5684">
        <ele>25.37</ele>
        <time>2020-05-31T17:36:46Z</time>
      </trkpt>
      <trkpt lat="47.15717" lon="-1.56864">
        <ele>25</ele>
        <time>2020-05-31T17:36:48Z</time>
      </trkpt>
      <trkpt lat="47.1572" lon="-1.56884">
        <ele>25.23</ele>
        <time>2020-05-31T17:36:50Z</time>
      </trkpt>
      <trkpt lat="47.15726" lon="-1.56907">
        <ele>25.38</ele>
        <time>2020-05-31T17:36:52Z</time>
      </trkpt>
      <trkpt lat="47.15735" lon="-1.56928">
        <ele>25.32</ele>
        <time>2020-05-31T17:36:54Z</time>
      </trkpt>
      <trkpt lat="47.15744" lon="-1.56948">
        <ele>25.22</ele>
        <time>2020-05-31T17:36:56Z</time>
      </trkpt>
      <trkpt lat="47.15753" lon="-1.56966">
        <ele>24.54</ele>
        <time>2020-05-31T17:36:58Z</time>
      </trkpt>
      <trkpt lat="47.15762" lon="-1.56986">
        <ele>23.78</ele>
        <time>2020-05-31T17:37:00Z</time>
      </trkpt>
      <trkpt lat="47.15772" lon="-1.57004">
        <ele>23.62</ele>
        <time>2020-05-31T17:37:02Z</time>
      </trkpt>
      <trkpt lat="47.1578" lon="-1.57021">
        <ele>23.38</ele>
        <time>2020-05-31T17:37:04Z</time>
      </trkpt>
      <trkpt lat="47.15789" lon="-1.57039">
        <ele>23.68</ele>
        <time>2020-05-31T17:37:06Z</time>
      </trkpt>
      <trkpt lat="47.15798" lon="-1.57055">
        <ele>23.6</ele>
        <time>2020-05-31T17:37:08Z</time>
      </trkpt>
      <trkpt lat="47.15807" lon="-1.57071">
        <ele>24.74</ele>
        <time>2020-05-31T17:37:10Z</time>
      </trkpt>
      <trkpt lat="47.15815" lon="-1.57084">
        <ele>25.15</ele>
        <time>2020-05-31T17:37:12Z</time>
      </trkpt>
      <trkpt lat="47.15824" lon="-1.57102">
        <ele>25.06</ele>
        <time>2020-05-31T17:37:14Z</time>
      </trkpt>
      <trkpt lat="47.15832" lon="-1.57118">
        <ele>25.64</ele>
        <time>2020-05-31T17:37:16Z</time>
      </trkpt>
      <trkpt lat="47.1584" lon="-1.57133">
        <ele>26.05</ele>
        <time>2020-05-31T17:37:18Z</time>
      </trkpt>
      <trkpt lat="47.15848" lon="-1.57149">
        <ele>26.51</ele>
        <time>2020-05-31T17:37:20Z</time>
      </trkpt>
      <trkpt lat="47.15855" lon="-1.57165">
        <ele>27.03</ele>
        <time>2020-05-31T17:37:22Z</time>
      </trkpt>
      <trkpt lat="47.15864" lon="-1.57182">
        <ele>27.09</ele>
        <time>2020-05-31T17:37:24Z</time>
      </trkpt>
      <trkpt lat="47.15871" lon="-1.57197">
        <ele>26.73</ele>
        <time>2020-05-31T17:37:26Z</time>
      </trkpt>
      <trkpt lat="47.1588" lon="-1.57212">
        <ele>26.2</ele>
        <time>2020-05-31T17:37:28Z</time>
      </trkpt>
      <trkpt lat="47.15886" lon="-1.57225">
        <ele>25.09</ele>
        <time>2020-05-31T17:37:30Z</time>
      </trkpt>
      <trkpt lat="47.15895" lon="-1.57242">
        <ele>25.18</ele>
        <time>2020-05-31T17:37:32Z</time>
      </trkpt>
      <trkpt lat="47.15901" lon="-1.57254">
        <ele>26.43</ele>
        <time>2020-05-31T17:37:34Z</time>
      </trkpt>
      <trkpt lat="47.15908" lon="-1.57269">
        <ele>26.78</ele>
        <time>2020-05-31T17:37:36Z</time>
      </trkpt>
      <trkpt lat="47.15916" lon="-1.57282">
        <ele>26.03</ele>
        <time>2020-05-31T17:37:38Z</time>
      </trkpt>
      <trkpt lat="47.15926" lon="-1.57297">
        <ele>25.1</ele>
        <time>2020-05-31T17:37:40Z</time>
      </trkpt>
      <trkpt lat="47.15934" lon="-1.5731">
        <ele>24.51</ele>
        <time>2020-05-31T17:37:42Z</time>
      </trkpt>
      <trkpt lat="47.15942" lon="-1.57322">
        <ele>25.55</ele>
        <time>2020-05-31T17:37:44Z</time>
      </trkpt>
      <trkpt lat="47.15952" lon="-1.57336">
        <ele>27.2</ele>
        <time>2020-05-31T17:37:46Z</time>
      </trkpt>
      <trkpt lat="47.15961" lon="-1.57347">
        <ele>27.97</ele>
        <time>2020-05-31T17:37:48Z</time>
      </trkpt>
      <trkpt lat="47.1597" lon="-1.57356">
        <ele>27.59</ele>
        <time>2020-05-31T17:37:50Z</time>
      </trkpt>
      <trkpt lat="47.1598" lon="-1.57366">
        <ele>27.28</ele>
        <time>2020-05-31T17:37:52Z</time>
      </trkpt>
      <trkpt lat="47.15991" lon="-1.57372">
        <ele>26.73</ele>
        <time>2020-05-31T17:37:54Z</time>
      </trkpt>
      <trkpt lat="47.16005" lon="-1.57378">
        <ele>25.33</ele>
        <time>2020-05-31T17:37:56Z</time>
      </trkpt>
      <trkpt lat="47.16017" lon="-1.57381">
        <ele>24.05</ele>
        <time>2020-05-31T17:37:58Z</time>
      </trkpt>
      <trkpt lat="47.16028" lon="-1.57384">
        <ele>22.68</ele>
        <time>2020-05-31T17:38:00Z</time>
      </trkpt>
      <trkpt lat="47.1604" lon="-1.57387">
        <ele>21.77</ele>
        <time>2020-05-31T17:38:02Z</time>
      </trkpt>
      <trkpt lat="47.16053" lon="-1.57389">
        <ele>21.25</ele>
        <time>2020-05-31T17:38:04Z</time>
      </trkpt>
      <trkpt lat="47.16066" lon="-1.57389">
        <ele>20.9</ele>
        <time>2020-05-31T17:38:06Z</time>
      </trkpt>
      <trkpt lat="47.16081" lon="-1.57388">
        <ele>20.93</ele>
        <time>2020-05-31T17:38:08Z</time>
      </trkpt>
      <trkpt lat="47.16093" lon="-1.57386">
        <ele>20.76</ele>
        <time>2020-05-31T17:38:10Z</time>
      </trkpt>
      <trkpt lat="47.16106" lon="-1.57383">
        <ele>20.25</ele>
        <time>2020-05-31T17:38:12Z</time>
      </trkpt>
      <trkpt lat="47.16119" lon="-1.57378">
        <ele>21.24</ele>
        <time>2020-05-31T17:38:14Z</time>
      </trkpt>
      <trkpt lat="47.16131" lon="-1.57372">
        <ele>21.79</ele>
        <time>2020-05-31T17:38:16Z</time>
      </trkpt>
      <trkpt lat="47.16143" lon="-1.57368">
        <ele>21.93</ele>
        <time>2020-05-31T17:38:18Z</time>
      </trkpt>
      <trkpt lat="47.16154" lon="-1.57365">
        <ele>22.5</ele>
        <time>2020-05-31T17:38:20Z</time>
      </trkpt>
      <trkpt lat="47.16164" lon="-1.57369">
        <ele>23.35</ele>
        <time>2020-05-31T17:38:22Z</time>
      </trkpt>
      <trkpt lat="47.16168" lon="-1.57389">
        <ele>24.68</ele>
        <time>2020-05-31T17:38:24Z</time>
      </trkpt>
      <trkpt lat="47.1617" lon="-1.57409">
        <ele>25.59</ele>
        <time>2020-05-31T17:38:26Z</time>
      </trkpt>
      <trkpt lat="47.16172" lon="-1.57429">
        <ele>26.73</ele>
        <time>2020-05-31T17:38:28Z</time>
      </trkpt>
      <trkpt lat="47.16173" lon="-1.57449">
        <ele>26.88</ele>
        <time>2020-05-31T17:38:30Z</time>
      </trkpt>
      <trkpt lat="47.16173" lon="-1.57466">
        <ele>27.25</ele>
        <time>2020-05-31T17:38:32Z</time>
      </trkpt>
      <trkpt lat="47.16173" lon="-1.57485">
        <ele>27.4</ele>
        <time>2020-05-31T17:38:34Z</time>
      </trkpt>
      <trkpt lat="47.16173" lon="-1.57504">
        <ele>28.2</ele>
        <time>2020-05-31T17:38:36Z</time>
      </trkpt>
      <trkpt lat="47.16172" lon="-1.57525">
        <ele>28.58</ele>
        <time>2020-05-31T17:38:38Z</time>
      </trkpt>
      <trkpt lat="47.16174" lon="-1.57544">
        <ele>28.68</ele>
        <time>2020-05-31T17:38:40Z</time>
      </trkpt>
      <trkpt lat="47.16179" lon="-1.57565">
        <ele>29.29</ele>
        <time>2020-05-31T17:38:42Z</time>
      </trkpt>
      <trkpt lat="47.16186" lon="-1.57584">
        <ele>30.51</ele>
        <time>2020-05-31T17:38:44Z</time>
      </trkpt>
      <trkpt lat="47.16193" lon="-1.57601">
        <ele>31.48</ele>
        <time>2020-05-31T17:38:46Z</time>
      </trkpt>
      <trkpt lat="47.16201" lon="-1.57615">
        <ele>32.36</ele>
        <time>2020-05-31T17:38:48Z</time>
      </trkpt>
      <trkpt lat="47.1621" lon="-1.57629">
        <ele>33.13</ele>
        <time>2020-05-31T17:38:50Z</time>
      </trkpt>
      <trkpt lat="47.16219" lon="-1.57642">
        <ele>33.65</ele>
        <time>2020-05-31T17:38:52Z</time>
      </trkpt>
      <trkpt lat="47.16229" lon="-1.57653">
        <ele>33.79</ele>
        <time>2020-05-31T17:38:54Z</time>
      </trkpt>
      <trkpt lat="47.1624" lon="-1.57666">
        <ele>33.96</ele>
        <time>2020-05-31T17:38:56Z</time>
      </trkpt>
      <trkpt lat="47.16251" lon="-1.57677">
        <ele>34.09</ele>
        <time>2020-05-31T17:38:58Z</time>
      </trkpt>
      <trkpt lat="47.16261" lon="-1.57685">
        <ele>33.64</ele>
        <time>2020-05-31T17:39:00Z</time>
      </trkpt>
      <trkpt lat="47.16273" lon="-1.57697">
        <ele>33.46</ele>
        <time>2020-05-31T17:39:02Z</time>
      </trkpt>
      <trkpt lat="47.16284" lon="-1.57708">
        <ele>32.53</ele>
        <time>2020-05-31T17:39:04Z</time>
      </trkpt>
      <trkpt lat="47.16294" lon="-1.57719">
        <ele>31.26</ele>
        <time>2020-05-31T17:39:06Z</time>
      </trkpt>
      <trkpt lat="47.16302" lon="-1.5773">
        <ele>31.57</ele>
        <time>2020-05-31T17:39:08Z</time>
      </trkpt>
      <trkpt lat="47.16311" lon="-1.57744">
        <ele>32.31</ele>
        <time>2020-05-31T17:39:10Z</time>
      </trkpt>
      <trkpt lat="47.16321" lon="-1.57758">
        <ele>32.38</ele>
        <time>2020-05-31T17:39:12Z</time>
      </trkpt>
      <trkpt lat="47.1633" lon="-1.57771">
        <ele>32.2</ele>
        <time>2020-05-31T17:39:14Z</time>
      </trkpt>
      <trkpt lat="47.16339" lon="-1.57786">
        <ele>32.13</ele>
        <time>2020-05-31T17:39:16Z</time>
      </trkpt>
      <trkpt lat="47.16347" lon="-1.57799">
        <ele>30.99</ele>
        <time>2020-05-31T17:39:18Z</time>
      </trkpt>
      <trkpt lat="47.16357" lon="-1.57813">
        <ele>31.03</ele>
        <time>2020-05-31T17:39:20Z</time>
      </trkpt>
      <trkpt lat="47.16366" lon="-1.57825">
        <ele>31.29</ele>
        <time>2020-05-31T17:39:22Z</time>
      </trkpt>
      <trkpt lat="47.16378" lon="-1.57835">
        <ele>31.79</ele>
        <time>2020-05-31T17:39:24Z</time>
      </trkpt>
      <trkpt lat="47.16389" lon="-1.57845">
        <ele>32.43</ele>
        <time>2020-05-31T17:39:26Z</time>
      </trkpt>
      <trkpt lat="47.16401" lon="-1.57855">
        <ele>31.87</ele>
        <time>2020-05-31T17:39:28Z</time>
      </trkpt>
      <trkpt lat="47.16412" lon="-1.57862">
        <ele>30.58</ele>
        <time>2020-05-31T17:39:30Z</time>
      </trkpt>
      <trkpt lat="47.16424" lon="-1.57871">
        <ele>29.42</ele>
        <time>2020-05-31T17:39:32Z</time>
      </trkpt>
      <trkpt lat="47.16435" lon="-1.57878">
        <ele>28.7</ele>
        <time>2020-05-31T17:39:34Z</time>
      </trkpt>
      <trkpt lat="47.16446" lon="-1.57886">
        <ele>28.51</ele>
        <time>2020-05-31T17:39:36Z</time>
      </trkpt>
      <trkpt lat="47.16455" lon="-1.57892">
        <ele>28.42</ele>
        <time>2020-05-31T17:39:38Z</time>
      </trkpt>
      <trkpt lat="47.16466" lon="-1.57901">
        <ele>28.35</ele>
        <time>2020-05-31T17:39:40Z</time>
      </trkpt>
      <trkpt lat="47.16478" lon="-1.57912">
        <ele>29.41</ele>
        <time>2020-05-31T17:39:42Z</time>
      </trkpt>
      <trkpt lat="47.16488" lon="-1.57921">
        <ele>30.01</ele>
        <time>2020-05-31T17:39:44Z</time>
      </trkpt>
      <trkpt lat="47.165" lon="-1.57932">
        <ele>30.21</ele>
        <time>2020-05-31T17:39:46Z</time>
      </trkpt>
      <trkpt lat="47.16511" lon="-1.57944">
        <ele>30.22</ele>
        <time>2020-05-31T17:39:48Z</time>
      </trkpt>
      <trkpt lat="47.16522" lon="-1.57956">
        <ele>30.27</ele>
        <time>2020-05-31T17:39:50Z</time>
      </trkpt>
      <trkpt lat="47.16531" lon="-1.57965">
        <ele>29.96</ele>
        <time>2020-05-31T17:39:52Z</time>
      </trkpt>
      <trkpt lat="47.16542" lon="-1.57976">
        <ele>29.61</ele>
        <time>2020-05-31T17:39:54Z</time>
      </trkpt>
      <trkpt lat="47.16553" lon="-1.57986">
        <ele>29.42</ele>
        <time>2020-05-31T17:39:56Z</time>
      </trkpt>
      <trkpt lat="47.16564" lon="-1.57997">
        <ele>28.16</ele>
        <time>2020-05-31T17:39:58Z</time>
      </trkpt>
      <trkpt lat="47.16573" lon="-1.58007">
        <ele>26.99</ele>
        <time>2020-05-31T17:40:00Z</time>
      </trkpt>
      <trkpt lat="47.16583" lon="-1.58016">
        <ele>26.36</ele>
        <time>2020-05-31T17:40:02Z</time>
      </trkpt>
      <trkpt lat="47.16594" lon="-1.58025">
        <ele>26.01</ele>
        <time>2020-05-31T17:40:04Z</time>
      </trkpt>
      <trkpt lat="47.16604" lon="-1.58031">
        <ele>25.51</ele>
        <time>2020-05-31T17:40:06Z</time>
      </trkpt>
      <trkpt lat="47.16615" lon="-1.58037">
        <ele>25.16</ele>
        <time>2020-05-31T17:40:08Z</time>
      </trkpt>
      <trkpt lat="47.16626" lon="-1.58044">
        <ele>25.8</ele>
        <time>2020-05-31T17:40:10Z</time>
      </trkpt>
      <trkpt lat="47.16635" lon="-1.58054">
        <ele>25.7</ele>
        <time>2020-05-31T17:40:18Z</time>
      </trkpt>
      <trkpt lat="47.16641" lon="-1.58066">
        <ele>25.31</ele>
        <time>2020-05-31T17:40:20Z</time>
      </trkpt>
      <trkpt lat="47.1665" lon="-1.5808">
        <ele>25.14</ele>
        <time>2020-05-31T17:40:22Z</time>
      </trkpt>
      <trkpt lat="47.16658" lon="-1.58095">
        <ele>25.39</ele>
        <time>2020-05-31T17:40:24Z</time>
      </trkpt>
      <trkpt lat="47.16668" lon="-1.58109">
        <ele>24.9</ele>
        <time>2020-05-31T17:40:26Z</time>
      </trkpt>
      <trkpt lat="47.16679" lon="-1.5812">
        <ele>24.93</ele>
        <time>2020-05-31T17:40:28Z</time>
      </trkpt>
      <trkpt lat="47.1669" lon="-1.58131">
        <ele>25.46</ele>
        <time>2020-05-31T17:40:30Z</time>
      </trkpt>
      <trkpt lat="47.16701" lon="-1.58141">
        <ele>26.87</ele>
        <time>2020-05-31T17:40:32Z</time>
      </trkpt>
      <trkpt lat="47.16712" lon="-1.58151">
        <ele>27.24</ele>
        <time>2020-05-31T17:40:34Z</time>
      </trkpt>
      <trkpt lat="47.16724" lon="-1.58163">
        <ele>27.66</ele>
        <time>2020-05-31T17:40:36Z</time>
      </trkpt>
      <trkpt lat="47.16735" lon="-1.58173">
        <ele>27.96</ele>
        <time>2020-05-31T17:40:38Z</time>
      </trkpt>
      <trkpt lat="47.16745" lon="-1.58183">
        <ele>28.48</ele>
        <time>2020-05-31T17:40:40Z</time>
      </trkpt>
      <trkpt lat="47.16756" lon="-1.58193">
        <ele>28.68</ele>
        <time>2020-05-31T17:40:42Z</time>
      </trkpt>
      <trkpt lat="47.16766" lon="-1.58202">
        <ele>29.03</ele>
        <time>2020-05-31T17:40:44Z</time>
      </trkpt>
      <trkpt lat="47.16777" lon="-1.58214">
        <ele>28.93</ele>
        <time>2020-05-31T17:40:46Z</time>
      </trkpt>
      <trkpt lat="47.16786" lon="-1.58224">
        <ele>28.88</ele>
        <time>2020-05-31T17:40:48Z</time>
      </trkpt>
      <trkpt lat="47.16797" lon="-1.58235">
        <ele>27.98</ele>
        <time>2020-05-31T17:40:50Z</time>
      </trkpt>
      <trkpt lat="47.16807" lon="-1.58246">
        <ele>28.67</ele>
        <time>2020-05-31T17:40:52Z</time>
      </trkpt>
      <trkpt lat="47.16816" lon="-1.58254">
        <ele>29.39</ele>
        <time>2020-05-31T17:40:54Z</time>
      </trkpt>
      <trkpt lat="47.16827" lon="-1.58265">
        <ele>29.84</ele>
        <time>2020-05-31T17:40:56Z</time>
      </trkpt>
      <trkpt lat="47.16839" lon="-1.58275">
        <ele>30.06</ele>
        <time>2020-05-31T17:40:58Z</time>
      </trkpt>
      <trkpt lat="47.1685" lon="-1.58285">
        <ele>29.98</ele>
        <time>2020-05-31T17:41:00Z</time>
      </trkpt>
      <trkpt lat="47.16861" lon="-1.58296">
        <ele>29.24</ele>
        <time>2020-05-31T17:41:02Z</time>
      </trkpt>
      <trkpt lat="47.16872" lon="-1.58308">
        <ele>29.48</ele>
        <time>2020-05-31T17:41:04Z</time>
      </trkpt>
      <trkpt lat="47.16883" lon="-1.58318">
        <ele>29.19</ele>
        <time>2020-05-31T17:41:06Z</time>
      </trkpt>
      <trkpt lat="47.16894" lon="-1.58329">
        <ele>28.32</ele>
        <time>2020-05-31T17:41:08Z</time>
      </trkpt>
      <trkpt lat="47.16904" lon="-1.58341">
        <ele>27.33</ele>
        <time>2020-05-31T17:41:10Z</time>
      </trkpt>
      <trkpt lat="47.16914" lon="-1.58352">
        <ele>26.26</ele>
        <time>2020-05-31T17:41:12Z</time>
      </trkpt>
      <trkpt lat="47.16925" lon="-1.58364">
        <ele>25.89</ele>
        <time>2020-05-31T17:41:14Z</time>
      </trkpt>
      <trkpt lat="47.16935" lon="-1.58375">
        <ele>25.08</ele>
        <time>2020-05-31T17:41:16Z</time>
      </trkpt>
      <trkpt lat="47.16946" lon="-1.58386">
        <ele>23.55</ele>
        <time>2020-05-31T17:41:18Z</time>
      </trkpt>
      <trkpt lat="47.16957" lon="-1.58397">
        <ele>22.38</ele>
        <time>2020-05-31T17:41:20Z</time>
      </trkpt>
      <trkpt lat="47.16969" lon="-1.58405">
        <ele>22.56</ele>
        <time>2020-05-31T17:41:22Z</time>
      </trkpt>
      <trkpt lat="47.1698" lon="-1.58408">
        <ele>22.16</ele>
        <time>2020-05-31T17:41:24Z</time>
      </trkpt>
      <trkpt lat="47.1699" lon="-1.58417">
        <ele>22.63</ele>
        <time>2020-05-31T17:41:26Z</time>
      </trkpt>
      <trkpt lat="47.17001" lon="-1.58414">
        <ele>22.9</ele>
        <time>2020-05-31T17:41:28Z</time>
      </trkpt>
      <trkpt lat="47.17011" lon="-1.58409">
        <ele>23.41</ele>
        <time>2020-05-31T17:41:30Z</time>
      </trkpt>
      <trkpt lat="47.1702" lon="-1.58405">
        <ele>23.69</ele>
        <time>2020-05-31T17:41:32Z</time>
      </trkpt>
      <trkpt lat="47.1703" lon="-1.584">
        <ele>24.6</ele>
        <time>2020-05-31T17:41:34Z</time>
      </trkpt>
      <trkpt lat="47.17042" lon="-1.58396">
        <ele>24.98</ele>
        <time>2020-05-31T17:41:36Z</time>
      </trkpt>
      <trkpt lat="47.1705" lon="-1.58407">
        <ele>25.07</ele>
        <time>2020-05-31T17:41:38Z</time>
      </trkpt>
      <trkpt lat="47.17057" lon="-1.58429">
        <ele>25.06</ele>
        <time>2020-05-31T17:41:40Z</time>
      </trkpt>
      <trkpt lat="47.17062" lon="-1.5845">
        <ele>25.11</ele>
        <time>2020-05-31T17:41:42Z</time>
      </trkpt>
      <trkpt lat="47.17071" lon="-1.58464">
        <ele>25.21</ele>
        <time>2020-05-31T17:41:44Z</time>
      </trkpt>
      <trkpt lat="47.1708" lon="-1.58474">
        <ele>25.71</ele>
        <time>2020-05-31T17:41:46Z</time>
      </trkpt>
      <trkpt lat="47.1709" lon="-1.58479">
        <ele>26.14</ele>
        <time>2020-05-31T17:41:48Z</time>
      </trkpt>
      <trkpt lat="47.17102" lon="-1.58477">
        <ele>24.96</ele>
        <time>2020-05-31T17:41:50Z</time>
      </trkpt>
      <trkpt lat="47.17115" lon="-1.58473">
        <ele>24.71</ele>
        <time>2020-05-31T17:41:52Z</time>
      </trkpt>
      <trkpt lat="47.17129" lon="-1.58471">
        <ele>25.11</ele>
        <time>2020-05-31T17:41:54Z</time>
      </trkpt>
      <trkpt lat="47.17143" lon="-1.58471">
        <ele>25.29</ele>
        <time>2020-05-31T17:41:56Z</time>
      </trkpt>
      <trkpt lat="47.17155" lon="-1.58472">
        <ele>24.78</ele>
        <time>2020-05-31T17:41:58Z</time>
      </trkpt>
      <trkpt lat="47.17166" lon="-1.58474">
        <ele>24.23</ele>
        <time>2020-05-31T17:42:00Z</time>
      </trkpt>
      <trkpt lat="47.1718" lon="-1.58475">
        <ele>23.9</ele>
        <time>2020-05-31T17:42:02Z</time>
      </trkpt>
      <trkpt lat="47.17194" lon="-1.58476">
        <ele>24</ele>
        <time>2020-05-31T17:42:04Z</time>
      </trkpt>
      <trkpt lat="47.17206" lon="-1.58477">
        <ele>23.2</ele>
        <time>2020-05-31T17:42:06Z</time>
      </trkpt>
      <trkpt lat="47.17219" lon="-1.58479">
        <ele>22.62</ele>
        <time>2020-05-31T17:42:08Z</time>
      </trkpt>
      <trkpt lat="47.17231" lon="-1.58481">
        <ele>22.33</ele>
        <time>2020-05-31T17:42:10Z</time>
      </trkpt>
      <trkpt lat="47.17245" lon="-1.58484">
        <ele>21.69</ele>
        <time>2020-05-31T17:42:12Z</time>
      </trkpt>
      <trkpt lat="47.17258" lon="-1.58487">
        <ele>21.34</ele>
        <time>2020-05-31T17:42:14Z</time>
      </trkpt>
      <trkpt lat="47.1727" lon="-1.5849">
        <ele>22.2</ele>
        <time>2020-05-31T17:42:16Z</time>
      </trkpt>
      <trkpt lat="47.17283" lon="-1.58493">
        <ele>22.96</ele>
        <time>2020-05-31T17:42:18Z</time>
      </trkpt>
      <trkpt lat="47.17296" lon="-1.58496">
        <ele>23.85</ele>
        <time>2020-05-31T17:42:20Z</time>
      </trkpt>
      <trkpt lat="47.1731" lon="-1.58498">
        <ele>24.33</ele>
        <time>2020-05-31T17:42:22Z</time>
      </trkpt>
      <trkpt lat="47.17323" lon="-1.585">
        <ele>24.12</ele>
        <time>2020-05-31T17:42:24Z</time>
      </trkpt>
      <trkpt lat="47.17334" lon="-1.58502">
        <ele>23.77</ele>
        <time>2020-05-31T17:42:26Z</time>
      </trkpt>
      <trkpt lat="47.17346" lon="-1.58503">
        <ele>23.08</ele>
        <time>2020-05-31T17:42:28Z</time>
      </trkpt>
      <trkpt lat="47.17358" lon="-1.58504">
        <ele>21.72</ele>
        <time>2020-05-31T17:42:30Z</time>
      </trkpt>
      <trkpt lat="47.17371" lon="-1.58505">
        <ele>20.41</ele>
        <time>2020-05-31T17:42:32Z</time>
      </trkpt>
      <trkpt lat="47.17384" lon="-1.58506">
        <ele>19.65</ele>
        <time>2020-05-31T17:42:34Z</time>
      </trkpt>
      <trkpt lat="47.17396" lon="-1.58509">
        <ele>21</ele>
        <time>2020-05-31T17:42:36Z</time>
      </trkpt>
      <trkpt lat="47.17409" lon="-1.58511">
        <ele>22</ele>
        <time>2020-05-31T17:42:38Z</time>
      </trkpt>
      <trkpt lat="47.1742" lon="-1.58513">
        <ele>21.91</ele>
        <time>2020-05-31T17:42:40Z</time>
      </trkpt>
      <trkpt lat="47.17432" lon="-1.58515">
        <ele>21.72</ele>
        <time>2020-05-31T17:42:42Z</time>
      </trkpt>
      <trkpt lat="47.17446" lon="-1.58517">
        <ele>21.09</ele>
        <time>2020-05-31T17:42:44Z</time>
      </trkpt>
      <trkpt lat="47.17459" lon="-1.58521">
        <ele>20.44</ele>
        <time>2020-05-31T17:42:46Z</time>
      </trkpt>
      <trkpt lat="47.17472" lon="-1.58525">
        <ele>20.17</ele>
        <time>2020-05-31T17:42:48Z</time>
      </trkpt>
      <trkpt lat="47.17486" lon="-1.58529">
        <ele>19.87</ele>
        <time>2020-05-31T17:42:50Z</time>
      </trkpt>
      <trkpt lat="47.17496" lon="-1.58533">
        <ele>19.83</ele>
        <time>2020-05-31T17:42:52Z</time>
      </trkpt>
      <trkpt lat="47.17507" lon="-1.58538">
        <ele>20.12</ele>
        <time>2020-05-31T17:42:54Z</time>
      </trkpt>
      <trkpt lat="47.1752" lon="-1.58543">
        <ele>20.21</ele>
        <time>2020-05-31T17:42:56Z</time>
      </trkpt>
      <trkpt lat="47.17533" lon="-1.58551">
        <ele>20.24</ele>
        <time>2020-05-31T17:42:58Z</time>
      </trkpt>
      <trkpt lat="47.17545" lon="-1.58558">
        <ele>21.12</ele>
        <time>2020-05-31T17:43:00Z</time>
      </trkpt>
      <trkpt lat="47.17558" lon="-1.58565">
        <ele>21.71</ele>
        <time>2020-05-31T17:43:02Z</time>
      </trkpt>
      <trkpt lat="47.17569" lon="-1.58571">
        <ele>22.62</ele>
        <time>2020-05-31T17:43:04Z</time>
      </trkpt>
      <trkpt lat="47.17581" lon="-1.58577">
        <ele>23.05</ele>
        <time>2020-05-31T17:43:06Z</time>
      </trkpt>
      <trkpt lat="47.17594" lon="-1.58584">
        <ele>23.49</ele>
        <time>2020-05-31T17:43:08Z</time>
      </trkpt>
      <trkpt lat="47.17607" lon="-1.58592">
        <ele>23.97</ele>
        <time>2020-05-31T17:43:10Z</time>
      </trkpt>
      <trkpt lat="47.17618" lon="-1.58599">
        <ele>23.97</ele>
        <time>2020-05-31T17:43:12Z</time>
      </trkpt>
      <trkpt lat="47.17629" lon="-1.58605">
        <ele>22.97</ele>
        <time>2020-05-31T17:43:14Z</time>
      </trkpt>
      <trkpt lat="47.17641" lon="-1.58611">
        <ele>21.38</ele>
        <time>2020-05-31T17:43:16Z</time>
      </trkpt>
      <trkpt lat="47.17654" lon="-1.58618">
        <ele>20.42</ele>
        <time>2020-05-31T17:43:18Z</time>
      </trkpt>
      <trkpt lat="47.17665" lon="-1.58624">
        <ele>21.33</ele>
        <time>2020-05-31T17:43:20Z</time>
      </trkpt>
      <trkpt lat="47.17676" lon="-1.5863">
        <ele>22.65</ele>
        <time>2020-05-31T17:43:22Z</time>
      </trkpt>
      <trkpt lat="47.17689" lon="-1.58634">
        <ele>22.02</ele>
        <time>2020-05-31T17:43:24Z</time>
      </trkpt>
      <trkpt lat="47.17701" lon="-1.58635">
        <ele>21.53</ele>
        <time>2020-05-31T17:43:26Z</time>
      </trkpt>
      <trkpt lat="47.17711" lon="-1.58634">
        <ele>21.53</ele>
        <time>2020-05-31T17:43:28Z</time>
      </trkpt>
      <trkpt lat="47.17723" lon="-1.58634">
        <ele>21.67</ele>
        <time>2020-05-31T17:43:30Z</time>
      </trkpt>
      <trkpt lat="47.17734" lon="-1.58632">
        <ele>21.36</ele>
        <time>2020-05-31T17:43:32Z</time>
      </trkpt>
      <trkpt lat="47.17746" lon="-1.5863">
        <ele>21.14</ele>
        <time>2020-05-31T17:43:34Z</time>
      </trkpt>
      <trkpt lat="47.17759" lon="-1.58624">
        <ele>21.65</ele>
        <time>2020-05-31T17:43:36Z</time>
      </trkpt>
      <trkpt lat="47.17769" lon="-1.5863">
        <ele>21.18</ele>
        <time>2020-05-31T17:43:38Z</time>
      </trkpt>
      <trkpt lat="47.17776" lon="-1.58649">
        <ele>21.08</ele>
        <time>2020-05-31T17:43:40Z</time>
      </trkpt>
      <trkpt lat="47.17785" lon="-1.58664">
        <ele>21.28</ele>
        <time>2020-05-31T17:43:42Z</time>
      </trkpt>
      <trkpt lat="47.17796" lon="-1.58679">
        <ele>21.14</ele>
        <time>2020-05-31T17:43:44Z</time>
      </trkpt>
      <trkpt lat="47.17806" lon="-1.58691">
        <ele>20.49</ele>
        <time>2020-05-31T17:43:46Z</time>
      </trkpt>
      <trkpt lat="47.17816" lon="-1.58703">
        <ele>21.04</ele>
        <time>2020-05-31T17:43:48Z</time>
      </trkpt>
      <trkpt lat="47.17823" lon="-1.58714">
        <ele>21.86</ele>
        <time>2020-05-31T17:43:50Z</time>
      </trkpt>
      <trkpt lat="47.17833" lon="-1.58728">
        <ele>22.12</ele>
        <time>2020-05-31T17:43:52Z</time>
      </trkpt>
      <trkpt lat="47.17842" lon="-1.58741">
        <ele>21.94</ele>
        <time>2020-05-31T17:43:54Z</time>
      </trkpt>
      <trkpt lat="47.17851" lon="-1.58754">
        <ele>21.87</ele>
        <time>2020-05-31T17:43:56Z</time>
      </trkpt>
      <trkpt lat="47.17862" lon="-1.58768">
        <ele>21.64</ele>
        <time>2020-05-31T17:43:58Z</time>
      </trkpt>
      <trkpt lat="47.17872" lon="-1.58782">
        <ele>20.88</ele>
        <time>2020-05-31T17:44:00Z</time>
      </trkpt>
      <trkpt lat="47.17884" lon="-1.58796">
        <ele>20.6</ele>
        <time>2020-05-31T17:44:02Z</time>
      </trkpt>
      <trkpt lat="47.17895" lon="-1.58808">
        <ele>20.01</ele>
        <time>2020-05-31T17:44:04Z</time>
      </trkpt>
      <trkpt lat="47.17905" lon="-1.58819">
        <ele>19.21</ele>
        <time>2020-05-31T17:44:06Z</time>
      </trkpt>
      <trkpt lat="47.17916" lon="-1.58828">
        <ele>17.74</ele>
        <time>2020-05-31T17:44:08Z</time>
      </trkpt>
      <trkpt lat="47.17929" lon="-1.58839">
        <ele>16.89</ele>
        <time>2020-05-31T17:44:10Z</time>
      </trkpt>
      <trkpt lat="47.17942" lon="-1.58849">
        <ele>17.32</ele>
        <time>2020-05-31T17:44:12Z</time>
      </trkpt>
      <trkpt lat="47.17951" lon="-1.58856">
        <ele>17.22</ele>
        <time>2020-05-31T17:44:14Z</time>
      </trkpt>
      <trkpt lat="47.17962" lon="-1.58864">
        <ele>17.89</ele>
        <time>2020-05-31T17:44:16Z</time>
      </trkpt>
      <trkpt lat="47.17972" lon="-1.58871">
        <ele>18.38</ele>
        <time>2020-05-31T17:44:18Z</time>
      </trkpt>
      <trkpt lat="47.17983" lon="-1.58878">
        <ele>18.15</ele>
        <time>2020-05-31T17:44:20Z</time>
      </trkpt>
      <trkpt lat="47.17992" lon="-1.5889">
        <ele>17.71</ele>
        <time>2020-05-31T17:44:22Z</time>
      </trkpt>
      <trkpt lat="47.18003" lon="-1.58902">
        <ele>17.8</ele>
        <time>2020-05-31T17:44:24Z</time>
      </trkpt>
      <trkpt lat="47.18015" lon="-1.58915">
        <ele>18.98</ele>
        <time>2020-05-31T17:44:26Z</time>
      </trkpt>
      <trkpt lat="47.18027" lon="-1.58924">
        <ele>20.59</ele>
        <time>2020-05-31T17:44:28Z</time>
      </trkpt>
      <trkpt lat="47.18038" lon="-1.58933">
        <ele>21.33</ele>
        <time>2020-05-31T17:44:30Z</time>
      </trkpt>
      <trkpt lat="47.18049" lon="-1.58941">
        <ele>21.84</ele>
        <time>2020-05-31T17:44:32Z</time>
      </trkpt>
      <trkpt lat="47.1806" lon="-1.5895">
        <ele>21.48</ele>
        <time>2020-05-31T17:44:34Z</time>
      </trkpt>
      <trkpt lat="47.18064" lon="-1.58969">
        <ele>21.22</ele>
        <time>2020-05-31T17:44:36Z</time>
      </trkpt>
      <trkpt lat="47.18063" lon="-1.58988">
        <ele>21.67</ele>
        <time>2020-05-31T17:44:38Z</time>
      </trkpt>
      <trkpt lat="47.18064" lon="-1.59007">
        <ele>22.78</ele>
        <time>2020-05-31T17:44:40Z</time>
      </trkpt>
      <trkpt lat="47.18066" lon="-1.59028">
        <ele>22.82</ele>
        <time>2020-05-31T17:44:42Z</time>
      </trkpt>
      <trkpt lat="47.18069" lon="-1.59052">
        <ele>22.74</ele>
        <time>2020-05-31T17:44:44Z</time>
      </trkpt>
      <trkpt lat="47.18072" lon="-1.59073">
        <ele>22.23</ele>
        <time>2020-05-31T17:44:46Z</time>
      </trkpt>
      <trkpt lat="47.18075" lon="-1.59092">
        <ele>21.78</ele>
        <time>2020-05-31T17:44:47Z</time>
      </trkpt>
      <trkpt lat="47.18078" lon="-1.5911">
        <ele>21.61</ele>
        <time>2020-05-31T17:44:49Z</time>
      </trkpt>
      <trkpt lat="47.18081" lon="-1.59127">
        <ele>22.11</ele>
        <time>2020-05-31T17:44:51Z</time>
      </trkpt>
      <trkpt lat="47.18084" lon="-1.59144">
        <ele>22.54</ele>
        <time>2020-05-31T17:44:53Z</time>
      </trkpt>
      <trkpt lat="47.18086" lon="-1.59163">
        <ele>23</ele>
        <time>2020-05-31T17:44:55Z</time>
      </trkpt>
      <trkpt lat="47.18089" lon="-1.59178">
        <ele>23.14</ele>
        <time>2020-05-31T17:44:57Z</time>
      </trkpt>
      <trkpt lat="47.18089" lon="-1.59201">
        <ele>21.45</ele>
        <time>2020-05-31T17:45:00Z</time>
      </trkpt>
      <trkpt lat="47.18081" lon="-1.59212">
        <ele>18.8</ele>
        <time>2020-05-31T17:45:02Z</time>
      </trkpt>
      <trkpt lat="47.18077" lon="-1.59228">
        <ele>16.23</ele>
        <time>2020-05-31T17:45:04Z</time>
      </trkpt>
      <trkpt lat="47.18075" lon="-1.59249">
        <ele>14.04</ele>
        <time>2020-05-31T17:45:06Z</time>
      </trkpt>
      <trkpt lat="47.18072" lon="-1.5927">
        <ele>11.92</ele>
        <time>2020-05-31T17:45:08Z</time>
      </trkpt>
      <trkpt lat="47.18069" lon="-1.59291">
        <ele>10.43</ele>
        <time>2020-05-31T17:45:10Z</time>
      </trkpt>
      <trkpt lat="47.18066" lon="-1.59307">
        <ele>9.42</ele>
        <time>2020-05-31T17:45:12Z</time>
      </trkpt>
      <trkpt lat="47.18063" lon="-1.59325">
        <ele>9.13</ele>
        <time>2020-05-31T17:45:14Z</time>
      </trkpt>
      <trkpt lat="47.1806" lon="-1.59342">
        <ele>9.24</ele>
        <time>2020-05-31T17:45:16Z</time>
      </trkpt>
      <trkpt lat="47.18057" lon="-1.5936">
        <ele>9.33</ele>
        <time>2020-05-31T17:45:18Z</time>
      </trkpt>
      <trkpt lat="47.18054" lon="-1.59374">
        <ele>10.88</ele>
        <time>2020-05-31T17:45:20Z</time>
      </trkpt>
      <trkpt lat="47.18052" lon="-1.59392">
        <ele>12.61</ele>
        <time>2020-05-31T17:45:22Z</time>
      </trkpt>
      <trkpt lat="47.18057" lon="-1.59405">
        <ele>14.36</ele>
        <time>2020-05-31T17:45:24Z</time>
      </trkpt>
      <trkpt lat="47.18064" lon="-1.59417">
        <ele>16.14</ele>
        <time>2020-05-31T17:45:26Z</time>
      </trkpt>
      <trkpt lat="47.1806" lon="-1.59433">
        <ele>17.32</ele>
        <time>2020-05-31T17:45:28Z</time>
      </trkpt>
      <trkpt lat="47.18053" lon="-1.59444">
        <ele>17.29</ele>
        <time>2020-05-31T17:45:30Z</time>
      </trkpt>
      <trkpt lat="47.18043" lon="-1.59461">
        <ele>17.85</ele>
        <time>2020-05-31T17:45:32Z</time>
      </trkpt>
      <trkpt lat="47.18036" lon="-1.59479">
        <ele>18.85</ele>
        <time>2020-05-31T17:45:34Z</time>
      </trkpt>
      <trkpt lat="47.18031" lon="-1.59498">
        <ele>19.05</ele>
        <time>2020-05-31T17:45:36Z</time>
      </trkpt>
      <trkpt lat="47.18025" lon="-1.59517">
        <ele>18.36</ele>
        <time>2020-05-31T17:45:38Z</time>
      </trkpt>
      <trkpt lat="47.18021" lon="-1.59539">
        <ele>17.05</ele>
        <time>2020-05-31T17:45:40Z</time>
      </trkpt>
      <trkpt lat="47.18016" lon="-1.59557">
        <ele>16.67</ele>
        <time>2020-05-31T17:45:42Z</time>
      </trkpt>
      <trkpt lat="47.1801" lon="-1.59579">
        <ele>16.5</ele>
        <time>2020-05-31T17:45:44Z</time>
      </trkpt>
      <trkpt lat="47.18005" lon="-1.59601">
        <ele>15.79</ele>
        <time>2020-05-31T17:45:46Z</time>
      </trkpt>
      <trkpt lat="47.18001" lon="-1.59619">
        <ele>16.62</ele>
        <time>2020-05-31T17:45:48Z</time>
      </trkpt>
      <trkpt lat="47.17995" lon="-1.59638">
        <ele>17.65</ele>
        <time>2020-05-31T17:45:50Z</time>
      </trkpt>
      <trkpt lat="47.17989" lon="-1.59659">
        <ele>17.32</ele>
        <time>2020-05-31T17:45:52Z</time>
      </trkpt>
      <trkpt lat="47.17984" lon="-1.5968">
        <ele>16.99</ele>
        <time>2020-05-31T17:45:54Z</time>
      </trkpt>
      <trkpt lat="47.17979" lon="-1.59704">
        <ele>16.29</ele>
        <time>2020-05-31T17:45:56Z</time>
      </trkpt>
      <trkpt lat="47.17974" lon="-1.59725">
        <ele>15.75</ele>
        <time>2020-05-31T17:45:58Z</time>
      </trkpt>
      <trkpt lat="47.17969" lon="-1.59742">
        <ele>15.48</ele>
        <time>2020-05-31T17:46:00Z</time>
      </trkpt>
      <trkpt lat="47.17964" lon="-1.59762">
        <ele>15.39</ele>
        <time>2020-05-31T17:46:02Z</time>
      </trkpt>
      <trkpt lat="47.17957" lon="-1.59787">
        <ele>14.3</ele>
        <time>2020-05-31T17:46:04Z</time>
      </trkpt>
      <trkpt lat="47.17953" lon="-1.598">
        <ele>13.93</ele>
        <time>2020-05-31T17:46:05Z</time>
      </trkpt>
      <trkpt lat="47.17948" lon="-1.59823">
        <ele>13.61</ele>
        <time>2020-05-31T17:46:07Z</time>
      </trkpt>
      <trkpt lat="47.17945" lon="-1.59839">
        <ele>13.09</ele>
        <time>2020-05-31T17:46:08Z</time>
      </trkpt>
      <trkpt lat="47.17942" lon="-1.59855">
        <ele>12.76</ele>
        <time>2020-05-31T17:46:09Z</time>
      </trkpt>
      <trkpt lat="47.17939" lon="-1.59869">
        <ele>12.33</ele>
        <time>2020-05-31T17:46:10Z</time>
      </trkpt>
      <trkpt lat="47.17935" lon="-1.59886">
        <ele>11.83</ele>
        <time>2020-05-31T17:46:11Z</time>
      </trkpt>
      <trkpt lat="47.17933" lon="-1.59902">
        <ele>11.4</ele>
        <time>2020-05-31T17:46:12Z</time>
      </trkpt>
      <trkpt lat="47.17928" lon="-1.59927">
        <ele>9.62</ele>
        <time>2020-05-31T17:46:14Z</time>
      </trkpt>
      <trkpt lat="47.17924" lon="-1.5994">
        <ele>8.44</ele>
        <time>2020-05-31T17:46:15Z</time>
      </trkpt>
      <trkpt lat="47.1791" lon="-1.59949">
        <ele>6.06</ele>
        <time>2020-05-31T17:46:17Z</time>
      </trkpt>
      <trkpt lat="47.17901" lon="-1.59949">
        <ele>5.48</ele>
        <time>2020-05-31T17:46:18Z</time>
      </trkpt>
      <trkpt lat="47.17886" lon="-1.59958">
        <ele>4.74</ele>
        <time>2020-05-31T17:46:20Z</time>
      </trkpt>
      <trkpt lat="47.17878" lon="-1.59969">
        <ele>4.44</ele>
        <time>2020-05-31T17:46:21Z</time>
      </trkpt>
      <trkpt lat="47.17872" lon="-1.59979">
        <ele>4.8</ele>
        <time>2020-05-31T17:46:22Z</time>
      </trkpt>
      <trkpt lat="47.17866" lon="-1.59991">
        <ele>5.12</ele>
        <time>2020-05-31T17:46:23Z</time>
      </trkpt>
      <trkpt lat="47.17859" lon="-1.60003">
        <ele>5.62</ele>
        <time>2020-05-31T17:46:24Z</time>
      </trkpt>
      <trkpt lat="47.17853" lon="-1.60014">
        <ele>5.56</ele>
        <time>2020-05-31T17:46:25Z</time>
      </trkpt>
      <trkpt lat="47.17847" lon="-1.60025">
        <ele>5.8</ele>
        <time>2020-05-31T17:46:26Z</time>
      </trkpt>
      <trkpt lat="47.17841" lon="-1.60035">
        <ele>6.3</ele>
        <time>2020-05-31T17:46:27Z</time>
      </trkpt>
      <trkpt lat="47.17835" lon="-1.60045">
        <ele>6.54</ele>
        <time>2020-05-31T17:46:28Z</time>
      </trkpt>
      <trkpt lat="47.17829" lon="-1.60056">
        <ele>6.7</ele>
        <time>2020-05-31T17:46:29Z</time>
      </trkpt>
      <trkpt lat="47.17822" lon="-1.60066">
        <ele>6.96</ele>
        <time>2020-05-31T17:46:30Z</time>
      </trkpt>
      <trkpt lat="47.17812" lon="-1.60083">
        <ele>7.61</ele>
        <time>2020-05-31T17:46:32Z</time>
      </trkpt>
      <trkpt lat="47.17802" lon="-1.60102">
        <ele>8.85</ele>
        <time>2020-05-31T17:46:34Z</time>
      </trkpt>
      <trkpt lat="47.17796" lon="-1.60112">
        <ele>9.53</ele>
        <time>2020-05-31T17:46:35Z</time>
      </trkpt>
      <trkpt lat="47.1779" lon="-1.60123">
        <ele>10.41</ele>
        <time>2020-05-31T17:46:36Z</time>
      </trkpt>
      <trkpt lat="47.1778" lon="-1.6014">
        <ele>12.12</ele>
        <time>2020-05-31T17:46:38Z</time>
      </trkpt>
      <trkpt lat="47.1777" lon="-1.60158">
        <ele>12.21</ele>
        <time>2020-05-31T17:46:40Z</time>
      </trkpt>
      <trkpt lat="47.17761" lon="-1.60176">
        <ele>12.6</ele>
        <time>2020-05-31T17:46:42Z</time>
      </trkpt>
      <trkpt lat="47.17752" lon="-1.60197">
        <ele>12.31</ele>
        <time>2020-05-31T17:46:44Z</time>
      </trkpt>
      <trkpt lat="47.17746" lon="-1.60218">
        <ele>11.57</ele>
        <time>2020-05-31T17:46:46Z</time>
      </trkpt>
      <trkpt lat="47.17741" lon="-1.60242">
        <ele>10.59</ele>
        <time>2020-05-31T17:46:48Z</time>
      </trkpt>
      <trkpt lat="47.17737" lon="-1.60261">
        <ele>9.96</ele>
        <time>2020-05-31T17:46:50Z</time>
      </trkpt>
      <trkpt lat="47.17729" lon="-1.60279">
        <ele>9.86</ele>
        <time>2020-05-31T17:46:52Z</time>
      </trkpt>
      <trkpt lat="47.1772" lon="-1.60296">
        <ele>10.97</ele>
        <time>2020-05-31T17:46:54Z</time>
      </trkpt>
      <trkpt lat="47.1771" lon="-1.60311">
        <ele>12.49</ele>
        <time>2020-05-31T17:46:56Z</time>
      </trkpt>
      <trkpt lat="47.17699" lon="-1.60326">
        <ele>13.76</ele>
        <time>2020-05-31T17:46:58Z</time>
      </trkpt>
      <trkpt lat="47.17689" lon="-1.6034">
        <ele>14.17</ele>
        <time>2020-05-31T17:47:00Z</time>
      </trkpt>
      <trkpt lat="47.17678" lon="-1.60356">
        <ele>13.97</ele>
        <time>2020-05-31T17:47:02Z</time>
      </trkpt>
      <trkpt lat="47.17667" lon="-1.6037">
        <ele>13.67</ele>
        <time>2020-05-31T17:47:04Z</time>
      </trkpt>
      <trkpt lat="47.17657" lon="-1.60384">
        <ele>13.53</ele>
        <time>2020-05-31T17:47:06Z</time>
      </trkpt>
      <trkpt lat="47.17648" lon="-1.60397">
        <ele>13.89</ele>
        <time>2020-05-31T17:47:08Z</time>
      </trkpt>
      <trkpt lat="47.17637" lon="-1.60414">
        <ele>14.47</ele>
        <time>2020-05-31T17:47:10Z</time>
      </trkpt>
      <trkpt lat="47.17626" lon="-1.60431">
        <ele>14.9</ele>
        <time>2020-05-31T17:47:12Z</time>
      </trkpt>
      <trkpt lat="47.17614" lon="-1.6045">
        <ele>14.86</ele>
        <time>2020-05-31T17:47:14Z</time>
      </trkpt>
      <trkpt lat="47.17603" lon="-1.60467">
        <ele>15.09</ele>
        <time>2020-05-31T17:47:16Z</time>
      </trkpt>
      <trkpt lat="47.17592" lon="-1.60483">
        <ele>14.47</ele>
        <time>2020-05-31T17:47:18Z</time>
      </trkpt>
      <trkpt lat="47.17581" lon="-1.60501">
        <ele>14.91</ele>
        <time>2020-05-31T17:47:20Z</time>
      </trkpt>
      <trkpt lat="47.17569" lon="-1.6052">
        <ele>16.1</ele>
        <time>2020-05-31T17:47:22Z</time>
      </trkpt>
      <trkpt lat="47.17558" lon="-1.60537">
        <ele>16.62</ele>
        <time>2020-05-31T17:47:24Z</time>
      </trkpt>
      <trkpt lat="47.17547" lon="-1.60554">
        <ele>16.92</ele>
        <time>2020-05-31T17:47:26Z</time>
      </trkpt>
      <trkpt lat="47.17538" lon="-1.60569">
        <ele>16.89</ele>
        <time>2020-05-31T17:47:28Z</time>
      </trkpt>
      <trkpt lat="47.17528" lon="-1.60585">
        <ele>17.59</ele>
        <time>2020-05-31T17:47:30Z</time>
      </trkpt>
      <trkpt lat="47.17518" lon="-1.60604">
        <ele>18.34</ele>
        <time>2020-05-31T17:47:32Z</time>
      </trkpt>
      <trkpt lat="47.17507" lon="-1.60622">
        <ele>17.88</ele>
        <time>2020-05-31T17:47:34Z</time>
      </trkpt>
      <trkpt lat="47.17497" lon="-1.60639">
        <ele>17.19</ele>
        <time>2020-05-31T17:47:36Z</time>
      </trkpt>
      <trkpt lat="47.17486" lon="-1.60658">
        <ele>16.96</ele>
        <time>2020-05-31T17:47:38Z</time>
      </trkpt>
      <trkpt lat="47.17474" lon="-1.60675">
        <ele>16.41</ele>
        <time>2020-05-31T17:47:40Z</time>
      </trkpt>
      <trkpt lat="47.17462" lon="-1.60694">
        <ele>15.67</ele>
        <time>2020-05-31T17:47:42Z</time>
      </trkpt>
      <trkpt lat="47.1745" lon="-1.60714">
        <ele>13.46</ele>
        <time>2020-05-31T17:47:44Z</time>
      </trkpt>
      <trkpt lat="47.17444" lon="-1.60724">
        <ele>12.54</ele>
        <time>2020-05-31T17:47:45Z</time>
      </trkpt>
      <trkpt lat="47.17438" lon="-1.60735">
        <ele>11.8</ele>
        <time>2020-05-31T17:47:46Z</time>
      </trkpt>
      <trkpt lat="47.17432" lon="-1.60745">
        <ele>10.83</ele>
        <time>2020-05-31T17:47:47Z</time>
      </trkpt>
      <trkpt lat="47.17425" lon="-1.60756">
        <ele>9.84</ele>
        <time>2020-05-31T17:47:48Z</time>
      </trkpt>
      <trkpt lat="47.17418" lon="-1.60779">
        <ele>8.36</ele>
        <time>2020-05-31T17:47:50Z</time>
      </trkpt>
      <trkpt lat="47.17414" lon="-1.60792">
        <ele>7.78</ele>
        <time>2020-05-31T17:47:51Z</time>
      </trkpt>
      <trkpt lat="47.1741" lon="-1.60805">
        <ele>7.35</ele>
        <time>2020-05-31T17:47:52Z</time>
      </trkpt>
      <trkpt lat="47.17406" lon="-1.60817">
        <ele>6.54</ele>
        <time>2020-05-31T17:47:53Z</time>
      </trkpt>
      <trkpt lat="47.17402" lon="-1.60832">
        <ele>5.85</ele>
        <time>2020-05-31T17:47:54Z</time>
      </trkpt>
      <trkpt lat="47.17399" lon="-1.60847">
        <ele>5.29</ele>
        <time>2020-05-31T17:47:55Z</time>
      </trkpt>
      <trkpt lat="47.17396" lon="-1.60862">
        <ele>4.64</ele>
        <time>2020-05-31T17:47:56Z</time>
      </trkpt>
      <trkpt lat="47.17395" lon="-1.60878">
        <ele>3.8</ele>
        <time>2020-05-31T17:47:57Z</time>
      </trkpt>
      <trkpt lat="47.17395" lon="-1.60904">
        <ele>2.58</ele>
        <time>2020-05-31T17:47:59Z</time>
      </trkpt>
      <trkpt lat="47.17396" lon="-1.60932">
        <ele>2.08</ele>
        <time>2020-05-31T17:48:01Z</time>
      </trkpt>
      <trkpt lat="47.17397" lon="-1.60948">
        <ele>1.74</ele>
        <time>2020-05-31T17:48:02Z</time>
      </trkpt>
      <trkpt lat="47.17401" lon="-1.60961">
        <ele>1.55</ele>
        <time>2020-05-31T17:48:03Z</time>
      </trkpt>
      <trkpt lat="47.17404" lon="-1.60974">
        <ele>1.25</ele>
        <time>2020-05-31T17:48:04Z</time>
      </trkpt>
      <trkpt lat="47.17412" lon="-1.60996">
        <ele>-0.03</ele>
        <time>2020-05-31T17:48:06Z</time>
      </trkpt>
      <trkpt lat="47.1742" lon="-1.61016">
        <ele>8.7</ele>
        <time>2020-05-31T17:48:08Z</time>
      </trkpt>
      <trkpt lat="47.17425" lon="-1.61036">
        <ele>1.11</ele>
        <time>2020-05-31T17:48:10Z</time>
      </trkpt>
      <trkpt lat="47.17427" lon="-1.61056">
        <ele>2.49</ele>
        <time>2020-05-31T17:48:12Z</time>
      </trkpt>
      <trkpt lat="47.17433" lon="-1.61073">
        <ele>3.3</ele>
        <time>2020-05-31T17:48:14Z</time>
      </trkpt>
      <trkpt lat="47.1744" lon="-1.61093">
        <ele>3.53</ele>
        <time>2020-05-31T17:48:16Z</time>
      </trkpt>
      <trkpt lat="47.17445" lon="-1.61108">
        <ele>3.94</ele>
        <time>2020-05-31T17:48:18Z</time>
      </trkpt>
      <trkpt lat="47.17452" lon="-1.61126">
        <ele>5.08</ele>
        <time>2020-05-31T17:48:20Z</time>
      </trkpt>
      <trkpt lat="47.17459" lon="-1.61145">
        <ele>6.31</ele>
        <time>2020-05-31T17:48:22Z</time>
      </trkpt>
      <trkpt lat="47.17467" lon="-1.61164">
        <ele>7.42</ele>
        <time>2020-05-31T17:48:24Z</time>
      </trkpt>
      <trkpt lat="47.17474" lon="-1.61182">
        <ele>8.43</ele>
        <time>2020-05-31T17:48:26Z</time>
      </trkpt>
      <trkpt lat="47.17483" lon="-1.612">
        <ele>8.12</ele>
        <time>2020-05-31T17:48:28Z</time>
      </trkpt>
      <trkpt lat="47.1749" lon="-1.61216">
        <ele>8.18</ele>
        <time>2020-05-31T17:48:30Z</time>
      </trkpt>
      <trkpt lat="47.17496" lon="-1.61232">
        <ele>9.15</ele>
        <time>2020-05-31T17:48:32Z</time>
      </trkpt>
      <trkpt lat="47.17503" lon="-1.61251">
        <ele>9.78</ele>
        <time>2020-05-31T17:48:34Z</time>
      </trkpt>
      <trkpt lat="47.17511" lon="-1.61266">
        <ele>10.56</ele>
        <time>2020-05-31T17:48:36Z</time>
      </trkpt>
      <trkpt lat="47.17521" lon="-1.61282">
        <ele>10.94</ele>
        <time>2020-05-31T17:48:38Z</time>
      </trkpt>
      <trkpt lat="47.17531" lon="-1.61292">
        <ele>10.27</ele>
        <time>2020-05-31T17:48:40Z</time>
      </trkpt>
      <trkpt lat="47.17546" lon="-1.61302">
        <ele>9.33</ele>
        <time>2020-05-31T17:48:42Z</time>
      </trkpt>
      <trkpt lat="47.17556" lon="-1.6131">
        <ele>9.37</ele>
        <time>2020-05-31T17:48:44Z</time>
      </trkpt>
      <trkpt lat="47.17561" lon="-1.61329">
        <ele>9.76</ele>
        <time>2020-05-31T17:48:46Z</time>
      </trkpt>
      <trkpt lat="47.17556" lon="-1.61348">
        <ele>10.9</ele>
        <time>2020-05-31T17:48:48Z</time>
      </trkpt>
      <trkpt lat="47.17544" lon="-1.61362">
        <ele>10.95</ele>
        <time>2020-05-31T17:48:50Z</time>
      </trkpt>
      <trkpt lat="47.17533" lon="-1.6138">
        <ele>10.85</ele>
        <time>2020-05-31T17:48:52Z</time>
      </trkpt>
      <trkpt lat="47.17524" lon="-1.61401">
        <ele>11.06</ele>
        <time>2020-05-31T17:48:54Z</time>
      </trkpt>
      <trkpt lat="47.1752" lon="-1.61414">
        <ele>11.33</ele>
        <time>2020-05-31T17:48:55Z</time>
      </trkpt>
      <trkpt lat="47.17518" lon="-1.61427">
        <ele>11.77</ele>
        <time>2020-05-31T17:48:56Z</time>
      </trkpt>
      <trkpt lat="47.17515" lon="-1.61447">
        <ele>12.42</ele>
        <time>2020-05-31T17:48:58Z</time>
      </trkpt>
      <trkpt lat="47.17508" lon="-1.61462">
        <ele>13.59</ele>
        <time>2020-05-31T17:49:00Z</time>
      </trkpt>
      <trkpt lat="47.17495" lon="-1.61474">
        <ele>14.25</ele>
        <time>2020-05-31T17:49:02Z</time>
      </trkpt>
      <trkpt lat="47.17482" lon="-1.61479">
        <ele>13.15</ele>
        <time>2020-05-31T17:49:04Z</time>
      </trkpt>
      <trkpt lat="47.1747" lon="-1.61484">
        <ele>11.5</ele>
        <time>2020-05-31T17:49:06Z</time>
      </trkpt>
      <trkpt lat="47.17456" lon="-1.6149">
        <ele>11.18</ele>
        <time>2020-05-31T17:49:08Z</time>
      </trkpt>
      <trkpt lat="47.17442" lon="-1.61497">
        <ele>12.09</ele>
        <time>2020-05-31T17:49:10Z</time>
      </trkpt>
      <trkpt lat="47.17433" lon="-1.61502">
        <ele>12.56</ele>
        <time>2020-05-31T17:49:12Z</time>
      </trkpt>
      <trkpt lat="47.17422" lon="-1.61509">
        <ele>12.1</ele>
        <time>2020-05-31T17:49:14Z</time>
      </trkpt>
      <trkpt lat="47.17414" lon="-1.61516">
        <ele>11.38</ele>
        <time>2020-05-31T17:49:16Z</time>
      </trkpt>
      <trkpt lat="47.17402" lon="-1.61525">
        <ele>10.53</ele>
        <time>2020-05-31T17:49:18Z</time>
      </trkpt>
      <trkpt lat="47.17394" lon="-1.61533">
        <ele>9.43</ele>
        <time>2020-05-31T17:49:20Z</time>
      </trkpt>
      <trkpt lat="47.17384" lon="-1.61542">
        <ele>8.25</ele>
        <time>2020-05-31T17:49:22Z</time>
      </trkpt>
      <trkpt lat="47.17373" lon="-1.61553">
        <ele>7.3</ele>
        <time>2020-05-31T17:49:24Z</time>
      </trkpt>
      <trkpt lat="47.17364" lon="-1.61562">
        <ele>7.57</ele>
        <time>2020-05-31T17:49:26Z</time>
      </trkpt>
      <trkpt lat="47.17355" lon="-1.61573">
        <ele>8.96</ele>
        <time>2020-05-31T17:49:28Z</time>
      </trkpt>
      <trkpt lat="47.17347" lon="-1.61582">
        <ele>9.33</ele>
        <time>2020-05-31T17:49:30Z</time>
      </trkpt>
      <trkpt lat="47.17337" lon="-1.61593">
        <ele>10.18</ele>
        <time>2020-05-31T17:49:32Z</time>
      </trkpt>
      <trkpt lat="47.17328" lon="-1.61605">
        <ele>9.65</ele>
        <time>2020-05-31T17:49:34Z</time>
      </trkpt>
      <trkpt lat="47.17319" lon="-1.61616">
        <ele>9.02</ele>
        <time>2020-05-31T17:49:36Z</time>
      </trkpt>
      <trkpt lat="47.17311" lon="-1.61628">
        <ele>9.49</ele>
        <time>2020-05-31T17:49:38Z</time>
      </trkpt>
      <trkpt lat="47.17301" lon="-1.61642">
        <ele>10.93</ele>
        <time>2020-05-31T17:49:40Z</time>
      </trkpt>
      <trkpt lat="47.17293" lon="-1.61655">
        <ele>10.83</ele>
        <time>2020-05-31T17:49:42Z</time>
      </trkpt>
      <trkpt lat="47.17286" lon="-1.61668">
        <ele>10.92</ele>
        <time>2020-05-31T17:49:44Z</time>
      </trkpt>
      <trkpt lat="47.17279" lon="-1.61681">
        <ele>11.37</ele>
        <time>2020-05-31T17:49:46Z</time>
      </trkpt>
      <trkpt lat="47.17272" lon="-1.61694">
        <ele>11.96</ele>
        <time>2020-05-31T17:49:48Z</time>
      </trkpt>
      <trkpt lat="47.17265" lon="-1.61708">
        <ele>12.41</ele>
        <time>2020-05-31T17:49:50Z</time>
      </trkpt>
      <trkpt lat="47.17256" lon="-1.61725">
        <ele>12.06</ele>
        <time>2020-05-31T17:49:52Z</time>
      </trkpt>
      <trkpt lat="47.17248" lon="-1.61741">
        <ele>11.85</ele>
        <time>2020-05-31T17:49:54Z</time>
      </trkpt>
      <trkpt lat="47.17244" lon="-1.61756">
        <ele>11.44</ele>
        <time>2020-05-31T17:49:56Z</time>
      </trkpt>
      <trkpt lat="47.17242" lon="-1.61775">
        <ele>11.28</ele>
        <time>2020-05-31T17:49:58Z</time>
      </trkpt>
      <trkpt lat="47.17235" lon="-1.61791">
        <ele>11.61</ele>
        <time>2020-05-31T17:50:00Z</time>
      </trkpt>
      <trkpt lat="47.17226" lon="-1.618">
        <ele>12.43</ele>
        <time>2020-05-31T17:50:02Z</time>
      </trkpt>
      <trkpt lat="47.17215" lon="-1.61809">
        <ele>13.43</ele>
        <time>2020-05-31T17:50:04Z</time>
      </trkpt>
      <trkpt lat="47.17204" lon="-1.61817">
        <ele>14.28</ele>
        <time>2020-05-31T17:50:06Z</time>
      </trkpt>
      <trkpt lat="47.17194" lon="-1.61826">
        <ele>14.68</ele>
        <time>2020-05-31T17:50:08Z</time>
      </trkpt>
      <trkpt lat="47.17182" lon="-1.61837">
        <ele>15.26</ele>
        <time>2020-05-31T17:50:10Z</time>
      </trkpt>
      <trkpt lat="47.1717" lon="-1.61848">
        <ele>16.21</ele>
        <time>2020-05-31T17:50:12Z</time>
      </trkpt>
      <trkpt lat="47.1716" lon="-1.61858">
        <ele>16.99</ele>
        <time>2020-05-31T17:50:14Z</time>
      </trkpt>
      <trkpt lat="47.17149" lon="-1.61867">
        <ele>17.33</ele>
        <time>2020-05-31T17:50:16Z</time>
      </trkpt>
      <trkpt lat="47.17136" lon="-1.61878">
        <ele>16.9</ele>
        <time>2020-05-31T17:50:18Z</time>
      </trkpt>
      <trkpt lat="47.17127" lon="-1.61887">
        <ele>16.5</ele>
        <time>2020-05-31T17:50:20Z</time>
      </trkpt>
      <trkpt lat="47.17116" lon="-1.61897">
        <ele>16.72</ele>
        <time>2020-05-31T17:50:22Z</time>
      </trkpt>
      <trkpt lat="47.17106" lon="-1.61907">
        <ele>16.47</ele>
        <time>2020-05-31T17:50:24Z</time>
      </trkpt>
      <trkpt lat="47.17094" lon="-1.61919">
        <ele>16.67</ele>
        <time>2020-05-31T17:50:26Z</time>
      </trkpt>
      <trkpt lat="47.17084" lon="-1.61928">
        <ele>16.72</ele>
        <time>2020-05-31T17:50:28Z</time>
      </trkpt>
      <trkpt lat="47.17072" lon="-1.61939">
        <ele>16.08</ele>
        <time>2020-05-31T17:50:30Z</time>
      </trkpt>
      <trkpt lat="47.17061" lon="-1.61949">
        <ele>15.15</ele>
        <time>2020-05-31T17:50:32Z</time>
      </trkpt>
      <trkpt lat="47.17049" lon="-1.61962">
        <ele>14.31</ele>
        <time>2020-05-31T17:50:34Z</time>
      </trkpt>
      <trkpt lat="47.1704" lon="-1.61974">
        <ele>13.88</ele>
        <time>2020-05-31T17:50:36Z</time>
      </trkpt>
      <trkpt lat="47.17032" lon="-1.61986">
        <ele>14.5</ele>
        <time>2020-05-31T17:50:38Z</time>
      </trkpt>
      <trkpt lat="47.17023" lon="-1.62">
        <ele>14.64</ele>
        <time>2020-05-31T17:50:40Z</time>
      </trkpt>
      <trkpt lat="47.17013" lon="-1.62015">
        <ele>15.29</ele>
        <time>2020-05-31T17:50:42Z</time>
      </trkpt>
      <trkpt lat="47.17004" lon="-1.6203">
        <ele>16.2</ele>
        <time>2020-05-31T17:50:44Z</time>
      </trkpt>
      <trkpt lat="47.16996" lon="-1.62043">
        <ele>16.5</ele>
        <time>2020-05-31T17:50:46Z</time>
      </trkpt>
      <trkpt lat="47.16986" lon="-1.62059">
        <ele>16.05</ele>
        <time>2020-05-31T17:50:48Z</time>
      </trkpt>
      <trkpt lat="47.16979" lon="-1.62074">
        <ele>15.82</ele>
        <time>2020-05-31T17:50:50Z</time>
      </trkpt>
      <trkpt lat="47.1697" lon="-1.62091">
        <ele>16.6</ele>
        <time>2020-05-31T17:50:52Z</time>
      </trkpt>
      <trkpt lat="47.16963" lon="-1.62106">
        <ele>16.27</ele>
        <time>2020-05-31T17:50:54Z</time>
      </trkpt>
      <trkpt lat="47.16955" lon="-1.62121">
        <ele>16.02</ele>
        <time>2020-05-31T17:50:56Z</time>
      </trkpt>
      <trkpt lat="47.16947" lon="-1.62138">
        <ele>16.43</ele>
        <time>2020-05-31T17:50:58Z</time>
      </trkpt>
      <trkpt lat="47.1694" lon="-1.62153">
        <ele>16.59</ele>
        <time>2020-05-31T17:51:00Z</time>
      </trkpt>
      <trkpt lat="47.16931" lon="-1.6217">
        <ele>15.67</ele>
        <time>2020-05-31T17:51:02Z</time>
      </trkpt>
      <trkpt lat="47.16923" lon="-1.62187">
        <ele>14.29</ele>
        <time>2020-05-31T17:51:04Z</time>
      </trkpt>
      <trkpt lat="47.16916" lon="-1.62203">
        <ele>14.07</ele>
        <time>2020-05-31T17:51:06Z</time>
      </trkpt>
      <trkpt lat="47.16908" lon="-1.62217">
        <ele>15.25</ele>
        <time>2020-05-31T17:51:08Z</time>
      </trkpt>
      <trkpt lat="47.16899" lon="-1.62231">
        <ele>15.64</ele>
        <time>2020-05-31T17:51:10Z</time>
      </trkpt>
      <trkpt lat="47.16889" lon="-1.62244">
        <ele>15.52</ele>
        <time>2020-05-31T17:51:12Z</time>
      </trkpt>
      <trkpt lat="47.16879" lon="-1.62256">
        <ele>15.37</ele>
        <time>2020-05-31T17:51:14Z</time>
      </trkpt>
      <trkpt lat="47.16869" lon="-1.62268">
        <ele>15.44</ele>
        <time>2020-05-31T17:51:16Z</time>
      </trkpt>
      <trkpt lat="47.16859" lon="-1.6228">
        <ele>16.56</ele>
        <time>2020-05-31T17:51:18Z</time>
      </trkpt>
      <trkpt lat="47.16849" lon="-1.62292">
        <ele>17.27</ele>
        <time>2020-05-31T17:51:20Z</time>
      </trkpt>
      <trkpt lat="47.16839" lon="-1.62303">
        <ele>18.41</ele>
        <time>2020-05-31T17:51:22Z</time>
      </trkpt>
      <trkpt lat="47.16827" lon="-1.62316">
        <ele>18.51</ele>
        <time>2020-05-31T17:51:24Z</time>
      </trkpt>
      <trkpt lat="47.16818" lon="-1.62324">
        <ele>17.8</ele>
        <time>2020-05-31T17:51:26Z</time>
      </trkpt>
      <trkpt lat="47.16807" lon="-1.62333">
        <ele>16.71</ele>
        <time>2020-05-31T17:51:28Z</time>
      </trkpt>
      <trkpt lat="47.16794" lon="-1.62342">
        <ele>15.56</ele>
        <time>2020-05-31T17:51:30Z</time>
      </trkpt>
      <trkpt lat="47.16781" lon="-1.62349">
        <ele>15.31</ele>
        <time>2020-05-31T17:51:32Z</time>
      </trkpt>
      <trkpt lat="47.16768" lon="-1.62357">
        <ele>14.85</ele>
        <time>2020-05-31T17:51:34Z</time>
      </trkpt>
      <trkpt lat="47.16755" lon="-1.62366">
        <ele>14.07</ele>
        <time>2020-05-31T17:51:36Z</time>
      </trkpt>
      <trkpt lat="47.16744" lon="-1.62379">
        <ele>12.91</ele>
        <time>2020-05-31T17:51:38Z</time>
      </trkpt>
      <trkpt lat="47.16736" lon="-1.62396">
        <ele>11.09</ele>
        <time>2020-05-31T17:51:40Z</time>
      </trkpt>
      <trkpt lat="47.1673" lon="-1.62415">
        <ele>10.01</ele>
        <time>2020-05-31T17:51:42Z</time>
      </trkpt>
      <trkpt lat="47.16727" lon="-1.62434">
        <ele>9.36</ele>
        <time>2020-05-31T17:51:44Z</time>
      </trkpt>
      <trkpt lat="47.16724" lon="-1.62451">
        <ele>8.06</ele>
        <time>2020-05-31T17:51:46Z</time>
      </trkpt>
      <trkpt lat="47.1672" lon="-1.62468">
        <ele>7.98</ele>
        <time>2020-05-31T17:51:48Z</time>
      </trkpt>
      <trkpt lat="47.16715" lon="-1.62487">
        <ele>8.68</ele>
        <time>2020-05-31T17:51:50Z</time>
      </trkpt>
      <trkpt lat="47.16719" lon="-1.62501">
        <ele>10.61</ele>
        <time>2020-05-31T17:51:52Z</time>
      </trkpt>
      <trkpt lat="47.16729" lon="-1.62507">
        <ele>12.05</ele>
        <time>2020-05-31T17:51:54Z</time>
      </trkpt>
      <trkpt lat="47.16741" lon="-1.62512">
        <ele>13.13</ele>
        <time>2020-05-31T17:51:56Z</time>
      </trkpt>
      <trkpt lat="47.16754" lon="-1.62517">
        <ele>14.25</ele>
        <time>2020-05-31T17:51:58Z</time>
      </trkpt>
      <trkpt lat="47.16766" lon="-1.62523">
        <ele>15.27</ele>
        <time>2020-05-31T17:52:00Z</time>
      </trkpt>
      <trkpt lat="47.16777" lon="-1.62531">
        <ele>15.62</ele>
        <time>2020-05-31T17:52:02Z</time>
      </trkpt>
      <trkpt lat="47.16787" lon="-1.62538">
        <ele>15.88</ele>
        <time>2020-05-31T17:52:04Z</time>
      </trkpt>
      <trkpt lat="47.16796" lon="-1.62544">
        <ele>15.71</ele>
        <time>2020-05-31T17:52:06Z</time>
      </trkpt>
      <trkpt lat="47.16809" lon="-1.62551">
        <ele>15.15</ele>
        <time>2020-05-31T17:52:08Z</time>
      </trkpt>
      <trkpt lat="47.16819" lon="-1.62559">
        <ele>15.51</ele>
        <time>2020-05-31T17:52:10Z</time>
      </trkpt>
      <trkpt lat="47.16831" lon="-1.62571">
        <ele>17.03</ele>
        <time>2020-05-31T17:52:12Z</time>
      </trkpt>
      <trkpt lat="47.16833" lon="-1.62589">
        <ele>17.95</ele>
        <time>2020-05-31T17:52:14Z</time>
      </trkpt>
      <trkpt lat="47.16823" lon="-1.62604">
        <ele>18.11</ele>
        <time>2020-05-31T17:52:16Z</time>
      </trkpt>
      <trkpt lat="47.16814" lon="-1.62616">
        <ele>18.04</ele>
        <time>2020-05-31T17:52:18Z</time>
      </trkpt>
      <trkpt lat="47.16805" lon="-1.62631">
        <ele>18.12</ele>
        <time>2020-05-31T17:52:20Z</time>
      </trkpt>
      <trkpt lat="47.16796" lon="-1.62644">
        <ele>18.22</ele>
        <time>2020-05-31T17:52:22Z</time>
      </trkpt>
      <trkpt lat="47.16789" lon="-1.62656">
        <ele>18.11</ele>
        <time>2020-05-31T17:52:24Z</time>
      </trkpt>
      <trkpt lat="47.1678" lon="-1.62662">
        <ele>16.85</ele>
        <time>2020-05-31T17:52:28Z</time>
      </trkpt>
    </trkseg>
  </trk>
</gpx>